<?xml version="1.0" encoding="UTF-8" standalone="no" ?>
<gpx xmlns="http://www.topografix.com/GPX/1/1" xmlns:xsi="http://www.w3.org/2001/XMLSchema-instance" xsi:schemaLocation="http://www.topografix.com/GPX/1/1 http://www.topografix.com/GPX/1/1/gpx.xsd" version="1.1" creator="VisuGPX - https://www.visugpx.com">
  <metadata>
    <name>2020-04-10</name>
  </metadata>
  <trk>
    <name><![CDATA[2020-04-10_1]]></name>
    <trkseg>
      <trkpt lat="47.28714" lon="-2.1945">
        <ele>29.6</ele>
        <time>2020-04-10T09:06:50.000Z</time>
      </trkpt>
      <trkpt lat="47.2871" lon="-2.19465">
        <ele>29.8</ele>
        <time>2020-04-10T09:06:51.000Z</time>
      </trkpt>
      <trkpt lat="47.28708" lon="-2.19472">
        <ele>29.8</ele>
        <time>2020-04-10T09:06:52.000Z</time>
      </trkpt>
      <trkpt lat="47.28705" lon="-2.19479">
        <ele>29.8</ele>
        <time>2020-04-10T09:06:53.000Z</time>
      </trkpt>
      <trkpt lat="47.28703" lon="-2.19486">
        <ele>29.6</ele>
        <time>2020-04-10T09:06:54.000Z</time>
      </trkpt>
      <trkpt lat="47.287" lon="-2.19493">
        <ele>29.6</ele>
        <time>2020-04-10T09:06:55.000Z</time>
      </trkpt>
      <trkpt lat="47.28698" lon="-2.195">
        <ele>29.6</ele>
        <time>2020-04-10T09:06:56.000Z</time>
      </trkpt>
      <trkpt lat="47.28694" lon="-2.19507">
        <ele>29.6</ele>
        <time>2020-04-10T09:06:57.000Z</time>
      </trkpt>
      <trkpt lat="47.28691" lon="-2.19513">
        <ele>29.6</ele>
        <time>2020-04-10T09:06:58.000Z</time>
      </trkpt>
      <trkpt lat="47.28687" lon="-2.19519">
        <ele>29.6</ele>
        <time>2020-04-10T09:06:59.000Z</time>
      </trkpt>
      <trkpt lat="47.28684" lon="-2.19525">
        <ele>29.6</ele>
        <time>2020-04-10T09:07:00.000Z</time>
      </trkpt>
      <trkpt lat="47.2868" lon="-2.1953">
        <ele>29.4</ele>
        <time>2020-04-10T09:07:01.000Z</time>
      </trkpt>
      <trkpt lat="47.28676" lon="-2.19536">
        <ele>29.4</ele>
        <time>2020-04-10T09:07:02.000Z</time>
      </trkpt>
      <trkpt lat="47.28672" lon="-2.19541">
        <ele>29.2</ele>
        <time>2020-04-10T09:07:03.000Z</time>
      </trkpt>
      <trkpt lat="47.28667" lon="-2.19546">
        <ele>29.2</ele>
        <time>2020-04-10T09:07:04.000Z</time>
      </trkpt>
      <trkpt lat="47.28663" lon="-2.1955">
        <ele>29.2</ele>
        <time>2020-04-10T09:07:05.000Z</time>
      </trkpt>
      <trkpt lat="47.28658" lon="-2.19554">
        <ele>29.2</ele>
        <time>2020-04-10T09:07:06.000Z</time>
      </trkpt>
      <trkpt lat="47.28653" lon="-2.19557">
        <ele>29.2</ele>
        <time>2020-04-10T09:07:07.000Z</time>
      </trkpt>
      <trkpt lat="47.28648" lon="-2.19561">
        <ele>29.2</ele>
        <time>2020-04-10T09:07:08.000Z</time>
      </trkpt>
      <trkpt lat="47.28643" lon="-2.19563">
        <ele>29.2</ele>
        <time>2020-04-10T09:07:09.000Z</time>
      </trkpt>
      <trkpt lat="47.28638" lon="-2.19566">
        <ele>29.2</ele>
        <time>2020-04-10T09:07:10.000Z</time>
      </trkpt>
      <trkpt lat="47.28632" lon="-2.19569">
        <ele>29.2</ele>
        <time>2020-04-10T09:07:11.000Z</time>
      </trkpt>
      <trkpt lat="47.28627" lon="-2.19572">
        <ele>29.2</ele>
        <time>2020-04-10T09:07:12.000Z</time>
      </trkpt>
      <trkpt lat="47.28622" lon="-2.19574">
        <ele>29.2</ele>
        <time>2020-04-10T09:07:13.000Z</time>
      </trkpt>
      <trkpt lat="47.28617" lon="-2.19577">
        <ele>29.2</ele>
        <time>2020-04-10T09:07:14.000Z</time>
      </trkpt>
      <trkpt lat="47.28612" lon="-2.19579">
        <ele>29.2</ele>
        <time>2020-04-10T09:07:15.000Z</time>
      </trkpt>
      <trkpt lat="47.28607" lon="-2.19581">
        <ele>29</ele>
        <time>2020-04-10T09:07:16.000Z</time>
      </trkpt>
      <trkpt lat="47.28602" lon="-2.19583">
        <ele>29</ele>
        <time>2020-04-10T09:07:17.000Z</time>
      </trkpt>
      <trkpt lat="47.28597" lon="-2.19584">
        <ele>29</ele>
        <time>2020-04-10T09:07:18.000Z</time>
      </trkpt>
      <trkpt lat="47.28592" lon="-2.19584">
        <ele>28.8</ele>
        <time>2020-04-10T09:07:19.000Z</time>
      </trkpt>
      <trkpt lat="47.28588" lon="-2.19581">
        <ele>29</ele>
        <time>2020-04-10T09:07:20.000Z</time>
      </trkpt>
      <trkpt lat="47.28583" lon="-2.19579">
        <ele>28.8</ele>
        <time>2020-04-10T09:07:21.000Z</time>
      </trkpt>
      <trkpt lat="47.28578" lon="-2.1958">
        <ele>28.8</ele>
        <time>2020-04-10T09:07:22.000Z</time>
      </trkpt>
      <trkpt lat="47.28574" lon="-2.19581">
        <ele>28.8</ele>
        <time>2020-04-10T09:07:23.000Z</time>
      </trkpt>
      <trkpt lat="47.28569" lon="-2.19581">
        <ele>29</ele>
        <time>2020-04-10T09:07:24.000Z</time>
      </trkpt>
      <trkpt lat="47.28563" lon="-2.19582">
        <ele>29</ele>
        <time>2020-04-10T09:07:25.000Z</time>
      </trkpt>
      <trkpt lat="47.28558" lon="-2.19582">
        <ele>29</ele>
        <time>2020-04-10T09:07:26.000Z</time>
      </trkpt>
      <trkpt lat="47.28552" lon="-2.19582">
        <ele>29</ele>
        <time>2020-04-10T09:07:27.000Z</time>
      </trkpt>
      <trkpt lat="47.28547" lon="-2.19583">
        <ele>29.2</ele>
        <time>2020-04-10T09:07:28.000Z</time>
      </trkpt>
      <trkpt lat="47.28542" lon="-2.19583">
        <ele>29</ele>
        <time>2020-04-10T09:07:29.000Z</time>
      </trkpt>
      <trkpt lat="47.28536" lon="-2.19582">
        <ele>29</ele>
        <time>2020-04-10T09:07:30.000Z</time>
      </trkpt>
      <trkpt lat="47.28531" lon="-2.19579">
        <ele>29.2</ele>
        <time>2020-04-10T09:07:31.000Z</time>
      </trkpt>
      <trkpt lat="47.28526" lon="-2.19576">
        <ele>29.2</ele>
        <time>2020-04-10T09:07:32.000Z</time>
      </trkpt>
      <trkpt lat="47.28522" lon="-2.19571">
        <ele>29.2</ele>
        <time>2020-04-10T09:07:33.000Z</time>
      </trkpt>
      <trkpt lat="47.28518" lon="-2.19566">
        <ele>29</ele>
        <time>2020-04-10T09:07:34.000Z</time>
      </trkpt>
      <trkpt lat="47.28515" lon="-2.19561">
        <ele>29</ele>
        <time>2020-04-10T09:07:35.000Z</time>
      </trkpt>
      <trkpt lat="47.28511" lon="-2.19555">
        <ele>29</ele>
        <time>2020-04-10T09:07:36.000Z</time>
      </trkpt>
      <trkpt lat="47.28508" lon="-2.1955">
        <ele>29.2</ele>
        <time>2020-04-10T09:07:37.000Z</time>
      </trkpt>
      <trkpt lat="47.28505" lon="-2.19544">
        <ele>29.4</ele>
        <time>2020-04-10T09:07:38.000Z</time>
      </trkpt>
      <trkpt lat="47.28501" lon="-2.19538">
        <ele>29.6</ele>
        <time>2020-04-10T09:07:39.000Z</time>
      </trkpt>
      <trkpt lat="47.28498" lon="-2.19533">
        <ele>29.6</ele>
        <time>2020-04-10T09:07:40.000Z</time>
      </trkpt>
      <trkpt lat="47.28494" lon="-2.19528">
        <ele>29.6</ele>
        <time>2020-04-10T09:07:41.000Z</time>
      </trkpt>
      <trkpt lat="47.28491" lon="-2.19524">
        <ele>29.6</ele>
        <time>2020-04-10T09:07:42.000Z</time>
      </trkpt>
      <trkpt lat="47.28486" lon="-2.1952">
        <ele>29.2</ele>
        <time>2020-04-10T09:07:43.000Z</time>
      </trkpt>
      <trkpt lat="47.28482" lon="-2.19517">
        <ele>29.2</ele>
        <time>2020-04-10T09:07:44.000Z</time>
      </trkpt>
      <trkpt lat="47.28477" lon="-2.19515">
        <ele>29.2</ele>
        <time>2020-04-10T09:07:45.000Z</time>
      </trkpt>
      <trkpt lat="47.28473" lon="-2.19513">
        <ele>29.2</ele>
        <time>2020-04-10T09:07:46.000Z</time>
      </trkpt>
      <trkpt lat="47.28468" lon="-2.19511">
        <ele>29.4</ele>
        <time>2020-04-10T09:07:47.000Z</time>
      </trkpt>
      <trkpt lat="47.28464" lon="-2.19509">
        <ele>29.4</ele>
        <time>2020-04-10T09:07:48.000Z</time>
      </trkpt>
      <trkpt lat="47.28459" lon="-2.19508">
        <ele>29</ele>
        <time>2020-04-10T09:07:49.000Z</time>
      </trkpt>
      <trkpt lat="47.28455" lon="-2.19508">
        <ele>29.2</ele>
        <time>2020-04-10T09:07:50.000Z</time>
      </trkpt>
      <trkpt lat="47.28449" lon="-2.19509">
        <ele>29.2</ele>
        <time>2020-04-10T09:07:51.000Z</time>
      </trkpt>
      <trkpt lat="47.28444" lon="-2.19504">
        <ele>29.2</ele>
        <time>2020-04-10T09:07:52.000Z</time>
      </trkpt>
      <trkpt lat="47.28439" lon="-2.19502">
        <ele>29</ele>
        <time>2020-04-10T09:07:53.000Z</time>
      </trkpt>
      <trkpt lat="47.28433" lon="-2.19498">
        <ele>29.2</ele>
        <time>2020-04-10T09:07:54.000Z</time>
      </trkpt>
      <trkpt lat="47.28429" lon="-2.19495">
        <ele>29</ele>
        <time>2020-04-10T09:07:55.000Z</time>
      </trkpt>
      <trkpt lat="47.28427" lon="-2.19496">
        <ele>29.2</ele>
        <time>2020-04-10T09:07:56.000Z</time>
      </trkpt>
      <trkpt lat="47.28422" lon="-2.19496">
        <ele>29</ele>
        <time>2020-04-10T09:07:57.000Z</time>
      </trkpt>
      <trkpt lat="47.28417" lon="-2.19497">
        <ele>29</ele>
        <time>2020-04-10T09:07:58.000Z</time>
      </trkpt>
      <trkpt lat="47.28412" lon="-2.19495">
        <ele>28.8</ele>
        <time>2020-04-10T09:07:59.000Z</time>
      </trkpt>
      <trkpt lat="47.28405" lon="-2.19491">
        <ele>28.8</ele>
        <time>2020-04-10T09:08:00.000Z</time>
      </trkpt>
      <trkpt lat="47.28399" lon="-2.19484">
        <ele>28.8</ele>
        <time>2020-04-10T09:08:01.000Z</time>
      </trkpt>
      <trkpt lat="47.28392" lon="-2.19482">
        <ele>28.8</ele>
        <time>2020-04-10T09:08:02.000Z</time>
      </trkpt>
      <trkpt lat="47.28385" lon="-2.1948">
        <ele>28.6</ele>
        <time>2020-04-10T09:08:03.000Z</time>
      </trkpt>
      <trkpt lat="47.28375" lon="-2.19483">
        <ele>28.4</ele>
        <time>2020-04-10T09:08:04.000Z</time>
      </trkpt>
      <trkpt lat="47.2837" lon="-2.19481">
        <ele>28.6</ele>
        <time>2020-04-10T09:08:05.000Z</time>
      </trkpt>
      <trkpt lat="47.28364" lon="-2.19478">
        <ele>28.6</ele>
        <time>2020-04-10T09:08:06.000Z</time>
      </trkpt>
      <trkpt lat="47.28358" lon="-2.19471">
        <ele>28.8</ele>
        <time>2020-04-10T09:08:07.000Z</time>
      </trkpt>
      <trkpt lat="47.28353" lon="-2.19467">
        <ele>29</ele>
        <time>2020-04-10T09:08:08.000Z</time>
      </trkpt>
      <trkpt lat="47.28348" lon="-2.19462">
        <ele>28.8</ele>
        <time>2020-04-10T09:08:09.000Z</time>
      </trkpt>
      <trkpt lat="47.28343" lon="-2.19458">
        <ele>29</ele>
        <time>2020-04-10T09:08:10.000Z</time>
      </trkpt>
      <trkpt lat="47.28336" lon="-2.19456">
        <ele>29</ele>
        <time>2020-04-10T09:08:11.000Z</time>
      </trkpt>
      <trkpt lat="47.2833" lon="-2.19455">
        <ele>28.6</ele>
        <time>2020-04-10T09:08:12.000Z</time>
      </trkpt>
      <trkpt lat="47.28324" lon="-2.19453">
        <ele>28.6</ele>
        <time>2020-04-10T09:08:13.000Z</time>
      </trkpt>
      <trkpt lat="47.28318" lon="-2.19452">
        <ele>28.8</ele>
        <time>2020-04-10T09:08:14.000Z</time>
      </trkpt>
      <trkpt lat="47.28313" lon="-2.1945">
        <ele>28.8</ele>
        <time>2020-04-10T09:08:15.000Z</time>
      </trkpt>
      <trkpt lat="47.28308" lon="-2.19448">
        <ele>29.2</ele>
        <time>2020-04-10T09:08:16.000Z</time>
      </trkpt>
      <trkpt lat="47.28302" lon="-2.19446">
        <ele>29</ele>
        <time>2020-04-10T09:08:17.000Z</time>
      </trkpt>
      <trkpt lat="47.28297" lon="-2.19444">
        <ele>29.2</ele>
        <time>2020-04-10T09:08:18.000Z</time>
      </trkpt>
      <trkpt lat="47.28292" lon="-2.19441">
        <ele>29.2</ele>
        <time>2020-04-10T09:08:19.000Z</time>
      </trkpt>
      <trkpt lat="47.28286" lon="-2.19439">
        <ele>29.2</ele>
        <time>2020-04-10T09:08:20.000Z</time>
      </trkpt>
      <trkpt lat="47.28281" lon="-2.19439">
        <ele>29</ele>
        <time>2020-04-10T09:08:21.000Z</time>
      </trkpt>
      <trkpt lat="47.28275" lon="-2.19439">
        <ele>29</ele>
        <time>2020-04-10T09:08:22.000Z</time>
      </trkpt>
      <trkpt lat="47.28269" lon="-2.1944">
        <ele>29</ele>
        <time>2020-04-10T09:08:23.000Z</time>
      </trkpt>
      <trkpt lat="47.28266" lon="-2.19447">
        <ele>29</ele>
        <time>2020-04-10T09:08:24.000Z</time>
      </trkpt>
      <trkpt lat="47.28261" lon="-2.19453">
        <ele>29</ele>
        <time>2020-04-10T09:08:25.000Z</time>
      </trkpt>
      <trkpt lat="47.28255" lon="-2.19458">
        <ele>28.8</ele>
        <time>2020-04-10T09:08:26.000Z</time>
      </trkpt>
      <trkpt lat="47.2825" lon="-2.19464">
        <ele>28.8</ele>
        <time>2020-04-10T09:08:27.000Z</time>
      </trkpt>
      <trkpt lat="47.28244" lon="-2.19468">
        <ele>28.6</ele>
        <time>2020-04-10T09:08:28.000Z</time>
      </trkpt>
      <trkpt lat="47.28244" lon="-2.19468">
        <ele>28.6</ele>
        <time>2020-04-10T09:08:29.000Z</time>
      </trkpt>
      <trkpt lat="47.28239" lon="-2.19473">
        <ele>28.8</ele>
        <time>2020-04-10T09:08:30.000Z</time>
      </trkpt>
      <trkpt lat="47.28233" lon="-2.19477">
        <ele>28.8</ele>
        <time>2020-04-10T09:08:31.000Z</time>
      </trkpt>
      <trkpt lat="47.28228" lon="-2.19482">
        <ele>28.8</ele>
        <time>2020-04-10T09:08:32.000Z</time>
      </trkpt>
      <trkpt lat="47.28222" lon="-2.19485">
        <ele>28.8</ele>
        <time>2020-04-10T09:08:33.000Z</time>
      </trkpt>
      <trkpt lat="47.28217" lon="-2.19489">
        <ele>29</ele>
        <time>2020-04-10T09:08:34.000Z</time>
      </trkpt>
      <trkpt lat="47.28214" lon="-2.19497">
        <ele>29</ele>
        <time>2020-04-10T09:08:35.000Z</time>
      </trkpt>
      <trkpt lat="47.28209" lon="-2.195">
        <ele>29</ele>
        <time>2020-04-10T09:08:36.000Z</time>
      </trkpt>
      <trkpt lat="47.28204" lon="-2.19503">
        <ele>29</ele>
        <time>2020-04-10T09:08:37.000Z</time>
      </trkpt>
      <trkpt lat="47.28198" lon="-2.19507">
        <ele>29</ele>
        <time>2020-04-10T09:08:38.000Z</time>
      </trkpt>
      <trkpt lat="47.28193" lon="-2.1951">
        <ele>29</ele>
        <time>2020-04-10T09:08:39.000Z</time>
      </trkpt>
      <trkpt lat="47.28188" lon="-2.19514">
        <ele>29.2</ele>
        <time>2020-04-10T09:08:40.000Z</time>
      </trkpt>
      <trkpt lat="47.28183" lon="-2.19518">
        <ele>29.4</ele>
        <time>2020-04-10T09:08:41.000Z</time>
      </trkpt>
      <trkpt lat="47.28178" lon="-2.19522">
        <ele>29.2</ele>
        <time>2020-04-10T09:08:42.000Z</time>
      </trkpt>
      <trkpt lat="47.28173" lon="-2.19525">
        <ele>29.2</ele>
        <time>2020-04-10T09:08:43.000Z</time>
      </trkpt>
      <trkpt lat="47.28168" lon="-2.19529">
        <ele>29</ele>
        <time>2020-04-10T09:08:44.000Z</time>
      </trkpt>
      <trkpt lat="47.28163" lon="-2.19531">
        <ele>29</ele>
        <time>2020-04-10T09:08:45.000Z</time>
      </trkpt>
      <trkpt lat="47.28158" lon="-2.19535">
        <ele>29</ele>
        <time>2020-04-10T09:08:46.000Z</time>
      </trkpt>
      <trkpt lat="47.28154" lon="-2.1954">
        <ele>29.2</ele>
        <time>2020-04-10T09:08:47.000Z</time>
      </trkpt>
      <trkpt lat="47.28149" lon="-2.19544">
        <ele>29.2</ele>
        <time>2020-04-10T09:08:48.000Z</time>
      </trkpt>
      <trkpt lat="47.28144" lon="-2.19551">
        <ele>29</ele>
        <time>2020-04-10T09:08:49.000Z</time>
      </trkpt>
      <trkpt lat="47.28139" lon="-2.19557">
        <ele>29</ele>
        <time>2020-04-10T09:08:50.000Z</time>
      </trkpt>
      <trkpt lat="47.28134" lon="-2.19564">
        <ele>29.2</ele>
        <time>2020-04-10T09:08:51.000Z</time>
      </trkpt>
      <trkpt lat="47.2813" lon="-2.19571">
        <ele>28.8</ele>
        <time>2020-04-10T09:08:52.000Z</time>
      </trkpt>
      <trkpt lat="47.28126" lon="-2.19578">
        <ele>29</ele>
        <time>2020-04-10T09:08:53.000Z</time>
      </trkpt>
      <trkpt lat="47.28122" lon="-2.19584">
        <ele>29</ele>
        <time>2020-04-10T09:08:54.000Z</time>
      </trkpt>
      <trkpt lat="47.28118" lon="-2.19589">
        <ele>28.8</ele>
        <time>2020-04-10T09:08:55.000Z</time>
      </trkpt>
      <trkpt lat="47.28114" lon="-2.19594">
        <ele>29</ele>
        <time>2020-04-10T09:08:56.000Z</time>
      </trkpt>
      <trkpt lat="47.2811" lon="-2.19597">
        <ele>28.8</ele>
        <time>2020-04-10T09:08:57.000Z</time>
      </trkpt>
      <trkpt lat="47.28105" lon="-2.19602">
        <ele>29</ele>
        <time>2020-04-10T09:08:58.000Z</time>
      </trkpt>
      <trkpt lat="47.28101" lon="-2.19607">
        <ele>28.6</ele>
        <time>2020-04-10T09:08:59.000Z</time>
      </trkpt>
      <trkpt lat="47.28096" lon="-2.1961">
        <ele>29</ele>
        <time>2020-04-10T09:09:00.000Z</time>
      </trkpt>
      <trkpt lat="47.28091" lon="-2.19613">
        <ele>29</ele>
        <time>2020-04-10T09:09:01.000Z</time>
      </trkpt>
      <trkpt lat="47.28087" lon="-2.19615">
        <ele>29</ele>
        <time>2020-04-10T09:09:02.000Z</time>
      </trkpt>
      <trkpt lat="47.28082" lon="-2.19617">
        <ele>29.2</ele>
        <time>2020-04-10T09:09:03.000Z</time>
      </trkpt>
      <trkpt lat="47.28077" lon="-2.19619">
        <ele>29.2</ele>
        <time>2020-04-10T09:09:04.000Z</time>
      </trkpt>
      <trkpt lat="47.28071" lon="-2.19621">
        <ele>29.2</ele>
        <time>2020-04-10T09:09:05.000Z</time>
      </trkpt>
      <trkpt lat="47.28066" lon="-2.19623">
        <ele>29</ele>
        <time>2020-04-10T09:09:06.000Z</time>
      </trkpt>
      <trkpt lat="47.28061" lon="-2.19625">
        <ele>29</ele>
        <time>2020-04-10T09:09:07.000Z</time>
      </trkpt>
      <trkpt lat="47.28055" lon="-2.19626">
        <ele>29</ele>
        <time>2020-04-10T09:09:08.000Z</time>
      </trkpt>
      <trkpt lat="47.2805" lon="-2.19628">
        <ele>29</ele>
        <time>2020-04-10T09:09:09.000Z</time>
      </trkpt>
      <trkpt lat="47.28044" lon="-2.1963">
        <ele>28.8</ele>
        <time>2020-04-10T09:09:10.000Z</time>
      </trkpt>
      <trkpt lat="47.28039" lon="-2.19631">
        <ele>28.6</ele>
        <time>2020-04-10T09:09:11.000Z</time>
      </trkpt>
      <trkpt lat="47.28034" lon="-2.19633">
        <ele>28.6</ele>
        <time>2020-04-10T09:09:12.000Z</time>
      </trkpt>
      <trkpt lat="47.28028" lon="-2.19635">
        <ele>28.8</ele>
        <time>2020-04-10T09:09:13.000Z</time>
      </trkpt>
      <trkpt lat="47.28023" lon="-2.19636">
        <ele>28.8</ele>
        <time>2020-04-10T09:09:14.000Z</time>
      </trkpt>
      <trkpt lat="47.28017" lon="-2.19637">
        <ele>28.8</ele>
        <time>2020-04-10T09:09:15.000Z</time>
      </trkpt>
      <trkpt lat="47.28012" lon="-2.19639">
        <ele>28.8</ele>
        <time>2020-04-10T09:09:16.000Z</time>
      </trkpt>
      <trkpt lat="47.28007" lon="-2.1964">
        <ele>28.8</ele>
        <time>2020-04-10T09:09:17.000Z</time>
      </trkpt>
      <trkpt lat="47.28001" lon="-2.19641">
        <ele>28.6</ele>
        <time>2020-04-10T09:09:18.000Z</time>
      </trkpt>
      <trkpt lat="47.27996" lon="-2.19641">
        <ele>28.8</ele>
        <time>2020-04-10T09:09:19.000Z</time>
      </trkpt>
      <trkpt lat="47.27991" lon="-2.19643">
        <ele>28.6</ele>
        <time>2020-04-10T09:09:20.000Z</time>
      </trkpt>
      <trkpt lat="47.27986" lon="-2.19644">
        <ele>28.4</ele>
        <time>2020-04-10T09:09:21.000Z</time>
      </trkpt>
      <trkpt lat="47.27981" lon="-2.19646">
        <ele>28.6</ele>
        <time>2020-04-10T09:09:22.000Z</time>
      </trkpt>
      <trkpt lat="47.27976" lon="-2.19648">
        <ele>28.4</ele>
        <time>2020-04-10T09:09:23.000Z</time>
      </trkpt>
      <trkpt lat="47.2797" lon="-2.19649">
        <ele>28.6</ele>
        <time>2020-04-10T09:09:24.000Z</time>
      </trkpt>
      <trkpt lat="47.27965" lon="-2.19651">
        <ele>28.4</ele>
        <time>2020-04-10T09:09:25.000Z</time>
      </trkpt>
      <trkpt lat="47.27961" lon="-2.19653">
        <ele>28.6</ele>
        <time>2020-04-10T09:09:26.000Z</time>
      </trkpt>
      <trkpt lat="47.27956" lon="-2.19656">
        <ele>28.4</ele>
        <time>2020-04-10T09:09:27.000Z</time>
      </trkpt>
      <trkpt lat="47.27951" lon="-2.19658">
        <ele>28.4</ele>
        <time>2020-04-10T09:09:28.000Z</time>
      </trkpt>
      <trkpt lat="47.27947" lon="-2.1966">
        <ele>28.6</ele>
        <time>2020-04-10T09:09:29.000Z</time>
      </trkpt>
      <trkpt lat="47.27942" lon="-2.19662">
        <ele>28.6</ele>
        <time>2020-04-10T09:09:30.000Z</time>
      </trkpt>
      <trkpt lat="47.27937" lon="-2.19664">
        <ele>28.8</ele>
        <time>2020-04-10T09:09:31.000Z</time>
      </trkpt>
      <trkpt lat="47.27933" lon="-2.19666">
        <ele>28.8</ele>
        <time>2020-04-10T09:09:32.000Z</time>
      </trkpt>
      <trkpt lat="47.27929" lon="-2.19669">
        <ele>28.6</ele>
        <time>2020-04-10T09:09:33.000Z</time>
      </trkpt>
      <trkpt lat="47.27924" lon="-2.19672">
        <ele>28.4</ele>
        <time>2020-04-10T09:09:34.000Z</time>
      </trkpt>
      <trkpt lat="47.2792" lon="-2.19675">
        <ele>28.6</ele>
        <time>2020-04-10T09:09:35.000Z</time>
      </trkpt>
      <trkpt lat="47.27916" lon="-2.1968">
        <ele>28.4</ele>
        <time>2020-04-10T09:09:36.000Z</time>
      </trkpt>
      <trkpt lat="47.27913" lon="-2.19684">
        <ele>28.8</ele>
        <time>2020-04-10T09:09:37.000Z</time>
      </trkpt>
      <trkpt lat="47.2791" lon="-2.19689">
        <ele>28.8</ele>
        <time>2020-04-10T09:09:38.000Z</time>
      </trkpt>
      <trkpt lat="47.27908" lon="-2.19696">
        <ele>28.8</ele>
        <time>2020-04-10T09:09:39.000Z</time>
      </trkpt>
      <trkpt lat="47.27907" lon="-2.19702">
        <ele>28.8</ele>
        <time>2020-04-10T09:09:40.000Z</time>
      </trkpt>
      <trkpt lat="47.27905" lon="-2.19709">
        <ele>28.6</ele>
        <time>2020-04-10T09:09:41.000Z</time>
      </trkpt>
      <trkpt lat="47.27904" lon="-2.19715">
        <ele>29</ele>
        <time>2020-04-10T09:09:42.000Z</time>
      </trkpt>
      <trkpt lat="47.27903" lon="-2.19722">
        <ele>28.8</ele>
        <time>2020-04-10T09:09:43.000Z</time>
      </trkpt>
      <trkpt lat="47.27902" lon="-2.19729">
        <ele>28.8</ele>
        <time>2020-04-10T09:09:44.000Z</time>
      </trkpt>
      <trkpt lat="47.279" lon="-2.19735">
        <ele>28.8</ele>
        <time>2020-04-10T09:09:45.000Z</time>
      </trkpt>
      <trkpt lat="47.27898" lon="-2.19741">
        <ele>28.6</ele>
        <time>2020-04-10T09:09:46.000Z</time>
      </trkpt>
      <trkpt lat="47.27897" lon="-2.19748">
        <ele>28.8</ele>
        <time>2020-04-10T09:09:47.000Z</time>
      </trkpt>
      <trkpt lat="47.27896" lon="-2.19755">
        <ele>28.6</ele>
        <time>2020-04-10T09:09:48.000Z</time>
      </trkpt>
      <trkpt lat="47.27895" lon="-2.19761">
        <ele>28.8</ele>
        <time>2020-04-10T09:09:49.000Z</time>
      </trkpt>
      <trkpt lat="47.27894" lon="-2.19768">
        <ele>28.6</ele>
        <time>2020-04-10T09:09:50.000Z</time>
      </trkpt>
      <trkpt lat="47.27892" lon="-2.19775">
        <ele>28.6</ele>
        <time>2020-04-10T09:09:51.000Z</time>
      </trkpt>
      <trkpt lat="47.27891" lon="-2.19782">
        <ele>28.6</ele>
        <time>2020-04-10T09:09:52.000Z</time>
      </trkpt>
      <trkpt lat="47.27889" lon="-2.19789">
        <ele>28.6</ele>
        <time>2020-04-10T09:09:53.000Z</time>
      </trkpt>
      <trkpt lat="47.27888" lon="-2.19795">
        <ele>28.6</ele>
        <time>2020-04-10T09:09:54.000Z</time>
      </trkpt>
      <trkpt lat="47.27887" lon="-2.19802">
        <ele>28.8</ele>
        <time>2020-04-10T09:09:55.000Z</time>
      </trkpt>
      <trkpt lat="47.27885" lon="-2.19809">
        <ele>28.8</ele>
        <time>2020-04-10T09:09:56.000Z</time>
      </trkpt>
      <trkpt lat="47.27884" lon="-2.19816">
        <ele>28.6</ele>
        <time>2020-04-10T09:09:57.000Z</time>
      </trkpt>
      <trkpt lat="47.27883" lon="-2.19822">
        <ele>28.4</ele>
        <time>2020-04-10T09:09:58.000Z</time>
      </trkpt>
      <trkpt lat="47.27882" lon="-2.19828">
        <ele>28.6</ele>
        <time>2020-04-10T09:09:59.000Z</time>
      </trkpt>
      <trkpt lat="47.27881" lon="-2.1984">
        <ele>28.4</ele>
        <time>2020-04-10T09:10:01.000Z</time>
      </trkpt>
      <trkpt lat="47.27879" lon="-2.19846">
        <ele>28.2</ele>
        <time>2020-04-10T09:10:02.000Z</time>
      </trkpt>
      <trkpt lat="47.27876" lon="-2.1985">
        <ele>28.2</ele>
        <time>2020-04-10T09:10:03.000Z</time>
      </trkpt>
      <trkpt lat="47.27872" lon="-2.19851">
        <ele>28.4</ele>
        <time>2020-04-10T09:10:04.000Z</time>
      </trkpt>
      <trkpt lat="47.27868" lon="-2.19852">
        <ele>28.4</ele>
        <time>2020-04-10T09:10:05.000Z</time>
      </trkpt>
      <trkpt lat="47.27864" lon="-2.19852">
        <ele>28.6</ele>
        <time>2020-04-10T09:10:06.000Z</time>
      </trkpt>
      <trkpt lat="47.27859" lon="-2.19852">
        <ele>28.6</ele>
        <time>2020-04-10T09:10:07.000Z</time>
      </trkpt>
      <trkpt lat="47.27855" lon="-2.19851">
        <ele>28.6</ele>
        <time>2020-04-10T09:10:08.000Z</time>
      </trkpt>
      <trkpt lat="47.27851" lon="-2.19851">
        <ele>28.6</ele>
        <time>2020-04-10T09:10:09.000Z</time>
      </trkpt>
      <trkpt lat="47.27846" lon="-2.19852">
        <ele>28.8</ele>
        <time>2020-04-10T09:10:10.000Z</time>
      </trkpt>
      <trkpt lat="47.27842" lon="-2.19852">
        <ele>28.8</ele>
        <time>2020-04-10T09:10:11.000Z</time>
      </trkpt>
      <trkpt lat="47.27837" lon="-2.19854">
        <ele>29.2</ele>
        <time>2020-04-10T09:10:12.000Z</time>
      </trkpt>
      <trkpt lat="47.27832" lon="-2.19854">
        <ele>29</ele>
        <time>2020-04-10T09:10:13.000Z</time>
      </trkpt>
      <trkpt lat="47.27828" lon="-2.19854">
        <ele>28.8</ele>
        <time>2020-04-10T09:10:14.000Z</time>
      </trkpt>
      <trkpt lat="47.27823" lon="-2.19855">
        <ele>28.8</ele>
        <time>2020-04-10T09:10:15.000Z</time>
      </trkpt>
      <trkpt lat="47.27818" lon="-2.19856">
        <ele>28.6</ele>
        <time>2020-04-10T09:10:16.000Z</time>
      </trkpt>
      <trkpt lat="47.27809" lon="-2.19859">
        <ele>28.4</ele>
        <time>2020-04-10T09:10:17.000Z</time>
      </trkpt>
      <trkpt lat="47.27804" lon="-2.19859">
        <ele>28.2</ele>
        <time>2020-04-10T09:10:18.000Z</time>
      </trkpt>
      <trkpt lat="47.27799" lon="-2.19861">
        <ele>28.6</ele>
        <time>2020-04-10T09:10:19.000Z</time>
      </trkpt>
      <trkpt lat="47.27794" lon="-2.19862">
        <ele>28.6</ele>
        <time>2020-04-10T09:10:20.000Z</time>
      </trkpt>
      <trkpt lat="47.27789" lon="-2.19863">
        <ele>28.4</ele>
        <time>2020-04-10T09:10:21.000Z</time>
      </trkpt>
      <trkpt lat="47.27784" lon="-2.19864">
        <ele>28.6</ele>
        <time>2020-04-10T09:10:22.000Z</time>
      </trkpt>
      <trkpt lat="47.2778" lon="-2.19866">
        <ele>28.6</ele>
        <time>2020-04-10T09:10:23.000Z</time>
      </trkpt>
      <trkpt lat="47.27775" lon="-2.19867">
        <ele>28.4</ele>
        <time>2020-04-10T09:10:24.000Z</time>
      </trkpt>
      <trkpt lat="47.27771" lon="-2.19869">
        <ele>28.6</ele>
        <time>2020-04-10T09:10:25.000Z</time>
      </trkpt>
      <trkpt lat="47.27766" lon="-2.19872">
        <ele>28.8</ele>
        <time>2020-04-10T09:10:26.000Z</time>
      </trkpt>
      <trkpt lat="47.27761" lon="-2.19874">
        <ele>28.8</ele>
        <time>2020-04-10T09:10:27.000Z</time>
      </trkpt>
      <trkpt lat="47.27757" lon="-2.19875">
        <ele>28.8</ele>
        <time>2020-04-10T09:10:28.000Z</time>
      </trkpt>
      <trkpt lat="47.27752" lon="-2.19877">
        <ele>28.8</ele>
        <time>2020-04-10T09:10:29.000Z</time>
      </trkpt>
      <trkpt lat="47.27747" lon="-2.19879">
        <ele>28.8</ele>
        <time>2020-04-10T09:10:30.000Z</time>
      </trkpt>
      <trkpt lat="47.27742" lon="-2.19882">
        <ele>28.8</ele>
        <time>2020-04-10T09:10:31.000Z</time>
      </trkpt>
      <trkpt lat="47.27737" lon="-2.19883">
        <ele>29</ele>
        <time>2020-04-10T09:10:32.000Z</time>
      </trkpt>
      <trkpt lat="47.27733" lon="-2.19885">
        <ele>29</ele>
        <time>2020-04-10T09:10:34.000Z</time>
      </trkpt>
      <trkpt lat="47.27723" lon="-2.19888">
        <ele>29.2</ele>
        <time>2020-04-10T09:10:35.000Z</time>
      </trkpt>
      <trkpt lat="47.27718" lon="-2.19889">
        <ele>29.2</ele>
        <time>2020-04-10T09:10:36.000Z</time>
      </trkpt>
      <trkpt lat="47.27713" lon="-2.19891">
        <ele>28.8</ele>
        <time>2020-04-10T09:10:37.000Z</time>
      </trkpt>
      <trkpt lat="47.27709" lon="-2.19892">
        <ele>28.8</ele>
        <time>2020-04-10T09:10:38.000Z</time>
      </trkpt>
      <trkpt lat="47.27704" lon="-2.19894">
        <ele>28.8</ele>
        <time>2020-04-10T09:10:39.000Z</time>
      </trkpt>
      <trkpt lat="47.27699" lon="-2.19895">
        <ele>28.6</ele>
        <time>2020-04-10T09:10:40.000Z</time>
      </trkpt>
      <trkpt lat="47.27695" lon="-2.19896">
        <ele>28.4</ele>
        <time>2020-04-10T09:10:41.000Z</time>
      </trkpt>
      <trkpt lat="47.2769" lon="-2.19897">
        <ele>29</ele>
        <time>2020-04-10T09:10:42.000Z</time>
      </trkpt>
      <trkpt lat="47.27685" lon="-2.19899">
        <ele>28.8</ele>
        <time>2020-04-10T09:10:43.000Z</time>
      </trkpt>
      <trkpt lat="47.2768" lon="-2.199">
        <ele>28.8</ele>
        <time>2020-04-10T09:10:44.000Z</time>
      </trkpt>
      <trkpt lat="47.27675" lon="-2.19901">
        <ele>29</ele>
        <time>2020-04-10T09:10:45.000Z</time>
      </trkpt>
      <trkpt lat="47.2767" lon="-2.19902">
        <ele>28.8</ele>
        <time>2020-04-10T09:10:46.000Z</time>
      </trkpt>
      <trkpt lat="47.27665" lon="-2.19904">
        <ele>29</ele>
        <time>2020-04-10T09:10:47.000Z</time>
      </trkpt>
      <trkpt lat="47.2766" lon="-2.19905">
        <ele>29.2</ele>
        <time>2020-04-10T09:10:48.000Z</time>
      </trkpt>
      <trkpt lat="47.27655" lon="-2.19906">
        <ele>29.2</ele>
        <time>2020-04-10T09:10:49.000Z</time>
      </trkpt>
      <trkpt lat="47.27649" lon="-2.19907">
        <ele>29.2</ele>
        <time>2020-04-10T09:10:50.000Z</time>
      </trkpt>
      <trkpt lat="47.27644" lon="-2.19908">
        <ele>29</ele>
        <time>2020-04-10T09:10:51.000Z</time>
      </trkpt>
      <trkpt lat="47.27638" lon="-2.19909">
        <ele>28.8</ele>
        <time>2020-04-10T09:10:52.000Z</time>
      </trkpt>
      <trkpt lat="47.27633" lon="-2.1991">
        <ele>28.8</ele>
        <time>2020-04-10T09:10:53.000Z</time>
      </trkpt>
      <trkpt lat="47.27628" lon="-2.19911">
        <ele>28.8</ele>
        <time>2020-04-10T09:10:54.000Z</time>
      </trkpt>
      <trkpt lat="47.27623" lon="-2.19912">
        <ele>28.8</ele>
        <time>2020-04-10T09:10:55.000Z</time>
      </trkpt>
      <trkpt lat="47.27617" lon="-2.19914">
        <ele>29</ele>
        <time>2020-04-10T09:10:56.000Z</time>
      </trkpt>
      <trkpt lat="47.27612" lon="-2.19915">
        <ele>28.8</ele>
        <time>2020-04-10T09:10:57.000Z</time>
      </trkpt>
      <trkpt lat="47.27607" lon="-2.19916">
        <ele>28.8</ele>
        <time>2020-04-10T09:10:58.000Z</time>
      </trkpt>
      <trkpt lat="47.27602" lon="-2.19917">
        <ele>28.8</ele>
        <time>2020-04-10T09:10:59.000Z</time>
      </trkpt>
      <trkpt lat="47.27597" lon="-2.19918">
        <ele>28.8</ele>
        <time>2020-04-10T09:11:00.000Z</time>
      </trkpt>
      <trkpt lat="47.27592" lon="-2.19919">
        <ele>28.8</ele>
        <time>2020-04-10T09:11:01.000Z</time>
      </trkpt>
      <trkpt lat="47.27587" lon="-2.1992">
        <ele>28.8</ele>
        <time>2020-04-10T09:11:02.000Z</time>
      </trkpt>
      <trkpt lat="47.27583" lon="-2.19922">
        <ele>28.8</ele>
        <time>2020-04-10T09:11:03.000Z</time>
      </trkpt>
      <trkpt lat="47.27578" lon="-2.19925">
        <ele>28.8</ele>
        <time>2020-04-10T09:11:04.000Z</time>
      </trkpt>
      <trkpt lat="47.27574" lon="-2.19927">
        <ele>28.8</ele>
        <time>2020-04-10T09:11:05.000Z</time>
      </trkpt>
      <trkpt lat="47.27569" lon="-2.19929">
        <ele>28.6</ele>
        <time>2020-04-10T09:11:06.000Z</time>
      </trkpt>
      <trkpt lat="47.27565" lon="-2.1993">
        <ele>28.6</ele>
        <time>2020-04-10T09:11:07.000Z</time>
      </trkpt>
      <trkpt lat="47.27562" lon="-2.19932">
        <ele>28.6</ele>
        <time>2020-04-10T09:11:08.000Z</time>
      </trkpt>
      <trkpt lat="47.2756" lon="-2.19935">
        <ele>28.6</ele>
        <time>2020-04-10T09:11:09.000Z</time>
      </trkpt>
      <trkpt lat="47.27559" lon="-2.19937">
        <ele>28.8</ele>
        <time>2020-04-10T09:11:10.000Z</time>
      </trkpt>
      <trkpt lat="47.2756" lon="-2.19937">
        <ele>28.8</ele>
        <time>2020-04-10T09:11:11.000Z</time>
      </trkpt>
      <trkpt lat="47.27554" lon="-2.19934">
        <ele>28.6</ele>
        <time>2020-04-10T09:11:12.000Z</time>
      </trkpt>
      <trkpt lat="47.27548" lon="-2.19934">
        <ele>28.8</ele>
        <time>2020-04-10T09:11:13.000Z</time>
      </trkpt>
      <trkpt lat="47.27538" lon="-2.19936">
        <ele>28.8</ele>
        <time>2020-04-10T09:11:14.000Z</time>
      </trkpt>
      <trkpt lat="47.27529" lon="-2.19937">
        <ele>28.8</ele>
        <time>2020-04-10T09:11:15.000Z</time>
      </trkpt>
      <trkpt lat="47.27524" lon="-2.19943">
        <ele>28.6</ele>
        <time>2020-04-10T09:11:16.000Z</time>
      </trkpt>
      <trkpt lat="47.27519" lon="-2.19944">
        <ele>28.6</ele>
        <time>2020-04-10T09:11:17.000Z</time>
      </trkpt>
      <trkpt lat="47.27514" lon="-2.19946">
        <ele>28.8</ele>
        <time>2020-04-10T09:11:18.000Z</time>
      </trkpt>
      <trkpt lat="47.27509" lon="-2.19947">
        <ele>28.6</ele>
        <time>2020-04-10T09:11:19.000Z</time>
      </trkpt>
      <trkpt lat="47.27505" lon="-2.19949">
        <ele>28.8</ele>
        <time>2020-04-10T09:11:20.000Z</time>
      </trkpt>
      <trkpt lat="47.275" lon="-2.19951">
        <ele>28.8</ele>
        <time>2020-04-10T09:11:21.000Z</time>
      </trkpt>
      <trkpt lat="47.27496" lon="-2.19952">
        <ele>28.8</ele>
        <time>2020-04-10T09:11:22.000Z</time>
      </trkpt>
      <trkpt lat="47.27492" lon="-2.19954">
        <ele>28.6</ele>
        <time>2020-04-10T09:11:23.000Z</time>
      </trkpt>
      <trkpt lat="47.27487" lon="-2.19955">
        <ele>28.4</ele>
        <time>2020-04-10T09:11:24.000Z</time>
      </trkpt>
      <trkpt lat="47.27483" lon="-2.19956">
        <ele>28.4</ele>
        <time>2020-04-10T09:11:25.000Z</time>
      </trkpt>
      <trkpt lat="47.27479" lon="-2.19955">
        <ele>28</ele>
        <time>2020-04-10T09:11:26.000Z</time>
      </trkpt>
      <trkpt lat="47.27476" lon="-2.19951">
        <ele>28.4</ele>
        <time>2020-04-10T09:11:27.000Z</time>
      </trkpt>
      <trkpt lat="47.27476" lon="-2.19947">
        <ele>28.2</ele>
        <time>2020-04-10T09:11:28.000Z</time>
      </trkpt>
      <trkpt lat="47.27476" lon="-2.19942">
        <ele>28.4</ele>
        <time>2020-04-10T09:11:29.000Z</time>
      </trkpt>
      <trkpt lat="47.27475" lon="-2.19937">
        <ele>28.6</ele>
        <time>2020-04-10T09:11:30.000Z</time>
      </trkpt>
      <trkpt lat="47.27475" lon="-2.19932">
        <ele>28.6</ele>
        <time>2020-04-10T09:11:31.000Z</time>
      </trkpt>
      <trkpt lat="47.27475" lon="-2.19926">
        <ele>28.8</ele>
        <time>2020-04-10T09:11:32.000Z</time>
      </trkpt>
      <trkpt lat="47.27474" lon="-2.1992">
        <ele>29</ele>
        <time>2020-04-10T09:11:33.000Z</time>
      </trkpt>
      <trkpt lat="47.27473" lon="-2.19914">
        <ele>28.8</ele>
        <time>2020-04-10T09:11:34.000Z</time>
      </trkpt>
      <trkpt lat="47.27472" lon="-2.19909">
        <ele>28.8</ele>
        <time>2020-04-10T09:11:35.000Z</time>
      </trkpt>
      <trkpt lat="47.27471" lon="-2.19903">
        <ele>28.8</ele>
        <time>2020-04-10T09:11:36.000Z</time>
      </trkpt>
      <trkpt lat="47.2747" lon="-2.19897">
        <ele>28.8</ele>
        <time>2020-04-10T09:11:37.000Z</time>
      </trkpt>
      <trkpt lat="47.27469" lon="-2.19891">
        <ele>28.8</ele>
        <time>2020-04-10T09:11:38.000Z</time>
      </trkpt>
      <trkpt lat="47.27467" lon="-2.19885">
        <ele>28.8</ele>
        <time>2020-04-10T09:11:39.000Z</time>
      </trkpt>
      <trkpt lat="47.27466" lon="-2.19879">
        <ele>28.8</ele>
        <time>2020-04-10T09:11:40.000Z</time>
      </trkpt>
      <trkpt lat="47.27465" lon="-2.19873">
        <ele>28.8</ele>
        <time>2020-04-10T09:11:41.000Z</time>
      </trkpt>
      <trkpt lat="47.27463" lon="-2.19868">
        <ele>28.6</ele>
        <time>2020-04-10T09:11:42.000Z</time>
      </trkpt>
      <trkpt lat="47.27462" lon="-2.19862">
        <ele>28.6</ele>
        <time>2020-04-10T09:11:43.000Z</time>
      </trkpt>
      <trkpt lat="47.2746" lon="-2.19856">
        <ele>28.8</ele>
        <time>2020-04-10T09:11:44.000Z</time>
      </trkpt>
      <trkpt lat="47.27459" lon="-2.19851">
        <ele>28.8</ele>
        <time>2020-04-10T09:11:45.000Z</time>
      </trkpt>
      <trkpt lat="47.27458" lon="-2.19846">
        <ele>28.8</ele>
        <time>2020-04-10T09:11:46.000Z</time>
      </trkpt>
      <trkpt lat="47.27456" lon="-2.19841">
        <ele>28.8</ele>
        <time>2020-04-10T09:11:47.000Z</time>
      </trkpt>
      <trkpt lat="47.27454" lon="-2.19837">
        <ele>29</ele>
        <time>2020-04-10T09:11:48.000Z</time>
      </trkpt>
      <trkpt lat="47.27451" lon="-2.19833">
        <ele>28.8</ele>
        <time>2020-04-10T09:11:49.000Z</time>
      </trkpt>
      <trkpt lat="47.27448" lon="-2.1983">
        <ele>28.6</ele>
        <time>2020-04-10T09:11:50.000Z</time>
      </trkpt>
      <trkpt lat="47.27444" lon="-2.19826">
        <ele>28.6</ele>
        <time>2020-04-10T09:11:51.000Z</time>
      </trkpt>
      <trkpt lat="47.2744" lon="-2.19822">
        <ele>28.4</ele>
        <time>2020-04-10T09:11:52.000Z</time>
      </trkpt>
      <trkpt lat="47.27436" lon="-2.1982">
        <ele>28.4</ele>
        <time>2020-04-10T09:11:53.000Z</time>
      </trkpt>
      <trkpt lat="47.27432" lon="-2.19819">
        <ele>28.4</ele>
        <time>2020-04-10T09:11:54.000Z</time>
      </trkpt>
      <trkpt lat="47.27427" lon="-2.19819">
        <ele>28.4</ele>
        <time>2020-04-10T09:11:55.000Z</time>
      </trkpt>
      <trkpt lat="47.27422" lon="-2.19818">
        <ele>28.4</ele>
        <time>2020-04-10T09:11:56.000Z</time>
      </trkpt>
      <trkpt lat="47.27417" lon="-2.19818">
        <ele>28.4</ele>
        <time>2020-04-10T09:11:57.000Z</time>
      </trkpt>
      <trkpt lat="47.27412" lon="-2.19818">
        <ele>28.4</ele>
        <time>2020-04-10T09:11:58.000Z</time>
      </trkpt>
      <trkpt lat="47.27407" lon="-2.19818">
        <ele>28.4</ele>
        <time>2020-04-10T09:11:59.000Z</time>
      </trkpt>
      <trkpt lat="47.27402" lon="-2.19819">
        <ele>28.4</ele>
        <time>2020-04-10T09:12:00.000Z</time>
      </trkpt>
      <trkpt lat="47.27397" lon="-2.19821">
        <ele>28.4</ele>
        <time>2020-04-10T09:12:01.000Z</time>
      </trkpt>
      <trkpt lat="47.27393" lon="-2.19822">
        <ele>28.6</ele>
        <time>2020-04-10T09:12:02.000Z</time>
      </trkpt>
      <trkpt lat="47.27388" lon="-2.19823">
        <ele>28.8</ele>
        <time>2020-04-10T09:12:03.000Z</time>
      </trkpt>
      <trkpt lat="47.27383" lon="-2.19825">
        <ele>28.6</ele>
        <time>2020-04-10T09:12:04.000Z</time>
      </trkpt>
      <trkpt lat="47.27378" lon="-2.19826">
        <ele>28.8</ele>
        <time>2020-04-10T09:12:05.000Z</time>
      </trkpt>
      <trkpt lat="47.27373" lon="-2.19827">
        <ele>28.6</ele>
        <time>2020-04-10T09:12:06.000Z</time>
      </trkpt>
      <trkpt lat="47.27368" lon="-2.19829">
        <ele>28.8</ele>
        <time>2020-04-10T09:12:07.000Z</time>
      </trkpt>
      <trkpt lat="47.27363" lon="-2.1983">
        <ele>28.8</ele>
        <time>2020-04-10T09:12:08.000Z</time>
      </trkpt>
      <trkpt lat="47.27358" lon="-2.19831">
        <ele>29</ele>
        <time>2020-04-10T09:12:09.000Z</time>
      </trkpt>
      <trkpt lat="47.27353" lon="-2.19832">
        <ele>29</ele>
        <time>2020-04-10T09:12:10.000Z</time>
      </trkpt>
      <trkpt lat="47.27348" lon="-2.19834">
        <ele>28.8</ele>
        <time>2020-04-10T09:12:11.000Z</time>
      </trkpt>
      <trkpt lat="47.27343" lon="-2.19835">
        <ele>29</ele>
        <time>2020-04-10T09:12:12.000Z</time>
      </trkpt>
      <trkpt lat="47.27338" lon="-2.19837">
        <ele>28.8</ele>
        <time>2020-04-10T09:12:13.000Z</time>
      </trkpt>
      <trkpt lat="47.27333" lon="-2.19838">
        <ele>28.8</ele>
        <time>2020-04-10T09:12:14.000Z</time>
      </trkpt>
      <trkpt lat="47.27328" lon="-2.19839">
        <ele>29</ele>
        <time>2020-04-10T09:12:15.000Z</time>
      </trkpt>
      <trkpt lat="47.27323" lon="-2.1984">
        <ele>29</ele>
        <time>2020-04-10T09:12:16.000Z</time>
      </trkpt>
      <trkpt lat="47.27318" lon="-2.19842">
        <ele>29.2</ele>
        <time>2020-04-10T09:12:17.000Z</time>
      </trkpt>
      <trkpt lat="47.27313" lon="-2.19844">
        <ele>29</ele>
        <time>2020-04-10T09:12:18.000Z</time>
      </trkpt>
      <trkpt lat="47.27309" lon="-2.19846">
        <ele>28.8</ele>
        <time>2020-04-10T09:12:19.000Z</time>
      </trkpt>
      <trkpt lat="47.27304" lon="-2.19847">
        <ele>29</ele>
        <time>2020-04-10T09:12:20.000Z</time>
      </trkpt>
      <trkpt lat="47.27299" lon="-2.19849">
        <ele>28.8</ele>
        <time>2020-04-10T09:12:21.000Z</time>
      </trkpt>
      <trkpt lat="47.27294" lon="-2.1985">
        <ele>29</ele>
        <time>2020-04-10T09:12:22.000Z</time>
      </trkpt>
      <trkpt lat="47.27289" lon="-2.19852">
        <ele>29</ele>
        <time>2020-04-10T09:12:23.000Z</time>
      </trkpt>
      <trkpt lat="47.27284" lon="-2.19853">
        <ele>29</ele>
        <time>2020-04-10T09:12:24.000Z</time>
      </trkpt>
      <trkpt lat="47.27279" lon="-2.19854">
        <ele>29</ele>
        <time>2020-04-10T09:12:25.000Z</time>
      </trkpt>
      <trkpt lat="47.27274" lon="-2.19855">
        <ele>28.8</ele>
        <time>2020-04-10T09:12:26.000Z</time>
      </trkpt>
      <trkpt lat="47.27269" lon="-2.19857">
        <ele>28.6</ele>
        <time>2020-04-10T09:12:27.000Z</time>
      </trkpt>
      <trkpt lat="47.27264" lon="-2.19859">
        <ele>28.8</ele>
        <time>2020-04-10T09:12:28.000Z</time>
      </trkpt>
      <trkpt lat="47.27259" lon="-2.19862">
        <ele>28.8</ele>
        <time>2020-04-10T09:12:29.000Z</time>
      </trkpt>
      <trkpt lat="47.27254" lon="-2.19866">
        <ele>28.8</ele>
        <time>2020-04-10T09:12:30.000Z</time>
      </trkpt>
      <trkpt lat="47.2725" lon="-2.1987">
        <ele>28.8</ele>
        <time>2020-04-10T09:12:31.000Z</time>
      </trkpt>
      <trkpt lat="47.27247" lon="-2.19875">
        <ele>28.6</ele>
        <time>2020-04-10T09:12:32.000Z</time>
      </trkpt>
      <trkpt lat="47.27244" lon="-2.1988">
        <ele>28.8</ele>
        <time>2020-04-10T09:12:33.000Z</time>
      </trkpt>
      <trkpt lat="47.27241" lon="-2.19885">
        <ele>28.8</ele>
        <time>2020-04-10T09:12:34.000Z</time>
      </trkpt>
      <trkpt lat="47.27238" lon="-2.19892">
        <ele>29</ele>
        <time>2020-04-10T09:12:35.000Z</time>
      </trkpt>
      <trkpt lat="47.27236" lon="-2.19898">
        <ele>28.8</ele>
        <time>2020-04-10T09:12:36.000Z</time>
      </trkpt>
      <trkpt lat="47.27232" lon="-2.19902">
        <ele>28.6</ele>
        <time>2020-04-10T09:12:37.000Z</time>
      </trkpt>
      <trkpt lat="47.27227" lon="-2.19905">
        <ele>28.6</ele>
        <time>2020-04-10T09:12:38.000Z</time>
      </trkpt>
      <trkpt lat="47.27223" lon="-2.19905">
        <ele>28.6</ele>
        <time>2020-04-10T09:12:39.000Z</time>
      </trkpt>
      <trkpt lat="47.27218" lon="-2.19905">
        <ele>28.6</ele>
        <time>2020-04-10T09:12:40.000Z</time>
      </trkpt>
      <trkpt lat="47.27213" lon="-2.19904">
        <ele>28.6</ele>
        <time>2020-04-10T09:12:41.000Z</time>
      </trkpt>
      <trkpt lat="47.27208" lon="-2.19902">
        <ele>28.8</ele>
        <time>2020-04-10T09:12:42.000Z</time>
      </trkpt>
      <trkpt lat="47.27204" lon="-2.199">
        <ele>29</ele>
        <time>2020-04-10T09:12:43.000Z</time>
      </trkpt>
      <trkpt lat="47.27199" lon="-2.19899">
        <ele>29</ele>
        <time>2020-04-10T09:12:44.000Z</time>
      </trkpt>
      <trkpt lat="47.27194" lon="-2.19897">
        <ele>29.2</ele>
        <time>2020-04-10T09:12:45.000Z</time>
      </trkpt>
      <trkpt lat="47.27189" lon="-2.19896">
        <ele>29</ele>
        <time>2020-04-10T09:12:46.000Z</time>
      </trkpt>
      <trkpt lat="47.27185" lon="-2.19894">
        <ele>29.2</ele>
        <time>2020-04-10T09:12:47.000Z</time>
      </trkpt>
      <trkpt lat="47.2718" lon="-2.19892">
        <ele>29</ele>
        <time>2020-04-10T09:12:48.000Z</time>
      </trkpt>
      <trkpt lat="47.27176" lon="-2.1989">
        <ele>29</ele>
        <time>2020-04-10T09:12:49.000Z</time>
      </trkpt>
      <trkpt lat="47.27171" lon="-2.19889">
        <ele>29</ele>
        <time>2020-04-10T09:12:50.000Z</time>
      </trkpt>
      <trkpt lat="47.27168" lon="-2.19889">
        <ele>28.8</ele>
        <time>2020-04-10T09:12:51.000Z</time>
      </trkpt>
      <trkpt lat="47.27165" lon="-2.19889">
        <ele>29</ele>
        <time>2020-04-10T09:12:52.000Z</time>
      </trkpt>
      <trkpt lat="47.2716" lon="-2.19889">
        <ele>29</ele>
        <time>2020-04-10T09:12:53.000Z</time>
      </trkpt>
      <trkpt lat="47.27155" lon="-2.19891">
        <ele>29.6</ele>
        <time>2020-04-10T09:12:54.000Z</time>
      </trkpt>
      <trkpt lat="47.2715" lon="-2.19891">
        <ele>29.4</ele>
        <time>2020-04-10T09:12:55.000Z</time>
      </trkpt>
      <trkpt lat="47.27144" lon="-2.19891">
        <ele>29.2</ele>
        <time>2020-04-10T09:12:56.000Z</time>
      </trkpt>
      <trkpt lat="47.27139" lon="-2.19891">
        <ele>29.4</ele>
        <time>2020-04-10T09:12:57.000Z</time>
      </trkpt>
      <trkpt lat="47.27134" lon="-2.19891">
        <ele>29</ele>
        <time>2020-04-10T09:12:58.000Z</time>
      </trkpt>
      <trkpt lat="47.27129" lon="-2.19892">
        <ele>28.8</ele>
        <time>2020-04-10T09:12:59.000Z</time>
      </trkpt>
      <trkpt lat="47.27123" lon="-2.19893">
        <ele>29</ele>
        <time>2020-04-10T09:13:00.000Z</time>
      </trkpt>
      <trkpt lat="47.27118" lon="-2.19894">
        <ele>29</ele>
        <time>2020-04-10T09:13:01.000Z</time>
      </trkpt>
      <trkpt lat="47.27113" lon="-2.19896">
        <ele>28.8</ele>
        <time>2020-04-10T09:13:02.000Z</time>
      </trkpt>
      <trkpt lat="47.27108" lon="-2.19898">
        <ele>29</ele>
        <time>2020-04-10T09:13:03.000Z</time>
      </trkpt>
      <trkpt lat="47.27103" lon="-2.19901">
        <ele>29</ele>
        <time>2020-04-10T09:13:04.000Z</time>
      </trkpt>
      <trkpt lat="47.27098" lon="-2.19904">
        <ele>28.8</ele>
        <time>2020-04-10T09:13:05.000Z</time>
      </trkpt>
      <trkpt lat="47.27093" lon="-2.19907">
        <ele>28.6</ele>
        <time>2020-04-10T09:13:06.000Z</time>
      </trkpt>
      <trkpt lat="47.27093" lon="-2.19907">
        <ele>28.6</ele>
        <time>2020-04-10T09:13:07.000Z</time>
      </trkpt>
      <trkpt lat="47.27087" lon="-2.1991">
        <ele>28.6</ele>
        <time>2020-04-10T09:13:08.000Z</time>
      </trkpt>
      <trkpt lat="47.27082" lon="-2.19913">
        <ele>28.4</ele>
        <time>2020-04-10T09:13:09.000Z</time>
      </trkpt>
      <trkpt lat="47.27072" lon="-2.19919">
        <ele>28.4</ele>
        <time>2020-04-10T09:13:10.000Z</time>
      </trkpt>
      <trkpt lat="47.27067" lon="-2.19922">
        <ele>28.6</ele>
        <time>2020-04-10T09:13:11.000Z</time>
      </trkpt>
      <trkpt lat="47.27062" lon="-2.19926">
        <ele>28.6</ele>
        <time>2020-04-10T09:13:12.000Z</time>
      </trkpt>
      <trkpt lat="47.27062" lon="-2.19926">
        <ele>28.6</ele>
        <time>2020-04-10T09:13:13.000Z</time>
      </trkpt>
      <trkpt lat="47.27057" lon="-2.1993">
        <ele>28.8</ele>
        <time>2020-04-10T09:13:14.000Z</time>
      </trkpt>
      <trkpt lat="47.27052" lon="-2.19934">
        <ele>28.4</ele>
        <time>2020-04-10T09:13:15.000Z</time>
      </trkpt>
      <trkpt lat="47.27048" lon="-2.19938">
        <ele>28.4</ele>
        <time>2020-04-10T09:13:16.000Z</time>
      </trkpt>
      <trkpt lat="47.27043" lon="-2.19941">
        <ele>28.6</ele>
        <time>2020-04-10T09:13:17.000Z</time>
      </trkpt>
      <trkpt lat="47.27038" lon="-2.19944">
        <ele>28.6</ele>
        <time>2020-04-10T09:13:18.000Z</time>
      </trkpt>
      <trkpt lat="47.27033" lon="-2.19947">
        <ele>28.6</ele>
        <time>2020-04-10T09:13:19.000Z</time>
      </trkpt>
      <trkpt lat="47.27028" lon="-2.1995">
        <ele>28.6</ele>
        <time>2020-04-10T09:13:20.000Z</time>
      </trkpt>
      <trkpt lat="47.27023" lon="-2.19952">
        <ele>28.4</ele>
        <time>2020-04-10T09:13:21.000Z</time>
      </trkpt>
      <trkpt lat="47.27018" lon="-2.19954">
        <ele>28.8</ele>
        <time>2020-04-10T09:13:22.000Z</time>
      </trkpt>
      <trkpt lat="47.27014" lon="-2.19958">
        <ele>28.6</ele>
        <time>2020-04-10T09:13:23.000Z</time>
      </trkpt>
      <trkpt lat="47.2701" lon="-2.19961">
        <ele>28.8</ele>
        <time>2020-04-10T09:13:24.000Z</time>
      </trkpt>
      <trkpt lat="47.27007" lon="-2.19966">
        <ele>28.4</ele>
        <time>2020-04-10T09:13:25.000Z</time>
      </trkpt>
      <trkpt lat="47.27007" lon="-2.19973">
        <ele>28.4</ele>
        <time>2020-04-10T09:13:26.000Z</time>
      </trkpt>
      <trkpt lat="47.27008" lon="-2.19978">
        <ele>28.4</ele>
        <time>2020-04-10T09:13:27.000Z</time>
      </trkpt>
      <trkpt lat="47.27011" lon="-2.19982">
        <ele>28.4</ele>
        <time>2020-04-10T09:13:28.000Z</time>
      </trkpt>
      <trkpt lat="47.27016" lon="-2.19985">
        <ele>28.4</ele>
        <time>2020-04-10T09:13:29.000Z</time>
      </trkpt>
      <trkpt lat="47.27021" lon="-2.19985">
        <ele>28.4</ele>
        <time>2020-04-10T09:13:30.000Z</time>
      </trkpt>
      <trkpt lat="47.27025" lon="-2.19986">
        <ele>28.4</ele>
        <time>2020-04-10T09:13:31.000Z</time>
      </trkpt>
      <trkpt lat="47.2703" lon="-2.19986">
        <ele>28.6</ele>
        <time>2020-04-10T09:13:32.000Z</time>
      </trkpt>
      <trkpt lat="47.27035" lon="-2.19985">
        <ele>28.6</ele>
        <time>2020-04-10T09:13:33.000Z</time>
      </trkpt>
      <trkpt lat="47.2704" lon="-2.19985">
        <ele>28.4</ele>
        <time>2020-04-10T09:13:34.000Z</time>
      </trkpt>
      <trkpt lat="47.27044" lon="-2.19984">
        <ele>28.4</ele>
        <time>2020-04-10T09:13:35.000Z</time>
      </trkpt>
      <trkpt lat="47.27049" lon="-2.19983">
        <ele>28.4</ele>
        <time>2020-04-10T09:13:36.000Z</time>
      </trkpt>
      <trkpt lat="47.27053" lon="-2.19981">
        <ele>28.4</ele>
        <time>2020-04-10T09:13:37.000Z</time>
      </trkpt>
      <trkpt lat="47.27058" lon="-2.19978">
        <ele>28.4</ele>
        <time>2020-04-10T09:13:38.000Z</time>
      </trkpt>
      <trkpt lat="47.27062" lon="-2.19976">
        <ele>28.6</ele>
        <time>2020-04-10T09:13:39.000Z</time>
      </trkpt>
      <trkpt lat="47.27066" lon="-2.19973">
        <ele>28.6</ele>
        <time>2020-04-10T09:13:40.000Z</time>
      </trkpt>
      <trkpt lat="47.2707" lon="-2.19972">
        <ele>28.6</ele>
        <time>2020-04-10T09:13:41.000Z</time>
      </trkpt>
      <trkpt lat="47.27074" lon="-2.1997">
        <ele>28.8</ele>
        <time>2020-04-10T09:13:42.000Z</time>
      </trkpt>
      <trkpt lat="47.27078" lon="-2.19971">
        <ele>28.8</ele>
        <time>2020-04-10T09:13:43.000Z</time>
      </trkpt>
      <trkpt lat="47.2708" lon="-2.19973">
        <ele>28.8</ele>
        <time>2020-04-10T09:13:44.000Z</time>
      </trkpt>
      <trkpt lat="47.27082" lon="-2.19977">
        <ele>28.8</ele>
        <time>2020-04-10T09:13:45.000Z</time>
      </trkpt>
      <trkpt lat="47.27084" lon="-2.19982">
        <ele>28.8</ele>
        <time>2020-04-10T09:13:46.000Z</time>
      </trkpt>
      <trkpt lat="47.27085" lon="-2.19987">
        <ele>28.8</ele>
        <time>2020-04-10T09:13:47.000Z</time>
      </trkpt>
      <trkpt lat="47.27085" lon="-2.19993">
        <ele>28.8</ele>
        <time>2020-04-10T09:13:48.000Z</time>
      </trkpt>
      <trkpt lat="47.27086" lon="-2.19999">
        <ele>29</ele>
        <time>2020-04-10T09:13:49.000Z</time>
      </trkpt>
      <trkpt lat="47.27086" lon="-2.20005">
        <ele>28.8</ele>
        <time>2020-04-10T09:13:50.000Z</time>
      </trkpt>
      <trkpt lat="47.27087" lon="-2.20011">
        <ele>28.8</ele>
        <time>2020-04-10T09:13:51.000Z</time>
      </trkpt>
      <trkpt lat="47.27088" lon="-2.20018">
        <ele>29</ele>
        <time>2020-04-10T09:13:52.000Z</time>
      </trkpt>
      <trkpt lat="47.27088" lon="-2.20025">
        <ele>29</ele>
        <time>2020-04-10T09:13:53.000Z</time>
      </trkpt>
      <trkpt lat="47.27089" lon="-2.20031">
        <ele>29.2</ele>
        <time>2020-04-10T09:13:54.000Z</time>
      </trkpt>
      <trkpt lat="47.27089" lon="-2.20038">
        <ele>29.2</ele>
        <time>2020-04-10T09:13:55.000Z</time>
      </trkpt>
      <trkpt lat="47.2709" lon="-2.20044">
        <ele>29</ele>
        <time>2020-04-10T09:13:56.000Z</time>
      </trkpt>
      <trkpt lat="47.2709" lon="-2.2005">
        <ele>29</ele>
        <time>2020-04-10T09:13:57.000Z</time>
      </trkpt>
      <trkpt lat="47.2709" lon="-2.20057">
        <ele>29.2</ele>
        <time>2020-04-10T09:13:58.000Z</time>
      </trkpt>
      <trkpt lat="47.27091" lon="-2.20064">
        <ele>29</ele>
        <time>2020-04-10T09:13:59.000Z</time>
      </trkpt>
      <trkpt lat="47.27091" lon="-2.2007">
        <ele>29</ele>
        <time>2020-04-10T09:14:00.000Z</time>
      </trkpt>
      <trkpt lat="47.27092" lon="-2.20075">
        <ele>29</ele>
        <time>2020-04-10T09:14:01.000Z</time>
      </trkpt>
      <trkpt lat="47.27092" lon="-2.20082">
        <ele>29.2</ele>
        <time>2020-04-10T09:14:02.000Z</time>
      </trkpt>
      <trkpt lat="47.27093" lon="-2.20089">
        <ele>29.2</ele>
        <time>2020-04-10T09:14:03.000Z</time>
      </trkpt>
      <trkpt lat="47.27093" lon="-2.20097">
        <ele>29.2</ele>
        <time>2020-04-10T09:14:04.000Z</time>
      </trkpt>
      <trkpt lat="47.27093" lon="-2.20104">
        <ele>29.2</ele>
        <time>2020-04-10T09:14:05.000Z</time>
      </trkpt>
      <trkpt lat="47.27094" lon="-2.20111">
        <ele>29</ele>
        <time>2020-04-10T09:14:06.000Z</time>
      </trkpt>
      <trkpt lat="47.27094" lon="-2.20118">
        <ele>29</ele>
        <time>2020-04-10T09:14:07.000Z</time>
      </trkpt>
      <trkpt lat="47.27094" lon="-2.20125">
        <ele>29</ele>
        <time>2020-04-10T09:14:08.000Z</time>
      </trkpt>
      <trkpt lat="47.27095" lon="-2.20132">
        <ele>28.8</ele>
        <time>2020-04-10T09:14:09.000Z</time>
      </trkpt>
      <trkpt lat="47.27095" lon="-2.20138">
        <ele>29</ele>
        <time>2020-04-10T09:14:10.000Z</time>
      </trkpt>
      <trkpt lat="47.27096" lon="-2.20146">
        <ele>29</ele>
        <time>2020-04-10T09:14:11.000Z</time>
      </trkpt>
      <trkpt lat="47.27099" lon="-2.20152">
        <ele>28.8</ele>
        <time>2020-04-10T09:14:12.000Z</time>
      </trkpt>
      <trkpt lat="47.27102" lon="-2.20158">
        <ele>29</ele>
        <time>2020-04-10T09:14:13.000Z</time>
      </trkpt>
      <trkpt lat="47.27107" lon="-2.2016">
        <ele>29.2</ele>
        <time>2020-04-10T09:14:14.000Z</time>
      </trkpt>
      <trkpt lat="47.27112" lon="-2.20161">
        <ele>29.6</ele>
        <time>2020-04-10T09:14:15.000Z</time>
      </trkpt>
      <trkpt lat="47.27117" lon="-2.20161">
        <ele>29.8</ele>
        <time>2020-04-10T09:14:16.000Z</time>
      </trkpt>
      <trkpt lat="47.27122" lon="-2.2016">
        <ele>30</ele>
        <time>2020-04-10T09:14:17.000Z</time>
      </trkpt>
      <trkpt lat="47.27126" lon="-2.2016">
        <ele>30.4</ele>
        <time>2020-04-10T09:14:18.000Z</time>
      </trkpt>
      <trkpt lat="47.27131" lon="-2.20159">
        <ele>30.8</ele>
        <time>2020-04-10T09:14:19.000Z</time>
      </trkpt>
      <trkpt lat="47.27136" lon="-2.20158">
        <ele>31</ele>
        <time>2020-04-10T09:14:20.000Z</time>
      </trkpt>
      <trkpt lat="47.2714" lon="-2.20156">
        <ele>31.2</ele>
        <time>2020-04-10T09:14:21.000Z</time>
      </trkpt>
      <trkpt lat="47.27144" lon="-2.20154">
        <ele>31.6</ele>
        <time>2020-04-10T09:14:22.000Z</time>
      </trkpt>
      <trkpt lat="47.27148" lon="-2.20151">
        <ele>31.8</ele>
        <time>2020-04-10T09:14:23.000Z</time>
      </trkpt>
      <trkpt lat="47.27152" lon="-2.20147">
        <ele>31.8</ele>
        <time>2020-04-10T09:14:24.000Z</time>
      </trkpt>
      <trkpt lat="47.27155" lon="-2.20144">
        <ele>32</ele>
        <time>2020-04-10T09:14:25.000Z</time>
      </trkpt>
      <trkpt lat="47.27159" lon="-2.20141">
        <ele>31.8</ele>
        <time>2020-04-10T09:14:26.000Z</time>
      </trkpt>
      <trkpt lat="47.27164" lon="-2.20138">
        <ele>31.8</ele>
        <time>2020-04-10T09:14:27.000Z</time>
      </trkpt>
      <trkpt lat="47.27168" lon="-2.20136">
        <ele>31.6</ele>
        <time>2020-04-10T09:14:28.000Z</time>
      </trkpt>
      <trkpt lat="47.27173" lon="-2.20134">
        <ele>31.4</ele>
        <time>2020-04-10T09:14:29.000Z</time>
      </trkpt>
      <trkpt lat="47.27178" lon="-2.20132">
        <ele>31.2</ele>
        <time>2020-04-10T09:14:30.000Z</time>
      </trkpt>
      <trkpt lat="47.27183" lon="-2.2013">
        <ele>31</ele>
        <time>2020-04-10T09:14:31.000Z</time>
      </trkpt>
      <trkpt lat="47.27188" lon="-2.20129">
        <ele>31</ele>
        <time>2020-04-10T09:14:32.000Z</time>
      </trkpt>
      <trkpt lat="47.27193" lon="-2.20128">
        <ele>30.6</ele>
        <time>2020-04-10T09:14:33.000Z</time>
      </trkpt>
      <trkpt lat="47.27198" lon="-2.20126">
        <ele>30.6</ele>
        <time>2020-04-10T09:14:34.000Z</time>
      </trkpt>
      <trkpt lat="47.27203" lon="-2.20125">
        <ele>30.6</ele>
        <time>2020-04-10T09:14:35.000Z</time>
      </trkpt>
      <trkpt lat="47.27209" lon="-2.20123">
        <ele>30.2</ele>
        <time>2020-04-10T09:14:36.000Z</time>
      </trkpt>
      <trkpt lat="47.27215" lon="-2.20122">
        <ele>30.2</ele>
        <time>2020-04-10T09:14:37.000Z</time>
      </trkpt>
      <trkpt lat="47.2722" lon="-2.2012">
        <ele>29.8</ele>
        <time>2020-04-10T09:14:38.000Z</time>
      </trkpt>
      <trkpt lat="47.27225" lon="-2.20118">
        <ele>29.8</ele>
        <time>2020-04-10T09:14:39.000Z</time>
      </trkpt>
      <trkpt lat="47.27231" lon="-2.20117">
        <ele>30</ele>
        <time>2020-04-10T09:14:40.000Z</time>
      </trkpt>
      <trkpt lat="47.27235" lon="-2.20115">
        <ele>29.6</ele>
        <time>2020-04-10T09:14:41.000Z</time>
      </trkpt>
      <trkpt lat="47.2724" lon="-2.20113">
        <ele>29.4</ele>
        <time>2020-04-10T09:14:42.000Z</time>
      </trkpt>
      <trkpt lat="47.27245" lon="-2.20112">
        <ele>29.2</ele>
        <time>2020-04-10T09:14:43.000Z</time>
      </trkpt>
      <trkpt lat="47.27249" lon="-2.20111">
        <ele>29</ele>
        <time>2020-04-10T09:14:44.000Z</time>
      </trkpt>
      <trkpt lat="47.27253" lon="-2.20112">
        <ele>28.8</ele>
        <time>2020-04-10T09:14:45.000Z</time>
      </trkpt>
      <trkpt lat="47.27257" lon="-2.20115">
        <ele>28.6</ele>
        <time>2020-04-10T09:14:46.000Z</time>
      </trkpt>
      <trkpt lat="47.2726" lon="-2.2012">
        <ele>28.4</ele>
        <time>2020-04-10T09:14:47.000Z</time>
      </trkpt>
      <trkpt lat="47.27262" lon="-2.20125">
        <ele>28.4</ele>
        <time>2020-04-10T09:14:48.000Z</time>
      </trkpt>
      <trkpt lat="47.27264" lon="-2.20132">
        <ele>28.4</ele>
        <time>2020-04-10T09:14:49.000Z</time>
      </trkpt>
      <trkpt lat="47.27265" lon="-2.20138">
        <ele>28.4</ele>
        <time>2020-04-10T09:14:50.000Z</time>
      </trkpt>
      <trkpt lat="47.27266" lon="-2.20145">
        <ele>28.6</ele>
        <time>2020-04-10T09:14:51.000Z</time>
      </trkpt>
      <trkpt lat="47.27267" lon="-2.20152">
        <ele>28.4</ele>
        <time>2020-04-10T09:14:52.000Z</time>
      </trkpt>
      <trkpt lat="47.27268" lon="-2.20158">
        <ele>28.2</ele>
        <time>2020-04-10T09:14:53.000Z</time>
      </trkpt>
      <trkpt lat="47.2727" lon="-2.20167">
        <ele>28.4</ele>
        <time>2020-04-10T09:14:54.000Z</time>
      </trkpt>
      <trkpt lat="47.27271" lon="-2.2017">
        <ele>28.6</ele>
        <time>2020-04-10T09:14:55.000Z</time>
      </trkpt>
      <trkpt lat="47.27273" lon="-2.20174">
        <ele>28.6</ele>
        <time>2020-04-10T09:14:56.000Z</time>
      </trkpt>
      <trkpt lat="47.27275" lon="-2.20182">
        <ele>28.4</ele>
        <time>2020-04-10T09:14:57.000Z</time>
      </trkpt>
      <trkpt lat="47.27277" lon="-2.20189">
        <ele>28.2</ele>
        <time>2020-04-10T09:14:58.000Z</time>
      </trkpt>
      <trkpt lat="47.27277" lon="-2.20196">
        <ele>28.2</ele>
        <time>2020-04-10T09:14:59.000Z</time>
      </trkpt>
      <trkpt lat="47.27276" lon="-2.20205">
        <ele>28.4</ele>
        <time>2020-04-10T09:15:00.000Z</time>
      </trkpt>
      <trkpt lat="47.27274" lon="-2.20212">
        <ele>28.4</ele>
        <time>2020-04-10T09:15:01.000Z</time>
      </trkpt>
      <trkpt lat="47.27271" lon="-2.20217">
        <ele>28.4</ele>
        <time>2020-04-10T09:15:02.000Z</time>
      </trkpt>
      <trkpt lat="47.27267" lon="-2.20221">
        <ele>28.4</ele>
        <time>2020-04-10T09:15:03.000Z</time>
      </trkpt>
      <trkpt lat="47.27262" lon="-2.20224">
        <ele>28.4</ele>
        <time>2020-04-10T09:15:04.000Z</time>
      </trkpt>
      <trkpt lat="47.27257" lon="-2.20225">
        <ele>28.4</ele>
        <time>2020-04-10T09:15:05.000Z</time>
      </trkpt>
      <trkpt lat="47.27252" lon="-2.20226">
        <ele>28.4</ele>
        <time>2020-04-10T09:15:06.000Z</time>
      </trkpt>
      <trkpt lat="47.27247" lon="-2.20225">
        <ele>28.4</ele>
        <time>2020-04-10T09:15:07.000Z</time>
      </trkpt>
      <trkpt lat="47.27242" lon="-2.20225">
        <ele>28.6</ele>
        <time>2020-04-10T09:15:09.000Z</time>
      </trkpt>
      <trkpt lat="47.27232" lon="-2.20226">
        <ele>28.6</ele>
        <time>2020-04-10T09:15:10.000Z</time>
      </trkpt>
      <trkpt lat="47.27227" lon="-2.20228">
        <ele>28.8</ele>
        <time>2020-04-10T09:15:11.000Z</time>
      </trkpt>
      <trkpt lat="47.27222" lon="-2.2023">
        <ele>28.8</ele>
        <time>2020-04-10T09:15:12.000Z</time>
      </trkpt>
      <trkpt lat="47.27217" lon="-2.20232">
        <ele>28.8</ele>
        <time>2020-04-10T09:15:13.000Z</time>
      </trkpt>
      <trkpt lat="47.27212" lon="-2.20233">
        <ele>29</ele>
        <time>2020-04-10T09:15:14.000Z</time>
      </trkpt>
      <trkpt lat="47.27207" lon="-2.20235">
        <ele>29</ele>
        <time>2020-04-10T09:15:15.000Z</time>
      </trkpt>
      <trkpt lat="47.27202" lon="-2.20237">
        <ele>29</ele>
        <time>2020-04-10T09:15:16.000Z</time>
      </trkpt>
      <trkpt lat="47.27197" lon="-2.20239">
        <ele>29</ele>
        <time>2020-04-10T09:15:17.000Z</time>
      </trkpt>
      <trkpt lat="47.27192" lon="-2.20241">
        <ele>28.8</ele>
        <time>2020-04-10T09:15:18.000Z</time>
      </trkpt>
      <trkpt lat="47.27186" lon="-2.20242">
        <ele>29</ele>
        <time>2020-04-10T09:15:19.000Z</time>
      </trkpt>
      <trkpt lat="47.27182" lon="-2.20243">
        <ele>28.8</ele>
        <time>2020-04-10T09:15:20.000Z</time>
      </trkpt>
      <trkpt lat="47.27176" lon="-2.20245">
        <ele>28.8</ele>
        <time>2020-04-10T09:15:21.000Z</time>
      </trkpt>
      <trkpt lat="47.27171" lon="-2.20247">
        <ele>29</ele>
        <time>2020-04-10T09:15:22.000Z</time>
      </trkpt>
      <trkpt lat="47.27166" lon="-2.20248">
        <ele>28.8</ele>
        <time>2020-04-10T09:15:23.000Z</time>
      </trkpt>
      <trkpt lat="47.27161" lon="-2.2025">
        <ele>29</ele>
        <time>2020-04-10T09:15:24.000Z</time>
      </trkpt>
      <trkpt lat="47.27156" lon="-2.20251">
        <ele>29</ele>
        <time>2020-04-10T09:15:25.000Z</time>
      </trkpt>
      <trkpt lat="47.2715" lon="-2.20252">
        <ele>28.8</ele>
        <time>2020-04-10T09:15:26.000Z</time>
      </trkpt>
      <trkpt lat="47.27145" lon="-2.20253">
        <ele>29</ele>
        <time>2020-04-10T09:15:27.000Z</time>
      </trkpt>
      <trkpt lat="47.2714" lon="-2.20254">
        <ele>29</ele>
        <time>2020-04-10T09:15:28.000Z</time>
      </trkpt>
      <trkpt lat="47.27135" lon="-2.20255">
        <ele>29</ele>
        <time>2020-04-10T09:15:29.000Z</time>
      </trkpt>
      <trkpt lat="47.2713" lon="-2.20256">
        <ele>29</ele>
        <time>2020-04-10T09:15:30.000Z</time>
      </trkpt>
      <trkpt lat="47.27125" lon="-2.20257">
        <ele>29</ele>
        <time>2020-04-10T09:15:31.000Z</time>
      </trkpt>
      <trkpt lat="47.2712" lon="-2.20258">
        <ele>29</ele>
        <time>2020-04-10T09:15:32.000Z</time>
      </trkpt>
      <trkpt lat="47.27115" lon="-2.20259">
        <ele>29</ele>
        <time>2020-04-10T09:15:33.000Z</time>
      </trkpt>
      <trkpt lat="47.2711" lon="-2.20259">
        <ele>29</ele>
        <time>2020-04-10T09:15:34.000Z</time>
      </trkpt>
      <trkpt lat="47.27105" lon="-2.2026">
        <ele>28.8</ele>
        <time>2020-04-10T09:15:35.000Z</time>
      </trkpt>
      <trkpt lat="47.271" lon="-2.20262">
        <ele>29</ele>
        <time>2020-04-10T09:15:36.000Z</time>
      </trkpt>
      <trkpt lat="47.27095" lon="-2.20263">
        <ele>28.8</ele>
        <time>2020-04-10T09:15:37.000Z</time>
      </trkpt>
      <trkpt lat="47.2709" lon="-2.20264">
        <ele>28.8</ele>
        <time>2020-04-10T09:15:38.000Z</time>
      </trkpt>
      <trkpt lat="47.27086" lon="-2.20265">
        <ele>28.8</ele>
        <time>2020-04-10T09:15:39.000Z</time>
      </trkpt>
      <trkpt lat="47.27081" lon="-2.20266">
        <ele>28.6</ele>
        <time>2020-04-10T09:15:40.000Z</time>
      </trkpt>
      <trkpt lat="47.27076" lon="-2.20268">
        <ele>28.6</ele>
        <time>2020-04-10T09:15:41.000Z</time>
      </trkpt>
      <trkpt lat="47.27072" lon="-2.20271">
        <ele>28.6</ele>
        <time>2020-04-10T09:15:42.000Z</time>
      </trkpt>
      <trkpt lat="47.27069" lon="-2.20276">
        <ele>28.6</ele>
        <time>2020-04-10T09:15:43.000Z</time>
      </trkpt>
      <trkpt lat="47.27067" lon="-2.20283">
        <ele>28.6</ele>
        <time>2020-04-10T09:15:44.000Z</time>
      </trkpt>
      <trkpt lat="47.27068" lon="-2.20289">
        <ele>28.4</ele>
        <time>2020-04-10T09:15:45.000Z</time>
      </trkpt>
      <trkpt lat="47.27069" lon="-2.20296">
        <ele>28.4</ele>
        <time>2020-04-10T09:15:46.000Z</time>
      </trkpt>
      <trkpt lat="47.2707" lon="-2.20303">
        <ele>28.6</ele>
        <time>2020-04-10T09:15:47.000Z</time>
      </trkpt>
      <trkpt lat="47.27071" lon="-2.20311">
        <ele>28.6</ele>
        <time>2020-04-10T09:15:48.000Z</time>
      </trkpt>
      <trkpt lat="47.27072" lon="-2.20318">
        <ele>28.8</ele>
        <time>2020-04-10T09:15:49.000Z</time>
      </trkpt>
      <trkpt lat="47.27074" lon="-2.20325">
        <ele>28.8</ele>
        <time>2020-04-10T09:15:50.000Z</time>
      </trkpt>
      <trkpt lat="47.27075" lon="-2.20332">
        <ele>28.6</ele>
        <time>2020-04-10T09:15:51.000Z</time>
      </trkpt>
      <trkpt lat="47.27076" lon="-2.20338">
        <ele>28.6</ele>
        <time>2020-04-10T09:15:52.000Z</time>
      </trkpt>
      <trkpt lat="47.27078" lon="-2.20345">
        <ele>28.6</ele>
        <time>2020-04-10T09:15:53.000Z</time>
      </trkpt>
      <trkpt lat="47.27079" lon="-2.20352">
        <ele>28.6</ele>
        <time>2020-04-10T09:15:54.000Z</time>
      </trkpt>
      <trkpt lat="47.2708" lon="-2.20358">
        <ele>28.6</ele>
        <time>2020-04-10T09:15:55.000Z</time>
      </trkpt>
      <trkpt lat="47.27082" lon="-2.20365">
        <ele>28.8</ele>
        <time>2020-04-10T09:15:56.000Z</time>
      </trkpt>
      <trkpt lat="47.27083" lon="-2.20372">
        <ele>28.8</ele>
        <time>2020-04-10T09:15:57.000Z</time>
      </trkpt>
      <trkpt lat="47.27084" lon="-2.20378">
        <ele>29</ele>
        <time>2020-04-10T09:15:58.000Z</time>
      </trkpt>
      <trkpt lat="47.27086" lon="-2.20385">
        <ele>29.2</ele>
        <time>2020-04-10T09:15:59.000Z</time>
      </trkpt>
      <trkpt lat="47.27088" lon="-2.20391">
        <ele>29.2</ele>
        <time>2020-04-10T09:16:00.000Z</time>
      </trkpt>
      <trkpt lat="47.27089" lon="-2.20397">
        <ele>29.2</ele>
        <time>2020-04-10T09:16:01.000Z</time>
      </trkpt>
      <trkpt lat="47.27091" lon="-2.20403">
        <ele>29</ele>
        <time>2020-04-10T09:16:02.000Z</time>
      </trkpt>
      <trkpt lat="47.27093" lon="-2.2041">
        <ele>29.2</ele>
        <time>2020-04-10T09:16:03.000Z</time>
      </trkpt>
      <trkpt lat="47.27094" lon="-2.20416">
        <ele>29.2</ele>
        <time>2020-04-10T09:16:04.000Z</time>
      </trkpt>
      <trkpt lat="47.27096" lon="-2.20423">
        <ele>29.2</ele>
        <time>2020-04-10T09:16:05.000Z</time>
      </trkpt>
      <trkpt lat="47.27097" lon="-2.20429">
        <ele>29</ele>
        <time>2020-04-10T09:16:06.000Z</time>
      </trkpt>
      <trkpt lat="47.27099" lon="-2.20436">
        <ele>29.2</ele>
        <time>2020-04-10T09:16:07.000Z</time>
      </trkpt>
      <trkpt lat="47.27102" lon="-2.20442">
        <ele>29.2</ele>
        <time>2020-04-10T09:16:08.000Z</time>
      </trkpt>
      <trkpt lat="47.27105" lon="-2.20447">
        <ele>29</ele>
        <time>2020-04-10T09:16:09.000Z</time>
      </trkpt>
      <trkpt lat="47.27107" lon="-2.20453">
        <ele>29</ele>
        <time>2020-04-10T09:16:10.000Z</time>
      </trkpt>
      <trkpt lat="47.2711" lon="-2.20458">
        <ele>29</ele>
        <time>2020-04-10T09:16:11.000Z</time>
      </trkpt>
      <trkpt lat="47.27113" lon="-2.20463">
        <ele>29</ele>
        <time>2020-04-10T09:16:12.000Z</time>
      </trkpt>
      <trkpt lat="47.27117" lon="-2.20468">
        <ele>29.2</ele>
        <time>2020-04-10T09:16:13.000Z</time>
      </trkpt>
      <trkpt lat="47.2712" lon="-2.20473">
        <ele>29.2</ele>
        <time>2020-04-10T09:16:14.000Z</time>
      </trkpt>
      <trkpt lat="47.27124" lon="-2.20476">
        <ele>29</ele>
        <time>2020-04-10T09:16:15.000Z</time>
      </trkpt>
      <trkpt lat="47.27127" lon="-2.2048">
        <ele>29.2</ele>
        <time>2020-04-10T09:16:16.000Z</time>
      </trkpt>
      <trkpt lat="47.27131" lon="-2.20484">
        <ele>29.4</ele>
        <time>2020-04-10T09:16:17.000Z</time>
      </trkpt>
      <trkpt lat="47.27134" lon="-2.20488">
        <ele>29.4</ele>
        <time>2020-04-10T09:16:18.000Z</time>
      </trkpt>
      <trkpt lat="47.27136" lon="-2.20493">
        <ele>29.4</ele>
        <time>2020-04-10T09:16:19.000Z</time>
      </trkpt>
      <trkpt lat="47.27138" lon="-2.20499">
        <ele>29.4</ele>
        <time>2020-04-10T09:16:20.000Z</time>
      </trkpt>
      <trkpt lat="47.27139" lon="-2.20504">
        <ele>29.4</ele>
        <time>2020-04-10T09:16:21.000Z</time>
      </trkpt>
      <trkpt lat="47.2714" lon="-2.2051">
        <ele>29.2</ele>
        <time>2020-04-10T09:16:22.000Z</time>
      </trkpt>
      <trkpt lat="47.27141" lon="-2.20516">
        <ele>29.4</ele>
        <time>2020-04-10T09:16:23.000Z</time>
      </trkpt>
      <trkpt lat="47.27141" lon="-2.20523">
        <ele>29.4</ele>
        <time>2020-04-10T09:16:24.000Z</time>
      </trkpt>
      <trkpt lat="47.27141" lon="-2.20529">
        <ele>29.4</ele>
        <time>2020-04-10T09:16:25.000Z</time>
      </trkpt>
      <trkpt lat="47.27141" lon="-2.20536">
        <ele>29.2</ele>
        <time>2020-04-10T09:16:26.000Z</time>
      </trkpt>
      <trkpt lat="47.27141" lon="-2.20543">
        <ele>29.6</ele>
        <time>2020-04-10T09:16:27.000Z</time>
      </trkpt>
      <trkpt lat="47.2714" lon="-2.2055">
        <ele>29.8</ele>
        <time>2020-04-10T09:16:28.000Z</time>
      </trkpt>
      <trkpt lat="47.27141" lon="-2.20556">
        <ele>29.4</ele>
        <time>2020-04-10T09:16:29.000Z</time>
      </trkpt>
      <trkpt lat="47.2714" lon="-2.20563">
        <ele>29.4</ele>
        <time>2020-04-10T09:16:30.000Z</time>
      </trkpt>
      <trkpt lat="47.2714" lon="-2.20569">
        <ele>29.4</ele>
        <time>2020-04-10T09:16:31.000Z</time>
      </trkpt>
      <trkpt lat="47.27139" lon="-2.20576">
        <ele>29.2</ele>
        <time>2020-04-10T09:16:32.000Z</time>
      </trkpt>
      <trkpt lat="47.27141" lon="-2.20581">
        <ele>29.4</ele>
        <time>2020-04-10T09:16:33.000Z</time>
      </trkpt>
      <trkpt lat="47.27143" lon="-2.20585">
        <ele>29.6</ele>
        <time>2020-04-10T09:16:34.000Z</time>
      </trkpt>
      <trkpt lat="47.27145" lon="-2.20588">
        <ele>29.4</ele>
        <time>2020-04-10T09:16:35.000Z</time>
      </trkpt>
      <trkpt lat="47.27146" lon="-2.20593">
        <ele>29.6</ele>
        <time>2020-04-10T09:16:36.000Z</time>
      </trkpt>
      <trkpt lat="47.27147" lon="-2.20598">
        <ele>29.4</ele>
        <time>2020-04-10T09:16:37.000Z</time>
      </trkpt>
      <trkpt lat="47.27146" lon="-2.20604">
        <ele>29.6</ele>
        <time>2020-04-10T09:16:38.000Z</time>
      </trkpt>
      <trkpt lat="47.27145" lon="-2.2061">
        <ele>29.6</ele>
        <time>2020-04-10T09:16:39.000Z</time>
      </trkpt>
      <trkpt lat="47.27144" lon="-2.20616">
        <ele>30</ele>
        <time>2020-04-10T09:16:40.000Z</time>
      </trkpt>
      <trkpt lat="47.27144" lon="-2.20622">
        <ele>30</ele>
        <time>2020-04-10T09:16:41.000Z</time>
      </trkpt>
      <trkpt lat="47.27143" lon="-2.20629">
        <ele>30</ele>
        <time>2020-04-10T09:16:42.000Z</time>
      </trkpt>
      <trkpt lat="47.27142" lon="-2.20635">
        <ele>30.2</ele>
        <time>2020-04-10T09:16:43.000Z</time>
      </trkpt>
      <trkpt lat="47.27141" lon="-2.20641">
        <ele>30.2</ele>
        <time>2020-04-10T09:16:44.000Z</time>
      </trkpt>
      <trkpt lat="47.2714" lon="-2.20648">
        <ele>30.2</ele>
        <time>2020-04-10T09:16:45.000Z</time>
      </trkpt>
      <trkpt lat="47.27139" lon="-2.20654">
        <ele>30.2</ele>
        <time>2020-04-10T09:16:46.000Z</time>
      </trkpt>
      <trkpt lat="47.27138" lon="-2.2066">
        <ele>30.2</ele>
        <time>2020-04-10T09:16:47.000Z</time>
      </trkpt>
      <trkpt lat="47.27137" lon="-2.20666">
        <ele>30</ele>
        <time>2020-04-10T09:16:48.000Z</time>
      </trkpt>
      <trkpt lat="47.27137" lon="-2.20673">
        <ele>30</ele>
        <time>2020-04-10T09:16:49.000Z</time>
      </trkpt>
      <trkpt lat="47.27138" lon="-2.20677">
        <ele>30.2</ele>
        <time>2020-04-10T09:16:50.000Z</time>
      </trkpt>
      <trkpt lat="47.27141" lon="-2.20681">
        <ele>30</ele>
        <time>2020-04-10T09:16:51.000Z</time>
      </trkpt>
      <trkpt lat="47.27145" lon="-2.20684">
        <ele>30.2</ele>
        <time>2020-04-10T09:16:52.000Z</time>
      </trkpt>
      <trkpt lat="47.27149" lon="-2.20685">
        <ele>30.2</ele>
        <time>2020-04-10T09:16:53.000Z</time>
      </trkpt>
      <trkpt lat="47.27153" lon="-2.20683">
        <ele>30.4</ele>
        <time>2020-04-10T09:16:54.000Z</time>
      </trkpt>
      <trkpt lat="47.27156" lon="-2.20682">
        <ele>30.6</ele>
        <time>2020-04-10T09:16:55.000Z</time>
      </trkpt>
      <trkpt lat="47.2716" lon="-2.20681">
        <ele>30.6</ele>
        <time>2020-04-10T09:16:56.000Z</time>
      </trkpt>
      <trkpt lat="47.27165" lon="-2.2068">
        <ele>30.4</ele>
        <time>2020-04-10T09:16:57.000Z</time>
      </trkpt>
      <trkpt lat="47.27168" lon="-2.2068">
        <ele>30.4</ele>
        <time>2020-04-10T09:16:58.000Z</time>
      </trkpt>
      <trkpt lat="47.27172" lon="-2.2068">
        <ele>30.6</ele>
        <time>2020-04-10T09:16:59.000Z</time>
      </trkpt>
      <trkpt lat="47.27176" lon="-2.20679">
        <ele>30.8</ele>
        <time>2020-04-10T09:17:00.000Z</time>
      </trkpt>
      <trkpt lat="47.2718" lon="-2.20678">
        <ele>30.8</ele>
        <time>2020-04-10T09:17:01.000Z</time>
      </trkpt>
      <trkpt lat="47.27185" lon="-2.20677">
        <ele>31</ele>
        <time>2020-04-10T09:17:02.000Z</time>
      </trkpt>
      <trkpt lat="47.27189" lon="-2.20676">
        <ele>31</ele>
        <time>2020-04-10T09:17:03.000Z</time>
      </trkpt>
      <trkpt lat="47.27194" lon="-2.20675">
        <ele>30.8</ele>
        <time>2020-04-10T09:17:04.000Z</time>
      </trkpt>
      <trkpt lat="47.27198" lon="-2.20674">
        <ele>31</ele>
        <time>2020-04-10T09:17:05.000Z</time>
      </trkpt>
      <trkpt lat="47.27203" lon="-2.20673">
        <ele>31</ele>
        <time>2020-04-10T09:17:06.000Z</time>
      </trkpt>
      <trkpt lat="47.27207" lon="-2.20673">
        <ele>31</ele>
        <time>2020-04-10T09:17:07.000Z</time>
      </trkpt>
      <trkpt lat="47.27211" lon="-2.20671">
        <ele>31</ele>
        <time>2020-04-10T09:17:08.000Z</time>
      </trkpt>
      <trkpt lat="47.27215" lon="-2.20672">
        <ele>31</ele>
        <time>2020-04-10T09:17:09.000Z</time>
      </trkpt>
      <trkpt lat="47.27217" lon="-2.20674">
        <ele>31.2</ele>
        <time>2020-04-10T09:17:10.000Z</time>
      </trkpt>
      <trkpt lat="47.2722" lon="-2.20674">
        <ele>31.4</ele>
        <time>2020-04-10T09:17:11.000Z</time>
      </trkpt>
      <trkpt lat="47.27224" lon="-2.20671">
        <ele>31.4</ele>
        <time>2020-04-10T09:17:12.000Z</time>
      </trkpt>
      <trkpt lat="47.27228" lon="-2.20667">
        <ele>31.4</ele>
        <time>2020-04-10T09:17:13.000Z</time>
      </trkpt>
      <trkpt lat="47.2723" lon="-2.20666">
        <ele>31.4</ele>
        <time>2020-04-10T09:17:14.000Z</time>
      </trkpt>
      <trkpt lat="47.27233" lon="-2.20666">
        <ele>31.4</ele>
        <time>2020-04-10T09:17:15.000Z</time>
      </trkpt>
      <trkpt lat="47.27236" lon="-2.20666">
        <ele>31.4</ele>
        <time>2020-04-10T09:17:16.000Z</time>
      </trkpt>
      <trkpt lat="47.27239" lon="-2.20666">
        <ele>31.6</ele>
        <time>2020-04-10T09:17:17.000Z</time>
      </trkpt>
      <trkpt lat="47.27243" lon="-2.20665">
        <ele>31.4</ele>
        <time>2020-04-10T09:17:18.000Z</time>
      </trkpt>
      <trkpt lat="47.27246" lon="-2.20664">
        <ele>31.4</ele>
        <time>2020-04-10T09:17:19.000Z</time>
      </trkpt>
      <trkpt lat="47.27249" lon="-2.20664">
        <ele>31.6</ele>
        <time>2020-04-10T09:17:20.000Z</time>
      </trkpt>
      <trkpt lat="47.27255" lon="-2.20662">
        <ele>31.6</ele>
        <time>2020-04-10T09:17:21.000Z</time>
      </trkpt>
      <trkpt lat="47.27262" lon="-2.20656">
        <ele>31.6</ele>
        <time>2020-04-10T09:17:22.000Z</time>
      </trkpt>
      <trkpt lat="47.27265" lon="-2.20654">
        <ele>31.6</ele>
        <time>2020-04-10T09:17:23.000Z</time>
      </trkpt>
      <trkpt lat="47.27267" lon="-2.20652">
        <ele>31.6</ele>
        <time>2020-04-10T09:17:24.000Z</time>
      </trkpt>
      <trkpt lat="47.27271" lon="-2.20653">
        <ele>31.4</ele>
        <time>2020-04-10T09:17:25.000Z</time>
      </trkpt>
      <trkpt lat="47.27275" lon="-2.20654">
        <ele>31.4</ele>
        <time>2020-04-10T09:17:26.000Z</time>
      </trkpt>
      <trkpt lat="47.27279" lon="-2.20654">
        <ele>31.2</ele>
        <time>2020-04-10T09:17:27.000Z</time>
      </trkpt>
      <trkpt lat="47.27282" lon="-2.20653">
        <ele>31.2</ele>
        <time>2020-04-10T09:17:28.000Z</time>
      </trkpt>
      <trkpt lat="47.27286" lon="-2.20653">
        <ele>31.2</ele>
        <time>2020-04-10T09:17:29.000Z</time>
      </trkpt>
      <trkpt lat="47.27293" lon="-2.2065">
        <ele>31.4</ele>
        <time>2020-04-10T09:17:30.000Z</time>
      </trkpt>
      <trkpt lat="47.27298" lon="-2.20644">
        <ele>31.2</ele>
        <time>2020-04-10T09:17:31.000Z</time>
      </trkpt>
      <trkpt lat="47.27304" lon="-2.20635">
        <ele>31.2</ele>
        <time>2020-04-10T09:17:32.000Z</time>
      </trkpt>
      <trkpt lat="47.27311" lon="-2.2063">
        <ele>31.2</ele>
        <time>2020-04-10T09:17:33.000Z</time>
      </trkpt>
      <trkpt lat="47.2732" lon="-2.20625">
        <ele>31.4</ele>
        <time>2020-04-10T09:17:34.000Z</time>
      </trkpt>
      <trkpt lat="47.27329" lon="-2.20624">
        <ele>31.2</ele>
        <time>2020-04-10T09:17:35.000Z</time>
      </trkpt>
      <trkpt lat="47.27335" lon="-2.20625">
        <ele>31</ele>
        <time>2020-04-10T09:17:36.000Z</time>
      </trkpt>
      <trkpt lat="47.27341" lon="-2.20626">
        <ele>31</ele>
        <time>2020-04-10T09:17:37.000Z</time>
      </trkpt>
      <trkpt lat="47.27346" lon="-2.20628">
        <ele>31</ele>
        <time>2020-04-10T09:17:38.000Z</time>
      </trkpt>
      <trkpt lat="47.27351" lon="-2.20629">
        <ele>31</ele>
        <time>2020-04-10T09:17:39.000Z</time>
      </trkpt>
      <trkpt lat="47.27355" lon="-2.20627">
        <ele>31.2</ele>
        <time>2020-04-10T09:17:40.000Z</time>
      </trkpt>
      <trkpt lat="47.27359" lon="-2.20628">
        <ele>31.2</ele>
        <time>2020-04-10T09:17:41.000Z</time>
      </trkpt>
      <trkpt lat="47.27361" lon="-2.20628">
        <ele>31</ele>
        <time>2020-04-10T09:17:42.000Z</time>
      </trkpt>
      <trkpt lat="47.27364" lon="-2.20627">
        <ele>31.2</ele>
        <time>2020-04-10T09:17:43.000Z</time>
      </trkpt>
      <trkpt lat="47.27368" lon="-2.20627">
        <ele>31.2</ele>
        <time>2020-04-10T09:17:44.000Z</time>
      </trkpt>
      <trkpt lat="47.27371" lon="-2.20626">
        <ele>31.4</ele>
        <time>2020-04-10T09:17:45.000Z</time>
      </trkpt>
      <trkpt lat="47.27375" lon="-2.20626">
        <ele>31.4</ele>
        <time>2020-04-10T09:17:46.000Z</time>
      </trkpt>
      <trkpt lat="47.27378" lon="-2.20626">
        <ele>31.4</ele>
        <time>2020-04-10T09:17:47.000Z</time>
      </trkpt>
      <trkpt lat="47.27378" lon="-2.20626">
        <ele>31.4</ele>
        <time>2020-04-10T09:17:48.000Z</time>
      </trkpt>
      <trkpt lat="47.27381" lon="-2.20627">
        <ele>31.4</ele>
        <time>2020-04-10T09:17:49.000Z</time>
      </trkpt>
      <trkpt lat="47.27384" lon="-2.20628">
        <ele>31.4</ele>
        <time>2020-04-10T09:17:50.000Z</time>
      </trkpt>
      <trkpt lat="47.27391" lon="-2.20628">
        <ele>31.4</ele>
        <time>2020-04-10T09:17:51.000Z</time>
      </trkpt>
      <trkpt lat="47.27392" lon="-2.20629">
        <ele>31.6</ele>
        <time>2020-04-10T09:17:52.000Z</time>
      </trkpt>
      <trkpt lat="47.27392" lon="-2.20629">
        <ele>31.4</ele>
        <time>2020-04-10T09:17:53.000Z</time>
      </trkpt>
      <trkpt lat="47.27392" lon="-2.20632">
        <ele>31.4</ele>
        <time>2020-04-10T09:17:54.000Z</time>
      </trkpt>
      <trkpt lat="47.27396" lon="-2.20633">
        <ele>31.6</ele>
        <time>2020-04-10T09:17:55.000Z</time>
      </trkpt>
      <trkpt lat="47.274" lon="-2.2063">
        <ele>31.6</ele>
        <time>2020-04-10T09:17:56.000Z</time>
      </trkpt>
      <trkpt lat="47.27403" lon="-2.20628">
        <ele>31.6</ele>
        <time>2020-04-10T09:17:57.000Z</time>
      </trkpt>
      <trkpt lat="47.27408" lon="-2.20627">
        <ele>31.6</ele>
        <time>2020-04-10T09:17:58.000Z</time>
      </trkpt>
      <trkpt lat="47.27412" lon="-2.20625">
        <ele>31.6</ele>
        <time>2020-04-10T09:17:59.000Z</time>
      </trkpt>
      <trkpt lat="47.27416" lon="-2.20625">
        <ele>31.6</ele>
        <time>2020-04-10T09:18:00.000Z</time>
      </trkpt>
      <trkpt lat="47.27425" lon="-2.20622">
        <ele>31.8</ele>
        <time>2020-04-10T09:18:01.000Z</time>
      </trkpt>
      <trkpt lat="47.27429" lon="-2.20619">
        <ele>31.8</ele>
        <time>2020-04-10T09:18:02.000Z</time>
      </trkpt>
      <trkpt lat="47.27434" lon="-2.20617">
        <ele>31.6</ele>
        <time>2020-04-10T09:18:03.000Z</time>
      </trkpt>
      <trkpt lat="47.2744" lon="-2.20615">
        <ele>31.8</ele>
        <time>2020-04-10T09:18:04.000Z</time>
      </trkpt>
      <trkpt lat="47.27446" lon="-2.20609">
        <ele>32</ele>
        <time>2020-04-10T09:18:05.000Z</time>
      </trkpt>
      <trkpt lat="47.2745" lon="-2.20606">
        <ele>32.2</ele>
        <time>2020-04-10T09:18:06.000Z</time>
      </trkpt>
      <trkpt lat="47.27453" lon="-2.20602">
        <ele>32</ele>
        <time>2020-04-10T09:18:07.000Z</time>
      </trkpt>
      <trkpt lat="47.27454" lon="-2.20597">
        <ele>32.2</ele>
        <time>2020-04-10T09:18:08.000Z</time>
      </trkpt>
      <trkpt lat="47.27457" lon="-2.20595">
        <ele>32</ele>
        <time>2020-04-10T09:18:09.000Z</time>
      </trkpt>
      <trkpt lat="47.27461" lon="-2.20593">
        <ele>32</ele>
        <time>2020-04-10T09:18:10.000Z</time>
      </trkpt>
      <trkpt lat="47.27466" lon="-2.20593">
        <ele>31.8</ele>
        <time>2020-04-10T09:18:11.000Z</time>
      </trkpt>
      <trkpt lat="47.27473" lon="-2.20592">
        <ele>31.8</ele>
        <time>2020-04-10T09:18:12.000Z</time>
      </trkpt>
      <trkpt lat="47.27479" lon="-2.20593">
        <ele>31.8</ele>
        <time>2020-04-10T09:18:13.000Z</time>
      </trkpt>
      <trkpt lat="47.27484" lon="-2.20593">
        <ele>31.8</ele>
        <time>2020-04-10T09:18:14.000Z</time>
      </trkpt>
      <trkpt lat="47.27489" lon="-2.20594">
        <ele>31.8</ele>
        <time>2020-04-10T09:18:15.000Z</time>
      </trkpt>
      <trkpt lat="47.27492" lon="-2.20596">
        <ele>31.8</ele>
        <time>2020-04-10T09:18:16.000Z</time>
      </trkpt>
      <trkpt lat="47.27498" lon="-2.20597">
        <ele>31.4</ele>
        <time>2020-04-10T09:18:17.000Z</time>
      </trkpt>
      <trkpt lat="47.27504" lon="-2.20595">
        <ele>31.6</ele>
        <time>2020-04-10T09:18:18.000Z</time>
      </trkpt>
      <trkpt lat="47.27509" lon="-2.20594">
        <ele>31.4</ele>
        <time>2020-04-10T09:18:19.000Z</time>
      </trkpt>
      <trkpt lat="47.27521" lon="-2.20588">
        <ele>31.4</ele>
        <time>2020-04-10T09:18:20.000Z</time>
      </trkpt>
      <trkpt lat="47.27531" lon="-2.20582">
        <ele>31.4</ele>
        <time>2020-04-10T09:18:21.000Z</time>
      </trkpt>
      <trkpt lat="47.27539" lon="-2.20578">
        <ele>31.4</ele>
        <time>2020-04-10T09:18:22.000Z</time>
      </trkpt>
      <trkpt lat="47.27546" lon="-2.20576">
        <ele>31.4</ele>
        <time>2020-04-10T09:18:23.000Z</time>
      </trkpt>
      <trkpt lat="47.27553" lon="-2.20572">
        <ele>31.2</ele>
        <time>2020-04-10T09:18:24.000Z</time>
      </trkpt>
      <trkpt lat="47.2756" lon="-2.2057">
        <ele>31</ele>
        <time>2020-04-10T09:18:25.000Z</time>
      </trkpt>
      <trkpt lat="47.27569" lon="-2.20568">
        <ele>31</ele>
        <time>2020-04-10T09:18:26.000Z</time>
      </trkpt>
      <trkpt lat="47.27576" lon="-2.20566">
        <ele>31</ele>
        <time>2020-04-10T09:18:27.000Z</time>
      </trkpt>
      <trkpt lat="47.27582" lon="-2.20564">
        <ele>30.8</ele>
        <time>2020-04-10T09:18:28.000Z</time>
      </trkpt>
      <trkpt lat="47.27589" lon="-2.20563">
        <ele>31.2</ele>
        <time>2020-04-10T09:18:29.000Z</time>
      </trkpt>
      <trkpt lat="47.27596" lon="-2.2056">
        <ele>31</ele>
        <time>2020-04-10T09:18:30.000Z</time>
      </trkpt>
      <trkpt lat="47.27603" lon="-2.20559">
        <ele>31</ele>
        <time>2020-04-10T09:18:31.000Z</time>
      </trkpt>
      <trkpt lat="47.27609" lon="-2.20557">
        <ele>30.8</ele>
        <time>2020-04-10T09:18:32.000Z</time>
      </trkpt>
      <trkpt lat="47.27615" lon="-2.20555">
        <ele>30.8</ele>
        <time>2020-04-10T09:18:33.000Z</time>
      </trkpt>
      <trkpt lat="47.27622" lon="-2.20554">
        <ele>30.8</ele>
        <time>2020-04-10T09:18:34.000Z</time>
      </trkpt>
      <trkpt lat="47.27629" lon="-2.20552">
        <ele>30.8</ele>
        <time>2020-04-10T09:18:35.000Z</time>
      </trkpt>
      <trkpt lat="47.27636" lon="-2.20551">
        <ele>30.6</ele>
        <time>2020-04-10T09:18:36.000Z</time>
      </trkpt>
      <trkpt lat="47.27642" lon="-2.2055">
        <ele>30.8</ele>
        <time>2020-04-10T09:18:37.000Z</time>
      </trkpt>
      <trkpt lat="47.27648" lon="-2.20549">
        <ele>30.6</ele>
        <time>2020-04-10T09:18:38.000Z</time>
      </trkpt>
      <trkpt lat="47.27653" lon="-2.20548">
        <ele>30.8</ele>
        <time>2020-04-10T09:18:39.000Z</time>
      </trkpt>
      <trkpt lat="47.27659" lon="-2.20546">
        <ele>31</ele>
        <time>2020-04-10T09:18:40.000Z</time>
      </trkpt>
      <trkpt lat="47.27665" lon="-2.20545">
        <ele>30.6</ele>
        <time>2020-04-10T09:18:41.000Z</time>
      </trkpt>
      <trkpt lat="47.27671" lon="-2.20544">
        <ele>30.6</ele>
        <time>2020-04-10T09:18:42.000Z</time>
      </trkpt>
      <trkpt lat="47.27677" lon="-2.20542">
        <ele>30.4</ele>
        <time>2020-04-10T09:18:43.000Z</time>
      </trkpt>
      <trkpt lat="47.27682" lon="-2.20541">
        <ele>30.2</ele>
        <time>2020-04-10T09:18:44.000Z</time>
      </trkpt>
      <trkpt lat="47.27688" lon="-2.20538">
        <ele>30.4</ele>
        <time>2020-04-10T09:18:45.000Z</time>
      </trkpt>
      <trkpt lat="47.27694" lon="-2.20537">
        <ele>30.6</ele>
        <time>2020-04-10T09:18:46.000Z</time>
      </trkpt>
      <trkpt lat="47.277" lon="-2.20534">
        <ele>30.8</ele>
        <time>2020-04-10T09:18:47.000Z</time>
      </trkpt>
      <trkpt lat="47.27705" lon="-2.20532">
        <ele>30.6</ele>
        <time>2020-04-10T09:18:48.000Z</time>
      </trkpt>
      <trkpt lat="47.27711" lon="-2.2053">
        <ele>30.8</ele>
        <time>2020-04-10T09:18:49.000Z</time>
      </trkpt>
      <trkpt lat="47.27717" lon="-2.20529">
        <ele>30.6</ele>
        <time>2020-04-10T09:18:50.000Z</time>
      </trkpt>
      <trkpt lat="47.27722" lon="-2.20527">
        <ele>30.6</ele>
        <time>2020-04-10T09:18:51.000Z</time>
      </trkpt>
      <trkpt lat="47.27728" lon="-2.20526">
        <ele>30.4</ele>
        <time>2020-04-10T09:18:52.000Z</time>
      </trkpt>
      <trkpt lat="47.27733" lon="-2.20524">
        <ele>30.4</ele>
        <time>2020-04-10T09:18:53.000Z</time>
      </trkpt>
      <trkpt lat="47.27739" lon="-2.20523">
        <ele>30.6</ele>
        <time>2020-04-10T09:18:54.000Z</time>
      </trkpt>
      <trkpt lat="47.27744" lon="-2.20522">
        <ele>30.6</ele>
        <time>2020-04-10T09:18:55.000Z</time>
      </trkpt>
      <trkpt lat="47.2775" lon="-2.20521">
        <ele>30.6</ele>
        <time>2020-04-10T09:18:56.000Z</time>
      </trkpt>
      <trkpt lat="47.27755" lon="-2.20521">
        <ele>30.6</ele>
        <time>2020-04-10T09:18:57.000Z</time>
      </trkpt>
      <trkpt lat="47.27759" lon="-2.20521">
        <ele>30.8</ele>
        <time>2020-04-10T09:18:58.000Z</time>
      </trkpt>
      <trkpt lat="47.27764" lon="-2.2052">
        <ele>30.8</ele>
        <time>2020-04-10T09:18:59.000Z</time>
      </trkpt>
      <trkpt lat="47.27773" lon="-2.20518">
        <ele>30.8</ele>
        <time>2020-04-10T09:19:01.000Z</time>
      </trkpt>
      <trkpt lat="47.27778" lon="-2.20517">
        <ele>30.6</ele>
        <time>2020-04-10T09:19:02.000Z</time>
      </trkpt>
      <trkpt lat="47.27783" lon="-2.20515">
        <ele>30.4</ele>
        <time>2020-04-10T09:19:03.000Z</time>
      </trkpt>
      <trkpt lat="47.27788" lon="-2.20514">
        <ele>30.4</ele>
        <time>2020-04-10T09:19:04.000Z</time>
      </trkpt>
      <trkpt lat="47.27794" lon="-2.20511">
        <ele>30.4</ele>
        <time>2020-04-10T09:19:05.000Z</time>
      </trkpt>
      <trkpt lat="47.27799" lon="-2.2051">
        <ele>30.4</ele>
        <time>2020-04-10T09:19:06.000Z</time>
      </trkpt>
      <trkpt lat="47.27805" lon="-2.20508">
        <ele>30.4</ele>
        <time>2020-04-10T09:19:07.000Z</time>
      </trkpt>
      <trkpt lat="47.2781" lon="-2.20506">
        <ele>30.4</ele>
        <time>2020-04-10T09:19:08.000Z</time>
      </trkpt>
      <trkpt lat="47.27814" lon="-2.20505">
        <ele>30.6</ele>
        <time>2020-04-10T09:19:09.000Z</time>
      </trkpt>
      <trkpt lat="47.27819" lon="-2.20503">
        <ele>30.8</ele>
        <time>2020-04-10T09:19:10.000Z</time>
      </trkpt>
      <trkpt lat="47.27825" lon="-2.20501">
        <ele>30.6</ele>
        <time>2020-04-10T09:19:11.000Z</time>
      </trkpt>
      <trkpt lat="47.2783" lon="-2.20499">
        <ele>30.8</ele>
        <time>2020-04-10T09:19:12.000Z</time>
      </trkpt>
      <trkpt lat="47.27836" lon="-2.20498">
        <ele>30.8</ele>
        <time>2020-04-10T09:19:13.000Z</time>
      </trkpt>
      <trkpt lat="47.27841" lon="-2.20496">
        <ele>30.8</ele>
        <time>2020-04-10T09:19:14.000Z</time>
      </trkpt>
      <trkpt lat="47.27846" lon="-2.20495">
        <ele>30.8</ele>
        <time>2020-04-10T09:19:15.000Z</time>
      </trkpt>
      <trkpt lat="47.27852" lon="-2.20493">
        <ele>30.6</ele>
        <time>2020-04-10T09:19:16.000Z</time>
      </trkpt>
      <trkpt lat="47.27857" lon="-2.20491">
        <ele>30.6</ele>
        <time>2020-04-10T09:19:17.000Z</time>
      </trkpt>
      <trkpt lat="47.27863" lon="-2.2049">
        <ele>30.8</ele>
        <time>2020-04-10T09:19:18.000Z</time>
      </trkpt>
      <trkpt lat="47.27868" lon="-2.2049">
        <ele>30.6</ele>
        <time>2020-04-10T09:19:19.000Z</time>
      </trkpt>
      <trkpt lat="47.27874" lon="-2.20489">
        <ele>30.6</ele>
        <time>2020-04-10T09:19:20.000Z</time>
      </trkpt>
      <trkpt lat="47.27879" lon="-2.20488">
        <ele>30.6</ele>
        <time>2020-04-10T09:19:21.000Z</time>
      </trkpt>
      <trkpt lat="47.27884" lon="-2.20487">
        <ele>30.6</ele>
        <time>2020-04-10T09:19:22.000Z</time>
      </trkpt>
      <trkpt lat="47.2789" lon="-2.20485">
        <ele>30.8</ele>
        <time>2020-04-10T09:19:23.000Z</time>
      </trkpt>
      <trkpt lat="47.27895" lon="-2.20484">
        <ele>30.8</ele>
        <time>2020-04-10T09:19:24.000Z</time>
      </trkpt>
      <trkpt lat="47.279" lon="-2.20483">
        <ele>30.6</ele>
        <time>2020-04-10T09:19:25.000Z</time>
      </trkpt>
      <trkpt lat="47.27905" lon="-2.20482">
        <ele>30.6</ele>
        <time>2020-04-10T09:19:26.000Z</time>
      </trkpt>
      <trkpt lat="47.27911" lon="-2.20481">
        <ele>30.4</ele>
        <time>2020-04-10T09:19:27.000Z</time>
      </trkpt>
      <trkpt lat="47.27916" lon="-2.20479">
        <ele>30.2</ele>
        <time>2020-04-10T09:19:28.000Z</time>
      </trkpt>
      <trkpt lat="47.27921" lon="-2.20477">
        <ele>30.4</ele>
        <time>2020-04-10T09:19:29.000Z</time>
      </trkpt>
      <trkpt lat="47.27926" lon="-2.20475">
        <ele>30.4</ele>
        <time>2020-04-10T09:19:30.000Z</time>
      </trkpt>
      <trkpt lat="47.27932" lon="-2.20474">
        <ele>30.4</ele>
        <time>2020-04-10T09:19:31.000Z</time>
      </trkpt>
      <trkpt lat="47.27937" lon="-2.20472">
        <ele>30.4</ele>
        <time>2020-04-10T09:19:32.000Z</time>
      </trkpt>
      <trkpt lat="47.27943" lon="-2.20471">
        <ele>30.2</ele>
        <time>2020-04-10T09:19:33.000Z</time>
      </trkpt>
      <trkpt lat="47.27948" lon="-2.2047">
        <ele>30</ele>
        <time>2020-04-10T09:19:34.000Z</time>
      </trkpt>
      <trkpt lat="47.27953" lon="-2.20469">
        <ele>30</ele>
        <time>2020-04-10T09:19:35.000Z</time>
      </trkpt>
      <trkpt lat="47.27958" lon="-2.20467">
        <ele>30</ele>
        <time>2020-04-10T09:19:36.000Z</time>
      </trkpt>
      <trkpt lat="47.27969" lon="-2.20463">
        <ele>30</ele>
        <time>2020-04-10T09:19:37.000Z</time>
      </trkpt>
      <trkpt lat="47.27975" lon="-2.20461">
        <ele>30</ele>
        <time>2020-04-10T09:19:38.000Z</time>
      </trkpt>
      <trkpt lat="47.2798" lon="-2.20459">
        <ele>29.8</ele>
        <time>2020-04-10T09:19:39.000Z</time>
      </trkpt>
      <trkpt lat="47.27986" lon="-2.20457">
        <ele>29.6</ele>
        <time>2020-04-10T09:19:40.000Z</time>
      </trkpt>
      <trkpt lat="47.27992" lon="-2.20455">
        <ele>29.8</ele>
        <time>2020-04-10T09:19:41.000Z</time>
      </trkpt>
      <trkpt lat="47.27998" lon="-2.20453">
        <ele>29.6</ele>
        <time>2020-04-10T09:19:42.000Z</time>
      </trkpt>
      <trkpt lat="47.28004" lon="-2.20451">
        <ele>29.6</ele>
        <time>2020-04-10T09:19:44.000Z</time>
      </trkpt>
      <trkpt lat="47.28015" lon="-2.20446">
        <ele>29.2</ele>
        <time>2020-04-10T09:19:45.000Z</time>
      </trkpt>
      <trkpt lat="47.28021" lon="-2.20444">
        <ele>29.4</ele>
        <time>2020-04-10T09:19:46.000Z</time>
      </trkpt>
      <trkpt lat="47.28027" lon="-2.20442">
        <ele>29</ele>
        <time>2020-04-10T09:19:47.000Z</time>
      </trkpt>
      <trkpt lat="47.28033" lon="-2.2044">
        <ele>29</ele>
        <time>2020-04-10T09:19:48.000Z</time>
      </trkpt>
      <trkpt lat="47.28038" lon="-2.20437">
        <ele>29</ele>
        <time>2020-04-10T09:19:49.000Z</time>
      </trkpt>
      <trkpt lat="47.28044" lon="-2.20435">
        <ele>28.8</ele>
        <time>2020-04-10T09:19:50.000Z</time>
      </trkpt>
      <trkpt lat="47.2805" lon="-2.20433">
        <ele>28.6</ele>
        <time>2020-04-10T09:19:51.000Z</time>
      </trkpt>
      <trkpt lat="47.28057" lon="-2.20432">
        <ele>28.6</ele>
        <time>2020-04-10T09:19:52.000Z</time>
      </trkpt>
      <trkpt lat="47.28063" lon="-2.2043">
        <ele>28.4</ele>
        <time>2020-04-10T09:19:53.000Z</time>
      </trkpt>
      <trkpt lat="47.28069" lon="-2.20429">
        <ele>28.2</ele>
        <time>2020-04-10T09:19:54.000Z</time>
      </trkpt>
      <trkpt lat="47.28075" lon="-2.20427">
        <ele>27.8</ele>
        <time>2020-04-10T09:19:55.000Z</time>
      </trkpt>
      <trkpt lat="47.28081" lon="-2.20426">
        <ele>28</ele>
        <time>2020-04-10T09:19:56.000Z</time>
      </trkpt>
      <trkpt lat="47.28087" lon="-2.20424">
        <ele>27.8</ele>
        <time>2020-04-10T09:19:57.000Z</time>
      </trkpt>
      <trkpt lat="47.28093" lon="-2.20423">
        <ele>27.8</ele>
        <time>2020-04-10T09:19:58.000Z</time>
      </trkpt>
      <trkpt lat="47.28098" lon="-2.20422">
        <ele>28</ele>
        <time>2020-04-10T09:19:59.000Z</time>
      </trkpt>
      <trkpt lat="47.28104" lon="-2.2042">
        <ele>27.8</ele>
        <time>2020-04-10T09:20:00.000Z</time>
      </trkpt>
      <trkpt lat="47.28109" lon="-2.20419">
        <ele>27.8</ele>
        <time>2020-04-10T09:20:01.000Z</time>
      </trkpt>
      <trkpt lat="47.28115" lon="-2.20417">
        <ele>27.8</ele>
        <time>2020-04-10T09:20:03.000Z</time>
      </trkpt>
      <trkpt lat="47.28126" lon="-2.20414">
        <ele>27.8</ele>
        <time>2020-04-10T09:20:04.000Z</time>
      </trkpt>
      <trkpt lat="47.28131" lon="-2.20412">
        <ele>27.8</ele>
        <time>2020-04-10T09:20:05.000Z</time>
      </trkpt>
      <trkpt lat="47.28136" lon="-2.2041">
        <ele>27.8</ele>
        <time>2020-04-10T09:20:06.000Z</time>
      </trkpt>
      <trkpt lat="47.28142" lon="-2.20408">
        <ele>27.6</ele>
        <time>2020-04-10T09:20:07.000Z</time>
      </trkpt>
      <trkpt lat="47.28147" lon="-2.20407">
        <ele>27.6</ele>
        <time>2020-04-10T09:20:08.000Z</time>
      </trkpt>
      <trkpt lat="47.28152" lon="-2.20406">
        <ele>27.6</ele>
        <time>2020-04-10T09:20:09.000Z</time>
      </trkpt>
      <trkpt lat="47.28157" lon="-2.20405">
        <ele>27.8</ele>
        <time>2020-04-10T09:20:10.000Z</time>
      </trkpt>
      <trkpt lat="47.28162" lon="-2.20404">
        <ele>27.6</ele>
        <time>2020-04-10T09:20:11.000Z</time>
      </trkpt>
      <trkpt lat="47.28168" lon="-2.20402">
        <ele>27.4</ele>
        <time>2020-04-10T09:20:12.000Z</time>
      </trkpt>
      <trkpt lat="47.28173" lon="-2.204">
        <ele>27.4</ele>
        <time>2020-04-10T09:20:13.000Z</time>
      </trkpt>
      <trkpt lat="47.28178" lon="-2.20399">
        <ele>27.2</ele>
        <time>2020-04-10T09:20:14.000Z</time>
      </trkpt>
      <trkpt lat="47.28183" lon="-2.20398">
        <ele>27.4</ele>
        <time>2020-04-10T09:20:15.000Z</time>
      </trkpt>
      <trkpt lat="47.28187" lon="-2.20395">
        <ele>27.2</ele>
        <time>2020-04-10T09:20:16.000Z</time>
      </trkpt>
      <trkpt lat="47.2819" lon="-2.20391">
        <ele>27.4</ele>
        <time>2020-04-10T09:20:17.000Z</time>
      </trkpt>
      <trkpt lat="47.28194" lon="-2.20386">
        <ele>27.4</ele>
        <time>2020-04-10T09:20:18.000Z</time>
      </trkpt>
      <trkpt lat="47.28198" lon="-2.20382">
        <ele>27.6</ele>
        <time>2020-04-10T09:20:19.000Z</time>
      </trkpt>
      <trkpt lat="47.28203" lon="-2.2038">
        <ele>27.4</ele>
        <time>2020-04-10T09:20:20.000Z</time>
      </trkpt>
      <trkpt lat="47.28208" lon="-2.20379">
        <ele>27.4</ele>
        <time>2020-04-10T09:20:21.000Z</time>
      </trkpt>
      <trkpt lat="47.28213" lon="-2.2038">
        <ele>27.2</ele>
        <time>2020-04-10T09:20:22.000Z</time>
      </trkpt>
      <trkpt lat="47.28218" lon="-2.20383">
        <ele>27.2</ele>
        <time>2020-04-10T09:20:23.000Z</time>
      </trkpt>
      <trkpt lat="47.28224" lon="-2.20385">
        <ele>27</ele>
        <time>2020-04-10T09:20:24.000Z</time>
      </trkpt>
      <trkpt lat="47.28229" lon="-2.20386">
        <ele>27</ele>
        <time>2020-04-10T09:20:25.000Z</time>
      </trkpt>
      <trkpt lat="47.28235" lon="-2.20385">
        <ele>27.2</ele>
        <time>2020-04-10T09:20:26.000Z</time>
      </trkpt>
      <trkpt lat="47.28241" lon="-2.20384">
        <ele>27.2</ele>
        <time>2020-04-10T09:20:27.000Z</time>
      </trkpt>
      <trkpt lat="47.28246" lon="-2.20382">
        <ele>27</ele>
        <time>2020-04-10T09:20:28.000Z</time>
      </trkpt>
      <trkpt lat="47.28252" lon="-2.2038">
        <ele>27.2</ele>
        <time>2020-04-10T09:20:29.000Z</time>
      </trkpt>
      <trkpt lat="47.28258" lon="-2.20379">
        <ele>27.4</ele>
        <time>2020-04-10T09:20:30.000Z</time>
      </trkpt>
      <trkpt lat="47.28263" lon="-2.20378">
        <ele>27.4</ele>
        <time>2020-04-10T09:20:31.000Z</time>
      </trkpt>
      <trkpt lat="47.28269" lon="-2.20377">
        <ele>27.4</ele>
        <time>2020-04-10T09:20:32.000Z</time>
      </trkpt>
      <trkpt lat="47.28274" lon="-2.20376">
        <ele>27.4</ele>
        <time>2020-04-10T09:20:33.000Z</time>
      </trkpt>
      <trkpt lat="47.28279" lon="-2.20374">
        <ele>27.6</ele>
        <time>2020-04-10T09:20:34.000Z</time>
      </trkpt>
      <trkpt lat="47.28284" lon="-2.20372">
        <ele>27.6</ele>
        <time>2020-04-10T09:20:35.000Z</time>
      </trkpt>
      <trkpt lat="47.2829" lon="-2.20371">
        <ele>27.4</ele>
        <time>2020-04-10T09:20:36.000Z</time>
      </trkpt>
      <trkpt lat="47.28295" lon="-2.2037">
        <ele>27.4</ele>
        <time>2020-04-10T09:20:37.000Z</time>
      </trkpt>
      <trkpt lat="47.283" lon="-2.20368">
        <ele>27.6</ele>
        <time>2020-04-10T09:20:38.000Z</time>
      </trkpt>
      <trkpt lat="47.28305" lon="-2.20366">
        <ele>27.6</ele>
        <time>2020-04-10T09:20:39.000Z</time>
      </trkpt>
      <trkpt lat="47.28311" lon="-2.20365">
        <ele>27.8</ele>
        <time>2020-04-10T09:20:40.000Z</time>
      </trkpt>
      <trkpt lat="47.28316" lon="-2.20364">
        <ele>27.6</ele>
        <time>2020-04-10T09:20:41.000Z</time>
      </trkpt>
      <trkpt lat="47.28322" lon="-2.20363">
        <ele>27.4</ele>
        <time>2020-04-10T09:20:42.000Z</time>
      </trkpt>
      <trkpt lat="47.28327" lon="-2.20361">
        <ele>27.2</ele>
        <time>2020-04-10T09:20:43.000Z</time>
      </trkpt>
      <trkpt lat="47.28332" lon="-2.2036">
        <ele>27.2</ele>
        <time>2020-04-10T09:20:44.000Z</time>
      </trkpt>
      <trkpt lat="47.28337" lon="-2.20359">
        <ele>27.2</ele>
        <time>2020-04-10T09:20:45.000Z</time>
      </trkpt>
      <trkpt lat="47.28342" lon="-2.20358">
        <ele>27.2</ele>
        <time>2020-04-10T09:20:46.000Z</time>
      </trkpt>
      <trkpt lat="47.28347" lon="-2.20356">
        <ele>27.2</ele>
        <time>2020-04-10T09:20:47.000Z</time>
      </trkpt>
      <trkpt lat="47.28352" lon="-2.20355">
        <ele>27.2</ele>
        <time>2020-04-10T09:20:48.000Z</time>
      </trkpt>
      <trkpt lat="47.28357" lon="-2.20353">
        <ele>27.2</ele>
        <time>2020-04-10T09:20:49.000Z</time>
      </trkpt>
      <trkpt lat="47.28363" lon="-2.20352">
        <ele>27.2</ele>
        <time>2020-04-10T09:20:50.000Z</time>
      </trkpt>
      <trkpt lat="47.28368" lon="-2.2035">
        <ele>27.2</ele>
        <time>2020-04-10T09:20:51.000Z</time>
      </trkpt>
      <trkpt lat="47.28373" lon="-2.20349">
        <ele>27.2</ele>
        <time>2020-04-10T09:20:52.000Z</time>
      </trkpt>
      <trkpt lat="47.28378" lon="-2.20347">
        <ele>27.4</ele>
        <time>2020-04-10T09:20:53.000Z</time>
      </trkpt>
      <trkpt lat="47.28383" lon="-2.20346">
        <ele>27.4</ele>
        <time>2020-04-10T09:20:54.000Z</time>
      </trkpt>
      <trkpt lat="47.28388" lon="-2.20345">
        <ele>27.4</ele>
        <time>2020-04-10T09:20:55.000Z</time>
      </trkpt>
      <trkpt lat="47.28393" lon="-2.20343">
        <ele>27.2</ele>
        <time>2020-04-10T09:20:56.000Z</time>
      </trkpt>
      <trkpt lat="47.28398" lon="-2.20342">
        <ele>27.4</ele>
        <time>2020-04-10T09:20:57.000Z</time>
      </trkpt>
      <trkpt lat="47.28403" lon="-2.2034">
        <ele>27.2</ele>
        <time>2020-04-10T09:20:58.000Z</time>
      </trkpt>
      <trkpt lat="47.28408" lon="-2.20339">
        <ele>27.2</ele>
        <time>2020-04-10T09:20:59.000Z</time>
      </trkpt>
      <trkpt lat="47.28413" lon="-2.20338">
        <ele>27.2</ele>
        <time>2020-04-10T09:21:00.000Z</time>
      </trkpt>
      <trkpt lat="47.28419" lon="-2.20337">
        <ele>27</ele>
        <time>2020-04-10T09:21:01.000Z</time>
      </trkpt>
      <trkpt lat="47.28423" lon="-2.20335">
        <ele>27</ele>
        <time>2020-04-10T09:21:02.000Z</time>
      </trkpt>
      <trkpt lat="47.28428" lon="-2.20334">
        <ele>26.8</ele>
        <time>2020-04-10T09:21:03.000Z</time>
      </trkpt>
      <trkpt lat="47.28434" lon="-2.20332">
        <ele>26.8</ele>
        <time>2020-04-10T09:21:04.000Z</time>
      </trkpt>
      <trkpt lat="47.28439" lon="-2.20331">
        <ele>26.8</ele>
        <time>2020-04-10T09:21:05.000Z</time>
      </trkpt>
      <trkpt lat="47.28444" lon="-2.2033">
        <ele>27</ele>
        <time>2020-04-10T09:21:06.000Z</time>
      </trkpt>
      <trkpt lat="47.28449" lon="-2.20329">
        <ele>26.8</ele>
        <time>2020-04-10T09:21:07.000Z</time>
      </trkpt>
      <trkpt lat="47.28454" lon="-2.20327">
        <ele>27</ele>
        <time>2020-04-10T09:21:08.000Z</time>
      </trkpt>
      <trkpt lat="47.28459" lon="-2.20326">
        <ele>26.8</ele>
        <time>2020-04-10T09:21:09.000Z</time>
      </trkpt>
      <trkpt lat="47.28464" lon="-2.20325">
        <ele>27</ele>
        <time>2020-04-10T09:21:10.000Z</time>
      </trkpt>
      <trkpt lat="47.28469" lon="-2.20323">
        <ele>27</ele>
        <time>2020-04-10T09:21:11.000Z</time>
      </trkpt>
      <trkpt lat="47.28474" lon="-2.20322">
        <ele>27</ele>
        <time>2020-04-10T09:21:12.000Z</time>
      </trkpt>
      <trkpt lat="47.28478" lon="-2.2032">
        <ele>27</ele>
        <time>2020-04-10T09:21:13.000Z</time>
      </trkpt>
      <trkpt lat="47.28484" lon="-2.20319">
        <ele>26.8</ele>
        <time>2020-04-10T09:21:14.000Z</time>
      </trkpt>
      <trkpt lat="47.28489" lon="-2.20317">
        <ele>26.8</ele>
        <time>2020-04-10T09:21:15.000Z</time>
      </trkpt>
      <trkpt lat="47.28494" lon="-2.20316">
        <ele>26.8</ele>
        <time>2020-04-10T09:21:16.000Z</time>
      </trkpt>
      <trkpt lat="47.285" lon="-2.20315">
        <ele>26.8</ele>
        <time>2020-04-10T09:21:17.000Z</time>
      </trkpt>
      <trkpt lat="47.28505" lon="-2.20313">
        <ele>26.8</ele>
        <time>2020-04-10T09:21:18.000Z</time>
      </trkpt>
      <trkpt lat="47.2851" lon="-2.20312">
        <ele>26.8</ele>
        <time>2020-04-10T09:21:19.000Z</time>
      </trkpt>
      <trkpt lat="47.28515" lon="-2.2031">
        <ele>27</ele>
        <time>2020-04-10T09:21:20.000Z</time>
      </trkpt>
      <trkpt lat="47.28521" lon="-2.20309">
        <ele>26.8</ele>
        <time>2020-04-10T09:21:21.000Z</time>
      </trkpt>
      <trkpt lat="47.28526" lon="-2.20307">
        <ele>27</ele>
        <time>2020-04-10T09:21:22.000Z</time>
      </trkpt>
      <trkpt lat="47.28531" lon="-2.20306">
        <ele>26.8</ele>
        <time>2020-04-10T09:21:23.000Z</time>
      </trkpt>
      <trkpt lat="47.28537" lon="-2.20305">
        <ele>26.8</ele>
        <time>2020-04-10T09:21:24.000Z</time>
      </trkpt>
      <trkpt lat="47.28543" lon="-2.20303">
        <ele>26.6</ele>
        <time>2020-04-10T09:21:25.000Z</time>
      </trkpt>
      <trkpt lat="47.28548" lon="-2.20302">
        <ele>26.6</ele>
        <time>2020-04-10T09:21:26.000Z</time>
      </trkpt>
      <trkpt lat="47.28553" lon="-2.203">
        <ele>26.6</ele>
        <time>2020-04-10T09:21:27.000Z</time>
      </trkpt>
      <trkpt lat="47.28559" lon="-2.20299">
        <ele>26.6</ele>
        <time>2020-04-10T09:21:28.000Z</time>
      </trkpt>
      <trkpt lat="47.28564" lon="-2.20298">
        <ele>26.6</ele>
        <time>2020-04-10T09:21:29.000Z</time>
      </trkpt>
      <trkpt lat="47.2857" lon="-2.20296">
        <ele>26.4</ele>
        <time>2020-04-10T09:21:30.000Z</time>
      </trkpt>
      <trkpt lat="47.28575" lon="-2.20294">
        <ele>26.4</ele>
        <time>2020-04-10T09:21:31.000Z</time>
      </trkpt>
      <trkpt lat="47.28581" lon="-2.20292">
        <ele>26.4</ele>
        <time>2020-04-10T09:21:32.000Z</time>
      </trkpt>
      <trkpt lat="47.28587" lon="-2.2029">
        <ele>26.4</ele>
        <time>2020-04-10T09:21:33.000Z</time>
      </trkpt>
      <trkpt lat="47.28592" lon="-2.20289">
        <ele>26.6</ele>
        <time>2020-04-10T09:21:34.000Z</time>
      </trkpt>
      <trkpt lat="47.28597" lon="-2.20287">
        <ele>26.6</ele>
        <time>2020-04-10T09:21:35.000Z</time>
      </trkpt>
      <trkpt lat="47.28603" lon="-2.20286">
        <ele>26.6</ele>
        <time>2020-04-10T09:21:36.000Z</time>
      </trkpt>
      <trkpt lat="47.28608" lon="-2.20284">
        <ele>26.8</ele>
        <time>2020-04-10T09:21:37.000Z</time>
      </trkpt>
      <trkpt lat="47.28613" lon="-2.20283">
        <ele>26.8</ele>
        <time>2020-04-10T09:21:38.000Z</time>
      </trkpt>
      <trkpt lat="47.28619" lon="-2.20281">
        <ele>26.8</ele>
        <time>2020-04-10T09:21:39.000Z</time>
      </trkpt>
      <trkpt lat="47.28624" lon="-2.2028">
        <ele>26.6</ele>
        <time>2020-04-10T09:21:40.000Z</time>
      </trkpt>
      <trkpt lat="47.28629" lon="-2.20279">
        <ele>26.4</ele>
        <time>2020-04-10T09:21:41.000Z</time>
      </trkpt>
      <trkpt lat="47.28634" lon="-2.20278">
        <ele>26.6</ele>
        <time>2020-04-10T09:21:42.000Z</time>
      </trkpt>
      <trkpt lat="47.2864" lon="-2.20277">
        <ele>26.8</ele>
        <time>2020-04-10T09:21:43.000Z</time>
      </trkpt>
      <trkpt lat="47.28645" lon="-2.20276">
        <ele>26.8</ele>
        <time>2020-04-10T09:21:44.000Z</time>
      </trkpt>
      <trkpt lat="47.28651" lon="-2.20275">
        <ele>26.6</ele>
        <time>2020-04-10T09:21:45.000Z</time>
      </trkpt>
      <trkpt lat="47.28656" lon="-2.20273">
        <ele>26.6</ele>
        <time>2020-04-10T09:21:46.000Z</time>
      </trkpt>
      <trkpt lat="47.28661" lon="-2.20272">
        <ele>26.4</ele>
        <time>2020-04-10T09:21:47.000Z</time>
      </trkpt>
      <trkpt lat="47.28665" lon="-2.2027">
        <ele>26.4</ele>
        <time>2020-04-10T09:21:48.000Z</time>
      </trkpt>
      <trkpt lat="47.28671" lon="-2.20269">
        <ele>26.4</ele>
        <time>2020-04-10T09:21:49.000Z</time>
      </trkpt>
      <trkpt lat="47.28676" lon="-2.20267">
        <ele>26.4</ele>
        <time>2020-04-10T09:21:50.000Z</time>
      </trkpt>
      <trkpt lat="47.28681" lon="-2.20266">
        <ele>26.4</ele>
        <time>2020-04-10T09:21:51.000Z</time>
      </trkpt>
      <trkpt lat="47.28686" lon="-2.20265">
        <ele>26.4</ele>
        <time>2020-04-10T09:21:52.000Z</time>
      </trkpt>
      <trkpt lat="47.28691" lon="-2.20263">
        <ele>26.6</ele>
        <time>2020-04-10T09:21:53.000Z</time>
      </trkpt>
      <trkpt lat="47.28696" lon="-2.20261">
        <ele>26.4</ele>
        <time>2020-04-10T09:21:54.000Z</time>
      </trkpt>
      <trkpt lat="47.28701" lon="-2.20259">
        <ele>26.4</ele>
        <time>2020-04-10T09:21:55.000Z</time>
      </trkpt>
      <trkpt lat="47.28706" lon="-2.20258">
        <ele>26.4</ele>
        <time>2020-04-10T09:21:56.000Z</time>
      </trkpt>
      <trkpt lat="47.28711" lon="-2.20256">
        <ele>26.6</ele>
        <time>2020-04-10T09:21:57.000Z</time>
      </trkpt>
      <trkpt lat="47.28716" lon="-2.20255">
        <ele>26.4</ele>
        <time>2020-04-10T09:21:58.000Z</time>
      </trkpt>
      <trkpt lat="47.28721" lon="-2.20254">
        <ele>26.6</ele>
        <time>2020-04-10T09:21:59.000Z</time>
      </trkpt>
      <trkpt lat="47.28726" lon="-2.20252">
        <ele>26.4</ele>
        <time>2020-04-10T09:22:00.000Z</time>
      </trkpt>
      <trkpt lat="47.28731" lon="-2.20251">
        <ele>26.6</ele>
        <time>2020-04-10T09:22:01.000Z</time>
      </trkpt>
      <trkpt lat="47.28736" lon="-2.20249">
        <ele>26.6</ele>
        <time>2020-04-10T09:22:02.000Z</time>
      </trkpt>
      <trkpt lat="47.28741" lon="-2.20248">
        <ele>26.6</ele>
        <time>2020-04-10T09:22:03.000Z</time>
      </trkpt>
      <trkpt lat="47.28746" lon="-2.20247">
        <ele>26.6</ele>
        <time>2020-04-10T09:22:04.000Z</time>
      </trkpt>
      <trkpt lat="47.2875" lon="-2.20246">
        <ele>26.6</ele>
        <time>2020-04-10T09:22:05.000Z</time>
      </trkpt>
      <trkpt lat="47.28755" lon="-2.20244">
        <ele>26.6</ele>
        <time>2020-04-10T09:22:06.000Z</time>
      </trkpt>
      <trkpt lat="47.28761" lon="-2.20243">
        <ele>26.6</ele>
        <time>2020-04-10T09:22:07.000Z</time>
      </trkpt>
      <trkpt lat="47.28766" lon="-2.20242">
        <ele>26.6</ele>
        <time>2020-04-10T09:22:08.000Z</time>
      </trkpt>
      <trkpt lat="47.2877" lon="-2.20242">
        <ele>26.8</ele>
        <time>2020-04-10T09:22:09.000Z</time>
      </trkpt>
      <trkpt lat="47.28775" lon="-2.20242">
        <ele>27</ele>
        <time>2020-04-10T09:22:10.000Z</time>
      </trkpt>
      <trkpt lat="47.28779" lon="-2.20244">
        <ele>27</ele>
        <time>2020-04-10T09:22:11.000Z</time>
      </trkpt>
      <trkpt lat="47.28783" lon="-2.20247">
        <ele>27</ele>
        <time>2020-04-10T09:22:12.000Z</time>
      </trkpt>
      <trkpt lat="47.28787" lon="-2.2025">
        <ele>27</ele>
        <time>2020-04-10T09:22:13.000Z</time>
      </trkpt>
      <trkpt lat="47.28791" lon="-2.20254">
        <ele>27.4</ele>
        <time>2020-04-10T09:22:14.000Z</time>
      </trkpt>
      <trkpt lat="47.28794" lon="-2.20258">
        <ele>27.4</ele>
        <time>2020-04-10T09:22:15.000Z</time>
      </trkpt>
      <trkpt lat="47.28797" lon="-2.20262">
        <ele>27.6</ele>
        <time>2020-04-10T09:22:16.000Z</time>
      </trkpt>
      <trkpt lat="47.28801" lon="-2.20265">
        <ele>27.8</ele>
        <time>2020-04-10T09:22:17.000Z</time>
      </trkpt>
      <trkpt lat="47.28804" lon="-2.20269">
        <ele>28</ele>
        <time>2020-04-10T09:22:18.000Z</time>
      </trkpt>
      <trkpt lat="47.28807" lon="-2.20273">
        <ele>27.8</ele>
        <time>2020-04-10T09:22:19.000Z</time>
      </trkpt>
      <trkpt lat="47.2881" lon="-2.20277">
        <ele>26.8</ele>
        <time>2020-04-10T09:22:20.000Z</time>
      </trkpt>
      <trkpt lat="47.28813" lon="-2.20282">
        <ele>27</ele>
        <time>2020-04-10T09:22:21.000Z</time>
      </trkpt>
      <trkpt lat="47.28814" lon="-2.20288">
        <ele>26.8</ele>
        <time>2020-04-10T09:22:22.000Z</time>
      </trkpt>
      <trkpt lat="47.28813" lon="-2.20294">
        <ele>26.8</ele>
        <time>2020-04-10T09:22:23.000Z</time>
      </trkpt>
      <trkpt lat="47.28811" lon="-2.203">
        <ele>27.4</ele>
        <time>2020-04-10T09:22:24.000Z</time>
      </trkpt>
      <trkpt lat="47.28808" lon="-2.20306">
        <ele>27</ele>
        <time>2020-04-10T09:22:25.000Z</time>
      </trkpt>
      <trkpt lat="47.28805" lon="-2.20313">
        <ele>26.8</ele>
        <time>2020-04-10T09:22:26.000Z</time>
      </trkpt>
      <trkpt lat="47.28802" lon="-2.2032">
        <ele>26.8</ele>
        <time>2020-04-10T09:22:27.000Z</time>
      </trkpt>
      <trkpt lat="47.288" lon="-2.20326">
        <ele>26.8</ele>
        <time>2020-04-10T09:22:28.000Z</time>
      </trkpt>
      <trkpt lat="47.288" lon="-2.20326">
        <ele>26.8</ele>
        <time>2020-04-10T09:22:29.000Z</time>
      </trkpt>
      <trkpt lat="47.28794" lon="-2.2034">
        <ele>26.8</ele>
        <time>2020-04-10T09:22:30.000Z</time>
      </trkpt>
      <trkpt lat="47.28792" lon="-2.20348">
        <ele>26.8</ele>
        <time>2020-04-10T09:22:31.000Z</time>
      </trkpt>
      <trkpt lat="47.28791" lon="-2.20355">
        <ele>26.8</ele>
        <time>2020-04-10T09:22:32.000Z</time>
      </trkpt>
      <trkpt lat="47.28791" lon="-2.20363">
        <ele>26.6</ele>
        <time>2020-04-10T09:22:33.000Z</time>
      </trkpt>
      <trkpt lat="47.28791" lon="-2.20363">
        <ele>26.6</ele>
        <time>2020-04-10T09:22:34.000Z</time>
      </trkpt>
      <trkpt lat="47.28792" lon="-2.2037">
        <ele>26.8</ele>
        <time>2020-04-10T09:22:35.000Z</time>
      </trkpt>
      <trkpt lat="47.28793" lon="-2.20378">
        <ele>26.8</ele>
        <time>2020-04-10T09:22:36.000Z</time>
      </trkpt>
      <trkpt lat="47.28794" lon="-2.20386">
        <ele>27</ele>
        <time>2020-04-10T09:22:37.000Z</time>
      </trkpt>
      <trkpt lat="47.28795" lon="-2.20394">
        <ele>27</ele>
        <time>2020-04-10T09:22:38.000Z</time>
      </trkpt>
      <trkpt lat="47.28796" lon="-2.20402">
        <ele>27</ele>
        <time>2020-04-10T09:22:39.000Z</time>
      </trkpt>
      <trkpt lat="47.28797" lon="-2.2041">
        <ele>27</ele>
        <time>2020-04-10T09:22:40.000Z</time>
      </trkpt>
      <trkpt lat="47.28798" lon="-2.20417">
        <ele>27</ele>
        <time>2020-04-10T09:22:41.000Z</time>
      </trkpt>
      <trkpt lat="47.28799" lon="-2.20425">
        <ele>27</ele>
        <time>2020-04-10T09:22:42.000Z</time>
      </trkpt>
      <trkpt lat="47.288" lon="-2.20434">
        <ele>26.8</ele>
        <time>2020-04-10T09:22:43.000Z</time>
      </trkpt>
      <trkpt lat="47.28801" lon="-2.20442">
        <ele>26.6</ele>
        <time>2020-04-10T09:22:44.000Z</time>
      </trkpt>
      <trkpt lat="47.28802" lon="-2.2045">
        <ele>26.6</ele>
        <time>2020-04-10T09:22:45.000Z</time>
      </trkpt>
      <trkpt lat="47.28803" lon="-2.20457">
        <ele>26.6</ele>
        <time>2020-04-10T09:22:46.000Z</time>
      </trkpt>
      <trkpt lat="47.28804" lon="-2.20465">
        <ele>26.6</ele>
        <time>2020-04-10T09:22:47.000Z</time>
      </trkpt>
      <trkpt lat="47.28805" lon="-2.20473">
        <ele>26.8</ele>
        <time>2020-04-10T09:22:48.000Z</time>
      </trkpt>
      <trkpt lat="47.28806" lon="-2.20481">
        <ele>26.6</ele>
        <time>2020-04-10T09:22:49.000Z</time>
      </trkpt>
      <trkpt lat="47.28807" lon="-2.20489">
        <ele>26.6</ele>
        <time>2020-04-10T09:22:50.000Z</time>
      </trkpt>
      <trkpt lat="47.28807" lon="-2.20497">
        <ele>26.6</ele>
        <time>2020-04-10T09:22:51.000Z</time>
      </trkpt>
      <trkpt lat="47.28808" lon="-2.20505">
        <ele>26.6</ele>
        <time>2020-04-10T09:22:52.000Z</time>
      </trkpt>
      <trkpt lat="47.28809" lon="-2.20513">
        <ele>26.8</ele>
        <time>2020-04-10T09:22:53.000Z</time>
      </trkpt>
      <trkpt lat="47.2881" lon="-2.20521">
        <ele>26.4</ele>
        <time>2020-04-10T09:22:54.000Z</time>
      </trkpt>
      <trkpt lat="47.28812" lon="-2.20528">
        <ele>26.8</ele>
        <time>2020-04-10T09:22:55.000Z</time>
      </trkpt>
      <trkpt lat="47.28814" lon="-2.20535">
        <ele>27</ele>
        <time>2020-04-10T09:22:56.000Z</time>
      </trkpt>
      <trkpt lat="47.28816" lon="-2.20542">
        <ele>26.8</ele>
        <time>2020-04-10T09:22:57.000Z</time>
      </trkpt>
      <trkpt lat="47.28817" lon="-2.2055">
        <ele>26.8</ele>
        <time>2020-04-10T09:22:58.000Z</time>
      </trkpt>
      <trkpt lat="47.28819" lon="-2.20557">
        <ele>27</ele>
        <time>2020-04-10T09:22:59.000Z</time>
      </trkpt>
      <trkpt lat="47.28821" lon="-2.20564">
        <ele>26.8</ele>
        <time>2020-04-10T09:23:00.000Z</time>
      </trkpt>
      <trkpt lat="47.28823" lon="-2.2057">
        <ele>26.4</ele>
        <time>2020-04-10T09:23:01.000Z</time>
      </trkpt>
      <trkpt lat="47.28825" lon="-2.20577">
        <ele>26.4</ele>
        <time>2020-04-10T09:23:02.000Z</time>
      </trkpt>
      <trkpt lat="47.28827" lon="-2.20583">
        <ele>26.4</ele>
        <time>2020-04-10T09:23:03.000Z</time>
      </trkpt>
      <trkpt lat="47.28829" lon="-2.20589">
        <ele>26.6</ele>
        <time>2020-04-10T09:23:04.000Z</time>
      </trkpt>
      <trkpt lat="47.28832" lon="-2.20595">
        <ele>26.8</ele>
        <time>2020-04-10T09:23:05.000Z</time>
      </trkpt>
      <trkpt lat="47.28835" lon="-2.20601">
        <ele>26.8</ele>
        <time>2020-04-10T09:23:06.000Z</time>
      </trkpt>
      <trkpt lat="47.28838" lon="-2.20608">
        <ele>26.8</ele>
        <time>2020-04-10T09:23:07.000Z</time>
      </trkpt>
      <trkpt lat="47.28841" lon="-2.20614">
        <ele>27</ele>
        <time>2020-04-10T09:23:08.000Z</time>
      </trkpt>
      <trkpt lat="47.28843" lon="-2.20621">
        <ele>27</ele>
        <time>2020-04-10T09:23:09.000Z</time>
      </trkpt>
      <trkpt lat="47.28846" lon="-2.20627">
        <ele>27.2</ele>
        <time>2020-04-10T09:23:10.000Z</time>
      </trkpt>
      <trkpt lat="47.28849" lon="-2.20633">
        <ele>27.2</ele>
        <time>2020-04-10T09:23:11.000Z</time>
      </trkpt>
      <trkpt lat="47.28852" lon="-2.20639">
        <ele>27.2</ele>
        <time>2020-04-10T09:23:12.000Z</time>
      </trkpt>
      <trkpt lat="47.28856" lon="-2.20644">
        <ele>27.6</ele>
        <time>2020-04-10T09:23:13.000Z</time>
      </trkpt>
      <trkpt lat="47.28859" lon="-2.2065">
        <ele>27.4</ele>
        <time>2020-04-10T09:23:14.000Z</time>
      </trkpt>
      <trkpt lat="47.28863" lon="-2.20655">
        <ele>27.4</ele>
        <time>2020-04-10T09:23:15.000Z</time>
      </trkpt>
      <trkpt lat="47.28866" lon="-2.20661">
        <ele>27.4</ele>
        <time>2020-04-10T09:23:16.000Z</time>
      </trkpt>
      <trkpt lat="47.28869" lon="-2.20666">
        <ele>27.6</ele>
        <time>2020-04-10T09:23:17.000Z</time>
      </trkpt>
      <trkpt lat="47.28873" lon="-2.20672">
        <ele>27.6</ele>
        <time>2020-04-10T09:23:18.000Z</time>
      </trkpt>
      <trkpt lat="47.28877" lon="-2.20677">
        <ele>27.6</ele>
        <time>2020-04-10T09:23:19.000Z</time>
      </trkpt>
      <trkpt lat="47.2888" lon="-2.20683">
        <ele>27.4</ele>
        <time>2020-04-10T09:23:20.000Z</time>
      </trkpt>
      <trkpt lat="47.28884" lon="-2.20689">
        <ele>27.2</ele>
        <time>2020-04-10T09:23:21.000Z</time>
      </trkpt>
      <trkpt lat="47.28888" lon="-2.20694">
        <ele>27.2</ele>
        <time>2020-04-10T09:23:22.000Z</time>
      </trkpt>
      <trkpt lat="47.28892" lon="-2.207">
        <ele>27.4</ele>
        <time>2020-04-10T09:23:23.000Z</time>
      </trkpt>
      <trkpt lat="47.28895" lon="-2.20706">
        <ele>27</ele>
        <time>2020-04-10T09:23:24.000Z</time>
      </trkpt>
      <trkpt lat="47.28899" lon="-2.20711">
        <ele>27.2</ele>
        <time>2020-04-10T09:23:25.000Z</time>
      </trkpt>
      <trkpt lat="47.28902" lon="-2.20717">
        <ele>27.2</ele>
        <time>2020-04-10T09:23:26.000Z</time>
      </trkpt>
      <trkpt lat="47.28906" lon="-2.20722">
        <ele>27.4</ele>
        <time>2020-04-10T09:23:27.000Z</time>
      </trkpt>
      <trkpt lat="47.28909" lon="-2.20727">
        <ele>27.6</ele>
        <time>2020-04-10T09:23:28.000Z</time>
      </trkpt>
      <trkpt lat="47.28913" lon="-2.20732">
        <ele>27.6</ele>
        <time>2020-04-10T09:23:29.000Z</time>
      </trkpt>
      <trkpt lat="47.28917" lon="-2.20738">
        <ele>27.6</ele>
        <time>2020-04-10T09:23:30.000Z</time>
      </trkpt>
      <trkpt lat="47.2892" lon="-2.20743">
        <ele>27.8</ele>
        <time>2020-04-10T09:23:31.000Z</time>
      </trkpt>
      <trkpt lat="47.28924" lon="-2.20749">
        <ele>27.6</ele>
        <time>2020-04-10T09:23:32.000Z</time>
      </trkpt>
      <trkpt lat="47.28928" lon="-2.20754">
        <ele>27.8</ele>
        <time>2020-04-10T09:23:33.000Z</time>
      </trkpt>
      <trkpt lat="47.28931" lon="-2.20759">
        <ele>27.8</ele>
        <time>2020-04-10T09:23:34.000Z</time>
      </trkpt>
      <trkpt lat="47.28935" lon="-2.20764">
        <ele>28</ele>
        <time>2020-04-10T09:23:35.000Z</time>
      </trkpt>
      <trkpt lat="47.28938" lon="-2.2077">
        <ele>27.8</ele>
        <time>2020-04-10T09:23:36.000Z</time>
      </trkpt>
      <trkpt lat="47.28942" lon="-2.20775">
        <ele>28</ele>
        <time>2020-04-10T09:23:37.000Z</time>
      </trkpt>
      <trkpt lat="47.28945" lon="-2.20781">
        <ele>28</ele>
        <time>2020-04-10T09:23:38.000Z</time>
      </trkpt>
      <trkpt lat="47.28949" lon="-2.20786">
        <ele>28</ele>
        <time>2020-04-10T09:23:39.000Z</time>
      </trkpt>
      <trkpt lat="47.28952" lon="-2.20791">
        <ele>28</ele>
        <time>2020-04-10T09:23:40.000Z</time>
      </trkpt>
      <trkpt lat="47.28956" lon="-2.20796">
        <ele>28</ele>
        <time>2020-04-10T09:23:41.000Z</time>
      </trkpt>
      <trkpt lat="47.28959" lon="-2.20802">
        <ele>28.2</ele>
        <time>2020-04-10T09:23:42.000Z</time>
      </trkpt>
      <trkpt lat="47.28963" lon="-2.20807">
        <ele>28.2</ele>
        <time>2020-04-10T09:23:43.000Z</time>
      </trkpt>
      <trkpt lat="47.28966" lon="-2.20812">
        <ele>28.2</ele>
        <time>2020-04-10T09:23:44.000Z</time>
      </trkpt>
      <trkpt lat="47.2897" lon="-2.20816">
        <ele>28.2</ele>
        <time>2020-04-10T09:23:45.000Z</time>
      </trkpt>
      <trkpt lat="47.28974" lon="-2.2082">
        <ele>28.2</ele>
        <time>2020-04-10T09:23:46.000Z</time>
      </trkpt>
      <trkpt lat="47.28979" lon="-2.20823">
        <ele>28.2</ele>
        <time>2020-04-10T09:23:47.000Z</time>
      </trkpt>
      <trkpt lat="47.28983" lon="-2.20825">
        <ele>28.2</ele>
        <time>2020-04-10T09:23:48.000Z</time>
      </trkpt>
      <trkpt lat="47.28988" lon="-2.20826">
        <ele>28.4</ele>
        <time>2020-04-10T09:23:49.000Z</time>
      </trkpt>
      <trkpt lat="47.28993" lon="-2.20827">
        <ele>28.4</ele>
        <time>2020-04-10T09:23:50.000Z</time>
      </trkpt>
      <trkpt lat="47.28997" lon="-2.20826">
        <ele>28.6</ele>
        <time>2020-04-10T09:23:51.000Z</time>
      </trkpt>
      <trkpt lat="47.29002" lon="-2.20824">
        <ele>28.6</ele>
        <time>2020-04-10T09:23:52.000Z</time>
      </trkpt>
      <trkpt lat="47.29007" lon="-2.20823">
        <ele>28.4</ele>
        <time>2020-04-10T09:23:53.000Z</time>
      </trkpt>
      <trkpt lat="47.29011" lon="-2.20822">
        <ele>28.6</ele>
        <time>2020-04-10T09:23:54.000Z</time>
      </trkpt>
      <trkpt lat="47.29016" lon="-2.2082">
        <ele>28.6</ele>
        <time>2020-04-10T09:23:55.000Z</time>
      </trkpt>
      <trkpt lat="47.29021" lon="-2.2082">
        <ele>28.6</ele>
        <time>2020-04-10T09:23:56.000Z</time>
      </trkpt>
      <trkpt lat="47.29026" lon="-2.20819">
        <ele>28.8</ele>
        <time>2020-04-10T09:23:57.000Z</time>
      </trkpt>
      <trkpt lat="47.2903" lon="-2.20818">
        <ele>28.8</ele>
        <time>2020-04-10T09:23:58.000Z</time>
      </trkpt>
      <trkpt lat="47.29035" lon="-2.20817">
        <ele>29</ele>
        <time>2020-04-10T09:23:59.000Z</time>
      </trkpt>
      <trkpt lat="47.29041" lon="-2.20814">
        <ele>28.8</ele>
        <time>2020-04-10T09:24:01.000Z</time>
      </trkpt>
      <trkpt lat="47.29044" lon="-2.20813">
        <ele>28.8</ele>
        <time>2020-04-10T09:24:02.000Z</time>
      </trkpt>
      <trkpt lat="47.29047" lon="-2.20812">
        <ele>28.8</ele>
        <time>2020-04-10T09:24:03.000Z</time>
      </trkpt>
      <trkpt lat="47.2905" lon="-2.20813">
        <ele>28.8</ele>
        <time>2020-04-10T09:24:04.000Z</time>
      </trkpt>
      <trkpt lat="47.29053" lon="-2.20817">
        <ele>28.8</ele>
        <time>2020-04-10T09:24:05.000Z</time>
      </trkpt>
      <trkpt lat="47.29054" lon="-2.20822">
        <ele>28.8</ele>
        <time>2020-04-10T09:24:06.000Z</time>
      </trkpt>
      <trkpt lat="47.29056" lon="-2.20828">
        <ele>28.6</ele>
        <time>2020-04-10T09:24:07.000Z</time>
      </trkpt>
      <trkpt lat="47.29057" lon="-2.20834">
        <ele>28.6</ele>
        <time>2020-04-10T09:24:08.000Z</time>
      </trkpt>
      <trkpt lat="47.29059" lon="-2.20839">
        <ele>28.6</ele>
        <time>2020-04-10T09:24:09.000Z</time>
      </trkpt>
      <trkpt lat="47.2906" lon="-2.20845">
        <ele>28.6</ele>
        <time>2020-04-10T09:24:10.000Z</time>
      </trkpt>
      <trkpt lat="47.29062" lon="-2.20851">
        <ele>28.4</ele>
        <time>2020-04-10T09:24:11.000Z</time>
      </trkpt>
      <trkpt lat="47.29063" lon="-2.20857">
        <ele>28.4</ele>
        <time>2020-04-10T09:24:12.000Z</time>
      </trkpt>
      <trkpt lat="47.29065" lon="-2.20863">
        <ele>28.2</ele>
        <time>2020-04-10T09:24:13.000Z</time>
      </trkpt>
      <trkpt lat="47.29067" lon="-2.20868">
        <ele>28</ele>
        <time>2020-04-10T09:24:14.000Z</time>
      </trkpt>
      <trkpt lat="47.2907" lon="-2.20874">
        <ele>27.8</ele>
        <time>2020-04-10T09:24:15.000Z</time>
      </trkpt>
      <trkpt lat="47.29072" lon="-2.2088">
        <ele>27.8</ele>
        <time>2020-04-10T09:24:16.000Z</time>
      </trkpt>
      <trkpt lat="47.29076" lon="-2.20885">
        <ele>27.8</ele>
        <time>2020-04-10T09:24:17.000Z</time>
      </trkpt>
      <trkpt lat="47.29079" lon="-2.2089">
        <ele>27.6</ele>
        <time>2020-04-10T09:24:18.000Z</time>
      </trkpt>
      <trkpt lat="47.29082" lon="-2.20896">
        <ele>27.8</ele>
        <time>2020-04-10T09:24:19.000Z</time>
      </trkpt>
      <trkpt lat="47.29086" lon="-2.20909">
        <ele>27.6</ele>
        <time>2020-04-10T09:24:20.000Z</time>
      </trkpt>
      <trkpt lat="47.29086" lon="-2.20916">
        <ele>27.6</ele>
        <time>2020-04-10T09:24:21.000Z</time>
      </trkpt>
      <trkpt lat="47.29086" lon="-2.20923">
        <ele>27.4</ele>
        <time>2020-04-10T09:24:22.000Z</time>
      </trkpt>
      <trkpt lat="47.29086" lon="-2.20931">
        <ele>27.4</ele>
        <time>2020-04-10T09:24:23.000Z</time>
      </trkpt>
      <trkpt lat="47.29086" lon="-2.20939">
        <ele>27.4</ele>
        <time>2020-04-10T09:24:24.000Z</time>
      </trkpt>
      <trkpt lat="47.29087" lon="-2.20947">
        <ele>27.2</ele>
        <time>2020-04-10T09:24:25.000Z</time>
      </trkpt>
      <trkpt lat="47.29089" lon="-2.20954">
        <ele>27.2</ele>
        <time>2020-04-10T09:24:26.000Z</time>
      </trkpt>
      <trkpt lat="47.29091" lon="-2.2096">
        <ele>27.2</ele>
        <time>2020-04-10T09:24:27.000Z</time>
      </trkpt>
      <trkpt lat="47.29094" lon="-2.20966">
        <ele>27.2</ele>
        <time>2020-04-10T09:24:28.000Z</time>
      </trkpt>
      <trkpt lat="47.29098" lon="-2.20972">
        <ele>27.4</ele>
        <time>2020-04-10T09:24:29.000Z</time>
      </trkpt>
      <trkpt lat="47.29101" lon="-2.20977">
        <ele>27.4</ele>
        <time>2020-04-10T09:24:30.000Z</time>
      </trkpt>
      <trkpt lat="47.29104" lon="-2.20983">
        <ele>27.4</ele>
        <time>2020-04-10T09:24:31.000Z</time>
      </trkpt>
      <trkpt lat="47.29108" lon="-2.20988">
        <ele>27.6</ele>
        <time>2020-04-10T09:24:32.000Z</time>
      </trkpt>
      <trkpt lat="47.29111" lon="-2.20994">
        <ele>27.6</ele>
        <time>2020-04-10T09:24:33.000Z</time>
      </trkpt>
      <trkpt lat="47.29114" lon="-2.20999">
        <ele>27.6</ele>
        <time>2020-04-10T09:24:34.000Z</time>
      </trkpt>
      <trkpt lat="47.29118" lon="-2.21005">
        <ele>27.6</ele>
        <time>2020-04-10T09:24:35.000Z</time>
      </trkpt>
      <trkpt lat="47.29121" lon="-2.2101">
        <ele>27.8</ele>
        <time>2020-04-10T09:24:36.000Z</time>
      </trkpt>
      <trkpt lat="47.29125" lon="-2.21014">
        <ele>27.4</ele>
        <time>2020-04-10T09:24:38.000Z</time>
      </trkpt>
      <trkpt lat="47.29135" lon="-2.2102">
        <ele>27.4</ele>
        <time>2020-04-10T09:24:39.000Z</time>
      </trkpt>
      <trkpt lat="47.29141" lon="-2.21022">
        <ele>27.2</ele>
        <time>2020-04-10T09:24:40.000Z</time>
      </trkpt>
      <trkpt lat="47.29146" lon="-2.21023">
        <ele>27.4</ele>
        <time>2020-04-10T09:24:41.000Z</time>
      </trkpt>
      <trkpt lat="47.29152" lon="-2.21023">
        <ele>27.4</ele>
        <time>2020-04-10T09:24:42.000Z</time>
      </trkpt>
      <trkpt lat="47.29158" lon="-2.21024">
        <ele>27.4</ele>
        <time>2020-04-10T09:24:43.000Z</time>
      </trkpt>
      <trkpt lat="47.29164" lon="-2.21025">
        <ele>27.4</ele>
        <time>2020-04-10T09:24:44.000Z</time>
      </trkpt>
      <trkpt lat="47.29169" lon="-2.21026">
        <ele>27.4</ele>
        <time>2020-04-10T09:24:45.000Z</time>
      </trkpt>
      <trkpt lat="47.29175" lon="-2.21026">
        <ele>27.4</ele>
        <time>2020-04-10T09:24:46.000Z</time>
      </trkpt>
      <trkpt lat="47.2918" lon="-2.21028">
        <ele>27.2</ele>
        <time>2020-04-10T09:24:47.000Z</time>
      </trkpt>
      <trkpt lat="47.29186" lon="-2.21028">
        <ele>27.2</ele>
        <time>2020-04-10T09:24:48.000Z</time>
      </trkpt>
      <trkpt lat="47.29192" lon="-2.21029">
        <ele>27.2</ele>
        <time>2020-04-10T09:24:49.000Z</time>
      </trkpt>
      <trkpt lat="47.29198" lon="-2.21029">
        <ele>27.2</ele>
        <time>2020-04-10T09:24:50.000Z</time>
      </trkpt>
      <trkpt lat="47.29203" lon="-2.21029">
        <ele>27.2</ele>
        <time>2020-04-10T09:24:51.000Z</time>
      </trkpt>
      <trkpt lat="47.29209" lon="-2.21029">
        <ele>27.4</ele>
        <time>2020-04-10T09:24:52.000Z</time>
      </trkpt>
      <trkpt lat="47.29214" lon="-2.21029">
        <ele>27.2</ele>
        <time>2020-04-10T09:24:53.000Z</time>
      </trkpt>
      <trkpt lat="47.29219" lon="-2.21029">
        <ele>27.4</ele>
        <time>2020-04-10T09:24:54.000Z</time>
      </trkpt>
      <trkpt lat="47.29225" lon="-2.21029">
        <ele>27.2</ele>
        <time>2020-04-10T09:24:55.000Z</time>
      </trkpt>
      <trkpt lat="47.2923" lon="-2.2103">
        <ele>27.4</ele>
        <time>2020-04-10T09:24:56.000Z</time>
      </trkpt>
      <trkpt lat="47.29235" lon="-2.2103">
        <ele>27.4</ele>
        <time>2020-04-10T09:24:58.000Z</time>
      </trkpt>
      <trkpt lat="47.29245" lon="-2.2103">
        <ele>27.6</ele>
        <time>2020-04-10T09:24:59.000Z</time>
      </trkpt>
      <trkpt lat="47.2925" lon="-2.2103">
        <ele>27.6</ele>
        <time>2020-04-10T09:25:00.000Z</time>
      </trkpt>
      <trkpt lat="47.29255" lon="-2.2103">
        <ele>27.6</ele>
        <time>2020-04-10T09:25:01.000Z</time>
      </trkpt>
      <trkpt lat="47.2926" lon="-2.21029">
        <ele>27.6</ele>
        <time>2020-04-10T09:25:02.000Z</time>
      </trkpt>
      <trkpt lat="47.29265" lon="-2.21029">
        <ele>27.6</ele>
        <time>2020-04-10T09:25:03.000Z</time>
      </trkpt>
      <trkpt lat="47.2927" lon="-2.21029">
        <ele>27.6</ele>
        <time>2020-04-10T09:25:04.000Z</time>
      </trkpt>
      <trkpt lat="47.29275" lon="-2.21028">
        <ele>27.6</ele>
        <time>2020-04-10T09:25:05.000Z</time>
      </trkpt>
      <trkpt lat="47.2928" lon="-2.21028">
        <ele>27.4</ele>
        <time>2020-04-10T09:25:06.000Z</time>
      </trkpt>
      <trkpt lat="47.29285" lon="-2.21027">
        <ele>27.4</ele>
        <time>2020-04-10T09:25:07.000Z</time>
      </trkpt>
      <trkpt lat="47.2929" lon="-2.21027">
        <ele>27.4</ele>
        <time>2020-04-10T09:25:08.000Z</time>
      </trkpt>
      <trkpt lat="47.29295" lon="-2.21026">
        <ele>27.4</ele>
        <time>2020-04-10T09:25:09.000Z</time>
      </trkpt>
      <trkpt lat="47.293" lon="-2.21025">
        <ele>27.6</ele>
        <time>2020-04-10T09:25:10.000Z</time>
      </trkpt>
      <trkpt lat="47.29305" lon="-2.21023">
        <ele>27.4</ele>
        <time>2020-04-10T09:25:11.000Z</time>
      </trkpt>
      <trkpt lat="47.2931" lon="-2.21022">
        <ele>27.4</ele>
        <time>2020-04-10T09:25:12.000Z</time>
      </trkpt>
      <trkpt lat="47.29316" lon="-2.21021">
        <ele>27.4</ele>
        <time>2020-04-10T09:25:13.000Z</time>
      </trkpt>
      <trkpt lat="47.29321" lon="-2.21021">
        <ele>27.2</ele>
        <time>2020-04-10T09:25:14.000Z</time>
      </trkpt>
      <trkpt lat="47.29326" lon="-2.2102">
        <ele>27.4</ele>
        <time>2020-04-10T09:25:15.000Z</time>
      </trkpt>
      <trkpt lat="47.29331" lon="-2.21018">
        <ele>27.4</ele>
        <time>2020-04-10T09:25:16.000Z</time>
      </trkpt>
      <trkpt lat="47.29336" lon="-2.21017">
        <ele>27.4</ele>
        <time>2020-04-10T09:25:17.000Z</time>
      </trkpt>
      <trkpt lat="47.29341" lon="-2.21015">
        <ele>27.2</ele>
        <time>2020-04-10T09:25:18.000Z</time>
      </trkpt>
      <trkpt lat="47.29345" lon="-2.21014">
        <ele>27</ele>
        <time>2020-04-10T09:25:19.000Z</time>
      </trkpt>
      <trkpt lat="47.29348" lon="-2.21013">
        <ele>27.2</ele>
        <time>2020-04-10T09:25:20.000Z</time>
      </trkpt>
      <trkpt lat="47.29351" lon="-2.21011">
        <ele>27</ele>
        <time>2020-04-10T09:25:21.000Z</time>
      </trkpt>
      <trkpt lat="47.29353" lon="-2.2101">
        <ele>27</ele>
        <time>2020-04-10T09:25:22.000Z</time>
      </trkpt>
      <trkpt lat="47.29355" lon="-2.21008">
        <ele>27.2</ele>
        <time>2020-04-10T09:25:23.000Z</time>
      </trkpt>
      <trkpt lat="47.29357" lon="-2.21006">
        <ele>27</ele>
        <time>2020-04-10T09:25:24.000Z</time>
      </trkpt>
      <trkpt lat="47.29358" lon="-2.21002">
        <ele>27.2</ele>
        <time>2020-04-10T09:25:25.000Z</time>
      </trkpt>
      <trkpt lat="47.2936" lon="-2.20998">
        <ele>27.2</ele>
        <time>2020-04-10T09:25:26.000Z</time>
      </trkpt>
      <trkpt lat="47.29363" lon="-2.20995">
        <ele>27.2</ele>
        <time>2020-04-10T09:25:27.000Z</time>
      </trkpt>
      <trkpt lat="47.29366" lon="-2.20992">
        <ele>27</ele>
        <time>2020-04-10T09:25:28.000Z</time>
      </trkpt>
      <trkpt lat="47.2937" lon="-2.2099">
        <ele>27.2</ele>
        <time>2020-04-10T09:25:29.000Z</time>
      </trkpt>
      <trkpt lat="47.29373" lon="-2.20989">
        <ele>27.4</ele>
        <time>2020-04-10T09:25:30.000Z</time>
      </trkpt>
      <trkpt lat="47.29378" lon="-2.20989">
        <ele>27.4</ele>
        <time>2020-04-10T09:25:31.000Z</time>
      </trkpt>
      <trkpt lat="47.29382" lon="-2.20989">
        <ele>27.4</ele>
        <time>2020-04-10T09:25:32.000Z</time>
      </trkpt>
      <trkpt lat="47.29386" lon="-2.20991">
        <ele>27.6</ele>
        <time>2020-04-10T09:25:33.000Z</time>
      </trkpt>
      <trkpt lat="47.29391" lon="-2.20992">
        <ele>27.4</ele>
        <time>2020-04-10T09:25:34.000Z</time>
      </trkpt>
      <trkpt lat="47.29395" lon="-2.20992">
        <ele>27.4</ele>
        <time>2020-04-10T09:25:35.000Z</time>
      </trkpt>
      <trkpt lat="47.294" lon="-2.20991">
        <ele>27.2</ele>
        <time>2020-04-10T09:25:36.000Z</time>
      </trkpt>
      <trkpt lat="47.29404" lon="-2.20989">
        <ele>27.2</ele>
        <time>2020-04-10T09:25:37.000Z</time>
      </trkpt>
      <trkpt lat="47.29409" lon="-2.20986">
        <ele>27.2</ele>
        <time>2020-04-10T09:25:38.000Z</time>
      </trkpt>
      <trkpt lat="47.29413" lon="-2.20984">
        <ele>27.2</ele>
        <time>2020-04-10T09:25:39.000Z</time>
      </trkpt>
      <trkpt lat="47.29418" lon="-2.20983">
        <ele>27.4</ele>
        <time>2020-04-10T09:25:40.000Z</time>
      </trkpt>
      <trkpt lat="47.29422" lon="-2.20981">
        <ele>27.4</ele>
        <time>2020-04-10T09:25:41.000Z</time>
      </trkpt>
      <trkpt lat="47.29427" lon="-2.20978">
        <ele>27.2</ele>
        <time>2020-04-10T09:25:42.000Z</time>
      </trkpt>
      <trkpt lat="47.29432" lon="-2.20976">
        <ele>27.2</ele>
        <time>2020-04-10T09:25:43.000Z</time>
      </trkpt>
      <trkpt lat="47.29437" lon="-2.20974">
        <ele>27.4</ele>
        <time>2020-04-10T09:25:44.000Z</time>
      </trkpt>
      <trkpt lat="47.29441" lon="-2.20973">
        <ele>27.4</ele>
        <time>2020-04-10T09:25:45.000Z</time>
      </trkpt>
      <trkpt lat="47.29446" lon="-2.2097">
        <ele>27.4</ele>
        <time>2020-04-10T09:25:46.000Z</time>
      </trkpt>
      <trkpt lat="47.29451" lon="-2.20968">
        <ele>27.4</ele>
        <time>2020-04-10T09:25:47.000Z</time>
      </trkpt>
      <trkpt lat="47.29456" lon="-2.20966">
        <ele>27.6</ele>
        <time>2020-04-10T09:25:48.000Z</time>
      </trkpt>
      <trkpt lat="47.2946" lon="-2.20964">
        <ele>27.6</ele>
        <time>2020-04-10T09:25:49.000Z</time>
      </trkpt>
      <trkpt lat="47.29465" lon="-2.20962">
        <ele>27.8</ele>
        <time>2020-04-10T09:25:50.000Z</time>
      </trkpt>
      <trkpt lat="47.2947" lon="-2.2096">
        <ele>27.8</ele>
        <time>2020-04-10T09:25:51.000Z</time>
      </trkpt>
      <trkpt lat="47.29475" lon="-2.20958">
        <ele>27.6</ele>
        <time>2020-04-10T09:25:52.000Z</time>
      </trkpt>
      <trkpt lat="47.29479" lon="-2.20956">
        <ele>27.6</ele>
        <time>2020-04-10T09:25:53.000Z</time>
      </trkpt>
      <trkpt lat="47.29484" lon="-2.20954">
        <ele>27.6</ele>
        <time>2020-04-10T09:25:54.000Z</time>
      </trkpt>
      <trkpt lat="47.29489" lon="-2.20952">
        <ele>27.6</ele>
        <time>2020-04-10T09:25:55.000Z</time>
      </trkpt>
      <trkpt lat="47.29494" lon="-2.20949">
        <ele>27.6</ele>
        <time>2020-04-10T09:25:56.000Z</time>
      </trkpt>
      <trkpt lat="47.29499" lon="-2.20947">
        <ele>27.8</ele>
        <time>2020-04-10T09:25:57.000Z</time>
      </trkpt>
      <trkpt lat="47.29504" lon="-2.20945">
        <ele>27.8</ele>
        <time>2020-04-10T09:25:58.000Z</time>
      </trkpt>
      <trkpt lat="47.29509" lon="-2.20943">
        <ele>28</ele>
        <time>2020-04-10T09:25:59.000Z</time>
      </trkpt>
      <trkpt lat="47.29514" lon="-2.20941">
        <ele>27.8</ele>
        <time>2020-04-10T09:26:00.000Z</time>
      </trkpt>
      <trkpt lat="47.29519" lon="-2.20939">
        <ele>27.8</ele>
        <time>2020-04-10T09:26:01.000Z</time>
      </trkpt>
      <trkpt lat="47.29524" lon="-2.20936">
        <ele>28</ele>
        <time>2020-04-10T09:26:02.000Z</time>
      </trkpt>
      <trkpt lat="47.29528" lon="-2.20934">
        <ele>27.8</ele>
        <time>2020-04-10T09:26:03.000Z</time>
      </trkpt>
      <trkpt lat="47.29533" lon="-2.20933">
        <ele>27.8</ele>
        <time>2020-04-10T09:26:04.000Z</time>
      </trkpt>
      <trkpt lat="47.29538" lon="-2.2093">
        <ele>28</ele>
        <time>2020-04-10T09:26:05.000Z</time>
      </trkpt>
      <trkpt lat="47.29543" lon="-2.20928">
        <ele>27.8</ele>
        <time>2020-04-10T09:26:06.000Z</time>
      </trkpt>
      <trkpt lat="47.29548" lon="-2.20926">
        <ele>27.8</ele>
        <time>2020-04-10T09:26:07.000Z</time>
      </trkpt>
      <trkpt lat="47.29553" lon="-2.20924">
        <ele>27.8</ele>
        <time>2020-04-10T09:26:08.000Z</time>
      </trkpt>
      <trkpt lat="47.29558" lon="-2.20923">
        <ele>27.8</ele>
        <time>2020-04-10T09:26:09.000Z</time>
      </trkpt>
      <trkpt lat="47.29562" lon="-2.20922">
        <ele>27.6</ele>
        <time>2020-04-10T09:26:10.000Z</time>
      </trkpt>
      <trkpt lat="47.29567" lon="-2.20921">
        <ele>27.8</ele>
        <time>2020-04-10T09:26:11.000Z</time>
      </trkpt>
      <trkpt lat="47.29572" lon="-2.2092">
        <ele>27.8</ele>
        <time>2020-04-10T09:26:12.000Z</time>
      </trkpt>
      <trkpt lat="47.29576" lon="-2.20919">
        <ele>27.6</ele>
        <time>2020-04-10T09:26:13.000Z</time>
      </trkpt>
      <trkpt lat="47.29581" lon="-2.20919">
        <ele>27.6</ele>
        <time>2020-04-10T09:26:14.000Z</time>
      </trkpt>
      <trkpt lat="47.29585" lon="-2.20919">
        <ele>27.8</ele>
        <time>2020-04-10T09:26:15.000Z</time>
      </trkpt>
      <trkpt lat="47.2959" lon="-2.20919">
        <ele>27.8</ele>
        <time>2020-04-10T09:26:16.000Z</time>
      </trkpt>
      <trkpt lat="47.29596" lon="-2.2092">
        <ele>27.8</ele>
        <time>2020-04-10T09:26:17.000Z</time>
      </trkpt>
      <trkpt lat="47.296" lon="-2.20921">
        <ele>27.8</ele>
        <time>2020-04-10T09:26:18.000Z</time>
      </trkpt>
      <trkpt lat="47.29605" lon="-2.20922">
        <ele>28</ele>
        <time>2020-04-10T09:26:19.000Z</time>
      </trkpt>
      <trkpt lat="47.2961" lon="-2.20924">
        <ele>28</ele>
        <time>2020-04-10T09:26:20.000Z</time>
      </trkpt>
      <trkpt lat="47.29615" lon="-2.20926">
        <ele>28</ele>
        <time>2020-04-10T09:26:21.000Z</time>
      </trkpt>
      <trkpt lat="47.29619" lon="-2.20928">
        <ele>28</ele>
        <time>2020-04-10T09:26:22.000Z</time>
      </trkpt>
      <trkpt lat="47.29624" lon="-2.2093">
        <ele>28</ele>
        <time>2020-04-10T09:26:23.000Z</time>
      </trkpt>
      <trkpt lat="47.29628" lon="-2.20933">
        <ele>28</ele>
        <time>2020-04-10T09:26:24.000Z</time>
      </trkpt>
      <trkpt lat="47.29633" lon="-2.20935">
        <ele>28.2</ele>
        <time>2020-04-10T09:26:25.000Z</time>
      </trkpt>
      <trkpt lat="47.29638" lon="-2.20938">
        <ele>27.8</ele>
        <time>2020-04-10T09:26:26.000Z</time>
      </trkpt>
      <trkpt lat="47.29642" lon="-2.20942">
        <ele>27.8</ele>
        <time>2020-04-10T09:26:27.000Z</time>
      </trkpt>
      <trkpt lat="47.29647" lon="-2.20945">
        <ele>27.8</ele>
        <time>2020-04-10T09:26:28.000Z</time>
      </trkpt>
      <trkpt lat="47.29651" lon="-2.20948">
        <ele>27.8</ele>
        <time>2020-04-10T09:26:29.000Z</time>
      </trkpt>
      <trkpt lat="47.29656" lon="-2.20951">
        <ele>27.8</ele>
        <time>2020-04-10T09:26:30.000Z</time>
      </trkpt>
      <trkpt lat="47.29661" lon="-2.20955">
        <ele>27.8</ele>
        <time>2020-04-10T09:26:31.000Z</time>
      </trkpt>
      <trkpt lat="47.29665" lon="-2.20958">
        <ele>27.8</ele>
        <time>2020-04-10T09:26:32.000Z</time>
      </trkpt>
      <trkpt lat="47.2967" lon="-2.20962">
        <ele>27.8</ele>
        <time>2020-04-10T09:26:33.000Z</time>
      </trkpt>
      <trkpt lat="47.29675" lon="-2.20966">
        <ele>27.6</ele>
        <time>2020-04-10T09:26:34.000Z</time>
      </trkpt>
      <trkpt lat="47.29679" lon="-2.20969">
        <ele>27.6</ele>
        <time>2020-04-10T09:26:35.000Z</time>
      </trkpt>
      <trkpt lat="47.29684" lon="-2.20972">
        <ele>27.6</ele>
        <time>2020-04-10T09:26:36.000Z</time>
      </trkpt>
      <trkpt lat="47.29689" lon="-2.20975">
        <ele>27.6</ele>
        <time>2020-04-10T09:26:37.000Z</time>
      </trkpt>
      <trkpt lat="47.29694" lon="-2.20978">
        <ele>27.6</ele>
        <time>2020-04-10T09:26:38.000Z</time>
      </trkpt>
      <trkpt lat="47.29699" lon="-2.20981">
        <ele>27.6</ele>
        <time>2020-04-10T09:26:39.000Z</time>
      </trkpt>
      <trkpt lat="47.29703" lon="-2.20985">
        <ele>27.4</ele>
        <time>2020-04-10T09:26:40.000Z</time>
      </trkpt>
      <trkpt lat="47.29708" lon="-2.20988">
        <ele>27.4</ele>
        <time>2020-04-10T09:26:41.000Z</time>
      </trkpt>
      <trkpt lat="47.29713" lon="-2.20991">
        <ele>27.4</ele>
        <time>2020-04-10T09:26:42.000Z</time>
      </trkpt>
      <trkpt lat="47.29717" lon="-2.20994">
        <ele>27.4</ele>
        <time>2020-04-10T09:26:43.000Z</time>
      </trkpt>
      <trkpt lat="47.29722" lon="-2.20997">
        <ele>27.6</ele>
        <time>2020-04-10T09:26:44.000Z</time>
      </trkpt>
      <trkpt lat="47.29727" lon="-2.21001">
        <ele>27.4</ele>
        <time>2020-04-10T09:26:45.000Z</time>
      </trkpt>
      <trkpt lat="47.29731" lon="-2.21005">
        <ele>27.6</ele>
        <time>2020-04-10T09:26:46.000Z</time>
      </trkpt>
      <trkpt lat="47.29736" lon="-2.21008">
        <ele>27.4</ele>
        <time>2020-04-10T09:26:47.000Z</time>
      </trkpt>
      <trkpt lat="47.2974" lon="-2.21012">
        <ele>27.4</ele>
        <time>2020-04-10T09:26:48.000Z</time>
      </trkpt>
      <trkpt lat="47.29744" lon="-2.21015">
        <ele>27.6</ele>
        <time>2020-04-10T09:26:49.000Z</time>
      </trkpt>
      <trkpt lat="47.29749" lon="-2.21017">
        <ele>27.4</ele>
        <time>2020-04-10T09:26:50.000Z</time>
      </trkpt>
      <trkpt lat="47.29754" lon="-2.21018">
        <ele>27.4</ele>
        <time>2020-04-10T09:26:51.000Z</time>
      </trkpt>
      <trkpt lat="47.29759" lon="-2.2102">
        <ele>27.2</ele>
        <time>2020-04-10T09:26:52.000Z</time>
      </trkpt>
      <trkpt lat="47.29764" lon="-2.21023">
        <ele>27.2</ele>
        <time>2020-04-10T09:26:53.000Z</time>
      </trkpt>
      <trkpt lat="47.29769" lon="-2.21028">
        <ele>27.4</ele>
        <time>2020-04-10T09:26:54.000Z</time>
      </trkpt>
      <trkpt lat="47.29773" lon="-2.21033">
        <ele>27.2</ele>
        <time>2020-04-10T09:26:55.000Z</time>
      </trkpt>
      <trkpt lat="47.29778" lon="-2.21038">
        <ele>27.4</ele>
        <time>2020-04-10T09:26:56.000Z</time>
      </trkpt>
      <trkpt lat="47.29783" lon="-2.21042">
        <ele>27.4</ele>
        <time>2020-04-10T09:26:57.000Z</time>
      </trkpt>
      <trkpt lat="47.29788" lon="-2.21046">
        <ele>27.4</ele>
        <time>2020-04-10T09:26:58.000Z</time>
      </trkpt>
      <trkpt lat="47.29794" lon="-2.2105">
        <ele>27.4</ele>
        <time>2020-04-10T09:26:59.000Z</time>
      </trkpt>
      <trkpt lat="47.29799" lon="-2.21054">
        <ele>27.4</ele>
        <time>2020-04-10T09:27:00.000Z</time>
      </trkpt>
      <trkpt lat="47.29804" lon="-2.21057">
        <ele>27.4</ele>
        <time>2020-04-10T09:27:01.000Z</time>
      </trkpt>
      <trkpt lat="47.2981" lon="-2.21061">
        <ele>27</ele>
        <time>2020-04-10T09:27:02.000Z</time>
      </trkpt>
      <trkpt lat="47.29815" lon="-2.21064">
        <ele>27</ele>
        <time>2020-04-10T09:27:03.000Z</time>
      </trkpt>
      <trkpt lat="47.2982" lon="-2.21068">
        <ele>27.2</ele>
        <time>2020-04-10T09:27:04.000Z</time>
      </trkpt>
      <trkpt lat="47.29825" lon="-2.21072">
        <ele>27.2</ele>
        <time>2020-04-10T09:27:05.000Z</time>
      </trkpt>
      <trkpt lat="47.2983" lon="-2.21075">
        <ele>27.2</ele>
        <time>2020-04-10T09:27:06.000Z</time>
      </trkpt>
      <trkpt lat="47.2983" lon="-2.21075">
        <ele>27.4</ele>
        <time>2020-04-10T09:27:07.000Z</time>
      </trkpt>
      <trkpt lat="47.29835" lon="-2.21078">
        <ele>27.2</ele>
        <time>2020-04-10T09:27:08.000Z</time>
      </trkpt>
      <trkpt lat="47.2984" lon="-2.21082">
        <ele>27.2</ele>
        <time>2020-04-10T09:27:09.000Z</time>
      </trkpt>
      <trkpt lat="47.29845" lon="-2.21085">
        <ele>27.4</ele>
        <time>2020-04-10T09:27:10.000Z</time>
      </trkpt>
      <trkpt lat="47.29855" lon="-2.21087">
        <ele>27.4</ele>
        <time>2020-04-10T09:27:11.000Z</time>
      </trkpt>
      <trkpt lat="47.29855" lon="-2.21087">
        <ele>27.6</ele>
        <time>2020-04-10T09:27:12.000Z</time>
      </trkpt>
      <trkpt lat="47.2986" lon="-2.21086">
        <ele>27.8</ele>
        <time>2020-04-10T09:27:13.000Z</time>
      </trkpt>
      <trkpt lat="47.29865" lon="-2.21085">
        <ele>28</ele>
        <time>2020-04-10T09:27:14.000Z</time>
      </trkpt>
      <trkpt lat="47.2987" lon="-2.21084">
        <ele>28.2</ele>
        <time>2020-04-10T09:27:15.000Z</time>
      </trkpt>
      <trkpt lat="47.29875" lon="-2.21087">
        <ele>27.8</ele>
        <time>2020-04-10T09:27:16.000Z</time>
      </trkpt>
      <trkpt lat="47.29879" lon="-2.21091">
        <ele>28</ele>
        <time>2020-04-10T09:27:17.000Z</time>
      </trkpt>
      <trkpt lat="47.29883" lon="-2.21095">
        <ele>28</ele>
        <time>2020-04-10T09:27:18.000Z</time>
      </trkpt>
      <trkpt lat="47.29887" lon="-2.211">
        <ele>27.8</ele>
        <time>2020-04-10T09:27:19.000Z</time>
      </trkpt>
      <trkpt lat="47.29891" lon="-2.21105">
        <ele>27.8</ele>
        <time>2020-04-10T09:27:20.000Z</time>
      </trkpt>
      <trkpt lat="47.29896" lon="-2.21108">
        <ele>27.8</ele>
        <time>2020-04-10T09:27:21.000Z</time>
      </trkpt>
      <trkpt lat="47.29901" lon="-2.21109">
        <ele>27.4</ele>
        <time>2020-04-10T09:27:22.000Z</time>
      </trkpt>
      <trkpt lat="47.29907" lon="-2.2111">
        <ele>27.8</ele>
        <time>2020-04-10T09:27:23.000Z</time>
      </trkpt>
      <trkpt lat="47.29912" lon="-2.21112">
        <ele>27.6</ele>
        <time>2020-04-10T09:27:24.000Z</time>
      </trkpt>
      <trkpt lat="47.29918" lon="-2.21113">
        <ele>27.6</ele>
        <time>2020-04-10T09:27:25.000Z</time>
      </trkpt>
      <trkpt lat="47.29923" lon="-2.21114">
        <ele>27.6</ele>
        <time>2020-04-10T09:27:26.000Z</time>
      </trkpt>
      <trkpt lat="47.29928" lon="-2.21115">
        <ele>27.8</ele>
        <time>2020-04-10T09:27:27.000Z</time>
      </trkpt>
      <trkpt lat="47.29934" lon="-2.21117">
        <ele>27.6</ele>
        <time>2020-04-10T09:27:28.000Z</time>
      </trkpt>
      <trkpt lat="47.29939" lon="-2.21118">
        <ele>27.6</ele>
        <time>2020-04-10T09:27:29.000Z</time>
      </trkpt>
      <trkpt lat="47.29944" lon="-2.21119">
        <ele>27.6</ele>
        <time>2020-04-10T09:27:30.000Z</time>
      </trkpt>
      <trkpt lat="47.29949" lon="-2.21118">
        <ele>27.4</ele>
        <time>2020-04-10T09:27:31.000Z</time>
      </trkpt>
      <trkpt lat="47.29954" lon="-2.21114">
        <ele>27.6</ele>
        <time>2020-04-10T09:27:32.000Z</time>
      </trkpt>
      <trkpt lat="47.29958" lon="-2.21109">
        <ele>27.6</ele>
        <time>2020-04-10T09:27:33.000Z</time>
      </trkpt>
      <trkpt lat="47.2996" lon="-2.21103">
        <ele>27.6</ele>
        <time>2020-04-10T09:27:34.000Z</time>
      </trkpt>
      <trkpt lat="47.29963" lon="-2.21097">
        <ele>27.4</ele>
        <time>2020-04-10T09:27:35.000Z</time>
      </trkpt>
      <trkpt lat="47.29967" lon="-2.21093">
        <ele>27.6</ele>
        <time>2020-04-10T09:27:36.000Z</time>
      </trkpt>
      <trkpt lat="47.29971" lon="-2.21091">
        <ele>27.6</ele>
        <time>2020-04-10T09:27:37.000Z</time>
      </trkpt>
      <trkpt lat="47.29975" lon="-2.21092">
        <ele>27.4</ele>
        <time>2020-04-10T09:27:38.000Z</time>
      </trkpt>
      <trkpt lat="47.29979" lon="-2.21095">
        <ele>27.4</ele>
        <time>2020-04-10T09:27:39.000Z</time>
      </trkpt>
      <trkpt lat="47.29982" lon="-2.211">
        <ele>27.4</ele>
        <time>2020-04-10T09:27:40.000Z</time>
      </trkpt>
      <trkpt lat="47.29984" lon="-2.21106">
        <ele>27.2</ele>
        <time>2020-04-10T09:27:41.000Z</time>
      </trkpt>
      <trkpt lat="47.29987" lon="-2.21112">
        <ele>27.4</ele>
        <time>2020-04-10T09:27:42.000Z</time>
      </trkpt>
      <trkpt lat="47.29988" lon="-2.21119">
        <ele>27.4</ele>
        <time>2020-04-10T09:27:43.000Z</time>
      </trkpt>
      <trkpt lat="47.29989" lon="-2.21126">
        <ele>27.4</ele>
        <time>2020-04-10T09:27:44.000Z</time>
      </trkpt>
      <trkpt lat="47.29992" lon="-2.21132">
        <ele>27.6</ele>
        <time>2020-04-10T09:27:45.000Z</time>
      </trkpt>
      <trkpt lat="47.29995" lon="-2.21137">
        <ele>27.8</ele>
        <time>2020-04-10T09:27:46.000Z</time>
      </trkpt>
      <trkpt lat="47.29999" lon="-2.21142">
        <ele>28.2</ele>
        <time>2020-04-10T09:27:47.000Z</time>
      </trkpt>
      <trkpt lat="47.30002" lon="-2.21147">
        <ele>28</ele>
        <time>2020-04-10T09:27:48.000Z</time>
      </trkpt>
      <trkpt lat="47.30006" lon="-2.21151">
        <ele>27.8</ele>
        <time>2020-04-10T09:27:49.000Z</time>
      </trkpt>
      <trkpt lat="47.3001" lon="-2.21155">
        <ele>27.6</ele>
        <time>2020-04-10T09:27:50.000Z</time>
      </trkpt>
      <trkpt lat="47.30014" lon="-2.21159">
        <ele>27.2</ele>
        <time>2020-04-10T09:27:51.000Z</time>
      </trkpt>
      <trkpt lat="47.30018" lon="-2.21163">
        <ele>27.4</ele>
        <time>2020-04-10T09:27:52.000Z</time>
      </trkpt>
      <trkpt lat="47.30021" lon="-2.21167">
        <ele>27.8</ele>
        <time>2020-04-10T09:27:53.000Z</time>
      </trkpt>
      <trkpt lat="47.30025" lon="-2.21171">
        <ele>27.8</ele>
        <time>2020-04-10T09:27:54.000Z</time>
      </trkpt>
      <trkpt lat="47.30029" lon="-2.21175">
        <ele>28</ele>
        <time>2020-04-10T09:27:55.000Z</time>
      </trkpt>
      <trkpt lat="47.30032" lon="-2.21179">
        <ele>27.8</ele>
        <time>2020-04-10T09:27:56.000Z</time>
      </trkpt>
      <trkpt lat="47.30036" lon="-2.21182">
        <ele>26.6</ele>
        <time>2020-04-10T09:27:57.000Z</time>
      </trkpt>
      <trkpt lat="47.3004" lon="-2.21185">
        <ele>27.2</ele>
        <time>2020-04-10T09:27:58.000Z</time>
      </trkpt>
      <trkpt lat="47.30044" lon="-2.21188">
        <ele>27.2</ele>
        <time>2020-04-10T09:27:59.000Z</time>
      </trkpt>
      <trkpt lat="47.30048" lon="-2.21192">
        <ele>27.6</ele>
        <time>2020-04-10T09:28:00.000Z</time>
      </trkpt>
      <trkpt lat="47.30052" lon="-2.21196">
        <ele>27.6</ele>
        <time>2020-04-10T09:28:01.000Z</time>
      </trkpt>
      <trkpt lat="47.30056" lon="-2.21199">
        <ele>27.8</ele>
        <time>2020-04-10T09:28:02.000Z</time>
      </trkpt>
      <trkpt lat="47.3006" lon="-2.21203">
        <ele>27.4</ele>
        <time>2020-04-10T09:28:03.000Z</time>
      </trkpt>
      <trkpt lat="47.30064" lon="-2.21205">
        <ele>27.6</ele>
        <time>2020-04-10T09:28:04.000Z</time>
      </trkpt>
      <trkpt lat="47.30067" lon="-2.21206">
        <ele>27.4</ele>
        <time>2020-04-10T09:28:05.000Z</time>
      </trkpt>
      <trkpt lat="47.30071" lon="-2.21204">
        <ele>27.6</ele>
        <time>2020-04-10T09:28:06.000Z</time>
      </trkpt>
      <trkpt lat="47.30074" lon="-2.212">
        <ele>27.8</ele>
        <time>2020-04-10T09:28:07.000Z</time>
      </trkpt>
      <trkpt lat="47.30076" lon="-2.21195">
        <ele>27.8</ele>
        <time>2020-04-10T09:28:08.000Z</time>
      </trkpt>
      <trkpt lat="47.3008" lon="-2.21192">
        <ele>27.8</ele>
        <time>2020-04-10T09:28:09.000Z</time>
      </trkpt>
      <trkpt lat="47.30083" lon="-2.21192">
        <ele>27.8</ele>
        <time>2020-04-10T09:28:10.000Z</time>
      </trkpt>
      <trkpt lat="47.30086" lon="-2.21195">
        <ele>27.6</ele>
        <time>2020-04-10T09:28:11.000Z</time>
      </trkpt>
      <trkpt lat="47.30088" lon="-2.21199">
        <ele>27.6</ele>
        <time>2020-04-10T09:28:12.000Z</time>
      </trkpt>
      <trkpt lat="47.30087" lon="-2.21204">
        <ele>27.6</ele>
        <time>2020-04-10T09:28:13.000Z</time>
      </trkpt>
      <trkpt lat="47.30086" lon="-2.21209">
        <ele>27.6</ele>
        <time>2020-04-10T09:28:14.000Z</time>
      </trkpt>
      <trkpt lat="47.30084" lon="-2.21214">
        <ele>27.6</ele>
        <time>2020-04-10T09:28:15.000Z</time>
      </trkpt>
      <trkpt lat="47.30082" lon="-2.2122">
        <ele>27.6</ele>
        <time>2020-04-10T09:28:16.000Z</time>
      </trkpt>
      <trkpt lat="47.30081" lon="-2.21225">
        <ele>27.8</ele>
        <time>2020-04-10T09:28:17.000Z</time>
      </trkpt>
      <trkpt lat="47.3008" lon="-2.2123">
        <ele>27.6</ele>
        <time>2020-04-10T09:28:18.000Z</time>
      </trkpt>
      <trkpt lat="47.30081" lon="-2.21235">
        <ele>27.6</ele>
        <time>2020-04-10T09:28:19.000Z</time>
      </trkpt>
      <trkpt lat="47.30082" lon="-2.21239">
        <ele>27.6</ele>
        <time>2020-04-10T09:28:20.000Z</time>
      </trkpt>
      <trkpt lat="47.30084" lon="-2.21242">
        <ele>27.4</ele>
        <time>2020-04-10T09:28:21.000Z</time>
      </trkpt>
      <trkpt lat="47.30085" lon="-2.21244">
        <ele>27.6</ele>
        <time>2020-04-10T09:28:22.000Z</time>
      </trkpt>
      <trkpt lat="47.30087" lon="-2.21246">
        <ele>27.6</ele>
        <time>2020-04-10T09:28:23.000Z</time>
      </trkpt>
      <trkpt lat="47.30088" lon="-2.21247">
        <ele>27.6</ele>
        <time>2020-04-10T09:28:24.000Z</time>
      </trkpt>
      <trkpt lat="47.3009" lon="-2.21249">
        <ele>27.6</ele>
        <time>2020-04-10T09:28:25.000Z</time>
      </trkpt>
      <trkpt lat="47.3009" lon="-2.21251">
        <ele>27.4</ele>
        <time>2020-04-10T09:28:26.000Z</time>
      </trkpt>
      <trkpt lat="47.30089" lon="-2.21252">
        <ele>27.4</ele>
        <time>2020-04-10T09:28:27.000Z</time>
      </trkpt>
      <trkpt lat="47.30087" lon="-2.21253">
        <ele>27.6</ele>
        <time>2020-04-10T09:28:28.000Z</time>
      </trkpt>
      <trkpt lat="47.30085" lon="-2.21254">
        <ele>27.6</ele>
        <time>2020-04-10T09:28:29.000Z</time>
      </trkpt>
      <trkpt lat="47.30083" lon="-2.21255">
        <ele>27.6</ele>
        <time>2020-04-10T09:28:30.000Z</time>
      </trkpt>
      <trkpt lat="47.30082" lon="-2.21257">
        <ele>27.8</ele>
        <time>2020-04-10T09:28:31.000Z</time>
      </trkpt>
      <trkpt lat="47.30081" lon="-2.21261">
        <ele>27.8</ele>
        <time>2020-04-10T09:28:32.000Z</time>
      </trkpt>
      <trkpt lat="47.30081" lon="-2.21264">
        <ele>27.8</ele>
        <time>2020-04-10T09:28:33.000Z</time>
      </trkpt>
      <trkpt lat="47.30081" lon="-2.21269">
        <ele>27.8</ele>
        <time>2020-04-10T09:28:34.000Z</time>
      </trkpt>
      <trkpt lat="47.30081" lon="-2.21273">
        <ele>27.8</ele>
        <time>2020-04-10T09:28:35.000Z</time>
      </trkpt>
      <trkpt lat="47.30083" lon="-2.21277">
        <ele>27.8</ele>
        <time>2020-04-10T09:28:36.000Z</time>
      </trkpt>
      <trkpt lat="47.30085" lon="-2.2128">
        <ele>27.8</ele>
        <time>2020-04-10T09:28:37.000Z</time>
      </trkpt>
      <trkpt lat="47.30088" lon="-2.21282">
        <ele>27.6</ele>
        <time>2020-04-10T09:28:38.000Z</time>
      </trkpt>
      <trkpt lat="47.3009" lon="-2.21284">
        <ele>27.8</ele>
        <time>2020-04-10T09:28:39.000Z</time>
      </trkpt>
      <trkpt lat="47.30093" lon="-2.21286">
        <ele>27.6</ele>
        <time>2020-04-10T09:28:40.000Z</time>
      </trkpt>
      <trkpt lat="47.30096" lon="-2.21285">
        <ele>27.8</ele>
        <time>2020-04-10T09:28:41.000Z</time>
      </trkpt>
      <trkpt lat="47.30099" lon="-2.21285">
        <ele>28</ele>
        <time>2020-04-10T09:28:42.000Z</time>
      </trkpt>
      <trkpt lat="47.30102" lon="-2.21284">
        <ele>28</ele>
        <time>2020-04-10T09:28:43.000Z</time>
      </trkpt>
      <trkpt lat="47.30106" lon="-2.21284">
        <ele>28</ele>
        <time>2020-04-10T09:28:44.000Z</time>
      </trkpt>
      <trkpt lat="47.30109" lon="-2.21286">
        <ele>27.8</ele>
        <time>2020-04-10T09:28:45.000Z</time>
      </trkpt>
      <trkpt lat="47.30111" lon="-2.21289">
        <ele>28</ele>
        <time>2020-04-10T09:28:46.000Z</time>
      </trkpt>
      <trkpt lat="47.30113" lon="-2.21293">
        <ele>27.8</ele>
        <time>2020-04-10T09:28:47.000Z</time>
      </trkpt>
      <trkpt lat="47.30112" lon="-2.21297">
        <ele>27.8</ele>
        <time>2020-04-10T09:28:48.000Z</time>
      </trkpt>
      <trkpt lat="47.30111" lon="-2.21302">
        <ele>27.8</ele>
        <time>2020-04-10T09:28:49.000Z</time>
      </trkpt>
      <trkpt lat="47.3011" lon="-2.21306">
        <ele>27.6</ele>
        <time>2020-04-10T09:28:50.000Z</time>
      </trkpt>
      <trkpt lat="47.3011" lon="-2.2131">
        <ele>27.6</ele>
        <time>2020-04-10T09:28:51.000Z</time>
      </trkpt>
      <trkpt lat="47.30111" lon="-2.21314">
        <ele>27.4</ele>
        <time>2020-04-10T09:28:52.000Z</time>
      </trkpt>
      <trkpt lat="47.30113" lon="-2.21318">
        <ele>27.6</ele>
        <time>2020-04-10T09:28:53.000Z</time>
      </trkpt>
      <trkpt lat="47.30115" lon="-2.2132">
        <ele>27.6</ele>
        <time>2020-04-10T09:28:54.000Z</time>
      </trkpt>
      <trkpt lat="47.30119" lon="-2.21326">
        <ele>27.8</ele>
        <time>2020-04-10T09:28:55.000Z</time>
      </trkpt>
      <trkpt lat="47.30121" lon="-2.21329">
        <ele>28</ele>
        <time>2020-04-10T09:28:56.000Z</time>
      </trkpt>
      <trkpt lat="47.30124" lon="-2.21332">
        <ele>28</ele>
        <time>2020-04-10T09:28:57.000Z</time>
      </trkpt>
      <trkpt lat="47.30127" lon="-2.21334">
        <ele>27.8</ele>
        <time>2020-04-10T09:28:58.000Z</time>
      </trkpt>
      <trkpt lat="47.30129" lon="-2.21336">
        <ele>27.8</ele>
        <time>2020-04-10T09:28:59.000Z</time>
      </trkpt>
      <trkpt lat="47.30132" lon="-2.21339">
        <ele>27.8</ele>
        <time>2020-04-10T09:29:00.000Z</time>
      </trkpt>
      <trkpt lat="47.30135" lon="-2.21341">
        <ele>28</ele>
        <time>2020-04-10T09:29:01.000Z</time>
      </trkpt>
      <trkpt lat="47.30138" lon="-2.21345">
        <ele>28</ele>
        <time>2020-04-10T09:29:02.000Z</time>
      </trkpt>
      <trkpt lat="47.3014" lon="-2.21347">
        <ele>28.2</ele>
        <time>2020-04-10T09:29:03.000Z</time>
      </trkpt>
      <trkpt lat="47.30143" lon="-2.21349">
        <ele>28</ele>
        <time>2020-04-10T09:29:04.000Z</time>
      </trkpt>
      <trkpt lat="47.30146" lon="-2.2135">
        <ele>28</ele>
        <time>2020-04-10T09:29:05.000Z</time>
      </trkpt>
      <trkpt lat="47.30149" lon="-2.21348">
        <ele>27.8</ele>
        <time>2020-04-10T09:29:06.000Z</time>
      </trkpt>
      <trkpt lat="47.3015" lon="-2.21346">
        <ele>28</ele>
        <time>2020-04-10T09:29:07.000Z</time>
      </trkpt>
      <trkpt lat="47.30151" lon="-2.21343">
        <ele>27.8</ele>
        <time>2020-04-10T09:29:08.000Z</time>
      </trkpt>
      <trkpt lat="47.30152" lon="-2.2134">
        <ele>28</ele>
        <time>2020-04-10T09:29:09.000Z</time>
      </trkpt>
      <trkpt lat="47.30153" lon="-2.21337">
        <ele>27.8</ele>
        <time>2020-04-10T09:29:10.000Z</time>
      </trkpt>
      <trkpt lat="47.30155" lon="-2.21336">
        <ele>27.8</ele>
        <time>2020-04-10T09:29:11.000Z</time>
      </trkpt>
      <trkpt lat="47.30158" lon="-2.21335">
        <ele>27.8</ele>
        <time>2020-04-10T09:29:13.000Z</time>
      </trkpt>
      <trkpt lat="47.30162" lon="-2.21337">
        <ele>28</ele>
        <time>2020-04-10T09:29:14.000Z</time>
      </trkpt>
      <trkpt lat="47.30162" lon="-2.21341">
        <ele>28</ele>
        <time>2020-04-10T09:29:15.000Z</time>
      </trkpt>
      <trkpt lat="47.30162" lon="-2.21345">
        <ele>28</ele>
        <time>2020-04-10T09:29:16.000Z</time>
      </trkpt>
      <trkpt lat="47.30161" lon="-2.21349">
        <ele>27.8</ele>
        <time>2020-04-10T09:29:17.000Z</time>
      </trkpt>
      <trkpt lat="47.30159" lon="-2.21352">
        <ele>27.8</ele>
        <time>2020-04-10T09:29:18.000Z</time>
      </trkpt>
      <trkpt lat="47.30156" lon="-2.21353">
        <ele>27.8</ele>
        <time>2020-04-10T09:29:19.000Z</time>
      </trkpt>
      <trkpt lat="47.30154" lon="-2.21352">
        <ele>27.8</ele>
        <time>2020-04-10T09:29:20.000Z</time>
      </trkpt>
      <trkpt lat="47.30151" lon="-2.2135">
        <ele>27.8</ele>
        <time>2020-04-10T09:29:21.000Z</time>
      </trkpt>
      <trkpt lat="47.30149" lon="-2.21348">
        <ele>27.8</ele>
        <time>2020-04-10T09:29:22.000Z</time>
      </trkpt>
      <trkpt lat="47.30147" lon="-2.21346">
        <ele>27.8</ele>
        <time>2020-04-10T09:29:23.000Z</time>
      </trkpt>
      <trkpt lat="47.30147" lon="-2.21343">
        <ele>27.8</ele>
        <time>2020-04-10T09:29:24.000Z</time>
      </trkpt>
      <trkpt lat="47.30147" lon="-2.21339">
        <ele>27.8</ele>
        <time>2020-04-10T09:29:25.000Z</time>
      </trkpt>
      <trkpt lat="47.30149" lon="-2.21336">
        <ele>28</ele>
        <time>2020-04-10T09:29:26.000Z</time>
      </trkpt>
      <trkpt lat="47.3015" lon="-2.21333">
        <ele>28</ele>
        <time>2020-04-10T09:29:27.000Z</time>
      </trkpt>
      <trkpt lat="47.3015" lon="-2.2133">
        <ele>28</ele>
        <time>2020-04-10T09:29:28.000Z</time>
      </trkpt>
      <trkpt lat="47.3015" lon="-2.21327">
        <ele>28.2</ele>
        <time>2020-04-10T09:29:29.000Z</time>
      </trkpt>
      <trkpt lat="47.30149" lon="-2.21325">
        <ele>28</ele>
        <time>2020-04-10T09:29:30.000Z</time>
      </trkpt>
      <trkpt lat="47.30149" lon="-2.21323">
        <ele>28</ele>
        <time>2020-04-10T09:29:31.000Z</time>
      </trkpt>
      <trkpt lat="47.30148" lon="-2.2132">
        <ele>28</ele>
        <time>2020-04-10T09:29:32.000Z</time>
      </trkpt>
      <trkpt lat="47.30147" lon="-2.21317">
        <ele>28</ele>
        <time>2020-04-10T09:29:33.000Z</time>
      </trkpt>
      <trkpt lat="47.30146" lon="-2.21314">
        <ele>28</ele>
        <time>2020-04-10T09:29:34.000Z</time>
      </trkpt>
      <trkpt lat="47.30145" lon="-2.2131">
        <ele>28</ele>
        <time>2020-04-10T09:29:35.000Z</time>
      </trkpt>
      <trkpt lat="47.30145" lon="-2.21305">
        <ele>28.2</ele>
        <time>2020-04-10T09:29:36.000Z</time>
      </trkpt>
      <trkpt lat="47.30147" lon="-2.21301">
        <ele>28.2</ele>
        <time>2020-04-10T09:29:37.000Z</time>
      </trkpt>
      <trkpt lat="47.30149" lon="-2.21298">
        <ele>28.2</ele>
        <time>2020-04-10T09:29:38.000Z</time>
      </trkpt>
      <trkpt lat="47.30152" lon="-2.21295">
        <ele>28.2</ele>
        <time>2020-04-10T09:29:39.000Z</time>
      </trkpt>
      <trkpt lat="47.30155" lon="-2.21292">
        <ele>28.2</ele>
        <time>2020-04-10T09:29:40.000Z</time>
      </trkpt>
      <trkpt lat="47.30158" lon="-2.2129">
        <ele>28</ele>
        <time>2020-04-10T09:29:41.000Z</time>
      </trkpt>
      <trkpt lat="47.30162" lon="-2.21286">
        <ele>28</ele>
        <time>2020-04-10T09:29:42.000Z</time>
      </trkpt>
      <trkpt lat="47.30165" lon="-2.21282">
        <ele>28</ele>
        <time>2020-04-10T09:29:43.000Z</time>
      </trkpt>
      <trkpt lat="47.30167" lon="-2.21277">
        <ele>27.8</ele>
        <time>2020-04-10T09:29:44.000Z</time>
      </trkpt>
      <trkpt lat="47.3017" lon="-2.21271">
        <ele>28</ele>
        <time>2020-04-10T09:29:45.000Z</time>
      </trkpt>
      <trkpt lat="47.30173" lon="-2.21266">
        <ele>28.2</ele>
        <time>2020-04-10T09:29:46.000Z</time>
      </trkpt>
      <trkpt lat="47.30175" lon="-2.21261">
        <ele>28.2</ele>
        <time>2020-04-10T09:29:47.000Z</time>
      </trkpt>
      <trkpt lat="47.30177" lon="-2.21255">
        <ele>28</ele>
        <time>2020-04-10T09:29:48.000Z</time>
      </trkpt>
      <trkpt lat="47.3018" lon="-2.2125">
        <ele>28</ele>
        <time>2020-04-10T09:29:49.000Z</time>
      </trkpt>
      <trkpt lat="47.30182" lon="-2.21244">
        <ele>28.2</ele>
        <time>2020-04-10T09:29:50.000Z</time>
      </trkpt>
      <trkpt lat="47.30185" lon="-2.21239">
        <ele>28.2</ele>
        <time>2020-04-10T09:29:51.000Z</time>
      </trkpt>
      <trkpt lat="47.30187" lon="-2.21234">
        <ele>28.2</ele>
        <time>2020-04-10T09:29:52.000Z</time>
      </trkpt>
      <trkpt lat="47.3019" lon="-2.2123">
        <ele>28.4</ele>
        <time>2020-04-10T09:29:53.000Z</time>
      </trkpt>
      <trkpt lat="47.30193" lon="-2.21225">
        <ele>28</ele>
        <time>2020-04-10T09:29:54.000Z</time>
      </trkpt>
      <trkpt lat="47.30194" lon="-2.21219">
        <ele>28.2</ele>
        <time>2020-04-10T09:29:55.000Z</time>
      </trkpt>
      <trkpt lat="47.30192" lon="-2.21214">
        <ele>28</ele>
        <time>2020-04-10T09:29:56.000Z</time>
      </trkpt>
      <trkpt lat="47.30189" lon="-2.2121">
        <ele>28</ele>
        <time>2020-04-10T09:29:57.000Z</time>
      </trkpt>
      <trkpt lat="47.30186" lon="-2.21206">
        <ele>28</ele>
        <time>2020-04-10T09:29:58.000Z</time>
      </trkpt>
      <trkpt lat="47.30182" lon="-2.21203">
        <ele>28</ele>
        <time>2020-04-10T09:29:59.000Z</time>
      </trkpt>
      <trkpt lat="47.30178" lon="-2.21201">
        <ele>27.8</ele>
        <time>2020-04-10T09:30:00.000Z</time>
      </trkpt>
      <trkpt lat="47.30174" lon="-2.21198">
        <ele>27.8</ele>
        <time>2020-04-10T09:30:01.000Z</time>
      </trkpt>
      <trkpt lat="47.3017" lon="-2.21195">
        <ele>27.8</ele>
        <time>2020-04-10T09:30:02.000Z</time>
      </trkpt>
      <trkpt lat="47.30166" lon="-2.21192">
        <ele>27.8</ele>
        <time>2020-04-10T09:30:03.000Z</time>
      </trkpt>
      <trkpt lat="47.30162" lon="-2.21188">
        <ele>27.8</ele>
        <time>2020-04-10T09:30:04.000Z</time>
      </trkpt>
      <trkpt lat="47.30158" lon="-2.21185">
        <ele>27.8</ele>
        <time>2020-04-10T09:30:05.000Z</time>
      </trkpt>
      <trkpt lat="47.30154" lon="-2.21182">
        <ele>28</ele>
        <time>2020-04-10T09:30:06.000Z</time>
      </trkpt>
      <trkpt lat="47.3015" lon="-2.21178">
        <ele>27.8</ele>
        <time>2020-04-10T09:30:07.000Z</time>
      </trkpt>
      <trkpt lat="47.30146" lon="-2.21174">
        <ele>28</ele>
        <time>2020-04-10T09:30:08.000Z</time>
      </trkpt>
      <trkpt lat="47.30142" lon="-2.21171">
        <ele>28</ele>
        <time>2020-04-10T09:30:09.000Z</time>
      </trkpt>
      <trkpt lat="47.30138" lon="-2.21168">
        <ele>27.8</ele>
        <time>2020-04-10T09:30:10.000Z</time>
      </trkpt>
      <trkpt lat="47.30134" lon="-2.21164">
        <ele>27.8</ele>
        <time>2020-04-10T09:30:11.000Z</time>
      </trkpt>
      <trkpt lat="47.30131" lon="-2.21161">
        <ele>27.6</ele>
        <time>2020-04-10T09:30:12.000Z</time>
      </trkpt>
      <trkpt lat="47.30127" lon="-2.21157">
        <ele>27.8</ele>
        <time>2020-04-10T09:30:13.000Z</time>
      </trkpt>
      <trkpt lat="47.30123" lon="-2.21154">
        <ele>27.8</ele>
        <time>2020-04-10T09:30:14.000Z</time>
      </trkpt>
      <trkpt lat="47.3012" lon="-2.21151">
        <ele>28</ele>
        <time>2020-04-10T09:30:15.000Z</time>
      </trkpt>
      <trkpt lat="47.30116" lon="-2.21151">
        <ele>27.8</ele>
        <time>2020-04-10T09:30:16.000Z</time>
      </trkpt>
      <trkpt lat="47.30112" lon="-2.21152">
        <ele>27.8</ele>
        <time>2020-04-10T09:30:17.000Z</time>
      </trkpt>
      <trkpt lat="47.30109" lon="-2.21154">
        <ele>27.8</ele>
        <time>2020-04-10T09:30:18.000Z</time>
      </trkpt>
      <trkpt lat="47.30106" lon="-2.21157">
        <ele>27.8</ele>
        <time>2020-04-10T09:30:19.000Z</time>
      </trkpt>
      <trkpt lat="47.30104" lon="-2.21161">
        <ele>28</ele>
        <time>2020-04-10T09:30:20.000Z</time>
      </trkpt>
      <trkpt lat="47.30101" lon="-2.21166">
        <ele>28</ele>
        <time>2020-04-10T09:30:21.000Z</time>
      </trkpt>
      <trkpt lat="47.30099" lon="-2.2117">
        <ele>28.2</ele>
        <time>2020-04-10T09:30:22.000Z</time>
      </trkpt>
      <trkpt lat="47.30096" lon="-2.21175">
        <ele>28</ele>
        <time>2020-04-10T09:30:23.000Z</time>
      </trkpt>
      <trkpt lat="47.30094" lon="-2.2118">
        <ele>28</ele>
        <time>2020-04-10T09:30:24.000Z</time>
      </trkpt>
      <trkpt lat="47.30093" lon="-2.21185">
        <ele>28</ele>
        <time>2020-04-10T09:30:25.000Z</time>
      </trkpt>
      <trkpt lat="47.3009" lon="-2.21189">
        <ele>27.6</ele>
        <time>2020-04-10T09:30:26.000Z</time>
      </trkpt>
      <trkpt lat="47.30088" lon="-2.21192">
        <ele>27.6</ele>
        <time>2020-04-10T09:30:27.000Z</time>
      </trkpt>
      <trkpt lat="47.30086" lon="-2.21194">
        <ele>27.8</ele>
        <time>2020-04-10T09:30:28.000Z</time>
      </trkpt>
      <trkpt lat="47.30083" lon="-2.21196">
        <ele>27.8</ele>
        <time>2020-04-10T09:30:29.000Z</time>
      </trkpt>
      <trkpt lat="47.3008" lon="-2.21193">
        <ele>28</ele>
        <time>2020-04-10T09:30:30.000Z</time>
      </trkpt>
      <trkpt lat="47.30079" lon="-2.21189">
        <ele>28</ele>
        <time>2020-04-10T09:30:31.000Z</time>
      </trkpt>
      <trkpt lat="47.30081" lon="-2.21185">
        <ele>28</ele>
        <time>2020-04-10T09:30:32.000Z</time>
      </trkpt>
      <trkpt lat="47.30083" lon="-2.21181">
        <ele>28</ele>
        <time>2020-04-10T09:30:33.000Z</time>
      </trkpt>
      <trkpt lat="47.30085" lon="-2.21177">
        <ele>28.2</ele>
        <time>2020-04-10T09:30:34.000Z</time>
      </trkpt>
      <trkpt lat="47.30087" lon="-2.21172">
        <ele>28.2</ele>
        <time>2020-04-10T09:30:35.000Z</time>
      </trkpt>
      <trkpt lat="47.30089" lon="-2.21166">
        <ele>28.2</ele>
        <time>2020-04-10T09:30:36.000Z</time>
      </trkpt>
      <trkpt lat="47.3009" lon="-2.21161">
        <ele>28.2</ele>
        <time>2020-04-10T09:30:37.000Z</time>
      </trkpt>
      <trkpt lat="47.30092" lon="-2.21156">
        <ele>28.2</ele>
        <time>2020-04-10T09:30:38.000Z</time>
      </trkpt>
      <trkpt lat="47.30095" lon="-2.21152">
        <ele>28</ele>
        <time>2020-04-10T09:30:39.000Z</time>
      </trkpt>
      <trkpt lat="47.30097" lon="-2.21148">
        <ele>28.2</ele>
        <time>2020-04-10T09:30:40.000Z</time>
      </trkpt>
      <trkpt lat="47.301" lon="-2.21143">
        <ele>28.4</ele>
        <time>2020-04-10T09:30:41.000Z</time>
      </trkpt>
      <trkpt lat="47.30102" lon="-2.21139">
        <ele>28.2</ele>
        <time>2020-04-10T09:30:42.000Z</time>
      </trkpt>
      <trkpt lat="47.30104" lon="-2.21134">
        <ele>28.2</ele>
        <time>2020-04-10T09:30:43.000Z</time>
      </trkpt>
      <trkpt lat="47.30106" lon="-2.21129">
        <ele>28</ele>
        <time>2020-04-10T09:30:44.000Z</time>
      </trkpt>
      <trkpt lat="47.30108" lon="-2.21125">
        <ele>28</ele>
        <time>2020-04-10T09:30:45.000Z</time>
      </trkpt>
      <trkpt lat="47.30112" lon="-2.21123">
        <ele>27.8</ele>
        <time>2020-04-10T09:30:46.000Z</time>
      </trkpt>
      <trkpt lat="47.30115" lon="-2.21121">
        <ele>27.8</ele>
        <time>2020-04-10T09:30:47.000Z</time>
      </trkpt>
      <trkpt lat="47.30117" lon="-2.21118">
        <ele>27.8</ele>
        <time>2020-04-10T09:30:48.000Z</time>
      </trkpt>
      <trkpt lat="47.30119" lon="-2.21114">
        <ele>28</ele>
        <time>2020-04-10T09:30:49.000Z</time>
      </trkpt>
      <trkpt lat="47.30121" lon="-2.21109">
        <ele>28</ele>
        <time>2020-04-10T09:30:50.000Z</time>
      </trkpt>
      <trkpt lat="47.30123" lon="-2.21105">
        <ele>28.2</ele>
        <time>2020-04-10T09:30:51.000Z</time>
      </trkpt>
      <trkpt lat="47.30125" lon="-2.211">
        <ele>28</ele>
        <time>2020-04-10T09:30:52.000Z</time>
      </trkpt>
      <trkpt lat="47.30126" lon="-2.21096">
        <ele>28</ele>
        <time>2020-04-10T09:30:53.000Z</time>
      </trkpt>
      <trkpt lat="47.30128" lon="-2.21092">
        <ele>28</ele>
        <time>2020-04-10T09:30:54.000Z</time>
      </trkpt>
      <trkpt lat="47.3013" lon="-2.21089">
        <ele>28.2</ele>
        <time>2020-04-10T09:30:55.000Z</time>
      </trkpt>
      <trkpt lat="47.30132" lon="-2.21086">
        <ele>28</ele>
        <time>2020-04-10T09:30:56.000Z</time>
      </trkpt>
      <trkpt lat="47.30135" lon="-2.21083">
        <ele>28</ele>
        <time>2020-04-10T09:30:57.000Z</time>
      </trkpt>
      <trkpt lat="47.30138" lon="-2.21081">
        <ele>27.8</ele>
        <time>2020-04-10T09:30:58.000Z</time>
      </trkpt>
      <trkpt lat="47.30141" lon="-2.21082">
        <ele>27.6</ele>
        <time>2020-04-10T09:30:59.000Z</time>
      </trkpt>
      <trkpt lat="47.30144" lon="-2.21085">
        <ele>27.8</ele>
        <time>2020-04-10T09:31:00.000Z</time>
      </trkpt>
      <trkpt lat="47.30145" lon="-2.2109">
        <ele>27.8</ele>
        <time>2020-04-10T09:31:01.000Z</time>
      </trkpt>
      <trkpt lat="47.30148" lon="-2.21094">
        <ele>28</ele>
        <time>2020-04-10T09:31:02.000Z</time>
      </trkpt>
      <trkpt lat="47.3015" lon="-2.21098">
        <ele>28.2</ele>
        <time>2020-04-10T09:31:03.000Z</time>
      </trkpt>
      <trkpt lat="47.30154" lon="-2.21101">
        <ele>28.4</ele>
        <time>2020-04-10T09:31:04.000Z</time>
      </trkpt>
      <trkpt lat="47.30158" lon="-2.21103">
        <ele>28.4</ele>
        <time>2020-04-10T09:31:05.000Z</time>
      </trkpt>
      <trkpt lat="47.30162" lon="-2.21103">
        <ele>28.2</ele>
        <time>2020-04-10T09:31:06.000Z</time>
      </trkpt>
      <trkpt lat="47.30166" lon="-2.21102">
        <ele>28.2</ele>
        <time>2020-04-10T09:31:07.000Z</time>
      </trkpt>
      <trkpt lat="47.30168" lon="-2.21098">
        <ele>28.2</ele>
        <time>2020-04-10T09:31:08.000Z</time>
      </trkpt>
      <trkpt lat="47.30168" lon="-2.21092">
        <ele>28</ele>
        <time>2020-04-10T09:31:09.000Z</time>
      </trkpt>
      <trkpt lat="47.30167" lon="-2.21086">
        <ele>28</ele>
        <time>2020-04-10T09:31:10.000Z</time>
      </trkpt>
      <trkpt lat="47.30165" lon="-2.21081">
        <ele>28</ele>
        <time>2020-04-10T09:31:11.000Z</time>
      </trkpt>
      <trkpt lat="47.30163" lon="-2.21075">
        <ele>28</ele>
        <time>2020-04-10T09:31:12.000Z</time>
      </trkpt>
      <trkpt lat="47.30161" lon="-2.2107">
        <ele>28</ele>
        <time>2020-04-10T09:31:13.000Z</time>
      </trkpt>
      <trkpt lat="47.3016" lon="-2.21064">
        <ele>28.2</ele>
        <time>2020-04-10T09:31:14.000Z</time>
      </trkpt>
      <trkpt lat="47.30158" lon="-2.21059">
        <ele>28.2</ele>
        <time>2020-04-10T09:31:15.000Z</time>
      </trkpt>
      <trkpt lat="47.30157" lon="-2.21054">
        <ele>28.2</ele>
        <time>2020-04-10T09:31:16.000Z</time>
      </trkpt>
      <trkpt lat="47.30155" lon="-2.21049">
        <ele>28.2</ele>
        <time>2020-04-10T09:31:17.000Z</time>
      </trkpt>
      <trkpt lat="47.30153" lon="-2.21043">
        <ele>28.2</ele>
        <time>2020-04-10T09:31:18.000Z</time>
      </trkpt>
      <trkpt lat="47.30152" lon="-2.21038">
        <ele>28.2</ele>
        <time>2020-04-10T09:31:19.000Z</time>
      </trkpt>
      <trkpt lat="47.30151" lon="-2.21032">
        <ele>28.2</ele>
        <time>2020-04-10T09:31:20.000Z</time>
      </trkpt>
      <trkpt lat="47.3015" lon="-2.21026">
        <ele>28.2</ele>
        <time>2020-04-10T09:31:21.000Z</time>
      </trkpt>
      <trkpt lat="47.30149" lon="-2.21021">
        <ele>28.4</ele>
        <time>2020-04-10T09:31:22.000Z</time>
      </trkpt>
      <trkpt lat="47.30147" lon="-2.21015">
        <ele>28.4</ele>
        <time>2020-04-10T09:31:23.000Z</time>
      </trkpt>
      <trkpt lat="47.30145" lon="-2.2101">
        <ele>28.6</ele>
        <time>2020-04-10T09:31:24.000Z</time>
      </trkpt>
      <trkpt lat="47.30143" lon="-2.21005">
        <ele>28.6</ele>
        <time>2020-04-10T09:31:25.000Z</time>
      </trkpt>
      <trkpt lat="47.30141" lon="-2.20999">
        <ele>28.4</ele>
        <time>2020-04-10T09:31:26.000Z</time>
      </trkpt>
      <trkpt lat="47.3014" lon="-2.20993">
        <ele>28.6</ele>
        <time>2020-04-10T09:31:27.000Z</time>
      </trkpt>
      <trkpt lat="47.30138" lon="-2.20987">
        <ele>28.4</ele>
        <time>2020-04-10T09:31:28.000Z</time>
      </trkpt>
      <trkpt lat="47.30137" lon="-2.20981">
        <ele>28.6</ele>
        <time>2020-04-10T09:31:29.000Z</time>
      </trkpt>
      <trkpt lat="47.30135" lon="-2.20975">
        <ele>28.6</ele>
        <time>2020-04-10T09:31:30.000Z</time>
      </trkpt>
      <trkpt lat="47.30133" lon="-2.2097">
        <ele>28.4</ele>
        <time>2020-04-10T09:31:31.000Z</time>
      </trkpt>
      <trkpt lat="47.3013" lon="-2.20964">
        <ele>28.4</ele>
        <time>2020-04-10T09:31:32.000Z</time>
      </trkpt>
      <trkpt lat="47.30128" lon="-2.20958">
        <ele>28.6</ele>
        <time>2020-04-10T09:31:33.000Z</time>
      </trkpt>
      <trkpt lat="47.30126" lon="-2.20952">
        <ele>28.6</ele>
        <time>2020-04-10T09:31:34.000Z</time>
      </trkpt>
      <trkpt lat="47.30125" lon="-2.20946">
        <ele>28.8</ele>
        <time>2020-04-10T09:31:35.000Z</time>
      </trkpt>
      <trkpt lat="47.30123" lon="-2.20939">
        <ele>28.6</ele>
        <time>2020-04-10T09:31:36.000Z</time>
      </trkpt>
      <trkpt lat="47.30121" lon="-2.20933">
        <ele>28.6</ele>
        <time>2020-04-10T09:31:37.000Z</time>
      </trkpt>
      <trkpt lat="47.30121" lon="-2.20927">
        <ele>28.6</ele>
        <time>2020-04-10T09:31:38.000Z</time>
      </trkpt>
      <trkpt lat="47.3012" lon="-2.20921">
        <ele>28.6</ele>
        <time>2020-04-10T09:31:39.000Z</time>
      </trkpt>
      <trkpt lat="47.30119" lon="-2.20915">
        <ele>28.4</ele>
        <time>2020-04-10T09:31:40.000Z</time>
      </trkpt>
      <trkpt lat="47.30118" lon="-2.20909">
        <ele>28.4</ele>
        <time>2020-04-10T09:31:41.000Z</time>
      </trkpt>
      <trkpt lat="47.30119" lon="-2.20904">
        <ele>28.6</ele>
        <time>2020-04-10T09:31:42.000Z</time>
      </trkpt>
      <trkpt lat="47.30119" lon="-2.20904">
        <ele>28.6</ele>
        <time>2020-04-10T09:31:43.000Z</time>
      </trkpt>
      <trkpt lat="47.30119" lon="-2.20893">
        <ele>28.8</ele>
        <time>2020-04-10T09:31:44.000Z</time>
      </trkpt>
      <trkpt lat="47.30119" lon="-2.20888">
        <ele>29</ele>
        <time>2020-04-10T09:31:45.000Z</time>
      </trkpt>
      <trkpt lat="47.30118" lon="-2.20884">
        <ele>28.8</ele>
        <time>2020-04-10T09:31:46.000Z</time>
      </trkpt>
      <trkpt lat="47.30118" lon="-2.20884">
        <ele>28.8</ele>
        <time>2020-04-10T09:31:47.000Z</time>
      </trkpt>
      <trkpt lat="47.30117" lon="-2.20879">
        <ele>28.8</ele>
        <time>2020-04-10T09:31:48.000Z</time>
      </trkpt>
      <trkpt lat="47.30116" lon="-2.20874">
        <ele>28.8</ele>
        <time>2020-04-10T09:31:49.000Z</time>
      </trkpt>
      <trkpt lat="47.30116" lon="-2.20869">
        <ele>28.8</ele>
        <time>2020-04-10T09:31:50.000Z</time>
      </trkpt>
      <trkpt lat="47.30118" lon="-2.20864">
        <ele>28.8</ele>
        <time>2020-04-10T09:31:51.000Z</time>
      </trkpt>
      <trkpt lat="47.3012" lon="-2.2086">
        <ele>28.8</ele>
        <time>2020-04-10T09:31:52.000Z</time>
      </trkpt>
      <trkpt lat="47.30122" lon="-2.20856">
        <ele>28.8</ele>
        <time>2020-04-10T09:31:53.000Z</time>
      </trkpt>
      <trkpt lat="47.30124" lon="-2.20853">
        <ele>28.8</ele>
        <time>2020-04-10T09:31:54.000Z</time>
      </trkpt>
      <trkpt lat="47.30124" lon="-2.2085">
        <ele>28.8</ele>
        <time>2020-04-10T09:31:55.000Z</time>
      </trkpt>
      <trkpt lat="47.30124" lon="-2.20847">
        <ele>29</ele>
        <time>2020-04-10T09:31:56.000Z</time>
      </trkpt>
      <trkpt lat="47.30123" lon="-2.20844">
        <ele>29</ele>
        <time>2020-04-10T09:31:57.000Z</time>
      </trkpt>
      <trkpt lat="47.30123" lon="-2.20841">
        <ele>29</ele>
        <time>2020-04-10T09:31:58.000Z</time>
      </trkpt>
      <trkpt lat="47.30124" lon="-2.20838">
        <ele>29</ele>
        <time>2020-04-10T09:31:59.000Z</time>
      </trkpt>
      <trkpt lat="47.30126" lon="-2.20836">
        <ele>29</ele>
        <time>2020-04-10T09:32:00.000Z</time>
      </trkpt>
      <trkpt lat="47.30128" lon="-2.20834">
        <ele>29</ele>
        <time>2020-04-10T09:32:01.000Z</time>
      </trkpt>
      <trkpt lat="47.3013" lon="-2.20832">
        <ele>29</ele>
        <time>2020-04-10T09:32:02.000Z</time>
      </trkpt>
      <trkpt lat="47.30132" lon="-2.20831">
        <ele>29</ele>
        <time>2020-04-10T09:32:03.000Z</time>
      </trkpt>
      <trkpt lat="47.30135" lon="-2.20829">
        <ele>29</ele>
        <time>2020-04-10T09:32:04.000Z</time>
      </trkpt>
      <trkpt lat="47.30137" lon="-2.20827">
        <ele>29</ele>
        <time>2020-04-10T09:32:05.000Z</time>
      </trkpt>
      <trkpt lat="47.3014" lon="-2.20825">
        <ele>29.2</ele>
        <time>2020-04-10T09:32:06.000Z</time>
      </trkpt>
      <trkpt lat="47.30143" lon="-2.20824">
        <ele>29.2</ele>
        <time>2020-04-10T09:32:07.000Z</time>
      </trkpt>
      <trkpt lat="47.30146" lon="-2.20822">
        <ele>29.2</ele>
        <time>2020-04-10T09:32:08.000Z</time>
      </trkpt>
      <trkpt lat="47.3015" lon="-2.2082">
        <ele>29.2</ele>
        <time>2020-04-10T09:32:09.000Z</time>
      </trkpt>
      <trkpt lat="47.30153" lon="-2.20818">
        <ele>29</ele>
        <time>2020-04-10T09:32:10.000Z</time>
      </trkpt>
      <trkpt lat="47.30156" lon="-2.20816">
        <ele>29.2</ele>
        <time>2020-04-10T09:32:11.000Z</time>
      </trkpt>
      <trkpt lat="47.3016" lon="-2.20814">
        <ele>29</ele>
        <time>2020-04-10T09:32:12.000Z</time>
      </trkpt>
      <trkpt lat="47.30163" lon="-2.20811">
        <ele>29</ele>
        <time>2020-04-10T09:32:13.000Z</time>
      </trkpt>
      <trkpt lat="47.30167" lon="-2.20808">
        <ele>29</ele>
        <time>2020-04-10T09:32:14.000Z</time>
      </trkpt>
      <trkpt lat="47.30169" lon="-2.20804">
        <ele>28.8</ele>
        <time>2020-04-10T09:32:15.000Z</time>
      </trkpt>
      <trkpt lat="47.30169" lon="-2.20798">
        <ele>28.8</ele>
        <time>2020-04-10T09:32:16.000Z</time>
      </trkpt>
      <trkpt lat="47.30169" lon="-2.20793">
        <ele>29</ele>
        <time>2020-04-10T09:32:17.000Z</time>
      </trkpt>
      <trkpt lat="47.3017" lon="-2.20788">
        <ele>29</ele>
        <time>2020-04-10T09:32:18.000Z</time>
      </trkpt>
      <trkpt lat="47.30171" lon="-2.20782">
        <ele>29</ele>
        <time>2020-04-10T09:32:19.000Z</time>
      </trkpt>
      <trkpt lat="47.30173" lon="-2.20777">
        <ele>28.8</ele>
        <time>2020-04-10T09:32:20.000Z</time>
      </trkpt>
      <trkpt lat="47.30176" lon="-2.20772">
        <ele>28.8</ele>
        <time>2020-04-10T09:32:21.000Z</time>
      </trkpt>
      <trkpt lat="47.30179" lon="-2.20768">
        <ele>28.8</ele>
        <time>2020-04-10T09:32:22.000Z</time>
      </trkpt>
      <trkpt lat="47.30181" lon="-2.20763">
        <ele>28.8</ele>
        <time>2020-04-10T09:32:23.000Z</time>
      </trkpt>
      <trkpt lat="47.30184" lon="-2.20759">
        <ele>28.8</ele>
        <time>2020-04-10T09:32:24.000Z</time>
      </trkpt>
      <trkpt lat="47.30188" lon="-2.20755">
        <ele>28.8</ele>
        <time>2020-04-10T09:32:25.000Z</time>
      </trkpt>
      <trkpt lat="47.30191" lon="-2.20751">
        <ele>28.6</ele>
        <time>2020-04-10T09:32:26.000Z</time>
      </trkpt>
      <trkpt lat="47.30195" lon="-2.20747">
        <ele>28.8</ele>
        <time>2020-04-10T09:32:27.000Z</time>
      </trkpt>
      <trkpt lat="47.30199" lon="-2.20746">
        <ele>28.8</ele>
        <time>2020-04-10T09:32:28.000Z</time>
      </trkpt>
      <trkpt lat="47.30203" lon="-2.20747">
        <ele>28.8</ele>
        <time>2020-04-10T09:32:29.000Z</time>
      </trkpt>
      <trkpt lat="47.30207" lon="-2.20748">
        <ele>29</ele>
        <time>2020-04-10T09:32:30.000Z</time>
      </trkpt>
      <trkpt lat="47.30211" lon="-2.20749">
        <ele>29</ele>
        <time>2020-04-10T09:32:31.000Z</time>
      </trkpt>
      <trkpt lat="47.30215" lon="-2.2075">
        <ele>29</ele>
        <time>2020-04-10T09:32:32.000Z</time>
      </trkpt>
      <trkpt lat="47.30219" lon="-2.2075">
        <ele>29</ele>
        <time>2020-04-10T09:32:33.000Z</time>
      </trkpt>
      <trkpt lat="47.30222" lon="-2.2075">
        <ele>29</ele>
        <time>2020-04-10T09:32:34.000Z</time>
      </trkpt>
      <trkpt lat="47.30226" lon="-2.2075">
        <ele>29</ele>
        <time>2020-04-10T09:32:35.000Z</time>
      </trkpt>
      <trkpt lat="47.3023" lon="-2.20751">
        <ele>29</ele>
        <time>2020-04-10T09:32:36.000Z</time>
      </trkpt>
      <trkpt lat="47.30234" lon="-2.2075">
        <ele>28.8</ele>
        <time>2020-04-10T09:32:37.000Z</time>
      </trkpt>
      <trkpt lat="47.30237" lon="-2.20749">
        <ele>29</ele>
        <time>2020-04-10T09:32:38.000Z</time>
      </trkpt>
      <trkpt lat="47.30241" lon="-2.20748">
        <ele>29</ele>
        <time>2020-04-10T09:32:39.000Z</time>
      </trkpt>
      <trkpt lat="47.30245" lon="-2.20748">
        <ele>29.2</ele>
        <time>2020-04-10T09:32:40.000Z</time>
      </trkpt>
      <trkpt lat="47.30249" lon="-2.20748">
        <ele>29.4</ele>
        <time>2020-04-10T09:32:41.000Z</time>
      </trkpt>
      <trkpt lat="47.30253" lon="-2.20748">
        <ele>29.2</ele>
        <time>2020-04-10T09:32:42.000Z</time>
      </trkpt>
      <trkpt lat="47.30257" lon="-2.20747">
        <ele>29.4</ele>
        <time>2020-04-10T09:32:43.000Z</time>
      </trkpt>
      <trkpt lat="47.30261" lon="-2.20746">
        <ele>29.6</ele>
        <time>2020-04-10T09:32:44.000Z</time>
      </trkpt>
      <trkpt lat="47.30264" lon="-2.20745">
        <ele>29.8</ele>
        <time>2020-04-10T09:32:45.000Z</time>
      </trkpt>
      <trkpt lat="47.30267" lon="-2.20743">
        <ele>30</ele>
        <time>2020-04-10T09:32:46.000Z</time>
      </trkpt>
      <trkpt lat="47.3027" lon="-2.20743">
        <ele>30.2</ele>
        <time>2020-04-10T09:32:47.000Z</time>
      </trkpt>
      <trkpt lat="47.30273" lon="-2.20742">
        <ele>30.2</ele>
        <time>2020-04-10T09:32:48.000Z</time>
      </trkpt>
      <trkpt lat="47.30275" lon="-2.20741">
        <ele>30.4</ele>
        <time>2020-04-10T09:32:49.000Z</time>
      </trkpt>
      <trkpt lat="47.30277" lon="-2.20739">
        <ele>30.4</ele>
        <time>2020-04-10T09:32:50.000Z</time>
      </trkpt>
      <trkpt lat="47.30277" lon="-2.20736">
        <ele>30.4</ele>
        <time>2020-04-10T09:32:51.000Z</time>
      </trkpt>
      <trkpt lat="47.30276" lon="-2.20734">
        <ele>30.8</ele>
        <time>2020-04-10T09:32:52.000Z</time>
      </trkpt>
      <trkpt lat="47.30273" lon="-2.20732">
        <ele>31</ele>
        <time>2020-04-10T09:32:53.000Z</time>
      </trkpt>
      <trkpt lat="47.30271" lon="-2.20732">
        <ele>31</ele>
        <time>2020-04-10T09:32:54.000Z</time>
      </trkpt>
      <trkpt lat="47.30269" lon="-2.20732">
        <ele>31.2</ele>
        <time>2020-04-10T09:32:55.000Z</time>
      </trkpt>
      <trkpt lat="47.30266" lon="-2.20731">
        <ele>31.2</ele>
        <time>2020-04-10T09:32:56.000Z</time>
      </trkpt>
      <trkpt lat="47.30264" lon="-2.20729">
        <ele>31.4</ele>
        <time>2020-04-10T09:32:57.000Z</time>
      </trkpt>
      <trkpt lat="47.30261" lon="-2.20727">
        <ele>31.4</ele>
        <time>2020-04-10T09:32:58.000Z</time>
      </trkpt>
      <trkpt lat="47.30258" lon="-2.20726">
        <ele>31.6</ele>
        <time>2020-04-10T09:32:59.000Z</time>
      </trkpt>
      <trkpt lat="47.30252" lon="-2.20723">
        <ele>32</ele>
        <time>2020-04-10T09:33:01.000Z</time>
      </trkpt>
      <trkpt lat="47.30249" lon="-2.20721">
        <ele>32.4</ele>
        <time>2020-04-10T09:33:02.000Z</time>
      </trkpt>
      <trkpt lat="47.30245" lon="-2.2072">
        <ele>32.6</ele>
        <time>2020-04-10T09:33:03.000Z</time>
      </trkpt>
      <trkpt lat="47.30242" lon="-2.20718">
        <ele>32.8</ele>
        <time>2020-04-10T09:33:04.000Z</time>
      </trkpt>
      <trkpt lat="47.30239" lon="-2.20716">
        <ele>33</ele>
        <time>2020-04-10T09:33:05.000Z</time>
      </trkpt>
      <trkpt lat="47.30236" lon="-2.20713">
        <ele>33.2</ele>
        <time>2020-04-10T09:33:06.000Z</time>
      </trkpt>
      <trkpt lat="47.30234" lon="-2.20709">
        <ele>33.2</ele>
        <time>2020-04-10T09:33:07.000Z</time>
      </trkpt>
      <trkpt lat="47.30232" lon="-2.20704">
        <ele>33.4</ele>
        <time>2020-04-10T09:33:08.000Z</time>
      </trkpt>
      <trkpt lat="47.30231" lon="-2.20699">
        <ele>33.6</ele>
        <time>2020-04-10T09:33:09.000Z</time>
      </trkpt>
      <trkpt lat="47.3023" lon="-2.20695">
        <ele>33.8</ele>
        <time>2020-04-10T09:33:10.000Z</time>
      </trkpt>
      <trkpt lat="47.3023" lon="-2.2069">
        <ele>34.2</ele>
        <time>2020-04-10T09:33:11.000Z</time>
      </trkpt>
      <trkpt lat="47.30229" lon="-2.20685">
        <ele>34.4</ele>
        <time>2020-04-10T09:33:12.000Z</time>
      </trkpt>
      <trkpt lat="47.30228" lon="-2.20681">
        <ele>34.6</ele>
        <time>2020-04-10T09:33:13.000Z</time>
      </trkpt>
      <trkpt lat="47.30228" lon="-2.20676">
        <ele>34.6</ele>
        <time>2020-04-10T09:33:14.000Z</time>
      </trkpt>
      <trkpt lat="47.30227" lon="-2.20671">
        <ele>34.6</ele>
        <time>2020-04-10T09:33:15.000Z</time>
      </trkpt>
      <trkpt lat="47.30227" lon="-2.20666">
        <ele>34.6</ele>
        <time>2020-04-10T09:33:16.000Z</time>
      </trkpt>
      <trkpt lat="47.30227" lon="-2.20661">
        <ele>34.6</ele>
        <time>2020-04-10T09:33:17.000Z</time>
      </trkpt>
      <trkpt lat="47.30226" lon="-2.20655">
        <ele>34.6</ele>
        <time>2020-04-10T09:33:18.000Z</time>
      </trkpt>
      <trkpt lat="47.30226" lon="-2.2065">
        <ele>34.4</ele>
        <time>2020-04-10T09:33:19.000Z</time>
      </trkpt>
      <trkpt lat="47.30225" lon="-2.20644">
        <ele>34.4</ele>
        <time>2020-04-10T09:33:20.000Z</time>
      </trkpt>
      <trkpt lat="47.30225" lon="-2.20638">
        <ele>34.2</ele>
        <time>2020-04-10T09:33:21.000Z</time>
      </trkpt>
      <trkpt lat="47.30224" lon="-2.20631">
        <ele>34</ele>
        <time>2020-04-10T09:33:22.000Z</time>
      </trkpt>
      <trkpt lat="47.30223" lon="-2.20624">
        <ele>33.8</ele>
        <time>2020-04-10T09:33:23.000Z</time>
      </trkpt>
      <trkpt lat="47.30224" lon="-2.20616">
        <ele>33.4</ele>
        <time>2020-04-10T09:33:24.000Z</time>
      </trkpt>
      <trkpt lat="47.30226" lon="-2.20609">
        <ele>33</ele>
        <time>2020-04-10T09:33:25.000Z</time>
      </trkpt>
      <trkpt lat="47.3023" lon="-2.20603">
        <ele>32.6</ele>
        <time>2020-04-10T09:33:26.000Z</time>
      </trkpt>
      <trkpt lat="47.30236" lon="-2.20598">
        <ele>32.2</ele>
        <time>2020-04-10T09:33:27.000Z</time>
      </trkpt>
      <trkpt lat="47.30241" lon="-2.20594">
        <ele>32</ele>
        <time>2020-04-10T09:33:28.000Z</time>
      </trkpt>
      <trkpt lat="47.30247" lon="-2.20589">
        <ele>31.6</ele>
        <time>2020-04-10T09:33:29.000Z</time>
      </trkpt>
      <trkpt lat="47.30253" lon="-2.20583">
        <ele>31.4</ele>
        <time>2020-04-10T09:33:30.000Z</time>
      </trkpt>
      <trkpt lat="47.30262" lon="-2.20567">
        <ele>30.4</ele>
        <time>2020-04-10T09:33:31.000Z</time>
      </trkpt>
      <trkpt lat="47.30266" lon="-2.20557">
        <ele>29.8</ele>
        <time>2020-04-10T09:33:32.000Z</time>
      </trkpt>
      <trkpt lat="47.30268" lon="-2.20548">
        <ele>29.2</ele>
        <time>2020-04-10T09:33:33.000Z</time>
      </trkpt>
      <trkpt lat="47.30271" lon="-2.20539">
        <ele>28.8</ele>
        <time>2020-04-10T09:33:34.000Z</time>
      </trkpt>
      <trkpt lat="47.30272" lon="-2.2053">
        <ele>28.6</ele>
        <time>2020-04-10T09:33:35.000Z</time>
      </trkpt>
      <trkpt lat="47.30272" lon="-2.20521">
        <ele>28.6</ele>
        <time>2020-04-10T09:33:36.000Z</time>
      </trkpt>
      <trkpt lat="47.3027" lon="-2.20512">
        <ele>28.2</ele>
        <time>2020-04-10T09:33:37.000Z</time>
      </trkpt>
      <trkpt lat="47.30268" lon="-2.20505">
        <ele>28</ele>
        <time>2020-04-10T09:33:38.000Z</time>
      </trkpt>
      <trkpt lat="47.30267" lon="-2.20498">
        <ele>28</ele>
        <time>2020-04-10T09:33:39.000Z</time>
      </trkpt>
      <trkpt lat="47.30268" lon="-2.20491">
        <ele>27.8</ele>
        <time>2020-04-10T09:33:40.000Z</time>
      </trkpt>
      <trkpt lat="47.3027" lon="-2.20485">
        <ele>28</ele>
        <time>2020-04-10T09:33:41.000Z</time>
      </trkpt>
      <trkpt lat="47.30273" lon="-2.20479">
        <ele>28</ele>
        <time>2020-04-10T09:33:42.000Z</time>
      </trkpt>
      <trkpt lat="47.30277" lon="-2.20473">
        <ele>28</ele>
        <time>2020-04-10T09:33:43.000Z</time>
      </trkpt>
      <trkpt lat="47.30281" lon="-2.20468">
        <ele>28.2</ele>
        <time>2020-04-10T09:33:44.000Z</time>
      </trkpt>
      <trkpt lat="47.30284" lon="-2.20462">
        <ele>28</ele>
        <time>2020-04-10T09:33:45.000Z</time>
      </trkpt>
      <trkpt lat="47.30288" lon="-2.20456">
        <ele>28</ele>
        <time>2020-04-10T09:33:47.000Z</time>
      </trkpt>
      <trkpt lat="47.30296" lon="-2.20444">
        <ele>28</ele>
        <time>2020-04-10T09:33:48.000Z</time>
      </trkpt>
      <trkpt lat="47.303" lon="-2.20438">
        <ele>28</ele>
        <time>2020-04-10T09:33:49.000Z</time>
      </trkpt>
      <trkpt lat="47.30303" lon="-2.20432">
        <ele>28.2</ele>
        <time>2020-04-10T09:33:50.000Z</time>
      </trkpt>
      <trkpt lat="47.30307" lon="-2.20426">
        <ele>28.2</ele>
        <time>2020-04-10T09:33:51.000Z</time>
      </trkpt>
      <trkpt lat="47.30311" lon="-2.2042">
        <ele>28.4</ele>
        <time>2020-04-10T09:33:52.000Z</time>
      </trkpt>
      <trkpt lat="47.30314" lon="-2.20414">
        <ele>28.4</ele>
        <time>2020-04-10T09:33:53.000Z</time>
      </trkpt>
      <trkpt lat="47.30318" lon="-2.20409">
        <ele>28.4</ele>
        <time>2020-04-10T09:33:54.000Z</time>
      </trkpt>
      <trkpt lat="47.30322" lon="-2.20403">
        <ele>28.2</ele>
        <time>2020-04-10T09:33:55.000Z</time>
      </trkpt>
      <trkpt lat="47.30326" lon="-2.20397">
        <ele>28.2</ele>
        <time>2020-04-10T09:33:56.000Z</time>
      </trkpt>
      <trkpt lat="47.30329" lon="-2.20392">
        <ele>28.2</ele>
        <time>2020-04-10T09:33:57.000Z</time>
      </trkpt>
      <trkpt lat="47.30333" lon="-2.20386">
        <ele>28.2</ele>
        <time>2020-04-10T09:33:58.000Z</time>
      </trkpt>
      <trkpt lat="47.30336" lon="-2.2038">
        <ele>28.4</ele>
        <time>2020-04-10T09:33:59.000Z</time>
      </trkpt>
      <trkpt lat="47.3034" lon="-2.20375">
        <ele>28.2</ele>
        <time>2020-04-10T09:34:00.000Z</time>
      </trkpt>
      <trkpt lat="47.30344" lon="-2.2037">
        <ele>28.2</ele>
        <time>2020-04-10T09:34:01.000Z</time>
      </trkpt>
      <trkpt lat="47.30348" lon="-2.20365">
        <ele>28.2</ele>
        <time>2020-04-10T09:34:02.000Z</time>
      </trkpt>
      <trkpt lat="47.30351" lon="-2.20359">
        <ele>28.2</ele>
        <time>2020-04-10T09:34:03.000Z</time>
      </trkpt>
      <trkpt lat="47.30354" lon="-2.20354">
        <ele>28</ele>
        <time>2020-04-10T09:34:04.000Z</time>
      </trkpt>
      <trkpt lat="47.30358" lon="-2.20348">
        <ele>28.2</ele>
        <time>2020-04-10T09:34:05.000Z</time>
      </trkpt>
      <trkpt lat="47.30361" lon="-2.20343">
        <ele>28.4</ele>
        <time>2020-04-10T09:34:06.000Z</time>
      </trkpt>
      <trkpt lat="47.30365" lon="-2.20338">
        <ele>28.4</ele>
        <time>2020-04-10T09:34:07.000Z</time>
      </trkpt>
      <trkpt lat="47.30368" lon="-2.20332">
        <ele>28.2</ele>
        <time>2020-04-10T09:34:08.000Z</time>
      </trkpt>
      <trkpt lat="47.30372" lon="-2.20327">
        <ele>28.2</ele>
        <time>2020-04-10T09:34:09.000Z</time>
      </trkpt>
      <trkpt lat="47.30375" lon="-2.20322">
        <ele>28.2</ele>
        <time>2020-04-10T09:34:10.000Z</time>
      </trkpt>
      <trkpt lat="47.30378" lon="-2.20316">
        <ele>28.4</ele>
        <time>2020-04-10T09:34:11.000Z</time>
      </trkpt>
      <trkpt lat="47.30382" lon="-2.20311">
        <ele>28.4</ele>
        <time>2020-04-10T09:34:12.000Z</time>
      </trkpt>
      <trkpt lat="47.30385" lon="-2.20305">
        <ele>28.4</ele>
        <time>2020-04-10T09:34:13.000Z</time>
      </trkpt>
      <trkpt lat="47.30389" lon="-2.203">
        <ele>28.2</ele>
        <time>2020-04-10T09:34:14.000Z</time>
      </trkpt>
      <trkpt lat="47.30392" lon="-2.20295">
        <ele>28.2</ele>
        <time>2020-04-10T09:34:15.000Z</time>
      </trkpt>
      <trkpt lat="47.30395" lon="-2.2029">
        <ele>28.4</ele>
        <time>2020-04-10T09:34:16.000Z</time>
      </trkpt>
      <trkpt lat="47.30399" lon="-2.20285">
        <ele>28.4</ele>
        <time>2020-04-10T09:34:17.000Z</time>
      </trkpt>
      <trkpt lat="47.30402" lon="-2.2028">
        <ele>28.4</ele>
        <time>2020-04-10T09:34:18.000Z</time>
      </trkpt>
      <trkpt lat="47.30405" lon="-2.20274">
        <ele>28.4</ele>
        <time>2020-04-10T09:34:19.000Z</time>
      </trkpt>
      <trkpt lat="47.30406" lon="-2.20268">
        <ele>28.2</ele>
        <time>2020-04-10T09:34:20.000Z</time>
      </trkpt>
      <trkpt lat="47.30406" lon="-2.20262">
        <ele>28.4</ele>
        <time>2020-04-10T09:34:21.000Z</time>
      </trkpt>
      <trkpt lat="47.30404" lon="-2.20256">
        <ele>28.4</ele>
        <time>2020-04-10T09:34:22.000Z</time>
      </trkpt>
      <trkpt lat="47.30401" lon="-2.20253">
        <ele>28.4</ele>
        <time>2020-04-10T09:34:23.000Z</time>
      </trkpt>
      <trkpt lat="47.30397" lon="-2.20249">
        <ele>28.6</ele>
        <time>2020-04-10T09:34:24.000Z</time>
      </trkpt>
      <trkpt lat="47.30393" lon="-2.20245">
        <ele>28.4</ele>
        <time>2020-04-10T09:34:25.000Z</time>
      </trkpt>
      <trkpt lat="47.3039" lon="-2.20241">
        <ele>28.4</ele>
        <time>2020-04-10T09:34:26.000Z</time>
      </trkpt>
      <trkpt lat="47.30386" lon="-2.20237">
        <ele>28.4</ele>
        <time>2020-04-10T09:34:27.000Z</time>
      </trkpt>
      <trkpt lat="47.30383" lon="-2.20232">
        <ele>28.4</ele>
        <time>2020-04-10T09:34:28.000Z</time>
      </trkpt>
      <trkpt lat="47.3038" lon="-2.20228">
        <ele>28.4</ele>
        <time>2020-04-10T09:34:29.000Z</time>
      </trkpt>
      <trkpt lat="47.30376" lon="-2.20223">
        <ele>28.4</ele>
        <time>2020-04-10T09:34:30.000Z</time>
      </trkpt>
      <trkpt lat="47.30373" lon="-2.20219">
        <ele>28.4</ele>
        <time>2020-04-10T09:34:31.000Z</time>
      </trkpt>
      <trkpt lat="47.30369" lon="-2.20215">
        <ele>28.4</ele>
        <time>2020-04-10T09:34:32.000Z</time>
      </trkpt>
      <trkpt lat="47.30366" lon="-2.2021">
        <ele>28.6</ele>
        <time>2020-04-10T09:34:33.000Z</time>
      </trkpt>
      <trkpt lat="47.30363" lon="-2.20206">
        <ele>28.6</ele>
        <time>2020-04-10T09:34:34.000Z</time>
      </trkpt>
      <trkpt lat="47.3036" lon="-2.20201">
        <ele>28.8</ele>
        <time>2020-04-10T09:34:35.000Z</time>
      </trkpt>
      <trkpt lat="47.30357" lon="-2.20196">
        <ele>28.8</ele>
        <time>2020-04-10T09:34:36.000Z</time>
      </trkpt>
      <trkpt lat="47.30354" lon="-2.2019">
        <ele>28.6</ele>
        <time>2020-04-10T09:34:37.000Z</time>
      </trkpt>
      <trkpt lat="47.30351" lon="-2.20185">
        <ele>28.6</ele>
        <time>2020-04-10T09:34:38.000Z</time>
      </trkpt>
      <trkpt lat="47.30348" lon="-2.2018">
        <ele>28.4</ele>
        <time>2020-04-10T09:34:39.000Z</time>
      </trkpt>
      <trkpt lat="47.30345" lon="-2.20174">
        <ele>28.6</ele>
        <time>2020-04-10T09:34:40.000Z</time>
      </trkpt>
      <trkpt lat="47.30343" lon="-2.20167">
        <ele>28.6</ele>
        <time>2020-04-10T09:34:41.000Z</time>
      </trkpt>
      <trkpt lat="47.30341" lon="-2.20161">
        <ele>28.6</ele>
        <time>2020-04-10T09:34:42.000Z</time>
      </trkpt>
      <trkpt lat="47.30338" lon="-2.20156">
        <ele>28.8</ele>
        <time>2020-04-10T09:34:43.000Z</time>
      </trkpt>
      <trkpt lat="47.30335" lon="-2.2015">
        <ele>29</ele>
        <time>2020-04-10T09:34:44.000Z</time>
      </trkpt>
      <trkpt lat="47.30333" lon="-2.20144">
        <ele>28.8</ele>
        <time>2020-04-10T09:34:45.000Z</time>
      </trkpt>
      <trkpt lat="47.3033" lon="-2.20138">
        <ele>28.6</ele>
        <time>2020-04-10T09:34:46.000Z</time>
      </trkpt>
      <trkpt lat="47.30328" lon="-2.20132">
        <ele>28.8</ele>
        <time>2020-04-10T09:34:47.000Z</time>
      </trkpt>
      <trkpt lat="47.30326" lon="-2.20126">
        <ele>28.6</ele>
        <time>2020-04-10T09:34:48.000Z</time>
      </trkpt>
      <trkpt lat="47.30324" lon="-2.20119">
        <ele>28.6</ele>
        <time>2020-04-10T09:34:49.000Z</time>
      </trkpt>
      <trkpt lat="47.30321" lon="-2.20113">
        <ele>28.6</ele>
        <time>2020-04-10T09:34:50.000Z</time>
      </trkpt>
      <trkpt lat="47.30318" lon="-2.20107">
        <ele>28.6</ele>
        <time>2020-04-10T09:34:51.000Z</time>
      </trkpt>
      <trkpt lat="47.30316" lon="-2.20101">
        <ele>28.6</ele>
        <time>2020-04-10T09:34:52.000Z</time>
      </trkpt>
      <trkpt lat="47.30314" lon="-2.20094">
        <ele>28.6</ele>
        <time>2020-04-10T09:34:53.000Z</time>
      </trkpt>
      <trkpt lat="47.30312" lon="-2.20088">
        <ele>28.4</ele>
        <time>2020-04-10T09:34:54.000Z</time>
      </trkpt>
      <trkpt lat="47.30309" lon="-2.20082">
        <ele>28.6</ele>
        <time>2020-04-10T09:34:55.000Z</time>
      </trkpt>
      <trkpt lat="47.30306" lon="-2.20076">
        <ele>28.4</ele>
        <time>2020-04-10T09:34:56.000Z</time>
      </trkpt>
      <trkpt lat="47.30304" lon="-2.20071">
        <ele>28.6</ele>
        <time>2020-04-10T09:34:57.000Z</time>
      </trkpt>
      <trkpt lat="47.30301" lon="-2.20065">
        <ele>28.6</ele>
        <time>2020-04-10T09:34:58.000Z</time>
      </trkpt>
      <trkpt lat="47.30299" lon="-2.20058">
        <ele>28.6</ele>
        <time>2020-04-10T09:34:59.000Z</time>
      </trkpt>
      <trkpt lat="47.30296" lon="-2.20052">
        <ele>28.6</ele>
        <time>2020-04-10T09:35:00.000Z</time>
      </trkpt>
      <trkpt lat="47.30294" lon="-2.20046">
        <ele>28.6</ele>
        <time>2020-04-10T09:35:01.000Z</time>
      </trkpt>
      <trkpt lat="47.30293" lon="-2.2004">
        <ele>28.6</ele>
        <time>2020-04-10T09:35:02.000Z</time>
      </trkpt>
      <trkpt lat="47.30293" lon="-2.20033">
        <ele>28.8</ele>
        <time>2020-04-10T09:35:03.000Z</time>
      </trkpt>
      <trkpt lat="47.30293" lon="-2.20026">
        <ele>28.8</ele>
        <time>2020-04-10T09:35:04.000Z</time>
      </trkpt>
      <trkpt lat="47.30294" lon="-2.20019">
        <ele>28.6</ele>
        <time>2020-04-10T09:35:05.000Z</time>
      </trkpt>
      <trkpt lat="47.30297" lon="-2.20013">
        <ele>28.8</ele>
        <time>2020-04-10T09:35:06.000Z</time>
      </trkpt>
      <trkpt lat="47.30299" lon="-2.20008">
        <ele>28.6</ele>
        <time>2020-04-10T09:35:07.000Z</time>
      </trkpt>
      <trkpt lat="47.30301" lon="-2.20001">
        <ele>28.6</ele>
        <time>2020-04-10T09:35:08.000Z</time>
      </trkpt>
      <trkpt lat="47.30303" lon="-2.19995">
        <ele>28.6</ele>
        <time>2020-04-10T09:35:09.000Z</time>
      </trkpt>
      <trkpt lat="47.30304" lon="-2.19988">
        <ele>28.8</ele>
        <time>2020-04-10T09:35:10.000Z</time>
      </trkpt>
      <trkpt lat="47.30305" lon="-2.19981">
        <ele>28.8</ele>
        <time>2020-04-10T09:35:11.000Z</time>
      </trkpt>
      <trkpt lat="47.30307" lon="-2.19974">
        <ele>28.6</ele>
        <time>2020-04-10T09:35:12.000Z</time>
      </trkpt>
      <trkpt lat="47.30308" lon="-2.19967">
        <ele>28.6</ele>
        <time>2020-04-10T09:35:13.000Z</time>
      </trkpt>
      <trkpt lat="47.3031" lon="-2.1996">
        <ele>28.4</ele>
        <time>2020-04-10T09:35:14.000Z</time>
      </trkpt>
      <trkpt lat="47.30311" lon="-2.19953">
        <ele>28.6</ele>
        <time>2020-04-10T09:35:15.000Z</time>
      </trkpt>
      <trkpt lat="47.30312" lon="-2.19946">
        <ele>28.6</ele>
        <time>2020-04-10T09:35:16.000Z</time>
      </trkpt>
      <trkpt lat="47.30313" lon="-2.1994">
        <ele>28.4</ele>
        <time>2020-04-10T09:35:17.000Z</time>
      </trkpt>
      <trkpt lat="47.30314" lon="-2.19933">
        <ele>28.6</ele>
        <time>2020-04-10T09:35:18.000Z</time>
      </trkpt>
      <trkpt lat="47.30315" lon="-2.19926">
        <ele>28.6</ele>
        <time>2020-04-10T09:35:19.000Z</time>
      </trkpt>
      <trkpt lat="47.30316" lon="-2.19919">
        <ele>28.8</ele>
        <time>2020-04-10T09:35:20.000Z</time>
      </trkpt>
      <trkpt lat="47.30316" lon="-2.19912">
        <ele>28.8</ele>
        <time>2020-04-10T09:35:21.000Z</time>
      </trkpt>
      <trkpt lat="47.30316" lon="-2.19905">
        <ele>28.6</ele>
        <time>2020-04-10T09:35:22.000Z</time>
      </trkpt>
      <trkpt lat="47.30315" lon="-2.19899">
        <ele>28.6</ele>
        <time>2020-04-10T09:35:23.000Z</time>
      </trkpt>
      <trkpt lat="47.30312" lon="-2.19893">
        <ele>28.6</ele>
        <time>2020-04-10T09:35:24.000Z</time>
      </trkpt>
      <trkpt lat="47.30309" lon="-2.19888">
        <ele>28.6</ele>
        <time>2020-04-10T09:35:25.000Z</time>
      </trkpt>
      <trkpt lat="47.30305" lon="-2.19885">
        <ele>28.8</ele>
        <time>2020-04-10T09:35:26.000Z</time>
      </trkpt>
      <trkpt lat="47.303" lon="-2.19883">
        <ele>28.6</ele>
        <time>2020-04-10T09:35:27.000Z</time>
      </trkpt>
      <trkpt lat="47.30295" lon="-2.19881">
        <ele>28.6</ele>
        <time>2020-04-10T09:35:28.000Z</time>
      </trkpt>
      <trkpt lat="47.3029" lon="-2.1988">
        <ele>28.8</ele>
        <time>2020-04-10T09:35:29.000Z</time>
      </trkpt>
      <trkpt lat="47.30285" lon="-2.19879">
        <ele>28.8</ele>
        <time>2020-04-10T09:35:30.000Z</time>
      </trkpt>
      <trkpt lat="47.3028" lon="-2.19878">
        <ele>28.8</ele>
        <time>2020-04-10T09:35:31.000Z</time>
      </trkpt>
      <trkpt lat="47.30275" lon="-2.19877">
        <ele>28.8</ele>
        <time>2020-04-10T09:35:32.000Z</time>
      </trkpt>
      <trkpt lat="47.3027" lon="-2.19875">
        <ele>28.8</ele>
        <time>2020-04-10T09:35:33.000Z</time>
      </trkpt>
      <trkpt lat="47.30266" lon="-2.19872">
        <ele>28.8</ele>
        <time>2020-04-10T09:35:34.000Z</time>
      </trkpt>
      <trkpt lat="47.30261" lon="-2.1987">
        <ele>28.8</ele>
        <time>2020-04-10T09:35:35.000Z</time>
      </trkpt>
      <trkpt lat="47.30257" lon="-2.19866">
        <ele>28.6</ele>
        <time>2020-04-10T09:35:36.000Z</time>
      </trkpt>
      <trkpt lat="47.30253" lon="-2.19862">
        <ele>28.8</ele>
        <time>2020-04-10T09:35:37.000Z</time>
      </trkpt>
      <trkpt lat="47.30249" lon="-2.19858">
        <ele>28.8</ele>
        <time>2020-04-10T09:35:38.000Z</time>
      </trkpt>
      <trkpt lat="47.30244" lon="-2.19854">
        <ele>28.8</ele>
        <time>2020-04-10T09:35:39.000Z</time>
      </trkpt>
      <trkpt lat="47.3024" lon="-2.19851">
        <ele>29</ele>
        <time>2020-04-10T09:35:40.000Z</time>
      </trkpt>
      <trkpt lat="47.30235" lon="-2.19848">
        <ele>28.8</ele>
        <time>2020-04-10T09:35:41.000Z</time>
      </trkpt>
      <trkpt lat="47.30231" lon="-2.19845">
        <ele>28.8</ele>
        <time>2020-04-10T09:35:42.000Z</time>
      </trkpt>
      <trkpt lat="47.30227" lon="-2.1984">
        <ele>29</ele>
        <time>2020-04-10T09:35:43.000Z</time>
      </trkpt>
      <trkpt lat="47.30223" lon="-2.19836">
        <ele>28.8</ele>
        <time>2020-04-10T09:35:44.000Z</time>
      </trkpt>
      <trkpt lat="47.30219" lon="-2.19832">
        <ele>28.8</ele>
        <time>2020-04-10T09:35:45.000Z</time>
      </trkpt>
      <trkpt lat="47.30215" lon="-2.19828">
        <ele>28.6</ele>
        <time>2020-04-10T09:35:46.000Z</time>
      </trkpt>
      <trkpt lat="47.30211" lon="-2.19824">
        <ele>28.8</ele>
        <time>2020-04-10T09:35:47.000Z</time>
      </trkpt>
      <trkpt lat="47.30207" lon="-2.19822">
        <ele>28.8</ele>
        <time>2020-04-10T09:35:48.000Z</time>
      </trkpt>
      <trkpt lat="47.30203" lon="-2.19819">
        <ele>28.8</ele>
        <time>2020-04-10T09:35:49.000Z</time>
      </trkpt>
      <trkpt lat="47.30198" lon="-2.19816">
        <ele>28.8</ele>
        <time>2020-04-10T09:35:50.000Z</time>
      </trkpt>
      <trkpt lat="47.30194" lon="-2.19813">
        <ele>28.6</ele>
        <time>2020-04-10T09:35:51.000Z</time>
      </trkpt>
      <trkpt lat="47.30189" lon="-2.19811">
        <ele>28.6</ele>
        <time>2020-04-10T09:35:52.000Z</time>
      </trkpt>
      <trkpt lat="47.30185" lon="-2.19808">
        <ele>28.2</ele>
        <time>2020-04-10T09:35:53.000Z</time>
      </trkpt>
      <trkpt lat="47.3018" lon="-2.19804">
        <ele>28.4</ele>
        <time>2020-04-10T09:35:54.000Z</time>
      </trkpt>
      <trkpt lat="47.30175" lon="-2.19801">
        <ele>28.2</ele>
        <time>2020-04-10T09:35:55.000Z</time>
      </trkpt>
      <trkpt lat="47.30171" lon="-2.19797">
        <ele>28.4</ele>
        <time>2020-04-10T09:35:56.000Z</time>
      </trkpt>
      <trkpt lat="47.30166" lon="-2.19794">
        <ele>28.4</ele>
        <time>2020-04-10T09:35:57.000Z</time>
      </trkpt>
      <trkpt lat="47.30162" lon="-2.19791">
        <ele>28.4</ele>
        <time>2020-04-10T09:35:58.000Z</time>
      </trkpt>
      <trkpt lat="47.30157" lon="-2.19788">
        <ele>28.6</ele>
        <time>2020-04-10T09:35:59.000Z</time>
      </trkpt>
      <trkpt lat="47.30152" lon="-2.19787">
        <ele>28.6</ele>
        <time>2020-04-10T09:36:00.000Z</time>
      </trkpt>
      <trkpt lat="47.30148" lon="-2.19787">
        <ele>28.4</ele>
        <time>2020-04-10T09:36:01.000Z</time>
      </trkpt>
      <trkpt lat="47.30144" lon="-2.19788">
        <ele>28.4</ele>
        <time>2020-04-10T09:36:02.000Z</time>
      </trkpt>
      <trkpt lat="47.3014" lon="-2.19789">
        <ele>28.4</ele>
        <time>2020-04-10T09:36:03.000Z</time>
      </trkpt>
      <trkpt lat="47.30136" lon="-2.19791">
        <ele>28.4</ele>
        <time>2020-04-10T09:36:04.000Z</time>
      </trkpt>
      <trkpt lat="47.30133" lon="-2.19794">
        <ele>28.6</ele>
        <time>2020-04-10T09:36:05.000Z</time>
      </trkpt>
      <trkpt lat="47.30129" lon="-2.19797">
        <ele>28.6</ele>
        <time>2020-04-10T09:36:06.000Z</time>
      </trkpt>
      <trkpt lat="47.30127" lon="-2.19799">
        <ele>28.6</ele>
        <time>2020-04-10T09:36:07.000Z</time>
      </trkpt>
      <trkpt lat="47.30124" lon="-2.19801">
        <ele>28.6</ele>
        <time>2020-04-10T09:36:08.000Z</time>
      </trkpt>
      <trkpt lat="47.3012" lon="-2.198">
        <ele>28.8</ele>
        <time>2020-04-10T09:36:09.000Z</time>
      </trkpt>
      <trkpt lat="47.30117" lon="-2.19797">
        <ele>28.8</ele>
        <time>2020-04-10T09:36:10.000Z</time>
      </trkpt>
      <trkpt lat="47.30114" lon="-2.19792">
        <ele>28.6</ele>
        <time>2020-04-10T09:36:11.000Z</time>
      </trkpt>
      <trkpt lat="47.30113" lon="-2.19787">
        <ele>28.6</ele>
        <time>2020-04-10T09:36:12.000Z</time>
      </trkpt>
      <trkpt lat="47.30111" lon="-2.1978">
        <ele>28.6</ele>
        <time>2020-04-10T09:36:13.000Z</time>
      </trkpt>
      <trkpt lat="47.3011" lon="-2.19773">
        <ele>28.6</ele>
        <time>2020-04-10T09:36:14.000Z</time>
      </trkpt>
      <trkpt lat="47.30109" lon="-2.19766">
        <ele>28.4</ele>
        <time>2020-04-10T09:36:15.000Z</time>
      </trkpt>
      <trkpt lat="47.30107" lon="-2.19759">
        <ele>28.4</ele>
        <time>2020-04-10T09:36:16.000Z</time>
      </trkpt>
      <trkpt lat="47.30106" lon="-2.19752">
        <ele>28.4</ele>
        <time>2020-04-10T09:36:17.000Z</time>
      </trkpt>
      <trkpt lat="47.30105" lon="-2.19746">
        <ele>28.4</ele>
        <time>2020-04-10T09:36:18.000Z</time>
      </trkpt>
      <trkpt lat="47.30105" lon="-2.19746">
        <ele>28.4</ele>
        <time>2020-04-10T09:36:19.000Z</time>
      </trkpt>
      <trkpt lat="47.30102" lon="-2.19733">
        <ele>28.4</ele>
        <time>2020-04-10T09:36:20.000Z</time>
      </trkpt>
      <trkpt lat="47.30101" lon="-2.19727">
        <ele>28.6</ele>
        <time>2020-04-10T09:36:21.000Z</time>
      </trkpt>
      <trkpt lat="47.30099" lon="-2.1972">
        <ele>28.4</ele>
        <time>2020-04-10T09:36:22.000Z</time>
      </trkpt>
      <trkpt lat="47.30098" lon="-2.19714">
        <ele>28.6</ele>
        <time>2020-04-10T09:36:23.000Z</time>
      </trkpt>
      <trkpt lat="47.30098" lon="-2.19714">
        <ele>28.6</ele>
        <time>2020-04-10T09:36:24.000Z</time>
      </trkpt>
      <trkpt lat="47.30096" lon="-2.19707">
        <ele>28.6</ele>
        <time>2020-04-10T09:36:25.000Z</time>
      </trkpt>
      <trkpt lat="47.30095" lon="-2.19701">
        <ele>28.6</ele>
        <time>2020-04-10T09:36:26.000Z</time>
      </trkpt>
      <trkpt lat="47.30094" lon="-2.19694">
        <ele>28.6</ele>
        <time>2020-04-10T09:36:27.000Z</time>
      </trkpt>
      <trkpt lat="47.30092" lon="-2.19688">
        <ele>28.4</ele>
        <time>2020-04-10T09:36:28.000Z</time>
      </trkpt>
      <trkpt lat="47.30091" lon="-2.19682">
        <ele>28.4</ele>
        <time>2020-04-10T09:36:29.000Z</time>
      </trkpt>
      <trkpt lat="47.30089" lon="-2.19675">
        <ele>28.6</ele>
        <time>2020-04-10T09:36:30.000Z</time>
      </trkpt>
      <trkpt lat="47.30088" lon="-2.19669">
        <ele>28.4</ele>
        <time>2020-04-10T09:36:31.000Z</time>
      </trkpt>
      <trkpt lat="47.30086" lon="-2.19662">
        <ele>28.4</ele>
        <time>2020-04-10T09:36:32.000Z</time>
      </trkpt>
      <trkpt lat="47.30084" lon="-2.19655">
        <ele>28.4</ele>
        <time>2020-04-10T09:36:33.000Z</time>
      </trkpt>
      <trkpt lat="47.30082" lon="-2.19649">
        <ele>28.2</ele>
        <time>2020-04-10T09:36:34.000Z</time>
      </trkpt>
      <trkpt lat="47.30081" lon="-2.19642">
        <ele>28.2</ele>
        <time>2020-04-10T09:36:35.000Z</time>
      </trkpt>
      <trkpt lat="47.30079" lon="-2.19635">
        <ele>28.2</ele>
        <time>2020-04-10T09:36:36.000Z</time>
      </trkpt>
      <trkpt lat="47.30077" lon="-2.19628">
        <ele>28.4</ele>
        <time>2020-04-10T09:36:37.000Z</time>
      </trkpt>
      <trkpt lat="47.30076" lon="-2.19622">
        <ele>28.6</ele>
        <time>2020-04-10T09:36:38.000Z</time>
      </trkpt>
      <trkpt lat="47.30075" lon="-2.19615">
        <ele>28.4</ele>
        <time>2020-04-10T09:36:39.000Z</time>
      </trkpt>
      <trkpt lat="47.30074" lon="-2.19609">
        <ele>28.4</ele>
        <time>2020-04-10T09:36:40.000Z</time>
      </trkpt>
      <trkpt lat="47.30072" lon="-2.19602">
        <ele>28.4</ele>
        <time>2020-04-10T09:36:41.000Z</time>
      </trkpt>
      <trkpt lat="47.30071" lon="-2.19595">
        <ele>28.4</ele>
        <time>2020-04-10T09:36:42.000Z</time>
      </trkpt>
      <trkpt lat="47.30069" lon="-2.19588">
        <ele>28.4</ele>
        <time>2020-04-10T09:36:43.000Z</time>
      </trkpt>
      <trkpt lat="47.30067" lon="-2.19581">
        <ele>28.6</ele>
        <time>2020-04-10T09:36:44.000Z</time>
      </trkpt>
      <trkpt lat="47.30065" lon="-2.19575">
        <ele>28.6</ele>
        <time>2020-04-10T09:36:45.000Z</time>
      </trkpt>
      <trkpt lat="47.30064" lon="-2.19568">
        <ele>28.6</ele>
        <time>2020-04-10T09:36:46.000Z</time>
      </trkpt>
      <trkpt lat="47.30063" lon="-2.19562">
        <ele>28.4</ele>
        <time>2020-04-10T09:36:47.000Z</time>
      </trkpt>
      <trkpt lat="47.30061" lon="-2.19555">
        <ele>28.4</ele>
        <time>2020-04-10T09:36:48.000Z</time>
      </trkpt>
      <trkpt lat="47.30059" lon="-2.1955">
        <ele>28.4</ele>
        <time>2020-04-10T09:36:49.000Z</time>
      </trkpt>
      <trkpt lat="47.30057" lon="-2.19543">
        <ele>28.4</ele>
        <time>2020-04-10T09:36:50.000Z</time>
      </trkpt>
      <trkpt lat="47.30055" lon="-2.19537">
        <ele>28.8</ele>
        <time>2020-04-10T09:36:51.000Z</time>
      </trkpt>
      <trkpt lat="47.30053" lon="-2.19529">
        <ele>28.6</ele>
        <time>2020-04-10T09:36:52.000Z</time>
      </trkpt>
      <trkpt lat="47.30052" lon="-2.19523">
        <ele>28.8</ele>
        <time>2020-04-10T09:36:53.000Z</time>
      </trkpt>
      <trkpt lat="47.3005" lon="-2.19516">
        <ele>28.8</ele>
        <time>2020-04-10T09:36:54.000Z</time>
      </trkpt>
      <trkpt lat="47.30049" lon="-2.19509">
        <ele>28.8</ele>
        <time>2020-04-10T09:36:55.000Z</time>
      </trkpt>
      <trkpt lat="47.30047" lon="-2.19502">
        <ele>28.8</ele>
        <time>2020-04-10T09:36:56.000Z</time>
      </trkpt>
      <trkpt lat="47.30046" lon="-2.19495">
        <ele>28.8</ele>
        <time>2020-04-10T09:36:57.000Z</time>
      </trkpt>
      <trkpt lat="47.30045" lon="-2.19488">
        <ele>28.6</ele>
        <time>2020-04-10T09:36:58.000Z</time>
      </trkpt>
      <trkpt lat="47.30044" lon="-2.1948">
        <ele>28.8</ele>
        <time>2020-04-10T09:36:59.000Z</time>
      </trkpt>
      <trkpt lat="47.30043" lon="-2.19472">
        <ele>28.6</ele>
        <time>2020-04-10T09:37:00.000Z</time>
      </trkpt>
      <trkpt lat="47.30043" lon="-2.19464">
        <ele>28.6</ele>
        <time>2020-04-10T09:37:01.000Z</time>
      </trkpt>
      <trkpt lat="47.30043" lon="-2.19456">
        <ele>28.6</ele>
        <time>2020-04-10T09:37:02.000Z</time>
      </trkpt>
      <trkpt lat="47.30043" lon="-2.19448">
        <ele>28.6</ele>
        <time>2020-04-10T09:37:03.000Z</time>
      </trkpt>
      <trkpt lat="47.30043" lon="-2.19441">
        <ele>28.6</ele>
        <time>2020-04-10T09:37:04.000Z</time>
      </trkpt>
      <trkpt lat="47.30044" lon="-2.19433">
        <ele>28.6</ele>
        <time>2020-04-10T09:37:05.000Z</time>
      </trkpt>
      <trkpt lat="47.30045" lon="-2.19426">
        <ele>28.6</ele>
        <time>2020-04-10T09:37:06.000Z</time>
      </trkpt>
      <trkpt lat="47.30046" lon="-2.19419">
        <ele>28.6</ele>
        <time>2020-04-10T09:37:07.000Z</time>
      </trkpt>
      <trkpt lat="47.30047" lon="-2.19412">
        <ele>28.6</ele>
        <time>2020-04-10T09:37:08.000Z</time>
      </trkpt>
      <trkpt lat="47.30048" lon="-2.19405">
        <ele>28.6</ele>
        <time>2020-04-10T09:37:09.000Z</time>
      </trkpt>
      <trkpt lat="47.30049" lon="-2.19398">
        <ele>28.6</ele>
        <time>2020-04-10T09:37:10.000Z</time>
      </trkpt>
      <trkpt lat="47.30051" lon="-2.19391">
        <ele>29</ele>
        <time>2020-04-10T09:37:11.000Z</time>
      </trkpt>
      <trkpt lat="47.30053" lon="-2.19384">
        <ele>28.8</ele>
        <time>2020-04-10T09:37:12.000Z</time>
      </trkpt>
      <trkpt lat="47.30054" lon="-2.19378">
        <ele>29</ele>
        <time>2020-04-10T09:37:13.000Z</time>
      </trkpt>
      <trkpt lat="47.30056" lon="-2.19372">
        <ele>28.8</ele>
        <time>2020-04-10T09:37:14.000Z</time>
      </trkpt>
      <trkpt lat="47.30057" lon="-2.19365">
        <ele>29</ele>
        <time>2020-04-10T09:37:15.000Z</time>
      </trkpt>
      <trkpt lat="47.30059" lon="-2.19359">
        <ele>29</ele>
        <time>2020-04-10T09:37:16.000Z</time>
      </trkpt>
      <trkpt lat="47.3006" lon="-2.19353">
        <ele>29.2</ele>
        <time>2020-04-10T09:37:17.000Z</time>
      </trkpt>
      <trkpt lat="47.30062" lon="-2.19347">
        <ele>29.2</ele>
        <time>2020-04-10T09:37:18.000Z</time>
      </trkpt>
      <trkpt lat="47.30063" lon="-2.19342">
        <ele>29.4</ele>
        <time>2020-04-10T09:37:19.000Z</time>
      </trkpt>
      <trkpt lat="47.30065" lon="-2.19336">
        <ele>29.6</ele>
        <time>2020-04-10T09:37:20.000Z</time>
      </trkpt>
      <trkpt lat="47.30066" lon="-2.19331">
        <ele>29.6</ele>
        <time>2020-04-10T09:37:21.000Z</time>
      </trkpt>
      <trkpt lat="47.30067" lon="-2.19325">
        <ele>29.8</ele>
        <time>2020-04-10T09:37:22.000Z</time>
      </trkpt>
      <trkpt lat="47.30069" lon="-2.1932">
        <ele>29.8</ele>
        <time>2020-04-10T09:37:23.000Z</time>
      </trkpt>
      <trkpt lat="47.30071" lon="-2.19315">
        <ele>30.2</ele>
        <time>2020-04-10T09:37:24.000Z</time>
      </trkpt>
      <trkpt lat="47.30073" lon="-2.19311">
        <ele>30.2</ele>
        <time>2020-04-10T09:37:25.000Z</time>
      </trkpt>
      <trkpt lat="47.30076" lon="-2.19306">
        <ele>30.4</ele>
        <time>2020-04-10T09:37:26.000Z</time>
      </trkpt>
      <trkpt lat="47.30078" lon="-2.19302">
        <ele>30.4</ele>
        <time>2020-04-10T09:37:27.000Z</time>
      </trkpt>
      <trkpt lat="47.30081" lon="-2.19298">
        <ele>30.4</ele>
        <time>2020-04-10T09:37:28.000Z</time>
      </trkpt>
      <trkpt lat="47.30083" lon="-2.19294">
        <ele>30.4</ele>
        <time>2020-04-10T09:37:29.000Z</time>
      </trkpt>
      <trkpt lat="47.30086" lon="-2.19289">
        <ele>30.2</ele>
        <time>2020-04-10T09:37:30.000Z</time>
      </trkpt>
      <trkpt lat="47.30089" lon="-2.19285">
        <ele>30</ele>
        <time>2020-04-10T09:37:31.000Z</time>
      </trkpt>
      <trkpt lat="47.30093" lon="-2.1928">
        <ele>30</ele>
        <time>2020-04-10T09:37:32.000Z</time>
      </trkpt>
      <trkpt lat="47.30096" lon="-2.19276">
        <ele>30</ele>
        <time>2020-04-10T09:37:33.000Z</time>
      </trkpt>
      <trkpt lat="47.30099" lon="-2.19272">
        <ele>30</ele>
        <time>2020-04-10T09:37:34.000Z</time>
      </trkpt>
      <trkpt lat="47.30102" lon="-2.19267">
        <ele>30.2</ele>
        <time>2020-04-10T09:37:35.000Z</time>
      </trkpt>
      <trkpt lat="47.30105" lon="-2.19263">
        <ele>30.2</ele>
        <time>2020-04-10T09:37:36.000Z</time>
      </trkpt>
      <trkpt lat="47.30109" lon="-2.19259">
        <ele>30.4</ele>
        <time>2020-04-10T09:37:37.000Z</time>
      </trkpt>
      <trkpt lat="47.30112" lon="-2.19254">
        <ele>30.4</ele>
        <time>2020-04-10T09:37:38.000Z</time>
      </trkpt>
      <trkpt lat="47.30115" lon="-2.19249">
        <ele>30.4</ele>
        <time>2020-04-10T09:37:39.000Z</time>
      </trkpt>
      <trkpt lat="47.30118" lon="-2.19245">
        <ele>30.2</ele>
        <time>2020-04-10T09:37:40.000Z</time>
      </trkpt>
      <trkpt lat="47.30122" lon="-2.1924">
        <ele>30.2</ele>
        <time>2020-04-10T09:37:41.000Z</time>
      </trkpt>
      <trkpt lat="47.30125" lon="-2.19236">
        <ele>30.2</ele>
        <time>2020-04-10T09:37:42.000Z</time>
      </trkpt>
      <trkpt lat="47.30129" lon="-2.19232">
        <ele>30.4</ele>
        <time>2020-04-10T09:37:43.000Z</time>
      </trkpt>
      <trkpt lat="47.30132" lon="-2.19227">
        <ele>30.4</ele>
        <time>2020-04-10T09:37:44.000Z</time>
      </trkpt>
      <trkpt lat="47.30135" lon="-2.19222">
        <ele>30.4</ele>
        <time>2020-04-10T09:37:45.000Z</time>
      </trkpt>
      <trkpt lat="47.30138" lon="-2.19218">
        <ele>30.4</ele>
        <time>2020-04-10T09:37:46.000Z</time>
      </trkpt>
      <trkpt lat="47.30142" lon="-2.19213">
        <ele>30.4</ele>
        <time>2020-04-10T09:37:47.000Z</time>
      </trkpt>
      <trkpt lat="47.30145" lon="-2.19209">
        <ele>30.4</ele>
        <time>2020-04-10T09:37:48.000Z</time>
      </trkpt>
      <trkpt lat="47.30149" lon="-2.19204">
        <ele>30.2</ele>
        <time>2020-04-10T09:37:49.000Z</time>
      </trkpt>
      <trkpt lat="47.30152" lon="-2.192">
        <ele>30.4</ele>
        <time>2020-04-10T09:37:50.000Z</time>
      </trkpt>
      <trkpt lat="47.30156" lon="-2.19195">
        <ele>30.2</ele>
        <time>2020-04-10T09:37:51.000Z</time>
      </trkpt>
      <trkpt lat="47.30159" lon="-2.19191">
        <ele>30</ele>
        <time>2020-04-10T09:37:52.000Z</time>
      </trkpt>
      <trkpt lat="47.30163" lon="-2.19186">
        <ele>30</ele>
        <time>2020-04-10T09:37:53.000Z</time>
      </trkpt>
      <trkpt lat="47.30166" lon="-2.19181">
        <ele>30</ele>
        <time>2020-04-10T09:37:54.000Z</time>
      </trkpt>
      <trkpt lat="47.3017" lon="-2.19177">
        <ele>30</ele>
        <time>2020-04-10T09:37:55.000Z</time>
      </trkpt>
      <trkpt lat="47.30174" lon="-2.19172">
        <ele>30.2</ele>
        <time>2020-04-10T09:37:56.000Z</time>
      </trkpt>
      <trkpt lat="47.30177" lon="-2.19167">
        <ele>30</ele>
        <time>2020-04-10T09:37:57.000Z</time>
      </trkpt>
      <trkpt lat="47.30181" lon="-2.19163">
        <ele>29.8</ele>
        <time>2020-04-10T09:37:58.000Z</time>
      </trkpt>
      <trkpt lat="47.30184" lon="-2.1916">
        <ele>30</ele>
        <time>2020-04-10T09:37:59.000Z</time>
      </trkpt>
      <trkpt lat="47.3019" lon="-2.19153">
        <ele>30</ele>
        <time>2020-04-10T09:38:01.000Z</time>
      </trkpt>
      <trkpt lat="47.30192" lon="-2.1915">
        <ele>30</ele>
        <time>2020-04-10T09:38:02.000Z</time>
      </trkpt>
      <trkpt lat="47.30193" lon="-2.19148">
        <ele>29.8</ele>
        <time>2020-04-10T09:38:03.000Z</time>
      </trkpt>
      <trkpt lat="47.30193" lon="-2.19145">
        <ele>30</ele>
        <time>2020-04-10T09:38:04.000Z</time>
      </trkpt>
      <trkpt lat="47.30193" lon="-2.19144">
        <ele>30.2</ele>
        <time>2020-04-10T09:38:05.000Z</time>
      </trkpt>
      <trkpt lat="47.30193" lon="-2.19144">
        <ele>30.4</ele>
        <time>2020-04-10T09:38:06.000Z</time>
      </trkpt>
      <trkpt lat="47.30193" lon="-2.19144">
        <ele>30.4</ele>
        <time>2020-04-10T09:38:08.000Z</time>
      </trkpt>
      <trkpt lat="47.30192" lon="-2.19144">
        <ele>30.4</ele>
        <time>2020-04-10T09:38:09.000Z</time>
      </trkpt>
      <trkpt lat="47.30192" lon="-2.19143">
        <ele>30.4</ele>
        <time>2020-04-10T09:38:10.000Z</time>
      </trkpt>
      <trkpt lat="47.30191" lon="-2.19142">
        <ele>30.4</ele>
        <time>2020-04-10T09:38:11.000Z</time>
      </trkpt>
      <trkpt lat="47.30191" lon="-2.19141">
        <ele>30.6</ele>
        <time>2020-04-10T09:38:12.000Z</time>
      </trkpt>
      <trkpt lat="47.30191" lon="-2.19141">
        <ele>30.8</ele>
        <time>2020-04-10T09:38:13.000Z</time>
      </trkpt>
      <trkpt lat="47.3019" lon="-2.19139">
        <ele>31</ele>
        <time>2020-04-10T09:38:14.000Z</time>
      </trkpt>
      <trkpt lat="47.30189" lon="-2.19138">
        <ele>31</ele>
        <time>2020-04-10T09:38:15.000Z</time>
      </trkpt>
      <trkpt lat="47.30188" lon="-2.19137">
        <ele>31</ele>
        <time>2020-04-10T09:38:16.000Z</time>
      </trkpt>
      <trkpt lat="47.30188" lon="-2.19136">
        <ele>30.8</ele>
        <time>2020-04-10T09:38:17.000Z</time>
      </trkpt>
      <trkpt lat="47.30187" lon="-2.19136">
        <ele>30.8</ele>
        <time>2020-04-10T09:38:18.000Z</time>
      </trkpt>
      <trkpt lat="47.30187" lon="-2.19135">
        <ele>30.8</ele>
        <time>2020-04-10T09:38:19.000Z</time>
      </trkpt>
      <trkpt lat="47.30186" lon="-2.19134">
        <ele>30.8</ele>
        <time>2020-04-10T09:38:20.000Z</time>
      </trkpt>
      <trkpt lat="47.30186" lon="-2.19133">
        <ele>30.8</ele>
        <time>2020-04-10T09:38:21.000Z</time>
      </trkpt>
      <trkpt lat="47.30185" lon="-2.19133">
        <ele>30.6</ele>
        <time>2020-04-10T09:38:23.000Z</time>
      </trkpt>
      <trkpt lat="47.30184" lon="-2.19132">
        <ele>30.6</ele>
        <time>2020-04-10T09:38:24.000Z</time>
      </trkpt>
      <trkpt lat="47.30184" lon="-2.19131">
        <ele>30.6</ele>
        <time>2020-04-10T09:38:25.000Z</time>
      </trkpt>
      <trkpt lat="47.30184" lon="-2.19131">
        <ele>30.6</ele>
        <time>2020-04-10T09:38:26.000Z</time>
      </trkpt>
      <trkpt lat="47.30184" lon="-2.19131">
        <ele>30.6</ele>
        <time>2020-04-10T09:38:27.000Z</time>
      </trkpt>
      <trkpt lat="47.30184" lon="-2.1913">
        <ele>30.6</ele>
        <time>2020-04-10T09:38:28.000Z</time>
      </trkpt>
      <trkpt lat="47.30183" lon="-2.19129">
        <ele>30.6</ele>
        <time>2020-04-10T09:38:29.000Z</time>
      </trkpt>
      <trkpt lat="47.30183" lon="-2.19129">
        <ele>30.6</ele>
        <time>2020-04-10T09:38:30.000Z</time>
      </trkpt>
      <trkpt lat="47.30183" lon="-2.19128">
        <ele>30.6</ele>
        <time>2020-04-10T09:38:31.000Z</time>
      </trkpt>
      <trkpt lat="47.30183" lon="-2.19128">
        <ele>30.4</ele>
        <time>2020-04-10T09:38:32.000Z</time>
      </trkpt>
      <trkpt lat="47.30183" lon="-2.19128">
        <ele>30.4</ele>
        <time>2020-04-10T09:38:33.000Z</time>
      </trkpt>
      <trkpt lat="47.30184" lon="-2.19126">
        <ele>30.4</ele>
        <time>2020-04-10T09:38:34.000Z</time>
      </trkpt>
      <trkpt lat="47.30184" lon="-2.19124">
        <ele>30.6</ele>
        <time>2020-04-10T09:38:35.000Z</time>
      </trkpt>
      <trkpt lat="47.30184" lon="-2.19122">
        <ele>30.2</ele>
        <time>2020-04-10T09:38:36.000Z</time>
      </trkpt>
      <trkpt lat="47.30184" lon="-2.1912">
        <ele>30.4</ele>
        <time>2020-04-10T09:38:37.000Z</time>
      </trkpt>
      <trkpt lat="47.30185" lon="-2.19117">
        <ele>30.4</ele>
        <time>2020-04-10T09:38:38.000Z</time>
      </trkpt>
      <trkpt lat="47.30185" lon="-2.19113">
        <ele>30.4</ele>
        <time>2020-04-10T09:38:39.000Z</time>
      </trkpt>
      <trkpt lat="47.30185" lon="-2.1911">
        <ele>30.4</ele>
        <time>2020-04-10T09:38:40.000Z</time>
      </trkpt>
      <trkpt lat="47.30184" lon="-2.19105">
        <ele>30.2</ele>
        <time>2020-04-10T09:38:41.000Z</time>
      </trkpt>
      <trkpt lat="47.30184" lon="-2.19101">
        <ele>30.4</ele>
        <time>2020-04-10T09:38:42.000Z</time>
      </trkpt>
      <trkpt lat="47.30182" lon="-2.19097">
        <ele>30.6</ele>
        <time>2020-04-10T09:38:43.000Z</time>
      </trkpt>
      <trkpt lat="47.30181" lon="-2.19092">
        <ele>30.4</ele>
        <time>2020-04-10T09:38:44.000Z</time>
      </trkpt>
      <trkpt lat="47.3018" lon="-2.19088">
        <ele>30.6</ele>
        <time>2020-04-10T09:38:45.000Z</time>
      </trkpt>
      <trkpt lat="47.30179" lon="-2.19083">
        <ele>30.6</ele>
        <time>2020-04-10T09:38:46.000Z</time>
      </trkpt>
      <trkpt lat="47.30178" lon="-2.19078">
        <ele>30.4</ele>
        <time>2020-04-10T09:38:47.000Z</time>
      </trkpt>
      <trkpt lat="47.30177" lon="-2.19072">
        <ele>30.4</ele>
        <time>2020-04-10T09:38:48.000Z</time>
      </trkpt>
      <trkpt lat="47.30175" lon="-2.19067">
        <ele>30.4</ele>
        <time>2020-04-10T09:38:49.000Z</time>
      </trkpt>
      <trkpt lat="47.30174" lon="-2.19061">
        <ele>30.4</ele>
        <time>2020-04-10T09:38:50.000Z</time>
      </trkpt>
      <trkpt lat="47.30172" lon="-2.19055">
        <ele>30</ele>
        <time>2020-04-10T09:38:51.000Z</time>
      </trkpt>
      <trkpt lat="47.30172" lon="-2.1905">
        <ele>30</ele>
        <time>2020-04-10T09:38:52.000Z</time>
      </trkpt>
      <trkpt lat="47.30174" lon="-2.19044">
        <ele>30</ele>
        <time>2020-04-10T09:38:53.000Z</time>
      </trkpt>
      <trkpt lat="47.30176" lon="-2.1904">
        <ele>30</ele>
        <time>2020-04-10T09:38:54.000Z</time>
      </trkpt>
      <trkpt lat="47.3018" lon="-2.19035">
        <ele>30</ele>
        <time>2020-04-10T09:38:55.000Z</time>
      </trkpt>
      <trkpt lat="47.30183" lon="-2.19031">
        <ele>30</ele>
        <time>2020-04-10T09:38:56.000Z</time>
      </trkpt>
      <trkpt lat="47.30187" lon="-2.19026">
        <ele>30</ele>
        <time>2020-04-10T09:38:57.000Z</time>
      </trkpt>
      <trkpt lat="47.3019" lon="-2.19021">
        <ele>29.6</ele>
        <time>2020-04-10T09:38:58.000Z</time>
      </trkpt>
      <trkpt lat="47.30194" lon="-2.19016">
        <ele>29.6</ele>
        <time>2020-04-10T09:38:59.000Z</time>
      </trkpt>
      <trkpt lat="47.30197" lon="-2.19011">
        <ele>29.8</ele>
        <time>2020-04-10T09:39:00.000Z</time>
      </trkpt>
      <trkpt lat="47.30201" lon="-2.19005">
        <ele>29.8</ele>
        <time>2020-04-10T09:39:01.000Z</time>
      </trkpt>
      <trkpt lat="47.30205" lon="-2.19">
        <ele>29.6</ele>
        <time>2020-04-10T09:39:02.000Z</time>
      </trkpt>
      <trkpt lat="47.30209" lon="-2.18995">
        <ele>29.2</ele>
        <time>2020-04-10T09:39:03.000Z</time>
      </trkpt>
      <trkpt lat="47.30213" lon="-2.1899">
        <ele>29</ele>
        <time>2020-04-10T09:39:04.000Z</time>
      </trkpt>
      <trkpt lat="47.30216" lon="-2.18984">
        <ele>29.2</ele>
        <time>2020-04-10T09:39:05.000Z</time>
      </trkpt>
      <trkpt lat="47.3022" lon="-2.18979">
        <ele>29</ele>
        <time>2020-04-10T09:39:06.000Z</time>
      </trkpt>
      <trkpt lat="47.30224" lon="-2.18974">
        <ele>29.2</ele>
        <time>2020-04-10T09:39:07.000Z</time>
      </trkpt>
      <trkpt lat="47.30228" lon="-2.18968">
        <ele>29.2</ele>
        <time>2020-04-10T09:39:08.000Z</time>
      </trkpt>
      <trkpt lat="47.30232" lon="-2.18962">
        <ele>29.4</ele>
        <time>2020-04-10T09:39:09.000Z</time>
      </trkpt>
      <trkpt lat="47.30235" lon="-2.18956">
        <ele>29.4</ele>
        <time>2020-04-10T09:39:10.000Z</time>
      </trkpt>
      <trkpt lat="47.30239" lon="-2.18951">
        <ele>29.6</ele>
        <time>2020-04-10T09:39:11.000Z</time>
      </trkpt>
      <trkpt lat="47.30243" lon="-2.18946">
        <ele>29.6</ele>
        <time>2020-04-10T09:39:12.000Z</time>
      </trkpt>
      <trkpt lat="47.30246" lon="-2.18941">
        <ele>29.6</ele>
        <time>2020-04-10T09:39:13.000Z</time>
      </trkpt>
      <trkpt lat="47.3025" lon="-2.18936">
        <ele>29.8</ele>
        <time>2020-04-10T09:39:14.000Z</time>
      </trkpt>
      <trkpt lat="47.30253" lon="-2.18932">
        <ele>29.6</ele>
        <time>2020-04-10T09:39:15.000Z</time>
      </trkpt>
      <trkpt lat="47.30257" lon="-2.18927">
        <ele>29.4</ele>
        <time>2020-04-10T09:39:16.000Z</time>
      </trkpt>
      <trkpt lat="47.3026" lon="-2.18922">
        <ele>29.6</ele>
        <time>2020-04-10T09:39:17.000Z</time>
      </trkpt>
      <trkpt lat="47.30262" lon="-2.18916">
        <ele>29.6</ele>
        <time>2020-04-10T09:39:18.000Z</time>
      </trkpt>
      <trkpt lat="47.30264" lon="-2.18911">
        <ele>29.6</ele>
        <time>2020-04-10T09:39:19.000Z</time>
      </trkpt>
      <trkpt lat="47.30264" lon="-2.18905">
        <ele>29.6</ele>
        <time>2020-04-10T09:39:20.000Z</time>
      </trkpt>
      <trkpt lat="47.30264" lon="-2.18899">
        <ele>29.8</ele>
        <time>2020-04-10T09:39:21.000Z</time>
      </trkpt>
      <trkpt lat="47.30264" lon="-2.18893">
        <ele>30.2</ele>
        <time>2020-04-10T09:39:22.000Z</time>
      </trkpt>
      <trkpt lat="47.30265" lon="-2.18886">
        <ele>30</ele>
        <time>2020-04-10T09:39:23.000Z</time>
      </trkpt>
      <trkpt lat="47.30266" lon="-2.1888">
        <ele>30.2</ele>
        <time>2020-04-10T09:39:24.000Z</time>
      </trkpt>
      <trkpt lat="47.30268" lon="-2.18875">
        <ele>29.8</ele>
        <time>2020-04-10T09:39:25.000Z</time>
      </trkpt>
      <trkpt lat="47.30271" lon="-2.18871">
        <ele>29.8</ele>
        <time>2020-04-10T09:39:26.000Z</time>
      </trkpt>
      <trkpt lat="47.30273" lon="-2.18868">
        <ele>29.8</ele>
        <time>2020-04-10T09:39:27.000Z</time>
      </trkpt>
      <trkpt lat="47.30275" lon="-2.18865">
        <ele>29.6</ele>
        <time>2020-04-10T09:39:28.000Z</time>
      </trkpt>
      <trkpt lat="47.30276" lon="-2.18863">
        <ele>29.4</ele>
        <time>2020-04-10T09:39:29.000Z</time>
      </trkpt>
      <trkpt lat="47.30277" lon="-2.18861">
        <ele>29.2</ele>
        <time>2020-04-10T09:39:30.000Z</time>
      </trkpt>
      <trkpt lat="47.30278" lon="-2.18859">
        <ele>29.4</ele>
        <time>2020-04-10T09:39:31.000Z</time>
      </trkpt>
      <trkpt lat="47.30278" lon="-2.18859">
        <ele>29.4</ele>
        <time>2020-04-10T09:39:32.000Z</time>
      </trkpt>
      <trkpt lat="47.30279" lon="-2.18858">
        <ele>29.4</ele>
        <time>2020-04-10T09:39:33.000Z</time>
      </trkpt>
      <trkpt lat="47.30279" lon="-2.18858">
        <ele>29.4</ele>
        <time>2020-04-10T09:39:34.000Z</time>
      </trkpt>
      <trkpt lat="47.30279" lon="-2.18857">
        <ele>29.4</ele>
        <time>2020-04-10T09:39:35.000Z</time>
      </trkpt>
      <trkpt lat="47.30279" lon="-2.18857">
        <ele>29.6</ele>
        <time>2020-04-10T09:39:36.000Z</time>
      </trkpt>
      <trkpt lat="47.3028" lon="-2.18856">
        <ele>29.6</ele>
        <time>2020-04-10T09:39:37.000Z</time>
      </trkpt>
      <trkpt lat="47.3028" lon="-2.18856">
        <ele>29.6</ele>
        <time>2020-04-10T09:39:40.000Z</time>
      </trkpt>
      <trkpt lat="47.3028" lon="-2.18855">
        <ele>29.6</ele>
        <time>2020-04-10T09:39:41.000Z</time>
      </trkpt>
      <trkpt lat="47.30281" lon="-2.18855">
        <ele>29.6</ele>
        <time>2020-04-10T09:39:42.000Z</time>
      </trkpt>
      <trkpt lat="47.30281" lon="-2.18855">
        <ele>29.6</ele>
        <time>2020-04-10T09:39:43.000Z</time>
      </trkpt>
      <trkpt lat="47.30282" lon="-2.18854">
        <ele>29.6</ele>
        <time>2020-04-10T09:39:44.000Z</time>
      </trkpt>
      <trkpt lat="47.30282" lon="-2.18854">
        <ele>29.4</ele>
        <time>2020-04-10T09:39:45.000Z</time>
      </trkpt>
      <trkpt lat="47.30283" lon="-2.18853">
        <ele>29.4</ele>
        <time>2020-04-10T09:39:46.000Z</time>
      </trkpt>
      <trkpt lat="47.30283" lon="-2.18851">
        <ele>29.6</ele>
        <time>2020-04-10T09:39:47.000Z</time>
      </trkpt>
      <trkpt lat="47.30284" lon="-2.1885">
        <ele>29.6</ele>
        <time>2020-04-10T09:39:48.000Z</time>
      </trkpt>
      <trkpt lat="47.30285" lon="-2.18847">
        <ele>29.6</ele>
        <time>2020-04-10T09:39:49.000Z</time>
      </trkpt>
      <trkpt lat="47.30285" lon="-2.18844">
        <ele>29.4</ele>
        <time>2020-04-10T09:39:50.000Z</time>
      </trkpt>
      <trkpt lat="47.30284" lon="-2.1884">
        <ele>29.2</ele>
        <time>2020-04-10T09:39:51.000Z</time>
      </trkpt>
      <trkpt lat="47.30282" lon="-2.18837">
        <ele>29.2</ele>
        <time>2020-04-10T09:39:52.000Z</time>
      </trkpt>
      <trkpt lat="47.3028" lon="-2.18835">
        <ele>29.4</ele>
        <time>2020-04-10T09:39:53.000Z</time>
      </trkpt>
      <trkpt lat="47.30278" lon="-2.18831">
        <ele>29.4</ele>
        <time>2020-04-10T09:39:54.000Z</time>
      </trkpt>
      <trkpt lat="47.30276" lon="-2.18827">
        <ele>29.4</ele>
        <time>2020-04-10T09:39:55.000Z</time>
      </trkpt>
      <trkpt lat="47.30274" lon="-2.18823">
        <ele>29.4</ele>
        <time>2020-04-10T09:39:56.000Z</time>
      </trkpt>
      <trkpt lat="47.30272" lon="-2.18819">
        <ele>29.2</ele>
        <time>2020-04-10T09:39:57.000Z</time>
      </trkpt>
      <trkpt lat="47.3027" lon="-2.18815">
        <ele>29.4</ele>
        <time>2020-04-10T09:39:58.000Z</time>
      </trkpt>
      <trkpt lat="47.30268" lon="-2.18811">
        <ele>29.2</ele>
        <time>2020-04-10T09:39:59.000Z</time>
      </trkpt>
      <trkpt lat="47.30266" lon="-2.18807">
        <ele>29.2</ele>
        <time>2020-04-10T09:40:00.000Z</time>
      </trkpt>
      <trkpt lat="47.30263" lon="-2.18803">
        <ele>29.2</ele>
        <time>2020-04-10T09:40:01.000Z</time>
      </trkpt>
      <trkpt lat="47.30261" lon="-2.18799">
        <ele>29</ele>
        <time>2020-04-10T09:40:02.000Z</time>
      </trkpt>
      <trkpt lat="47.30259" lon="-2.18794">
        <ele>29.2</ele>
        <time>2020-04-10T09:40:03.000Z</time>
      </trkpt>
      <trkpt lat="47.30256" lon="-2.1879">
        <ele>29.4</ele>
        <time>2020-04-10T09:40:04.000Z</time>
      </trkpt>
      <trkpt lat="47.30255" lon="-2.18785">
        <ele>29.4</ele>
        <time>2020-04-10T09:40:05.000Z</time>
      </trkpt>
      <trkpt lat="47.30254" lon="-2.18779">
        <ele>29.4</ele>
        <time>2020-04-10T09:40:06.000Z</time>
      </trkpt>
      <trkpt lat="47.30255" lon="-2.18773">
        <ele>29.4</ele>
        <time>2020-04-10T09:40:07.000Z</time>
      </trkpt>
      <trkpt lat="47.30256" lon="-2.18767">
        <ele>29.4</ele>
        <time>2020-04-10T09:40:08.000Z</time>
      </trkpt>
      <trkpt lat="47.30258" lon="-2.18762">
        <ele>29.4</ele>
        <time>2020-04-10T09:40:09.000Z</time>
      </trkpt>
      <trkpt lat="47.3026" lon="-2.18757">
        <ele>29.4</ele>
        <time>2020-04-10T09:40:10.000Z</time>
      </trkpt>
      <trkpt lat="47.30262" lon="-2.18752">
        <ele>29.4</ele>
        <time>2020-04-10T09:40:11.000Z</time>
      </trkpt>
      <trkpt lat="47.30264" lon="-2.18746">
        <ele>29.2</ele>
        <time>2020-04-10T09:40:12.000Z</time>
      </trkpt>
      <trkpt lat="47.30267" lon="-2.18741">
        <ele>29</ele>
        <time>2020-04-10T09:40:13.000Z</time>
      </trkpt>
      <trkpt lat="47.3027" lon="-2.18736">
        <ele>29</ele>
        <time>2020-04-10T09:40:14.000Z</time>
      </trkpt>
      <trkpt lat="47.30272" lon="-2.18731">
        <ele>29</ele>
        <time>2020-04-10T09:40:15.000Z</time>
      </trkpt>
      <trkpt lat="47.30275" lon="-2.18726">
        <ele>29.2</ele>
        <time>2020-04-10T09:40:16.000Z</time>
      </trkpt>
      <trkpt lat="47.30278" lon="-2.18721">
        <ele>29</ele>
        <time>2020-04-10T09:40:17.000Z</time>
      </trkpt>
      <trkpt lat="47.30281" lon="-2.18716">
        <ele>29.2</ele>
        <time>2020-04-10T09:40:18.000Z</time>
      </trkpt>
      <trkpt lat="47.30284" lon="-2.1871">
        <ele>29.2</ele>
        <time>2020-04-10T09:40:19.000Z</time>
      </trkpt>
      <trkpt lat="47.30287" lon="-2.18705">
        <ele>29.2</ele>
        <time>2020-04-10T09:40:20.000Z</time>
      </trkpt>
      <trkpt lat="47.30289" lon="-2.18699">
        <ele>29.2</ele>
        <time>2020-04-10T09:40:21.000Z</time>
      </trkpt>
      <trkpt lat="47.30291" lon="-2.18694">
        <ele>29.2</ele>
        <time>2020-04-10T09:40:22.000Z</time>
      </trkpt>
      <trkpt lat="47.30294" lon="-2.18688">
        <ele>29</ele>
        <time>2020-04-10T09:40:23.000Z</time>
      </trkpt>
      <trkpt lat="47.30296" lon="-2.18683">
        <ele>29.2</ele>
        <time>2020-04-10T09:40:24.000Z</time>
      </trkpt>
      <trkpt lat="47.30299" lon="-2.18677">
        <ele>29.2</ele>
        <time>2020-04-10T09:40:25.000Z</time>
      </trkpt>
      <trkpt lat="47.30302" lon="-2.18672">
        <ele>29.4</ele>
        <time>2020-04-10T09:40:26.000Z</time>
      </trkpt>
      <trkpt lat="47.30305" lon="-2.18668">
        <ele>29.4</ele>
        <time>2020-04-10T09:40:27.000Z</time>
      </trkpt>
      <trkpt lat="47.30307" lon="-2.18663">
        <ele>29.2</ele>
        <time>2020-04-10T09:40:28.000Z</time>
      </trkpt>
      <trkpt lat="47.30309" lon="-2.18658">
        <ele>29</ele>
        <time>2020-04-10T09:40:29.000Z</time>
      </trkpt>
      <trkpt lat="47.30311" lon="-2.18651">
        <ele>29</ele>
        <time>2020-04-10T09:40:30.000Z</time>
      </trkpt>
      <trkpt lat="47.30312" lon="-2.18646">
        <ele>29.2</ele>
        <time>2020-04-10T09:40:31.000Z</time>
      </trkpt>
      <trkpt lat="47.30311" lon="-2.18639">
        <ele>29.2</ele>
        <time>2020-04-10T09:40:32.000Z</time>
      </trkpt>
      <trkpt lat="47.3031" lon="-2.18634">
        <ele>29.4</ele>
        <time>2020-04-10T09:40:33.000Z</time>
      </trkpt>
      <trkpt lat="47.30307" lon="-2.18629">
        <ele>29.2</ele>
        <time>2020-04-10T09:40:34.000Z</time>
      </trkpt>
      <trkpt lat="47.30304" lon="-2.18625">
        <ele>29.2</ele>
        <time>2020-04-10T09:40:35.000Z</time>
      </trkpt>
      <trkpt lat="47.30301" lon="-2.18621">
        <ele>29.2</ele>
        <time>2020-04-10T09:40:36.000Z</time>
      </trkpt>
      <trkpt lat="47.30298" lon="-2.18616">
        <ele>29</ele>
        <time>2020-04-10T09:40:37.000Z</time>
      </trkpt>
      <trkpt lat="47.30297" lon="-2.1861">
        <ele>29</ele>
        <time>2020-04-10T09:40:38.000Z</time>
      </trkpt>
      <trkpt lat="47.30298" lon="-2.18603">
        <ele>29</ele>
        <time>2020-04-10T09:40:39.000Z</time>
      </trkpt>
      <trkpt lat="47.303" lon="-2.18598">
        <ele>29</ele>
        <time>2020-04-10T09:40:40.000Z</time>
      </trkpt>
      <trkpt lat="47.30303" lon="-2.18592">
        <ele>28.8</ele>
        <time>2020-04-10T09:40:41.000Z</time>
      </trkpt>
      <trkpt lat="47.30306" lon="-2.18587">
        <ele>28.8</ele>
        <time>2020-04-10T09:40:42.000Z</time>
      </trkpt>
      <trkpt lat="47.30309" lon="-2.18582">
        <ele>29</ele>
        <time>2020-04-10T09:40:43.000Z</time>
      </trkpt>
      <trkpt lat="47.30311" lon="-2.18577">
        <ele>29</ele>
        <time>2020-04-10T09:40:44.000Z</time>
      </trkpt>
      <trkpt lat="47.30314" lon="-2.18572">
        <ele>29</ele>
        <time>2020-04-10T09:40:45.000Z</time>
      </trkpt>
      <trkpt lat="47.30316" lon="-2.18566">
        <ele>28.8</ele>
        <time>2020-04-10T09:40:46.000Z</time>
      </trkpt>
      <trkpt lat="47.30319" lon="-2.18561">
        <ele>29</ele>
        <time>2020-04-10T09:40:47.000Z</time>
      </trkpt>
      <trkpt lat="47.30322" lon="-2.18556">
        <ele>29</ele>
        <time>2020-04-10T09:40:48.000Z</time>
      </trkpt>
      <trkpt lat="47.30325" lon="-2.18551">
        <ele>29</ele>
        <time>2020-04-10T09:40:49.000Z</time>
      </trkpt>
      <trkpt lat="47.30328" lon="-2.18547">
        <ele>29</ele>
        <time>2020-04-10T09:40:50.000Z</time>
      </trkpt>
      <trkpt lat="47.30331" lon="-2.18542">
        <ele>29.2</ele>
        <time>2020-04-10T09:40:51.000Z</time>
      </trkpt>
      <trkpt lat="47.30335" lon="-2.18537">
        <ele>29</ele>
        <time>2020-04-10T09:40:52.000Z</time>
      </trkpt>
      <trkpt lat="47.30338" lon="-2.18532">
        <ele>29.2</ele>
        <time>2020-04-10T09:40:53.000Z</time>
      </trkpt>
      <trkpt lat="47.30341" lon="-2.18527">
        <ele>29.2</ele>
        <time>2020-04-10T09:40:54.000Z</time>
      </trkpt>
      <trkpt lat="47.30341" lon="-2.18527">
        <ele>29.2</ele>
        <time>2020-04-10T09:40:55.000Z</time>
      </trkpt>
      <trkpt lat="47.30344" lon="-2.18522">
        <ele>29.2</ele>
        <time>2020-04-10T09:40:56.000Z</time>
      </trkpt>
      <trkpt lat="47.30347" lon="-2.18516">
        <ele>29.2</ele>
        <time>2020-04-10T09:40:57.000Z</time>
      </trkpt>
      <trkpt lat="47.30353" lon="-2.18505">
        <ele>29.2</ele>
        <time>2020-04-10T09:40:58.000Z</time>
      </trkpt>
      <trkpt lat="47.30356" lon="-2.18499">
        <ele>29.2</ele>
        <time>2020-04-10T09:40:59.000Z</time>
      </trkpt>
      <trkpt lat="47.30356" lon="-2.18499">
        <ele>29.2</ele>
        <time>2020-04-10T09:41:00.000Z</time>
      </trkpt>
      <trkpt lat="47.30359" lon="-2.18494">
        <ele>29.2</ele>
        <time>2020-04-10T09:41:01.000Z</time>
      </trkpt>
      <trkpt lat="47.30363" lon="-2.18489">
        <ele>29</ele>
        <time>2020-04-10T09:41:02.000Z</time>
      </trkpt>
      <trkpt lat="47.30366" lon="-2.18484">
        <ele>29</ele>
        <time>2020-04-10T09:41:03.000Z</time>
      </trkpt>
      <trkpt lat="47.30369" lon="-2.18478">
        <ele>29</ele>
        <time>2020-04-10T09:41:04.000Z</time>
      </trkpt>
      <trkpt lat="47.30372" lon="-2.18473">
        <ele>29</ele>
        <time>2020-04-10T09:41:05.000Z</time>
      </trkpt>
      <trkpt lat="47.30375" lon="-2.18468">
        <ele>29</ele>
        <time>2020-04-10T09:41:06.000Z</time>
      </trkpt>
      <trkpt lat="47.30378" lon="-2.18463">
        <ele>29.2</ele>
        <time>2020-04-10T09:41:07.000Z</time>
      </trkpt>
      <trkpt lat="47.30382" lon="-2.18458">
        <ele>29.2</ele>
        <time>2020-04-10T09:41:08.000Z</time>
      </trkpt>
      <trkpt lat="47.30384" lon="-2.18453">
        <ele>29.2</ele>
        <time>2020-04-10T09:41:09.000Z</time>
      </trkpt>
      <trkpt lat="47.30387" lon="-2.18448">
        <ele>29.2</ele>
        <time>2020-04-10T09:41:10.000Z</time>
      </trkpt>
      <trkpt lat="47.30387" lon="-2.18442">
        <ele>29.4</ele>
        <time>2020-04-10T09:41:11.000Z</time>
      </trkpt>
      <trkpt lat="47.30386" lon="-2.18437">
        <ele>29.4</ele>
        <time>2020-04-10T09:41:12.000Z</time>
      </trkpt>
      <trkpt lat="47.30384" lon="-2.18432">
        <ele>29.6</ele>
        <time>2020-04-10T09:41:13.000Z</time>
      </trkpt>
      <trkpt lat="47.30382" lon="-2.18429">
        <ele>30</ele>
        <time>2020-04-10T09:41:14.000Z</time>
      </trkpt>
      <trkpt lat="47.30379" lon="-2.18426">
        <ele>30.2</ele>
        <time>2020-04-10T09:41:15.000Z</time>
      </trkpt>
      <trkpt lat="47.30376" lon="-2.18424">
        <ele>30.4</ele>
        <time>2020-04-10T09:41:16.000Z</time>
      </trkpt>
      <trkpt lat="47.30372" lon="-2.18423">
        <ele>30.4</ele>
        <time>2020-04-10T09:41:17.000Z</time>
      </trkpt>
      <trkpt lat="47.30368" lon="-2.18422">
        <ele>30.6</ele>
        <time>2020-04-10T09:41:18.000Z</time>
      </trkpt>
      <trkpt lat="47.30363" lon="-2.1842">
        <ele>30.8</ele>
        <time>2020-04-10T09:41:19.000Z</time>
      </trkpt>
      <trkpt lat="47.30358" lon="-2.1842">
        <ele>30.8</ele>
        <time>2020-04-10T09:41:20.000Z</time>
      </trkpt>
      <trkpt lat="47.30354" lon="-2.18419">
        <ele>30.8</ele>
        <time>2020-04-10T09:41:21.000Z</time>
      </trkpt>
      <trkpt lat="47.30349" lon="-2.18419">
        <ele>31</ele>
        <time>2020-04-10T09:41:22.000Z</time>
      </trkpt>
      <trkpt lat="47.30345" lon="-2.18418">
        <ele>30.8</ele>
        <time>2020-04-10T09:41:23.000Z</time>
      </trkpt>
      <trkpt lat="47.30341" lon="-2.18416">
        <ele>30.6</ele>
        <time>2020-04-10T09:41:24.000Z</time>
      </trkpt>
      <trkpt lat="47.30336" lon="-2.18415">
        <ele>30.8</ele>
        <time>2020-04-10T09:41:25.000Z</time>
      </trkpt>
      <trkpt lat="47.30332" lon="-2.18413">
        <ele>30.6</ele>
        <time>2020-04-10T09:41:26.000Z</time>
      </trkpt>
      <trkpt lat="47.30327" lon="-2.18412">
        <ele>30.6</ele>
        <time>2020-04-10T09:41:27.000Z</time>
      </trkpt>
      <trkpt lat="47.30322" lon="-2.1841">
        <ele>30.4</ele>
        <time>2020-04-10T09:41:28.000Z</time>
      </trkpt>
      <trkpt lat="47.30317" lon="-2.18408">
        <ele>29.6</ele>
        <time>2020-04-10T09:41:29.000Z</time>
      </trkpt>
      <trkpt lat="47.30312" lon="-2.18406">
        <ele>29.6</ele>
        <time>2020-04-10T09:41:30.000Z</time>
      </trkpt>
      <trkpt lat="47.30307" lon="-2.18405">
        <ele>29.4</ele>
        <time>2020-04-10T09:41:31.000Z</time>
      </trkpt>
      <trkpt lat="47.30301" lon="-2.18403">
        <ele>29.2</ele>
        <time>2020-04-10T09:41:32.000Z</time>
      </trkpt>
      <trkpt lat="47.30296" lon="-2.18401">
        <ele>29.4</ele>
        <time>2020-04-10T09:41:33.000Z</time>
      </trkpt>
      <trkpt lat="47.30291" lon="-2.18399">
        <ele>29.4</ele>
        <time>2020-04-10T09:41:34.000Z</time>
      </trkpt>
      <trkpt lat="47.30287" lon="-2.18397">
        <ele>29.2</ele>
        <time>2020-04-10T09:41:35.000Z</time>
      </trkpt>
      <trkpt lat="47.30285" lon="-2.18393">
        <ele>29.4</ele>
        <time>2020-04-10T09:41:36.000Z</time>
      </trkpt>
      <trkpt lat="47.30284" lon="-2.18388">
        <ele>29.6</ele>
        <time>2020-04-10T09:41:37.000Z</time>
      </trkpt>
      <trkpt lat="47.30284" lon="-2.18383">
        <ele>29.6</ele>
        <time>2020-04-10T09:41:38.000Z</time>
      </trkpt>
      <trkpt lat="47.30285" lon="-2.18378">
        <ele>30</ele>
        <time>2020-04-10T09:41:39.000Z</time>
      </trkpt>
      <trkpt lat="47.30285" lon="-2.18373">
        <ele>30.2</ele>
        <time>2020-04-10T09:41:40.000Z</time>
      </trkpt>
      <trkpt lat="47.30286" lon="-2.18367">
        <ele>30.4</ele>
        <time>2020-04-10T09:41:41.000Z</time>
      </trkpt>
      <trkpt lat="47.30285" lon="-2.18363">
        <ele>30.4</ele>
        <time>2020-04-10T09:41:42.000Z</time>
      </trkpt>
      <trkpt lat="47.30283" lon="-2.18358">
        <ele>30.6</ele>
        <time>2020-04-10T09:41:43.000Z</time>
      </trkpt>
      <trkpt lat="47.30281" lon="-2.18354">
        <ele>30.4</ele>
        <time>2020-04-10T09:41:44.000Z</time>
      </trkpt>
      <trkpt lat="47.30278" lon="-2.18351">
        <ele>30.4</ele>
        <time>2020-04-10T09:41:45.000Z</time>
      </trkpt>
      <trkpt lat="47.30274" lon="-2.18349">
        <ele>30.2</ele>
        <time>2020-04-10T09:41:46.000Z</time>
      </trkpt>
      <trkpt lat="47.3027" lon="-2.18348">
        <ele>29.8</ele>
        <time>2020-04-10T09:41:47.000Z</time>
      </trkpt>
      <trkpt lat="47.30265" lon="-2.18347">
        <ele>29.8</ele>
        <time>2020-04-10T09:41:48.000Z</time>
      </trkpt>
      <trkpt lat="47.30261" lon="-2.18346">
        <ele>29.6</ele>
        <time>2020-04-10T09:41:49.000Z</time>
      </trkpt>
      <trkpt lat="47.30256" lon="-2.18344">
        <ele>29.6</ele>
        <time>2020-04-10T09:41:50.000Z</time>
      </trkpt>
      <trkpt lat="47.30251" lon="-2.18343">
        <ele>29.4</ele>
        <time>2020-04-10T09:41:51.000Z</time>
      </trkpt>
      <trkpt lat="47.30246" lon="-2.18341">
        <ele>29.4</ele>
        <time>2020-04-10T09:41:52.000Z</time>
      </trkpt>
      <trkpt lat="47.30241" lon="-2.1834">
        <ele>29.2</ele>
        <time>2020-04-10T09:41:53.000Z</time>
      </trkpt>
      <trkpt lat="47.30236" lon="-2.18338">
        <ele>29.2</ele>
        <time>2020-04-10T09:41:54.000Z</time>
      </trkpt>
      <trkpt lat="47.30231" lon="-2.18337">
        <ele>29</ele>
        <time>2020-04-10T09:41:55.000Z</time>
      </trkpt>
      <trkpt lat="47.30226" lon="-2.18335">
        <ele>29</ele>
        <time>2020-04-10T09:41:56.000Z</time>
      </trkpt>
      <trkpt lat="47.30221" lon="-2.18333">
        <ele>29</ele>
        <time>2020-04-10T09:41:57.000Z</time>
      </trkpt>
      <trkpt lat="47.30216" lon="-2.18332">
        <ele>28.8</ele>
        <time>2020-04-10T09:41:58.000Z</time>
      </trkpt>
      <trkpt lat="47.30212" lon="-2.18331">
        <ele>29.2</ele>
        <time>2020-04-10T09:41:59.000Z</time>
      </trkpt>
      <trkpt lat="47.30208" lon="-2.1833">
        <ele>29.4</ele>
        <time>2020-04-10T09:42:00.000Z</time>
      </trkpt>
      <trkpt lat="47.30204" lon="-2.18327">
        <ele>29.4</ele>
        <time>2020-04-10T09:42:01.000Z</time>
      </trkpt>
      <trkpt lat="47.302" lon="-2.18323">
        <ele>29.4</ele>
        <time>2020-04-10T09:42:02.000Z</time>
      </trkpt>
      <trkpt lat="47.30198" lon="-2.18318">
        <ele>29.2</ele>
        <time>2020-04-10T09:42:03.000Z</time>
      </trkpt>
      <trkpt lat="47.30195" lon="-2.18312">
        <ele>29</ele>
        <time>2020-04-10T09:42:04.000Z</time>
      </trkpt>
      <trkpt lat="47.30193" lon="-2.18307">
        <ele>29</ele>
        <time>2020-04-10T09:42:05.000Z</time>
      </trkpt>
      <trkpt lat="47.30191" lon="-2.18302">
        <ele>28.8</ele>
        <time>2020-04-10T09:42:06.000Z</time>
      </trkpt>
      <trkpt lat="47.30188" lon="-2.18296">
        <ele>29.2</ele>
        <time>2020-04-10T09:42:07.000Z</time>
      </trkpt>
      <trkpt lat="47.30186" lon="-2.18291">
        <ele>29.4</ele>
        <time>2020-04-10T09:42:08.000Z</time>
      </trkpt>
      <trkpt lat="47.30183" lon="-2.18286">
        <ele>29.4</ele>
        <time>2020-04-10T09:42:09.000Z</time>
      </trkpt>
      <trkpt lat="47.3018" lon="-2.18281">
        <ele>29.4</ele>
        <time>2020-04-10T09:42:10.000Z</time>
      </trkpt>
      <trkpt lat="47.30177" lon="-2.18277">
        <ele>29.4</ele>
        <time>2020-04-10T09:42:11.000Z</time>
      </trkpt>
      <trkpt lat="47.30173" lon="-2.18275">
        <ele>29.2</ele>
        <time>2020-04-10T09:42:12.000Z</time>
      </trkpt>
      <trkpt lat="47.30169" lon="-2.18274">
        <ele>29.2</ele>
        <time>2020-04-10T09:42:13.000Z</time>
      </trkpt>
      <trkpt lat="47.30165" lon="-2.18272">
        <ele>29.2</ele>
        <time>2020-04-10T09:42:14.000Z</time>
      </trkpt>
      <trkpt lat="47.30161" lon="-2.18268">
        <ele>29.4</ele>
        <time>2020-04-10T09:42:15.000Z</time>
      </trkpt>
      <trkpt lat="47.30158" lon="-2.18263">
        <ele>29.6</ele>
        <time>2020-04-10T09:42:16.000Z</time>
      </trkpt>
      <trkpt lat="47.30156" lon="-2.18258">
        <ele>29.8</ele>
        <time>2020-04-10T09:42:17.000Z</time>
      </trkpt>
      <trkpt lat="47.30153" lon="-2.18254">
        <ele>30</ele>
        <time>2020-04-10T09:42:18.000Z</time>
      </trkpt>
      <trkpt lat="47.3015" lon="-2.18249">
        <ele>30</ele>
        <time>2020-04-10T09:42:19.000Z</time>
      </trkpt>
      <trkpt lat="47.30147" lon="-2.18243">
        <ele>30.2</ele>
        <time>2020-04-10T09:42:20.000Z</time>
      </trkpt>
      <trkpt lat="47.30145" lon="-2.18238">
        <ele>30.4</ele>
        <time>2020-04-10T09:42:21.000Z</time>
      </trkpt>
      <trkpt lat="47.30142" lon="-2.18233">
        <ele>30.4</ele>
        <time>2020-04-10T09:42:22.000Z</time>
      </trkpt>
      <trkpt lat="47.30139" lon="-2.18228">
        <ele>30.4</ele>
        <time>2020-04-10T09:42:23.000Z</time>
      </trkpt>
      <trkpt lat="47.30136" lon="-2.18224">
        <ele>30.2</ele>
        <time>2020-04-10T09:42:24.000Z</time>
      </trkpt>
      <trkpt lat="47.30133" lon="-2.18219">
        <ele>30.2</ele>
        <time>2020-04-10T09:42:25.000Z</time>
      </trkpt>
      <trkpt lat="47.30129" lon="-2.18215">
        <ele>30.2</ele>
        <time>2020-04-10T09:42:26.000Z</time>
      </trkpt>
      <trkpt lat="47.30125" lon="-2.18212">
        <ele>30.2</ele>
        <time>2020-04-10T09:42:27.000Z</time>
      </trkpt>
      <trkpt lat="47.30122" lon="-2.18208">
        <ele>30.4</ele>
        <time>2020-04-10T09:42:28.000Z</time>
      </trkpt>
      <trkpt lat="47.30118" lon="-2.18206">
        <ele>30.4</ele>
        <time>2020-04-10T09:42:29.000Z</time>
      </trkpt>
      <trkpt lat="47.30114" lon="-2.18205">
        <ele>30.4</ele>
        <time>2020-04-10T09:42:30.000Z</time>
      </trkpt>
      <trkpt lat="47.3011" lon="-2.18206">
        <ele>30.4</ele>
        <time>2020-04-10T09:42:31.000Z</time>
      </trkpt>
      <trkpt lat="47.30106" lon="-2.18208">
        <ele>30.4</ele>
        <time>2020-04-10T09:42:32.000Z</time>
      </trkpt>
      <trkpt lat="47.30101" lon="-2.1821">
        <ele>30.4</ele>
        <time>2020-04-10T09:42:33.000Z</time>
      </trkpt>
      <trkpt lat="47.30097" lon="-2.18211">
        <ele>30.4</ele>
        <time>2020-04-10T09:42:34.000Z</time>
      </trkpt>
      <trkpt lat="47.30093" lon="-2.18213">
        <ele>30.6</ele>
        <time>2020-04-10T09:42:35.000Z</time>
      </trkpt>
      <trkpt lat="47.30089" lon="-2.18214">
        <ele>30.6</ele>
        <time>2020-04-10T09:42:36.000Z</time>
      </trkpt>
      <trkpt lat="47.30085" lon="-2.18217">
        <ele>30.6</ele>
        <time>2020-04-10T09:42:37.000Z</time>
      </trkpt>
      <trkpt lat="47.30081" lon="-2.18219">
        <ele>30.4</ele>
        <time>2020-04-10T09:42:38.000Z</time>
      </trkpt>
      <trkpt lat="47.30077" lon="-2.18222">
        <ele>30.4</ele>
        <time>2020-04-10T09:42:39.000Z</time>
      </trkpt>
      <trkpt lat="47.30074" lon="-2.18224">
        <ele>30.4</ele>
        <time>2020-04-10T09:42:40.000Z</time>
      </trkpt>
      <trkpt lat="47.30066" lon="-2.18231">
        <ele>30.4</ele>
        <time>2020-04-10T09:42:41.000Z</time>
      </trkpt>
      <trkpt lat="47.30063" lon="-2.18235">
        <ele>30.4</ele>
        <time>2020-04-10T09:42:42.000Z</time>
      </trkpt>
      <trkpt lat="47.30059" lon="-2.18239">
        <ele>30</ele>
        <time>2020-04-10T09:42:43.000Z</time>
      </trkpt>
      <trkpt lat="47.30056" lon="-2.18244">
        <ele>30.4</ele>
        <time>2020-04-10T09:42:44.000Z</time>
      </trkpt>
      <trkpt lat="47.30054" lon="-2.18249">
        <ele>30</ele>
        <time>2020-04-10T09:42:45.000Z</time>
      </trkpt>
      <trkpt lat="47.30051" lon="-2.18255">
        <ele>29.6</ele>
        <time>2020-04-10T09:42:46.000Z</time>
      </trkpt>
      <trkpt lat="47.3005" lon="-2.18262">
        <ele>29.4</ele>
        <time>2020-04-10T09:42:47.000Z</time>
      </trkpt>
      <trkpt lat="47.30049" lon="-2.1827">
        <ele>28.8</ele>
        <time>2020-04-10T09:42:48.000Z</time>
      </trkpt>
      <trkpt lat="47.30049" lon="-2.18278">
        <ele>29</ele>
        <time>2020-04-10T09:42:49.000Z</time>
      </trkpt>
      <trkpt lat="47.30048" lon="-2.18285">
        <ele>28.6</ele>
        <time>2020-04-10T09:42:50.000Z</time>
      </trkpt>
      <trkpt lat="47.30045" lon="-2.1829">
        <ele>28.4</ele>
        <time>2020-04-10T09:42:51.000Z</time>
      </trkpt>
      <trkpt lat="47.30041" lon="-2.18293">
        <ele>28.6</ele>
        <time>2020-04-10T09:42:52.000Z</time>
      </trkpt>
      <trkpt lat="47.30037" lon="-2.18296">
        <ele>28.6</ele>
        <time>2020-04-10T09:42:53.000Z</time>
      </trkpt>
      <trkpt lat="47.30033" lon="-2.18299">
        <ele>28.8</ele>
        <time>2020-04-10T09:42:54.000Z</time>
      </trkpt>
      <trkpt lat="47.30029" lon="-2.18302">
        <ele>28.8</ele>
        <time>2020-04-10T09:42:55.000Z</time>
      </trkpt>
      <trkpt lat="47.30024" lon="-2.18306">
        <ele>28.8</ele>
        <time>2020-04-10T09:42:56.000Z</time>
      </trkpt>
      <trkpt lat="47.3002" lon="-2.1831">
        <ele>29</ele>
        <time>2020-04-10T09:42:57.000Z</time>
      </trkpt>
      <trkpt lat="47.30015" lon="-2.18314">
        <ele>29</ele>
        <time>2020-04-10T09:42:58.000Z</time>
      </trkpt>
      <trkpt lat="47.30011" lon="-2.18318">
        <ele>29</ele>
        <time>2020-04-10T09:42:59.000Z</time>
      </trkpt>
      <trkpt lat="47.30006" lon="-2.18322">
        <ele>29</ele>
        <time>2020-04-10T09:43:00.000Z</time>
      </trkpt>
      <trkpt lat="47.30002" lon="-2.18326">
        <ele>28.8</ele>
        <time>2020-04-10T09:43:01.000Z</time>
      </trkpt>
      <trkpt lat="47.29997" lon="-2.1833">
        <ele>28.8</ele>
        <time>2020-04-10T09:43:02.000Z</time>
      </trkpt>
      <trkpt lat="47.29992" lon="-2.18334">
        <ele>28.8</ele>
        <time>2020-04-10T09:43:03.000Z</time>
      </trkpt>
      <trkpt lat="47.29988" lon="-2.18339">
        <ele>28.8</ele>
        <time>2020-04-10T09:43:04.000Z</time>
      </trkpt>
      <trkpt lat="47.29983" lon="-2.18343">
        <ele>28.8</ele>
        <time>2020-04-10T09:43:05.000Z</time>
      </trkpt>
      <trkpt lat="47.2998" lon="-2.18349">
        <ele>29</ele>
        <time>2020-04-10T09:43:06.000Z</time>
      </trkpt>
      <trkpt lat="47.29976" lon="-2.18355">
        <ele>29</ele>
        <time>2020-04-10T09:43:07.000Z</time>
      </trkpt>
      <trkpt lat="47.29973" lon="-2.1836">
        <ele>29</ele>
        <time>2020-04-10T09:43:08.000Z</time>
      </trkpt>
      <trkpt lat="47.29969" lon="-2.18366">
        <ele>29</ele>
        <time>2020-04-10T09:43:09.000Z</time>
      </trkpt>
      <trkpt lat="47.29966" lon="-2.18371">
        <ele>29.2</ele>
        <time>2020-04-10T09:43:10.000Z</time>
      </trkpt>
      <trkpt lat="47.29963" lon="-2.18376">
        <ele>29.2</ele>
        <time>2020-04-10T09:43:11.000Z</time>
      </trkpt>
      <trkpt lat="47.2996" lon="-2.18381">
        <ele>29.2</ele>
        <time>2020-04-10T09:43:12.000Z</time>
      </trkpt>
      <trkpt lat="47.29957" lon="-2.18386">
        <ele>29.2</ele>
        <time>2020-04-10T09:43:13.000Z</time>
      </trkpt>
      <trkpt lat="47.29955" lon="-2.18392">
        <ele>29.2</ele>
        <time>2020-04-10T09:43:14.000Z</time>
      </trkpt>
      <trkpt lat="47.29952" lon="-2.18397">
        <ele>29.2</ele>
        <time>2020-04-10T09:43:15.000Z</time>
      </trkpt>
      <trkpt lat="47.29949" lon="-2.18402">
        <ele>29.4</ele>
        <time>2020-04-10T09:43:16.000Z</time>
      </trkpt>
      <trkpt lat="47.29947" lon="-2.18407">
        <ele>29.4</ele>
        <time>2020-04-10T09:43:17.000Z</time>
      </trkpt>
      <trkpt lat="47.29944" lon="-2.18412">
        <ele>29.4</ele>
        <time>2020-04-10T09:43:19.000Z</time>
      </trkpt>
      <trkpt lat="47.29941" lon="-2.18424">
        <ele>29.4</ele>
        <time>2020-04-10T09:43:20.000Z</time>
      </trkpt>
      <trkpt lat="47.29941" lon="-2.18431">
        <ele>29.4</ele>
        <time>2020-04-10T09:43:21.000Z</time>
      </trkpt>
      <trkpt lat="47.29941" lon="-2.18436">
        <ele>29.4</ele>
        <time>2020-04-10T09:43:22.000Z</time>
      </trkpt>
      <trkpt lat="47.29941" lon="-2.18442">
        <ele>29.6</ele>
        <time>2020-04-10T09:43:23.000Z</time>
      </trkpt>
      <trkpt lat="47.29939" lon="-2.18447">
        <ele>29.6</ele>
        <time>2020-04-10T09:43:24.000Z</time>
      </trkpt>
      <trkpt lat="47.29936" lon="-2.18451">
        <ele>29.6</ele>
        <time>2020-04-10T09:43:25.000Z</time>
      </trkpt>
      <trkpt lat="47.29933" lon="-2.18455">
        <ele>29.6</ele>
        <time>2020-04-10T09:43:26.000Z</time>
      </trkpt>
      <trkpt lat="47.29929" lon="-2.18459">
        <ele>29.6</ele>
        <time>2020-04-10T09:43:27.000Z</time>
      </trkpt>
      <trkpt lat="47.29926" lon="-2.18463">
        <ele>29.6</ele>
        <time>2020-04-10T09:43:28.000Z</time>
      </trkpt>
      <trkpt lat="47.29922" lon="-2.18468">
        <ele>29.6</ele>
        <time>2020-04-10T09:43:29.000Z</time>
      </trkpt>
      <trkpt lat="47.29919" lon="-2.18473">
        <ele>29.6</ele>
        <time>2020-04-10T09:43:30.000Z</time>
      </trkpt>
      <trkpt lat="47.29916" lon="-2.18478">
        <ele>29.6</ele>
        <time>2020-04-10T09:43:31.000Z</time>
      </trkpt>
      <trkpt lat="47.29912" lon="-2.18482">
        <ele>29.4</ele>
        <time>2020-04-10T09:43:32.000Z</time>
      </trkpt>
      <trkpt lat="47.29908" lon="-2.18485">
        <ele>29.4</ele>
        <time>2020-04-10T09:43:33.000Z</time>
      </trkpt>
      <trkpt lat="47.29904" lon="-2.18488">
        <ele>29.4</ele>
        <time>2020-04-10T09:43:34.000Z</time>
      </trkpt>
      <trkpt lat="47.299" lon="-2.18493">
        <ele>29.4</ele>
        <time>2020-04-10T09:43:35.000Z</time>
      </trkpt>
      <trkpt lat="47.29897" lon="-2.18497">
        <ele>29.4</ele>
        <time>2020-04-10T09:43:36.000Z</time>
      </trkpt>
      <trkpt lat="47.29893" lon="-2.18501">
        <ele>29.6</ele>
        <time>2020-04-10T09:43:37.000Z</time>
      </trkpt>
      <trkpt lat="47.2989" lon="-2.18506">
        <ele>29.4</ele>
        <time>2020-04-10T09:43:38.000Z</time>
      </trkpt>
      <trkpt lat="47.29886" lon="-2.1851">
        <ele>29.4</ele>
        <time>2020-04-10T09:43:39.000Z</time>
      </trkpt>
      <trkpt lat="47.29881" lon="-2.18514">
        <ele>29.4</ele>
        <time>2020-04-10T09:43:40.000Z</time>
      </trkpt>
      <trkpt lat="47.29877" lon="-2.18517">
        <ele>29.4</ele>
        <time>2020-04-10T09:43:41.000Z</time>
      </trkpt>
      <trkpt lat="47.29873" lon="-2.18521">
        <ele>29.4</ele>
        <time>2020-04-10T09:43:42.000Z</time>
      </trkpt>
      <trkpt lat="47.29869" lon="-2.18525">
        <ele>29.6</ele>
        <time>2020-04-10T09:43:43.000Z</time>
      </trkpt>
      <trkpt lat="47.29865" lon="-2.18529">
        <ele>29.6</ele>
        <time>2020-04-10T09:43:44.000Z</time>
      </trkpt>
      <trkpt lat="47.29861" lon="-2.18533">
        <ele>29.6</ele>
        <time>2020-04-10T09:43:45.000Z</time>
      </trkpt>
      <trkpt lat="47.29857" lon="-2.18537">
        <ele>29.6</ele>
        <time>2020-04-10T09:43:46.000Z</time>
      </trkpt>
      <trkpt lat="47.29854" lon="-2.18543">
        <ele>29.8</ele>
        <time>2020-04-10T09:43:47.000Z</time>
      </trkpt>
      <trkpt lat="47.29851" lon="-2.18549">
        <ele>29.6</ele>
        <time>2020-04-10T09:43:48.000Z</time>
      </trkpt>
      <trkpt lat="47.29848" lon="-2.18553">
        <ele>29.6</ele>
        <time>2020-04-10T09:43:49.000Z</time>
      </trkpt>
      <trkpt lat="47.29844" lon="-2.18558">
        <ele>29.6</ele>
        <time>2020-04-10T09:43:50.000Z</time>
      </trkpt>
      <trkpt lat="47.2984" lon="-2.18562">
        <ele>29.6</ele>
        <time>2020-04-10T09:43:51.000Z</time>
      </trkpt>
      <trkpt lat="47.29836" lon="-2.18566">
        <ele>29.6</ele>
        <time>2020-04-10T09:43:52.000Z</time>
      </trkpt>
      <trkpt lat="47.29832" lon="-2.18571">
        <ele>29.4</ele>
        <time>2020-04-10T09:43:53.000Z</time>
      </trkpt>
      <trkpt lat="47.29828" lon="-2.18575">
        <ele>29.4</ele>
        <time>2020-04-10T09:43:54.000Z</time>
      </trkpt>
      <trkpt lat="47.29824" lon="-2.1858">
        <ele>29.4</ele>
        <time>2020-04-10T09:43:55.000Z</time>
      </trkpt>
      <trkpt lat="47.29821" lon="-2.18586">
        <ele>29.4</ele>
        <time>2020-04-10T09:43:56.000Z</time>
      </trkpt>
      <trkpt lat="47.29817" lon="-2.18592">
        <ele>29.6</ele>
        <time>2020-04-10T09:43:57.000Z</time>
      </trkpt>
      <trkpt lat="47.29813" lon="-2.18596">
        <ele>29.4</ele>
        <time>2020-04-10T09:43:58.000Z</time>
      </trkpt>
      <trkpt lat="47.29809" lon="-2.18601">
        <ele>29.6</ele>
        <time>2020-04-10T09:43:59.000Z</time>
      </trkpt>
      <trkpt lat="47.29806" lon="-2.18606">
        <ele>29.4</ele>
        <time>2020-04-10T09:44:00.000Z</time>
      </trkpt>
      <trkpt lat="47.29802" lon="-2.18611">
        <ele>29.4</ele>
        <time>2020-04-10T09:44:01.000Z</time>
      </trkpt>
      <trkpt lat="47.29798" lon="-2.18616">
        <ele>29.6</ele>
        <time>2020-04-10T09:44:02.000Z</time>
      </trkpt>
      <trkpt lat="47.29794" lon="-2.18621">
        <ele>29.4</ele>
        <time>2020-04-10T09:44:03.000Z</time>
      </trkpt>
      <trkpt lat="47.2979" lon="-2.18626">
        <ele>29.4</ele>
        <time>2020-04-10T09:44:04.000Z</time>
      </trkpt>
      <trkpt lat="47.29786" lon="-2.18631">
        <ele>29.6</ele>
        <time>2020-04-10T09:44:05.000Z</time>
      </trkpt>
      <trkpt lat="47.29782" lon="-2.18635">
        <ele>29.6</ele>
        <time>2020-04-10T09:44:06.000Z</time>
      </trkpt>
      <trkpt lat="47.29778" lon="-2.1864">
        <ele>29.8</ele>
        <time>2020-04-10T09:44:07.000Z</time>
      </trkpt>
      <trkpt lat="47.29775" lon="-2.18645">
        <ele>29.6</ele>
        <time>2020-04-10T09:44:08.000Z</time>
      </trkpt>
      <trkpt lat="47.29771" lon="-2.1865">
        <ele>29.8</ele>
        <time>2020-04-10T09:44:09.000Z</time>
      </trkpt>
      <trkpt lat="47.29768" lon="-2.18655">
        <ele>29.4</ele>
        <time>2020-04-10T09:44:10.000Z</time>
      </trkpt>
      <trkpt lat="47.29764" lon="-2.1866">
        <ele>29.6</ele>
        <time>2020-04-10T09:44:11.000Z</time>
      </trkpt>
      <trkpt lat="47.2976" lon="-2.18666">
        <ele>29.6</ele>
        <time>2020-04-10T09:44:12.000Z</time>
      </trkpt>
      <trkpt lat="47.29756" lon="-2.18671">
        <ele>29.6</ele>
        <time>2020-04-10T09:44:13.000Z</time>
      </trkpt>
      <trkpt lat="47.29753" lon="-2.18676">
        <ele>29.6</ele>
        <time>2020-04-10T09:44:14.000Z</time>
      </trkpt>
      <trkpt lat="47.29749" lon="-2.18682">
        <ele>29.8</ele>
        <time>2020-04-10T09:44:15.000Z</time>
      </trkpt>
      <trkpt lat="47.29745" lon="-2.18687">
        <ele>29.8</ele>
        <time>2020-04-10T09:44:16.000Z</time>
      </trkpt>
      <trkpt lat="47.29741" lon="-2.18693">
        <ele>29.6</ele>
        <time>2020-04-10T09:44:17.000Z</time>
      </trkpt>
      <trkpt lat="47.29737" lon="-2.18699">
        <ele>29.6</ele>
        <time>2020-04-10T09:44:18.000Z</time>
      </trkpt>
      <trkpt lat="47.29733" lon="-2.18705">
        <ele>29.6</ele>
        <time>2020-04-10T09:44:19.000Z</time>
      </trkpt>
      <trkpt lat="47.29729" lon="-2.1871">
        <ele>29.6</ele>
        <time>2020-04-10T09:44:20.000Z</time>
      </trkpt>
      <trkpt lat="47.29725" lon="-2.18716">
        <ele>29.6</ele>
        <time>2020-04-10T09:44:21.000Z</time>
      </trkpt>
      <trkpt lat="47.29722" lon="-2.18722">
        <ele>29.4</ele>
        <time>2020-04-10T09:44:22.000Z</time>
      </trkpt>
      <trkpt lat="47.29718" lon="-2.18728">
        <ele>29.4</ele>
        <time>2020-04-10T09:44:23.000Z</time>
      </trkpt>
      <trkpt lat="47.29714" lon="-2.18734">
        <ele>29.4</ele>
        <time>2020-04-10T09:44:24.000Z</time>
      </trkpt>
      <trkpt lat="47.2971" lon="-2.18739">
        <ele>29.4</ele>
        <time>2020-04-10T09:44:25.000Z</time>
      </trkpt>
      <trkpt lat="47.29706" lon="-2.18745">
        <ele>29.4</ele>
        <time>2020-04-10T09:44:26.000Z</time>
      </trkpt>
      <trkpt lat="47.29701" lon="-2.1875">
        <ele>29.4</ele>
        <time>2020-04-10T09:44:27.000Z</time>
      </trkpt>
      <trkpt lat="47.29698" lon="-2.18757">
        <ele>29.2</ele>
        <time>2020-04-10T09:44:28.000Z</time>
      </trkpt>
      <trkpt lat="47.29695" lon="-2.18764">
        <ele>29.2</ele>
        <time>2020-04-10T09:44:29.000Z</time>
      </trkpt>
      <trkpt lat="47.29691" lon="-2.1877">
        <ele>29.2</ele>
        <time>2020-04-10T09:44:30.000Z</time>
      </trkpt>
      <trkpt lat="47.29687" lon="-2.18775">
        <ele>29.2</ele>
        <time>2020-04-10T09:44:31.000Z</time>
      </trkpt>
      <trkpt lat="47.29683" lon="-2.1878">
        <ele>29.4</ele>
        <time>2020-04-10T09:44:32.000Z</time>
      </trkpt>
      <trkpt lat="47.29679" lon="-2.18787">
        <ele>29.2</ele>
        <time>2020-04-10T09:44:33.000Z</time>
      </trkpt>
      <trkpt lat="47.29676" lon="-2.18794">
        <ele>29.4</ele>
        <time>2020-04-10T09:44:34.000Z</time>
      </trkpt>
      <trkpt lat="47.29673" lon="-2.188">
        <ele>29</ele>
        <time>2020-04-10T09:44:35.000Z</time>
      </trkpt>
      <trkpt lat="47.29669" lon="-2.18807">
        <ele>29</ele>
        <time>2020-04-10T09:44:36.000Z</time>
      </trkpt>
      <trkpt lat="47.29666" lon="-2.18813">
        <ele>28.8</ele>
        <time>2020-04-10T09:44:37.000Z</time>
      </trkpt>
      <trkpt lat="47.29662" lon="-2.1882">
        <ele>29</ele>
        <time>2020-04-10T09:44:38.000Z</time>
      </trkpt>
      <trkpt lat="47.29659" lon="-2.18826">
        <ele>29</ele>
        <time>2020-04-10T09:44:39.000Z</time>
      </trkpt>
      <trkpt lat="47.29656" lon="-2.18833">
        <ele>29</ele>
        <time>2020-04-10T09:44:40.000Z</time>
      </trkpt>
      <trkpt lat="47.29652" lon="-2.18839">
        <ele>29</ele>
        <time>2020-04-10T09:44:41.000Z</time>
      </trkpt>
      <trkpt lat="47.29649" lon="-2.18845">
        <ele>29.2</ele>
        <time>2020-04-10T09:44:42.000Z</time>
      </trkpt>
      <trkpt lat="47.29646" lon="-2.18851">
        <ele>29.2</ele>
        <time>2020-04-10T09:44:43.000Z</time>
      </trkpt>
      <trkpt lat="47.29643" lon="-2.18858">
        <ele>29.2</ele>
        <time>2020-04-10T09:44:44.000Z</time>
      </trkpt>
      <trkpt lat="47.2964" lon="-2.18864">
        <ele>29.2</ele>
        <time>2020-04-10T09:44:45.000Z</time>
      </trkpt>
      <trkpt lat="47.29638" lon="-2.18873">
        <ele>29.2</ele>
        <time>2020-04-10T09:44:46.000Z</time>
      </trkpt>
      <trkpt lat="47.29636" lon="-2.1888">
        <ele>29.2</ele>
        <time>2020-04-10T09:44:47.000Z</time>
      </trkpt>
      <trkpt lat="47.29633" lon="-2.18887">
        <ele>29.2</ele>
        <time>2020-04-10T09:44:48.000Z</time>
      </trkpt>
      <trkpt lat="47.2963" lon="-2.18893">
        <ele>29.2</ele>
        <time>2020-04-10T09:44:49.000Z</time>
      </trkpt>
      <trkpt lat="47.29627" lon="-2.18899">
        <ele>29.2</ele>
        <time>2020-04-10T09:44:50.000Z</time>
      </trkpt>
      <trkpt lat="47.29624" lon="-2.18905">
        <ele>29.2</ele>
        <time>2020-04-10T09:44:51.000Z</time>
      </trkpt>
      <trkpt lat="47.29621" lon="-2.18912">
        <ele>29.4</ele>
        <time>2020-04-10T09:44:52.000Z</time>
      </trkpt>
      <trkpt lat="47.2962" lon="-2.18919">
        <ele>29.4</ele>
        <time>2020-04-10T09:44:53.000Z</time>
      </trkpt>
      <trkpt lat="47.29618" lon="-2.18926">
        <ele>29.4</ele>
        <time>2020-04-10T09:44:54.000Z</time>
      </trkpt>
      <trkpt lat="47.29616" lon="-2.18933">
        <ele>29.6</ele>
        <time>2020-04-10T09:44:55.000Z</time>
      </trkpt>
      <trkpt lat="47.29615" lon="-2.1894">
        <ele>29.6</ele>
        <time>2020-04-10T09:44:56.000Z</time>
      </trkpt>
      <trkpt lat="47.29614" lon="-2.18948">
        <ele>29.6</ele>
        <time>2020-04-10T09:44:57.000Z</time>
      </trkpt>
      <trkpt lat="47.29612" lon="-2.18956">
        <ele>29.4</ele>
        <time>2020-04-10T09:44:58.000Z</time>
      </trkpt>
      <trkpt lat="47.29612" lon="-2.18964">
        <ele>29.4</ele>
        <time>2020-04-10T09:44:59.000Z</time>
      </trkpt>
      <trkpt lat="47.29611" lon="-2.18971">
        <ele>29.2</ele>
        <time>2020-04-10T09:45:00.000Z</time>
      </trkpt>
      <trkpt lat="47.29609" lon="-2.18978">
        <ele>29.2</ele>
        <time>2020-04-10T09:45:01.000Z</time>
      </trkpt>
      <trkpt lat="47.29607" lon="-2.18985">
        <ele>29.2</ele>
        <time>2020-04-10T09:45:02.000Z</time>
      </trkpt>
      <trkpt lat="47.29606" lon="-2.18992">
        <ele>29.4</ele>
        <time>2020-04-10T09:45:03.000Z</time>
      </trkpt>
      <trkpt lat="47.29605" lon="-2.19">
        <ele>29.2</ele>
        <time>2020-04-10T09:45:04.000Z</time>
      </trkpt>
      <trkpt lat="47.29604" lon="-2.19007">
        <ele>29.2</ele>
        <time>2020-04-10T09:45:05.000Z</time>
      </trkpt>
      <trkpt lat="47.29603" lon="-2.19015">
        <ele>29.2</ele>
        <time>2020-04-10T09:45:06.000Z</time>
      </trkpt>
      <trkpt lat="47.29603" lon="-2.19022">
        <ele>29.2</ele>
        <time>2020-04-10T09:45:07.000Z</time>
      </trkpt>
      <trkpt lat="47.29601" lon="-2.19029">
        <ele>29.2</ele>
        <time>2020-04-10T09:45:08.000Z</time>
      </trkpt>
      <trkpt lat="47.296" lon="-2.19036">
        <ele>29.2</ele>
        <time>2020-04-10T09:45:09.000Z</time>
      </trkpt>
      <trkpt lat="47.29599" lon="-2.19042">
        <ele>29</ele>
        <time>2020-04-10T09:45:10.000Z</time>
      </trkpt>
      <trkpt lat="47.29597" lon="-2.19048">
        <ele>29</ele>
        <time>2020-04-10T09:45:11.000Z</time>
      </trkpt>
      <trkpt lat="47.29595" lon="-2.19055">
        <ele>29</ele>
        <time>2020-04-10T09:45:12.000Z</time>
      </trkpt>
      <trkpt lat="47.29593" lon="-2.19061">
        <ele>29</ele>
        <time>2020-04-10T09:45:13.000Z</time>
      </trkpt>
      <trkpt lat="47.29591" lon="-2.19067">
        <ele>29.2</ele>
        <time>2020-04-10T09:45:14.000Z</time>
      </trkpt>
      <trkpt lat="47.29588" lon="-2.19071">
        <ele>29</ele>
        <time>2020-04-10T09:45:15.000Z</time>
      </trkpt>
      <trkpt lat="47.29584" lon="-2.19073">
        <ele>29.2</ele>
        <time>2020-04-10T09:45:16.000Z</time>
      </trkpt>
      <trkpt lat="47.2958" lon="-2.19073">
        <ele>29</ele>
        <time>2020-04-10T09:45:17.000Z</time>
      </trkpt>
      <trkpt lat="47.29577" lon="-2.19071">
        <ele>29.2</ele>
        <time>2020-04-10T09:45:18.000Z</time>
      </trkpt>
      <trkpt lat="47.29574" lon="-2.19069">
        <ele>29.2</ele>
        <time>2020-04-10T09:45:19.000Z</time>
      </trkpt>
      <trkpt lat="47.29571" lon="-2.19066">
        <ele>29</ele>
        <time>2020-04-10T09:45:20.000Z</time>
      </trkpt>
      <trkpt lat="47.29568" lon="-2.19063">
        <ele>29.4</ele>
        <time>2020-04-10T09:45:21.000Z</time>
      </trkpt>
      <trkpt lat="47.29566" lon="-2.19062">
        <ele>29.4</ele>
        <time>2020-04-10T09:45:22.000Z</time>
      </trkpt>
      <trkpt lat="47.29563" lon="-2.19061">
        <ele>29.4</ele>
        <time>2020-04-10T09:45:23.000Z</time>
      </trkpt>
      <trkpt lat="47.2956" lon="-2.19061">
        <ele>29.4</ele>
        <time>2020-04-10T09:45:24.000Z</time>
      </trkpt>
      <trkpt lat="47.29557" lon="-2.19063">
        <ele>29.4</ele>
        <time>2020-04-10T09:45:25.000Z</time>
      </trkpt>
      <trkpt lat="47.29555" lon="-2.19066">
        <ele>29.4</ele>
        <time>2020-04-10T09:45:26.000Z</time>
      </trkpt>
      <trkpt lat="47.29553" lon="-2.19071">
        <ele>29.4</ele>
        <time>2020-04-10T09:45:27.000Z</time>
      </trkpt>
      <trkpt lat="47.2955" lon="-2.19076">
        <ele>29.4</ele>
        <time>2020-04-10T09:45:28.000Z</time>
      </trkpt>
      <trkpt lat="47.29548" lon="-2.19081">
        <ele>29.2</ele>
        <time>2020-04-10T09:45:29.000Z</time>
      </trkpt>
      <trkpt lat="47.29546" lon="-2.19086">
        <ele>29.2</ele>
        <time>2020-04-10T09:45:30.000Z</time>
      </trkpt>
      <trkpt lat="47.29543" lon="-2.19091">
        <ele>29.2</ele>
        <time>2020-04-10T09:45:31.000Z</time>
      </trkpt>
      <trkpt lat="47.2954" lon="-2.19095">
        <ele>29.2</ele>
        <time>2020-04-10T09:45:32.000Z</time>
      </trkpt>
      <trkpt lat="47.29537" lon="-2.191">
        <ele>29.2</ele>
        <time>2020-04-10T09:45:33.000Z</time>
      </trkpt>
      <trkpt lat="47.29535" lon="-2.19105">
        <ele>29.2</ele>
        <time>2020-04-10T09:45:34.000Z</time>
      </trkpt>
      <trkpt lat="47.29532" lon="-2.1911">
        <ele>29.2</ele>
        <time>2020-04-10T09:45:35.000Z</time>
      </trkpt>
      <trkpt lat="47.2953" lon="-2.19115">
        <ele>29.2</ele>
        <time>2020-04-10T09:45:36.000Z</time>
      </trkpt>
      <trkpt lat="47.2953" lon="-2.19115">
        <ele>29.2</ele>
        <time>2020-04-10T09:45:37.000Z</time>
      </trkpt>
      <trkpt lat="47.29528" lon="-2.1912">
        <ele>29.4</ele>
        <time>2020-04-10T09:45:38.000Z</time>
      </trkpt>
      <trkpt lat="47.29526" lon="-2.19125">
        <ele>29.2</ele>
        <time>2020-04-10T09:45:39.000Z</time>
      </trkpt>
      <trkpt lat="47.29524" lon="-2.1913">
        <ele>29.2</ele>
        <time>2020-04-10T09:45:40.000Z</time>
      </trkpt>
      <trkpt lat="47.29522" lon="-2.19136">
        <ele>29.2</ele>
        <time>2020-04-10T09:45:41.000Z</time>
      </trkpt>
      <trkpt lat="47.29519" lon="-2.19141">
        <ele>29.2</ele>
        <time>2020-04-10T09:45:42.000Z</time>
      </trkpt>
      <trkpt lat="47.29518" lon="-2.19146">
        <ele>29.2</ele>
        <time>2020-04-10T09:45:43.000Z</time>
      </trkpt>
      <trkpt lat="47.29517" lon="-2.19152">
        <ele>29.2</ele>
        <time>2020-04-10T09:45:44.000Z</time>
      </trkpt>
      <trkpt lat="47.29516" lon="-2.19157">
        <ele>29.2</ele>
        <time>2020-04-10T09:45:45.000Z</time>
      </trkpt>
      <trkpt lat="47.29515" lon="-2.19162">
        <ele>29.2</ele>
        <time>2020-04-10T09:45:46.000Z</time>
      </trkpt>
      <trkpt lat="47.29517" lon="-2.19167">
        <ele>29.2</ele>
        <time>2020-04-10T09:45:47.000Z</time>
      </trkpt>
      <trkpt lat="47.2952" lon="-2.19169">
        <ele>29.2</ele>
        <time>2020-04-10T09:45:48.000Z</time>
      </trkpt>
      <trkpt lat="47.29523" lon="-2.19172">
        <ele>29.4</ele>
        <time>2020-04-10T09:45:49.000Z</time>
      </trkpt>
      <trkpt lat="47.29525" lon="-2.19176">
        <ele>29.2</ele>
        <time>2020-04-10T09:45:50.000Z</time>
      </trkpt>
      <trkpt lat="47.29525" lon="-2.19181">
        <ele>29.4</ele>
        <time>2020-04-10T09:45:51.000Z</time>
      </trkpt>
      <trkpt lat="47.29524" lon="-2.19186">
        <ele>29.2</ele>
        <time>2020-04-10T09:45:52.000Z</time>
      </trkpt>
      <trkpt lat="47.29522" lon="-2.1919">
        <ele>29.2</ele>
        <time>2020-04-10T09:45:53.000Z</time>
      </trkpt>
      <trkpt lat="47.2952" lon="-2.19196">
        <ele>29.2</ele>
        <time>2020-04-10T09:45:54.000Z</time>
      </trkpt>
      <trkpt lat="47.29517" lon="-2.19201">
        <ele>29.2</ele>
        <time>2020-04-10T09:45:55.000Z</time>
      </trkpt>
      <trkpt lat="47.29515" lon="-2.19205">
        <ele>29.2</ele>
        <time>2020-04-10T09:45:56.000Z</time>
      </trkpt>
      <trkpt lat="47.29511" lon="-2.1921">
        <ele>29.4</ele>
        <time>2020-04-10T09:45:57.000Z</time>
      </trkpt>
      <trkpt lat="47.29509" lon="-2.19215">
        <ele>29.4</ele>
        <time>2020-04-10T09:45:58.000Z</time>
      </trkpt>
      <trkpt lat="47.29506" lon="-2.19219">
        <ele>29.4</ele>
        <time>2020-04-10T09:45:59.000Z</time>
      </trkpt>
      <trkpt lat="47.29503" lon="-2.19223">
        <ele>29.6</ele>
        <time>2020-04-10T09:46:00.000Z</time>
      </trkpt>
      <trkpt lat="47.29499" lon="-2.19227">
        <ele>29.4</ele>
        <time>2020-04-10T09:46:01.000Z</time>
      </trkpt>
      <trkpt lat="47.29496" lon="-2.19231">
        <ele>29.6</ele>
        <time>2020-04-10T09:46:02.000Z</time>
      </trkpt>
      <trkpt lat="47.29493" lon="-2.19235">
        <ele>29.4</ele>
        <time>2020-04-10T09:46:03.000Z</time>
      </trkpt>
      <trkpt lat="47.2949" lon="-2.19239">
        <ele>29.6</ele>
        <time>2020-04-10T09:46:04.000Z</time>
      </trkpt>
      <trkpt lat="47.29486" lon="-2.19242">
        <ele>29.6</ele>
        <time>2020-04-10T09:46:05.000Z</time>
      </trkpt>
      <trkpt lat="47.29481" lon="-2.19245">
        <ele>29.6</ele>
        <time>2020-04-10T09:46:06.000Z</time>
      </trkpt>
      <trkpt lat="47.29477" lon="-2.19249">
        <ele>29.4</ele>
        <time>2020-04-10T09:46:07.000Z</time>
      </trkpt>
      <trkpt lat="47.29473" lon="-2.19253">
        <ele>29.2</ele>
        <time>2020-04-10T09:46:08.000Z</time>
      </trkpt>
      <trkpt lat="47.29469" lon="-2.19257">
        <ele>29.2</ele>
        <time>2020-04-10T09:46:09.000Z</time>
      </trkpt>
      <trkpt lat="47.29464" lon="-2.19261">
        <ele>29.2</ele>
        <time>2020-04-10T09:46:10.000Z</time>
      </trkpt>
      <trkpt lat="47.2946" lon="-2.19265">
        <ele>29.2</ele>
        <time>2020-04-10T09:46:11.000Z</time>
      </trkpt>
      <trkpt lat="47.29455" lon="-2.19268">
        <ele>29</ele>
        <time>2020-04-10T09:46:12.000Z</time>
      </trkpt>
      <trkpt lat="47.29451" lon="-2.19272">
        <ele>29</ele>
        <time>2020-04-10T09:46:13.000Z</time>
      </trkpt>
      <trkpt lat="47.29446" lon="-2.19276">
        <ele>29.2</ele>
        <time>2020-04-10T09:46:14.000Z</time>
      </trkpt>
      <trkpt lat="47.29442" lon="-2.1928">
        <ele>29.2</ele>
        <time>2020-04-10T09:46:15.000Z</time>
      </trkpt>
      <trkpt lat="47.29438" lon="-2.19284">
        <ele>29.4</ele>
        <time>2020-04-10T09:46:16.000Z</time>
      </trkpt>
      <trkpt lat="47.29434" lon="-2.19287">
        <ele>29.4</ele>
        <time>2020-04-10T09:46:17.000Z</time>
      </trkpt>
      <trkpt lat="47.29429" lon="-2.19291">
        <ele>29.4</ele>
        <time>2020-04-10T09:46:18.000Z</time>
      </trkpt>
      <trkpt lat="47.29425" lon="-2.19295">
        <ele>29.2</ele>
        <time>2020-04-10T09:46:19.000Z</time>
      </trkpt>
      <trkpt lat="47.29421" lon="-2.19298">
        <ele>29.2</ele>
        <time>2020-04-10T09:46:20.000Z</time>
      </trkpt>
      <trkpt lat="47.29417" lon="-2.19303">
        <ele>29.4</ele>
        <time>2020-04-10T09:46:21.000Z</time>
      </trkpt>
      <trkpt lat="47.29412" lon="-2.19306">
        <ele>29.4</ele>
        <time>2020-04-10T09:46:22.000Z</time>
      </trkpt>
      <trkpt lat="47.29408" lon="-2.1931">
        <ele>29.4</ele>
        <time>2020-04-10T09:46:23.000Z</time>
      </trkpt>
      <trkpt lat="47.29404" lon="-2.19314">
        <ele>29.4</ele>
        <time>2020-04-10T09:46:24.000Z</time>
      </trkpt>
      <trkpt lat="47.294" lon="-2.19318">
        <ele>29.4</ele>
        <time>2020-04-10T09:46:25.000Z</time>
      </trkpt>
      <trkpt lat="47.29396" lon="-2.19321">
        <ele>29.4</ele>
        <time>2020-04-10T09:46:26.000Z</time>
      </trkpt>
      <trkpt lat="47.29391" lon="-2.19324">
        <ele>29.4</ele>
        <time>2020-04-10T09:46:27.000Z</time>
      </trkpt>
      <trkpt lat="47.29388" lon="-2.19329">
        <ele>29.4</ele>
        <time>2020-04-10T09:46:28.000Z</time>
      </trkpt>
      <trkpt lat="47.29383" lon="-2.19332">
        <ele>29.2</ele>
        <time>2020-04-10T09:46:29.000Z</time>
      </trkpt>
      <trkpt lat="47.29379" lon="-2.19336">
        <ele>29.4</ele>
        <time>2020-04-10T09:46:30.000Z</time>
      </trkpt>
      <trkpt lat="47.29374" lon="-2.19339">
        <ele>29.4</ele>
        <time>2020-04-10T09:46:31.000Z</time>
      </trkpt>
      <trkpt lat="47.2937" lon="-2.19343">
        <ele>29.6</ele>
        <time>2020-04-10T09:46:32.000Z</time>
      </trkpt>
      <trkpt lat="47.29366" lon="-2.19347">
        <ele>29.4</ele>
        <time>2020-04-10T09:46:33.000Z</time>
      </trkpt>
      <trkpt lat="47.29361" lon="-2.1935">
        <ele>29.4</ele>
        <time>2020-04-10T09:46:34.000Z</time>
      </trkpt>
      <trkpt lat="47.29356" lon="-2.19353">
        <ele>29.4</ele>
        <time>2020-04-10T09:46:35.000Z</time>
      </trkpt>
      <trkpt lat="47.29351" lon="-2.19356">
        <ele>29.2</ele>
        <time>2020-04-10T09:46:36.000Z</time>
      </trkpt>
      <trkpt lat="47.29347" lon="-2.19359">
        <ele>29.4</ele>
        <time>2020-04-10T09:46:37.000Z</time>
      </trkpt>
      <trkpt lat="47.29342" lon="-2.19362">
        <ele>29.4</ele>
        <time>2020-04-10T09:46:38.000Z</time>
      </trkpt>
      <trkpt lat="47.29337" lon="-2.19366">
        <ele>29.4</ele>
        <time>2020-04-10T09:46:39.000Z</time>
      </trkpt>
      <trkpt lat="47.29333" lon="-2.19369">
        <ele>29.4</ele>
        <time>2020-04-10T09:46:40.000Z</time>
      </trkpt>
      <trkpt lat="47.29329" lon="-2.19373">
        <ele>29.4</ele>
        <time>2020-04-10T09:46:41.000Z</time>
      </trkpt>
      <trkpt lat="47.29324" lon="-2.19375">
        <ele>29.2</ele>
        <time>2020-04-10T09:46:42.000Z</time>
      </trkpt>
      <trkpt lat="47.2932" lon="-2.19379">
        <ele>29.4</ele>
        <time>2020-04-10T09:46:43.000Z</time>
      </trkpt>
      <trkpt lat="47.29316" lon="-2.19383">
        <ele>29.4</ele>
        <time>2020-04-10T09:46:44.000Z</time>
      </trkpt>
      <trkpt lat="47.29311" lon="-2.19386">
        <ele>29.4</ele>
        <time>2020-04-10T09:46:45.000Z</time>
      </trkpt>
      <trkpt lat="47.29307" lon="-2.19388">
        <ele>29.2</ele>
        <time>2020-04-10T09:46:46.000Z</time>
      </trkpt>
      <trkpt lat="47.29302" lon="-2.19391">
        <ele>29.4</ele>
        <time>2020-04-10T09:46:47.000Z</time>
      </trkpt>
      <trkpt lat="47.29297" lon="-2.19393">
        <ele>29.2</ele>
        <time>2020-04-10T09:46:48.000Z</time>
      </trkpt>
      <trkpt lat="47.29293" lon="-2.19396">
        <ele>29.4</ele>
        <time>2020-04-10T09:46:49.000Z</time>
      </trkpt>
      <trkpt lat="47.29289" lon="-2.19398">
        <ele>29.2</ele>
        <time>2020-04-10T09:46:50.000Z</time>
      </trkpt>
      <trkpt lat="47.29285" lon="-2.19402">
        <ele>29.2</ele>
        <time>2020-04-10T09:46:51.000Z</time>
      </trkpt>
      <trkpt lat="47.29282" lon="-2.19406">
        <ele>29.4</ele>
        <time>2020-04-10T09:46:52.000Z</time>
      </trkpt>
      <trkpt lat="47.29279" lon="-2.19409">
        <ele>29.4</ele>
        <time>2020-04-10T09:46:53.000Z</time>
      </trkpt>
      <trkpt lat="47.29275" lon="-2.19411">
        <ele>29.6</ele>
        <time>2020-04-10T09:46:54.000Z</time>
      </trkpt>
      <trkpt lat="47.29271" lon="-2.19414">
        <ele>29.4</ele>
        <time>2020-04-10T09:46:55.000Z</time>
      </trkpt>
      <trkpt lat="47.29267" lon="-2.19416">
        <ele>29.6</ele>
        <time>2020-04-10T09:46:56.000Z</time>
      </trkpt>
      <trkpt lat="47.29264" lon="-2.19418">
        <ele>29.8</ele>
        <time>2020-04-10T09:46:57.000Z</time>
      </trkpt>
      <trkpt lat="47.2926" lon="-2.1942">
        <ele>29.8</ele>
        <time>2020-04-10T09:46:58.000Z</time>
      </trkpt>
      <trkpt lat="47.29257" lon="-2.19423">
        <ele>29.6</ele>
        <time>2020-04-10T09:46:59.000Z</time>
      </trkpt>
      <trkpt lat="47.2925" lon="-2.19427">
        <ele>29.6</ele>
        <time>2020-04-10T09:47:01.000Z</time>
      </trkpt>
      <trkpt lat="47.29246" lon="-2.19429">
        <ele>29.4</ele>
        <time>2020-04-10T09:47:02.000Z</time>
      </trkpt>
      <trkpt lat="47.29242" lon="-2.19431">
        <ele>29.4</ele>
        <time>2020-04-10T09:47:03.000Z</time>
      </trkpt>
      <trkpt lat="47.29238" lon="-2.19432">
        <ele>29.6</ele>
        <time>2020-04-10T09:47:04.000Z</time>
      </trkpt>
      <trkpt lat="47.29233" lon="-2.19434">
        <ele>29.4</ele>
        <time>2020-04-10T09:47:05.000Z</time>
      </trkpt>
      <trkpt lat="47.29229" lon="-2.19435">
        <ele>29.6</ele>
        <time>2020-04-10T09:47:06.000Z</time>
      </trkpt>
      <trkpt lat="47.29225" lon="-2.19436">
        <ele>29.6</ele>
        <time>2020-04-10T09:47:07.000Z</time>
      </trkpt>
      <trkpt lat="47.29221" lon="-2.19437">
        <ele>29.8</ele>
        <time>2020-04-10T09:47:08.000Z</time>
      </trkpt>
      <trkpt lat="47.29218" lon="-2.19439">
        <ele>29.6</ele>
        <time>2020-04-10T09:47:09.000Z</time>
      </trkpt>
      <trkpt lat="47.29215" lon="-2.19442">
        <ele>29.6</ele>
        <time>2020-04-10T09:47:10.000Z</time>
      </trkpt>
      <trkpt lat="47.29211" lon="-2.19443">
        <ele>29.6</ele>
        <time>2020-04-10T09:47:11.000Z</time>
      </trkpt>
      <trkpt lat="47.29208" lon="-2.19444">
        <ele>29.4</ele>
        <time>2020-04-10T09:47:12.000Z</time>
      </trkpt>
      <trkpt lat="47.29204" lon="-2.19445">
        <ele>29.6</ele>
        <time>2020-04-10T09:47:13.000Z</time>
      </trkpt>
      <trkpt lat="47.292" lon="-2.19445">
        <ele>29.6</ele>
        <time>2020-04-10T09:47:14.000Z</time>
      </trkpt>
      <trkpt lat="47.29195" lon="-2.19446">
        <ele>29.6</ele>
        <time>2020-04-10T09:47:15.000Z</time>
      </trkpt>
      <trkpt lat="47.29187" lon="-2.19447">
        <ele>29.4</ele>
        <time>2020-04-10T09:47:16.000Z</time>
      </trkpt>
      <trkpt lat="47.29183" lon="-2.19447">
        <ele>29.6</ele>
        <time>2020-04-10T09:47:17.000Z</time>
      </trkpt>
      <trkpt lat="47.29179" lon="-2.19447">
        <ele>29.4</ele>
        <time>2020-04-10T09:47:18.000Z</time>
      </trkpt>
      <trkpt lat="47.29174" lon="-2.19448">
        <ele>29.6</ele>
        <time>2020-04-10T09:47:19.000Z</time>
      </trkpt>
      <trkpt lat="47.29169" lon="-2.1945">
        <ele>29.8</ele>
        <time>2020-04-10T09:47:20.000Z</time>
      </trkpt>
      <trkpt lat="47.29165" lon="-2.19451">
        <ele>29.8</ele>
        <time>2020-04-10T09:47:21.000Z</time>
      </trkpt>
      <trkpt lat="47.29161" lon="-2.19451">
        <ele>29.8</ele>
        <time>2020-04-10T09:47:22.000Z</time>
      </trkpt>
      <trkpt lat="47.29157" lon="-2.19453">
        <ele>29.8</ele>
        <time>2020-04-10T09:47:23.000Z</time>
      </trkpt>
      <trkpt lat="47.29152" lon="-2.19453">
        <ele>29.6</ele>
        <time>2020-04-10T09:47:24.000Z</time>
      </trkpt>
      <trkpt lat="47.29147" lon="-2.19454">
        <ele>29.6</ele>
        <time>2020-04-10T09:47:25.000Z</time>
      </trkpt>
      <trkpt lat="47.29141" lon="-2.19454">
        <ele>29.4</ele>
        <time>2020-04-10T09:47:26.000Z</time>
      </trkpt>
      <trkpt lat="47.29136" lon="-2.19454">
        <ele>29.6</ele>
        <time>2020-04-10T09:47:27.000Z</time>
      </trkpt>
      <trkpt lat="47.2913" lon="-2.19456">
        <ele>29.6</ele>
        <time>2020-04-10T09:47:28.000Z</time>
      </trkpt>
      <trkpt lat="47.29126" lon="-2.19458">
        <ele>29.6</ele>
        <time>2020-04-10T09:47:29.000Z</time>
      </trkpt>
      <trkpt lat="47.29122" lon="-2.19461">
        <ele>29.6</ele>
        <time>2020-04-10T09:47:30.000Z</time>
      </trkpt>
      <trkpt lat="47.29118" lon="-2.19463">
        <ele>29.4</ele>
        <time>2020-04-10T09:47:31.000Z</time>
      </trkpt>
      <trkpt lat="47.29113" lon="-2.19465">
        <ele>29.4</ele>
        <time>2020-04-10T09:47:32.000Z</time>
      </trkpt>
      <trkpt lat="47.29108" lon="-2.19466">
        <ele>29.2</ele>
        <time>2020-04-10T09:47:34.000Z</time>
      </trkpt>
      <trkpt lat="47.29097" lon="-2.19469">
        <ele>29.4</ele>
        <time>2020-04-10T09:47:35.000Z</time>
      </trkpt>
      <trkpt lat="47.29095" lon="-2.19474">
        <ele>29.4</ele>
        <time>2020-04-10T09:47:36.000Z</time>
      </trkpt>
      <trkpt lat="47.29095" lon="-2.1948">
        <ele>29.4</ele>
        <time>2020-04-10T09:47:37.000Z</time>
      </trkpt>
      <trkpt lat="47.29095" lon="-2.19487">
        <ele>29.6</ele>
        <time>2020-04-10T09:47:38.000Z</time>
      </trkpt>
      <trkpt lat="47.29096" lon="-2.19493">
        <ele>29.6</ele>
        <time>2020-04-10T09:47:39.000Z</time>
      </trkpt>
      <trkpt lat="47.29095" lon="-2.19499">
        <ele>29.8</ele>
        <time>2020-04-10T09:47:40.000Z</time>
      </trkpt>
      <trkpt lat="47.29094" lon="-2.19504">
        <ele>29.8</ele>
        <time>2020-04-10T09:47:41.000Z</time>
      </trkpt>
      <trkpt lat="47.29095" lon="-2.19511">
        <ele>29.6</ele>
        <time>2020-04-10T09:47:42.000Z</time>
      </trkpt>
      <trkpt lat="47.29096" lon="-2.19517">
        <ele>29.8</ele>
        <time>2020-04-10T09:47:43.000Z</time>
      </trkpt>
      <trkpt lat="47.29096" lon="-2.19523">
        <ele>29.8</ele>
        <time>2020-04-10T09:47:44.000Z</time>
      </trkpt>
      <trkpt lat="47.29096" lon="-2.19529">
        <ele>29.8</ele>
        <time>2020-04-10T09:47:45.000Z</time>
      </trkpt>
      <trkpt lat="47.29097" lon="-2.19534">
        <ele>29.8</ele>
        <time>2020-04-10T09:47:46.000Z</time>
      </trkpt>
      <trkpt lat="47.29098" lon="-2.1954">
        <ele>29.8</ele>
        <time>2020-04-10T09:47:47.000Z</time>
      </trkpt>
      <trkpt lat="47.29097" lon="-2.19545">
        <ele>30</ele>
        <time>2020-04-10T09:47:48.000Z</time>
      </trkpt>
      <trkpt lat="47.29096" lon="-2.1955">
        <ele>30</ele>
        <time>2020-04-10T09:47:49.000Z</time>
      </trkpt>
      <trkpt lat="47.29093" lon="-2.19553">
        <ele>30</ele>
        <time>2020-04-10T09:47:50.000Z</time>
      </trkpt>
      <trkpt lat="47.29089" lon="-2.19555">
        <ele>30.2</ele>
        <time>2020-04-10T09:47:51.000Z</time>
      </trkpt>
      <trkpt lat="47.29085" lon="-2.19557">
        <ele>30</ele>
        <time>2020-04-10T09:47:52.000Z</time>
      </trkpt>
      <trkpt lat="47.2908" lon="-2.19557">
        <ele>30</ele>
        <time>2020-04-10T09:47:53.000Z</time>
      </trkpt>
      <trkpt lat="47.29076" lon="-2.19558">
        <ele>30</ele>
        <time>2020-04-10T09:47:54.000Z</time>
      </trkpt>
      <trkpt lat="47.29071" lon="-2.19559">
        <ele>30</ele>
        <time>2020-04-10T09:47:55.000Z</time>
      </trkpt>
      <trkpt lat="47.29067" lon="-2.1956">
        <ele>30</ele>
        <time>2020-04-10T09:47:56.000Z</time>
      </trkpt>
      <trkpt lat="47.29062" lon="-2.19561">
        <ele>30</ele>
        <time>2020-04-10T09:47:57.000Z</time>
      </trkpt>
      <trkpt lat="47.29058" lon="-2.19562">
        <ele>30</ele>
        <time>2020-04-10T09:47:58.000Z</time>
      </trkpt>
      <trkpt lat="47.29053" lon="-2.19563">
        <ele>30</ele>
        <time>2020-04-10T09:47:59.000Z</time>
      </trkpt>
      <trkpt lat="47.29048" lon="-2.19564">
        <ele>29.8</ele>
        <time>2020-04-10T09:48:00.000Z</time>
      </trkpt>
      <trkpt lat="47.29044" lon="-2.19565">
        <ele>29.8</ele>
        <time>2020-04-10T09:48:01.000Z</time>
      </trkpt>
      <trkpt lat="47.29039" lon="-2.19567">
        <ele>29.6</ele>
        <time>2020-04-10T09:48:02.000Z</time>
      </trkpt>
      <trkpt lat="47.29035" lon="-2.19568">
        <ele>29.6</ele>
        <time>2020-04-10T09:48:03.000Z</time>
      </trkpt>
      <trkpt lat="47.2903" lon="-2.1957">
        <ele>29.6</ele>
        <time>2020-04-10T09:48:04.000Z</time>
      </trkpt>
      <trkpt lat="47.29025" lon="-2.19572">
        <ele>29.6</ele>
        <time>2020-04-10T09:48:05.000Z</time>
      </trkpt>
      <trkpt lat="47.29023" lon="-2.19577">
        <ele>29.8</ele>
        <time>2020-04-10T09:48:06.000Z</time>
      </trkpt>
      <trkpt lat="47.29021" lon="-2.19583">
        <ele>29.6</ele>
        <time>2020-04-10T09:48:07.000Z</time>
      </trkpt>
      <trkpt lat="47.29021" lon="-2.19589">
        <ele>30</ele>
        <time>2020-04-10T09:48:08.000Z</time>
      </trkpt>
      <trkpt lat="47.29021" lon="-2.19596">
        <ele>29.8</ele>
        <time>2020-04-10T09:48:09.000Z</time>
      </trkpt>
      <trkpt lat="47.29021" lon="-2.19602">
        <ele>30</ele>
        <time>2020-04-10T09:48:10.000Z</time>
      </trkpt>
      <trkpt lat="47.29022" lon="-2.19608">
        <ele>29.8</ele>
        <time>2020-04-10T09:48:11.000Z</time>
      </trkpt>
      <trkpt lat="47.29022" lon="-2.19614">
        <ele>30</ele>
        <time>2020-04-10T09:48:12.000Z</time>
      </trkpt>
      <trkpt lat="47.29022" lon="-2.1962">
        <ele>30.2</ele>
        <time>2020-04-10T09:48:13.000Z</time>
      </trkpt>
      <trkpt lat="47.29021" lon="-2.19624">
        <ele>30</ele>
        <time>2020-04-10T09:48:14.000Z</time>
      </trkpt>
      <trkpt lat="47.2902" lon="-2.19626">
        <ele>29.8</ele>
        <time>2020-04-10T09:48:15.000Z</time>
      </trkpt>
      <trkpt lat="47.29018" lon="-2.19624">
        <ele>30</ele>
        <time>2020-04-10T09:48:16.000Z</time>
      </trkpt>
      <trkpt lat="47.29016" lon="-2.19621">
        <ele>30</ele>
        <time>2020-04-10T09:48:17.000Z</time>
      </trkpt>
      <trkpt lat="47.29016" lon="-2.19616">
        <ele>30</ele>
        <time>2020-04-10T09:48:18.000Z</time>
      </trkpt>
      <trkpt lat="47.29015" lon="-2.19612">
        <ele>30</ele>
        <time>2020-04-10T09:48:19.000Z</time>
      </trkpt>
      <trkpt lat="47.29015" lon="-2.19607">
        <ele>30</ele>
        <time>2020-04-10T09:48:20.000Z</time>
      </trkpt>
      <trkpt lat="47.29014" lon="-2.19602">
        <ele>30.2</ele>
        <time>2020-04-10T09:48:21.000Z</time>
      </trkpt>
      <trkpt lat="47.29014" lon="-2.19596">
        <ele>30</ele>
        <time>2020-04-10T09:48:22.000Z</time>
      </trkpt>
      <trkpt lat="47.29014" lon="-2.1959">
        <ele>30.2</ele>
        <time>2020-04-10T09:48:23.000Z</time>
      </trkpt>
      <trkpt lat="47.29013" lon="-2.19584">
        <ele>30</ele>
        <time>2020-04-10T09:48:24.000Z</time>
      </trkpt>
      <trkpt lat="47.29013" lon="-2.19578">
        <ele>30.2</ele>
        <time>2020-04-10T09:48:25.000Z</time>
      </trkpt>
      <trkpt lat="47.29012" lon="-2.19571">
        <ele>30.2</ele>
        <time>2020-04-10T09:48:26.000Z</time>
      </trkpt>
      <trkpt lat="47.29011" lon="-2.19565">
        <ele>30.2</ele>
        <time>2020-04-10T09:48:27.000Z</time>
      </trkpt>
      <trkpt lat="47.2901" lon="-2.19558">
        <ele>30</ele>
        <time>2020-04-10T09:48:28.000Z</time>
      </trkpt>
      <trkpt lat="47.29009" lon="-2.19552">
        <ele>29.8</ele>
        <time>2020-04-10T09:48:29.000Z</time>
      </trkpt>
      <trkpt lat="47.29008" lon="-2.19545">
        <ele>30</ele>
        <time>2020-04-10T09:48:30.000Z</time>
      </trkpt>
      <trkpt lat="47.29007" lon="-2.19539">
        <ele>30</ele>
        <time>2020-04-10T09:48:31.000Z</time>
      </trkpt>
      <trkpt lat="47.29006" lon="-2.19532">
        <ele>30</ele>
        <time>2020-04-10T09:48:32.000Z</time>
      </trkpt>
      <trkpt lat="47.29005" lon="-2.19526">
        <ele>30</ele>
        <time>2020-04-10T09:48:33.000Z</time>
      </trkpt>
      <trkpt lat="47.29004" lon="-2.19519">
        <ele>29.8</ele>
        <time>2020-04-10T09:48:34.000Z</time>
      </trkpt>
      <trkpt lat="47.29003" lon="-2.19512">
        <ele>29.8</ele>
        <time>2020-04-10T09:48:35.000Z</time>
      </trkpt>
      <trkpt lat="47.29002" lon="-2.19506">
        <ele>30</ele>
        <time>2020-04-10T09:48:36.000Z</time>
      </trkpt>
      <trkpt lat="47.29001" lon="-2.19499">
        <ele>30</ele>
        <time>2020-04-10T09:48:37.000Z</time>
      </trkpt>
      <trkpt lat="47.29" lon="-2.19493">
        <ele>30</ele>
        <time>2020-04-10T09:48:38.000Z</time>
      </trkpt>
      <trkpt lat="47.28999" lon="-2.19487">
        <ele>30</ele>
        <time>2020-04-10T09:48:39.000Z</time>
      </trkpt>
      <trkpt lat="47.28998" lon="-2.19481">
        <ele>29.8</ele>
        <time>2020-04-10T09:48:40.000Z</time>
      </trkpt>
      <trkpt lat="47.28997" lon="-2.19474">
        <ele>30.2</ele>
        <time>2020-04-10T09:48:41.000Z</time>
      </trkpt>
      <trkpt lat="47.28996" lon="-2.19468">
        <ele>30</ele>
        <time>2020-04-10T09:48:42.000Z</time>
      </trkpt>
      <trkpt lat="47.28995" lon="-2.19462">
        <ele>30</ele>
        <time>2020-04-10T09:48:43.000Z</time>
      </trkpt>
      <trkpt lat="47.28994" lon="-2.19456">
        <ele>30</ele>
        <time>2020-04-10T09:48:44.000Z</time>
      </trkpt>
      <trkpt lat="47.28994" lon="-2.1945">
        <ele>30</ele>
        <time>2020-04-10T09:48:45.000Z</time>
      </trkpt>
      <trkpt lat="47.28993" lon="-2.19443">
        <ele>29.8</ele>
        <time>2020-04-10T09:48:46.000Z</time>
      </trkpt>
      <trkpt lat="47.28991" lon="-2.19437">
        <ele>30</ele>
        <time>2020-04-10T09:48:47.000Z</time>
      </trkpt>
      <trkpt lat="47.28991" lon="-2.19431">
        <ele>30</ele>
        <time>2020-04-10T09:48:48.000Z</time>
      </trkpt>
      <trkpt lat="47.2899" lon="-2.19425">
        <ele>30</ele>
        <time>2020-04-10T09:48:49.000Z</time>
      </trkpt>
      <trkpt lat="47.28989" lon="-2.19419">
        <ele>30.2</ele>
        <time>2020-04-10T09:48:50.000Z</time>
      </trkpt>
      <trkpt lat="47.28989" lon="-2.19413">
        <ele>30.2</ele>
        <time>2020-04-10T09:48:51.000Z</time>
      </trkpt>
      <trkpt lat="47.28988" lon="-2.19407">
        <ele>30.2</ele>
        <time>2020-04-10T09:48:52.000Z</time>
      </trkpt>
      <trkpt lat="47.28987" lon="-2.19401">
        <ele>30.2</ele>
        <time>2020-04-10T09:48:53.000Z</time>
      </trkpt>
      <trkpt lat="47.28987" lon="-2.19395">
        <ele>30.4</ele>
        <time>2020-04-10T09:48:54.000Z</time>
      </trkpt>
      <trkpt lat="47.28986" lon="-2.19389">
        <ele>30.4</ele>
        <time>2020-04-10T09:48:55.000Z</time>
      </trkpt>
      <trkpt lat="47.28985" lon="-2.19383">
        <ele>30.4</ele>
        <time>2020-04-10T09:48:56.000Z</time>
      </trkpt>
      <trkpt lat="47.28984" lon="-2.19377">
        <ele>30.2</ele>
        <time>2020-04-10T09:48:57.000Z</time>
      </trkpt>
      <trkpt lat="47.28983" lon="-2.19372">
        <ele>30.4</ele>
        <time>2020-04-10T09:48:58.000Z</time>
      </trkpt>
      <trkpt lat="47.28981" lon="-2.19367">
        <ele>30.2</ele>
        <time>2020-04-10T09:48:59.000Z</time>
      </trkpt>
      <trkpt lat="47.2898" lon="-2.19362">
        <ele>30.2</ele>
        <time>2020-04-10T09:49:00.000Z</time>
      </trkpt>
      <trkpt lat="47.28981" lon="-2.19358">
        <ele>30.2</ele>
        <time>2020-04-10T09:49:01.000Z</time>
      </trkpt>
      <trkpt lat="47.28983" lon="-2.19356">
        <ele>30.2</ele>
        <time>2020-04-10T09:49:02.000Z</time>
      </trkpt>
      <trkpt lat="47.28985" lon="-2.19355">
        <ele>30.4</ele>
        <time>2020-04-10T09:49:03.000Z</time>
      </trkpt>
      <trkpt lat="47.28987" lon="-2.19352">
        <ele>30.2</ele>
        <time>2020-04-10T09:49:04.000Z</time>
      </trkpt>
      <trkpt lat="47.2899" lon="-2.19351">
        <ele>30.4</ele>
        <time>2020-04-10T09:49:05.000Z</time>
      </trkpt>
      <trkpt lat="47.28993" lon="-2.1935">
        <ele>30.4</ele>
        <time>2020-04-10T09:49:06.000Z</time>
      </trkpt>
      <trkpt lat="47.28996" lon="-2.19349">
        <ele>30.2</ele>
        <time>2020-04-10T09:49:07.000Z</time>
      </trkpt>
      <trkpt lat="47.29" lon="-2.19349">
        <ele>30.2</ele>
        <time>2020-04-10T09:49:08.000Z</time>
      </trkpt>
      <trkpt lat="47.29004" lon="-2.19349">
        <ele>30</ele>
        <time>2020-04-10T09:49:09.000Z</time>
      </trkpt>
      <trkpt lat="47.29008" lon="-2.19351">
        <ele>30</ele>
        <time>2020-04-10T09:49:10.000Z</time>
      </trkpt>
      <trkpt lat="47.29011" lon="-2.19352">
        <ele>29.8</ele>
        <time>2020-04-10T09:49:11.000Z</time>
      </trkpt>
      <trkpt lat="47.29015" lon="-2.19354">
        <ele>29.8</ele>
        <time>2020-04-10T09:49:12.000Z</time>
      </trkpt>
      <trkpt lat="47.29019" lon="-2.19356">
        <ele>29.8</ele>
        <time>2020-04-10T09:49:13.000Z</time>
      </trkpt>
      <trkpt lat="47.29023" lon="-2.19358">
        <ele>29.8</ele>
        <time>2020-04-10T09:49:14.000Z</time>
      </trkpt>
      <trkpt lat="47.29027" lon="-2.1936">
        <ele>29.6</ele>
        <time>2020-04-10T09:49:15.000Z</time>
      </trkpt>
      <trkpt lat="47.29031" lon="-2.19361">
        <ele>29.6</ele>
        <time>2020-04-10T09:49:16.000Z</time>
      </trkpt>
      <trkpt lat="47.29035" lon="-2.19363">
        <ele>29.6</ele>
        <time>2020-04-10T09:49:17.000Z</time>
      </trkpt>
      <trkpt lat="47.29039" lon="-2.19365">
        <ele>29.6</ele>
        <time>2020-04-10T09:49:18.000Z</time>
      </trkpt>
      <trkpt lat="47.29043" lon="-2.19367">
        <ele>29.6</ele>
        <time>2020-04-10T09:49:19.000Z</time>
      </trkpt>
      <trkpt lat="47.29047" lon="-2.19369">
        <ele>29.4</ele>
        <time>2020-04-10T09:49:20.000Z</time>
      </trkpt>
      <trkpt lat="47.29051" lon="-2.19371">
        <ele>29.4</ele>
        <time>2020-04-10T09:49:21.000Z</time>
      </trkpt>
      <trkpt lat="47.29054" lon="-2.19372">
        <ele>29.4</ele>
        <time>2020-04-10T09:49:22.000Z</time>
      </trkpt>
      <trkpt lat="47.29058" lon="-2.19374">
        <ele>29.2</ele>
        <time>2020-04-10T09:49:23.000Z</time>
      </trkpt>
      <trkpt lat="47.29062" lon="-2.19375">
        <ele>29.6</ele>
        <time>2020-04-10T09:49:24.000Z</time>
      </trkpt>
      <trkpt lat="47.29066" lon="-2.19377">
        <ele>29.4</ele>
        <time>2020-04-10T09:49:25.000Z</time>
      </trkpt>
      <trkpt lat="47.29069" lon="-2.19378">
        <ele>29.4</ele>
        <time>2020-04-10T09:49:26.000Z</time>
      </trkpt>
      <trkpt lat="47.29073" lon="-2.19381">
        <ele>29.4</ele>
        <time>2020-04-10T09:49:27.000Z</time>
      </trkpt>
      <trkpt lat="47.29078" lon="-2.19383">
        <ele>29.6</ele>
        <time>2020-04-10T09:49:28.000Z</time>
      </trkpt>
      <trkpt lat="47.29082" lon="-2.19386">
        <ele>29.4</ele>
        <time>2020-04-10T09:49:29.000Z</time>
      </trkpt>
      <trkpt lat="47.29086" lon="-2.19388">
        <ele>29.4</ele>
        <time>2020-04-10T09:49:30.000Z</time>
      </trkpt>
      <trkpt lat="47.29089" lon="-2.1939">
        <ele>29.6</ele>
        <time>2020-04-10T09:49:31.000Z</time>
      </trkpt>
      <trkpt lat="47.29093" lon="-2.19392">
        <ele>29.6</ele>
        <time>2020-04-10T09:49:32.000Z</time>
      </trkpt>
      <trkpt lat="47.29096" lon="-2.19394">
        <ele>29.6</ele>
        <time>2020-04-10T09:49:33.000Z</time>
      </trkpt>
      <trkpt lat="47.291" lon="-2.19395">
        <ele>29.6</ele>
        <time>2020-04-10T09:49:34.000Z</time>
      </trkpt>
      <trkpt lat="47.29103" lon="-2.19397">
        <ele>29.4</ele>
        <time>2020-04-10T09:49:35.000Z</time>
      </trkpt>
      <trkpt lat="47.29105" lon="-2.19398">
        <ele>29.4</ele>
        <time>2020-04-10T09:49:36.000Z</time>
      </trkpt>
      <trkpt lat="47.29106" lon="-2.19399">
        <ele>29.4</ele>
        <time>2020-04-10T09:49:37.000Z</time>
      </trkpt>
      <trkpt lat="47.29107" lon="-2.19399">
        <ele>29.6</ele>
        <time>2020-04-10T09:49:38.000Z</time>
      </trkpt>
      <trkpt lat="47.29107" lon="-2.19399">
        <ele>29.4</ele>
        <time>2020-04-10T09:49:39.000Z</time>
      </trkpt>
      <trkpt lat="47.29107" lon="-2.19399">
        <ele>29.6</ele>
        <time>2020-04-10T09:49:40.000Z</time>
      </trkpt>
      <trkpt lat="47.29107" lon="-2.19401">
        <ele>29.4</ele>
        <time>2020-04-10T09:49:44.000Z</time>
      </trkpt>
      <trkpt lat="47.29106" lon="-2.19401">
        <ele>29.2</ele>
        <time>2020-04-10T09:49:45.000Z</time>
      </trkpt>
      <trkpt lat="47.29106" lon="-2.194">
        <ele>29.4</ele>
        <time>2020-04-10T09:49:46.000Z</time>
      </trkpt>
      <trkpt lat="47.29106" lon="-2.19401">
        <ele>29.6</ele>
        <time>2020-04-10T09:49:47.000Z</time>
      </trkpt>
      <trkpt lat="47.29105" lon="-2.19401">
        <ele>29.6</ele>
        <time>2020-04-10T09:49:48.000Z</time>
      </trkpt>
      <trkpt lat="47.29106" lon="-2.194">
        <ele>29.6</ele>
        <time>2020-04-10T09:49:49.000Z</time>
      </trkpt>
      <trkpt lat="47.29106" lon="-2.194">
        <ele>29.6</ele>
        <time>2020-04-10T09:49:50.000Z</time>
      </trkpt>
      <trkpt lat="47.29106" lon="-2.194">
        <ele>29.6</ele>
        <time>2020-04-10T09:49:51.000Z</time>
      </trkpt>
      <trkpt lat="47.29107" lon="-2.194">
        <ele>29.6</ele>
        <time>2020-04-10T09:49:53.000Z</time>
      </trkpt>
      <trkpt lat="47.29107" lon="-2.194">
        <ele>29.6</ele>
        <time>2020-04-10T09:49:54.000Z</time>
      </trkpt>
      <trkpt lat="47.29108" lon="-2.194">
        <ele>29.6</ele>
        <time>2020-04-10T09:49:55.000Z</time>
      </trkpt>
      <trkpt lat="47.29108" lon="-2.194">
        <ele>29.6</ele>
        <time>2020-04-10T09:49:56.000Z</time>
      </trkpt>
      <trkpt lat="47.29108" lon="-2.194">
        <ele>29.6</ele>
        <time>2020-04-10T09:49:57.000Z</time>
      </trkpt>
      <trkpt lat="47.29108" lon="-2.194">
        <ele>29.4</ele>
        <time>2020-04-10T09:49:58.000Z</time>
      </trkpt>
      <trkpt lat="47.2911" lon="-2.19399">
        <ele>29.4</ele>
        <time>2020-04-10T09:50:07.000Z</time>
      </trkpt>
      <trkpt lat="47.29111" lon="-2.194">
        <ele>29.6</ele>
        <time>2020-04-10T09:50:08.000Z</time>
      </trkpt>
      <trkpt lat="47.2911" lon="-2.194">
        <ele>29.4</ele>
        <time>2020-04-10T09:50:09.000Z</time>
      </trkpt>
      <trkpt lat="47.29117" lon="-2.19401">
        <ele>29.6</ele>
        <time>2020-04-10T09:50:37.000Z</time>
      </trkpt>
      <trkpt lat="47.29116" lon="-2.19401">
        <ele>29.4</ele>
        <time>2020-04-10T09:50:38.000Z</time>
      </trkpt>
      <trkpt lat="47.29116" lon="-2.194">
        <ele>29.6</ele>
        <time>2020-04-10T09:50:39.000Z</time>
      </trkpt>
      <trkpt lat="47.29115" lon="-2.19399">
        <ele>29.6</ele>
        <time>2020-04-10T09:50:40.000Z</time>
      </trkpt>
      <trkpt lat="47.29114" lon="-2.19398">
        <ele>29.6</ele>
        <time>2020-04-10T09:50:41.000Z</time>
      </trkpt>
      <trkpt lat="47.29113" lon="-2.19398">
        <ele>29.6</ele>
        <time>2020-04-10T09:50:42.000Z</time>
      </trkpt>
      <trkpt lat="47.29112" lon="-2.19398">
        <ele>29.6</ele>
        <time>2020-04-10T09:50:43.000Z</time>
      </trkpt>
      <trkpt lat="47.2911" lon="-2.19397">
        <ele>29.6</ele>
        <time>2020-04-10T09:50:44.000Z</time>
      </trkpt>
      <trkpt lat="47.29109" lon="-2.19397">
        <ele>29.4</ele>
        <time>2020-04-10T09:50:45.000Z</time>
      </trkpt>
      <trkpt lat="47.29109" lon="-2.19397">
        <ele>29.6</ele>
        <time>2020-04-10T09:50:46.000Z</time>
      </trkpt>
      <trkpt lat="47.29108" lon="-2.19397">
        <ele>29.8</ele>
        <time>2020-04-10T09:50:47.000Z</time>
      </trkpt>
      <trkpt lat="47.29108" lon="-2.19398">
        <ele>29.6</ele>
        <time>2020-04-10T09:50:48.000Z</time>
      </trkpt>
      <trkpt lat="47.29108" lon="-2.19398">
        <ele>29.6</ele>
        <time>2020-04-10T09:50:49.000Z</time>
      </trkpt>
      <trkpt lat="47.29109" lon="-2.19398">
        <ele>29.6</ele>
        <time>2020-04-10T09:50:50.000Z</time>
      </trkpt>
    </trkseg>
  </trk>
</gpx>